<?xml version="1.0" encoding="UTF-8" standalone="no" ?>
<gpx xmlns="http://www.topografix.com/GPX/1/1" xmlns:xsi="http://www.w3.org/2001/XMLSchema-instance" xsi:schemaLocation="http://www.topografix.com/GPX/1/1 http://www.topografix.com/GPX/1/1/gpx.xsd" version="1.1" creator="VisuGPX - https://www.visugpx.com">
  <metadata>
    <name>Aime-Centon-BSM-Les Arcs</name>
    <desc><![CDATA[Départ d'Aime]]></desc>
  </metadata>
  <trk>
    <name><![CDATA[Tracé actuel: 06 AOU 2016 07:36]]></name>
    <trkseg>
      <trkpt lat="45.55579" lon="6.66136">
        <ele>530.3</ele>
        <time>2016-08-06T05:36:04Z</time>
      </trkpt>
      <trkpt lat="45.55583" lon="6.66135">
        <ele>532.71</ele>
        <time>2016-08-06T05:36:34Z</time>
      </trkpt>
      <trkpt lat="45.55584" lon="6.66137">
        <ele>534.63</ele>
        <time>2016-08-06T05:37:06Z</time>
      </trkpt>
      <trkpt lat="45.55583" lon="6.66133">
        <ele>537.99</ele>
        <time>2016-08-06T05:37:49Z</time>
      </trkpt>
      <trkpt lat="45.55578" lon="6.66139">
        <ele>540.4</ele>
        <time>2016-08-06T05:38:26Z</time>
      </trkpt>
      <trkpt lat="45.55584" lon="6.66137">
        <ele>541.84</ele>
        <time>2016-08-06T05:38:53Z</time>
      </trkpt>
      <trkpt lat="45.55582" lon="6.66141">
        <ele>543.76</ele>
        <time>2016-08-06T05:39:21Z</time>
      </trkpt>
      <trkpt lat="45.55582" lon="6.66138">
        <ele>546.17</ele>
        <time>2016-08-06T05:39:48Z</time>
      </trkpt>
      <trkpt lat="45.55585" lon="6.66136">
        <ele>547.61</ele>
        <time>2016-08-06T05:40:08Z</time>
      </trkpt>
      <trkpt lat="45.55583" lon="6.66135">
        <ele>549.05</ele>
        <time>2016-08-06T05:40:23Z</time>
      </trkpt>
      <trkpt lat="45.5559" lon="6.66133">
        <ele>550.97</ele>
        <time>2016-08-06T05:40:54Z</time>
      </trkpt>
      <trkpt lat="45.55584" lon="6.66136">
        <ele>553.38</ele>
        <time>2016-08-06T05:41:31Z</time>
      </trkpt>
      <trkpt lat="45.55584" lon="6.66135">
        <ele>554.82</ele>
        <time>2016-08-06T05:41:58Z</time>
      </trkpt>
      <trkpt lat="45.55584" lon="6.66137">
        <ele>556.26</ele>
        <time>2016-08-06T05:42:23Z</time>
      </trkpt>
      <trkpt lat="45.55581" lon="6.66139">
        <ele>557.7</ele>
        <time>2016-08-06T05:42:48Z</time>
      </trkpt>
      <trkpt lat="45.55585" lon="6.66136">
        <ele>559.62</ele>
        <time>2016-08-06T05:43:18Z</time>
      </trkpt>
      <trkpt lat="45.55589" lon="6.66134">
        <ele>561.07</ele>
        <time>2016-08-06T05:43:45Z</time>
      </trkpt>
      <trkpt lat="45.55584" lon="6.66135">
        <ele>561.55</ele>
        <time>2016-08-06T05:43:53Z</time>
      </trkpt>
      <trkpt lat="45.55599" lon="6.66136">
        <ele>562.03</ele>
        <time>2016-08-06T05:44:02Z</time>
      </trkpt>
      <trkpt lat="45.55618" lon="6.66128">
        <ele>562.51</ele>
        <time>2016-08-06T05:44:09Z</time>
      </trkpt>
      <trkpt lat="45.55618" lon="6.6612">
        <ele>562.51</ele>
        <time>2016-08-06T05:44:12Z</time>
      </trkpt>
      <trkpt lat="45.55617" lon="6.66117">
        <ele>562.51</ele>
        <time>2016-08-06T05:44:13Z</time>
      </trkpt>
      <trkpt lat="45.55616" lon="6.66113">
        <ele>562.51</ele>
        <time>2016-08-06T05:44:14Z</time>
      </trkpt>
      <trkpt lat="45.55614" lon="6.66109">
        <ele>562.51</ele>
        <time>2016-08-06T05:44:15Z</time>
      </trkpt>
      <trkpt lat="45.55611" lon="6.66105">
        <ele>562.99</ele>
        <time>2016-08-06T05:44:16Z</time>
      </trkpt>
      <trkpt lat="45.55608" lon="6.66102">
        <ele>562.99</ele>
        <time>2016-08-06T05:44:17Z</time>
      </trkpt>
      <trkpt lat="45.55605" lon="6.66099">
        <ele>562.99</ele>
        <time>2016-08-06T05:44:18Z</time>
      </trkpt>
      <trkpt lat="45.55602" lon="6.66096">
        <ele>562.99</ele>
        <time>2016-08-06T05:44:19Z</time>
      </trkpt>
      <trkpt lat="45.55587" lon="6.66079">
        <ele>563.47</ele>
        <time>2016-08-06T05:44:24Z</time>
      </trkpt>
      <trkpt lat="45.55586" lon="6.66074">
        <ele>563.47</ele>
        <time>2016-08-06T05:44:25Z</time>
      </trkpt>
      <trkpt lat="45.55586" lon="6.6607">
        <ele>563.95</ele>
        <time>2016-08-06T05:44:26Z</time>
      </trkpt>
      <trkpt lat="45.55587" lon="6.66066">
        <ele>563.95</ele>
        <time>2016-08-06T05:44:27Z</time>
      </trkpt>
      <trkpt lat="45.55588" lon="6.66061">
        <ele>563.95</ele>
        <time>2016-08-06T05:44:28Z</time>
      </trkpt>
      <trkpt lat="45.5561" lon="6.66028">
        <ele>566.35</ele>
        <time>2016-08-06T05:44:38Z</time>
      </trkpt>
      <trkpt lat="45.55618" lon="6.66024">
        <ele>566.35</ele>
        <time>2016-08-06T05:44:40Z</time>
      </trkpt>
      <trkpt lat="45.55622" lon="6.66022">
        <ele>566.83</ele>
        <time>2016-08-06T05:44:41Z</time>
      </trkpt>
      <trkpt lat="45.55626" lon="6.66019">
        <ele>566.83</ele>
        <time>2016-08-06T05:44:42Z</time>
      </trkpt>
      <trkpt lat="45.55647" lon="6.66005">
        <ele>567.8</ele>
        <time>2016-08-06T05:44:47Z</time>
      </trkpt>
      <trkpt lat="45.5565" lon="6.66001">
        <ele>567.8</ele>
        <time>2016-08-06T05:44:48Z</time>
      </trkpt>
      <trkpt lat="45.55653" lon="6.65996">
        <ele>567.8</ele>
        <time>2016-08-06T05:44:49Z</time>
      </trkpt>
      <trkpt lat="45.55655" lon="6.6599">
        <ele>567.8</ele>
        <time>2016-08-06T05:44:50Z</time>
      </trkpt>
      <trkpt lat="45.55657" lon="6.65983">
        <ele>567.8</ele>
        <time>2016-08-06T05:44:51Z</time>
      </trkpt>
      <trkpt lat="45.55658" lon="6.65976">
        <ele>567.8</ele>
        <time>2016-08-06T05:44:52Z</time>
      </trkpt>
      <trkpt lat="45.55658" lon="6.6597">
        <ele>567.8</ele>
        <time>2016-08-06T05:44:53Z</time>
      </trkpt>
      <trkpt lat="45.55658" lon="6.65964">
        <ele>568.28</ele>
        <time>2016-08-06T05:44:54Z</time>
      </trkpt>
      <trkpt lat="45.55661" lon="6.65891">
        <ele>571.64</ele>
        <time>2016-08-06T05:45:07Z</time>
      </trkpt>
      <trkpt lat="45.5566" lon="6.65831">
        <ele>574.53</ele>
        <time>2016-08-06T05:45:20Z</time>
      </trkpt>
      <trkpt lat="45.55665" lon="6.65778">
        <ele>577.89</ele>
        <time>2016-08-06T05:45:32Z</time>
      </trkpt>
      <trkpt lat="45.55672" lon="6.65727">
        <ele>581.25</ele>
        <time>2016-08-06T05:45:45Z</time>
      </trkpt>
      <trkpt lat="45.55676" lon="6.65686">
        <ele>584.62</ele>
        <time>2016-08-06T05:45:56Z</time>
      </trkpt>
      <trkpt lat="45.55693" lon="6.65666">
        <ele>587.5</ele>
        <time>2016-08-06T05:46:06Z</time>
      </trkpt>
      <trkpt lat="45.55721" lon="6.65632">
        <ele>588.95</ele>
        <time>2016-08-06T05:46:18Z</time>
      </trkpt>
      <trkpt lat="45.55733" lon="6.6559">
        <ele>589.91</ele>
        <time>2016-08-06T05:46:25Z</time>
      </trkpt>
      <trkpt lat="45.55735" lon="6.65578">
        <ele>589.91</ele>
        <time>2016-08-06T05:46:27Z</time>
      </trkpt>
      <trkpt lat="45.55746" lon="6.65476">
        <ele>591.35</ele>
        <time>2016-08-06T05:46:42Z</time>
      </trkpt>
      <trkpt lat="45.55744" lon="6.65441">
        <ele>592.31</ele>
        <time>2016-08-06T05:46:47Z</time>
      </trkpt>
      <trkpt lat="45.55743" lon="6.65435">
        <ele>592.31</ele>
        <time>2016-08-06T05:46:48Z</time>
      </trkpt>
      <trkpt lat="45.55713" lon="6.65341">
        <ele>595.67</ele>
        <time>2016-08-06T05:47:03Z</time>
      </trkpt>
      <trkpt lat="45.55704" lon="6.65323">
        <ele>595.67</ele>
        <time>2016-08-06T05:47:06Z</time>
      </trkpt>
      <trkpt lat="45.55702" lon="6.65319">
        <ele>595.67</ele>
        <time>2016-08-06T05:47:07Z</time>
      </trkpt>
      <trkpt lat="45.55698" lon="6.65314">
        <ele>595.67</ele>
        <time>2016-08-06T05:47:08Z</time>
      </trkpt>
      <trkpt lat="45.55686" lon="6.653">
        <ele>595.67</ele>
        <time>2016-08-06T05:47:11Z</time>
      </trkpt>
      <trkpt lat="45.55623" lon="6.65217">
        <ele>593.27</ele>
        <time>2016-08-06T05:47:24Z</time>
      </trkpt>
      <trkpt lat="45.55584" lon="6.65095">
        <ele>589.91</ele>
        <time>2016-08-06T05:47:37Z</time>
      </trkpt>
      <trkpt lat="45.55579" lon="6.65063">
        <ele>589.43</ele>
        <time>2016-08-06T05:47:40Z</time>
      </trkpt>
      <trkpt lat="45.55564" lon="6.64904">
        <ele>587.5</ele>
        <time>2016-08-06T05:47:55Z</time>
      </trkpt>
      <trkpt lat="45.55548" lon="6.64728">
        <ele>584.62</ele>
        <time>2016-08-06T05:48:11Z</time>
      </trkpt>
      <trkpt lat="45.55529" lon="6.6456">
        <ele>581.73</ele>
        <time>2016-08-06T05:48:26Z</time>
      </trkpt>
      <trkpt lat="45.55519" lon="6.64438">
        <ele>579.33</ele>
        <time>2016-08-06T05:48:37Z</time>
      </trkpt>
      <trkpt lat="45.55521" lon="6.64427">
        <ele>579.33</ele>
        <time>2016-08-06T05:48:38Z</time>
      </trkpt>
      <trkpt lat="45.55522" lon="6.64417">
        <ele>579.33</ele>
        <time>2016-08-06T05:48:39Z</time>
      </trkpt>
      <trkpt lat="45.55521" lon="6.64408">
        <ele>579.33</ele>
        <time>2016-08-06T05:48:40Z</time>
      </trkpt>
      <trkpt lat="45.55519" lon="6.64399">
        <ele>579.33</ele>
        <time>2016-08-06T05:48:41Z</time>
      </trkpt>
      <trkpt lat="45.55515" lon="6.6439">
        <ele>579.81</ele>
        <time>2016-08-06T05:48:42Z</time>
      </trkpt>
      <trkpt lat="45.55512" lon="6.64382">
        <ele>579.81</ele>
        <time>2016-08-06T05:48:43Z</time>
      </trkpt>
      <trkpt lat="45.55511" lon="6.64374">
        <ele>579.81</ele>
        <time>2016-08-06T05:48:44Z</time>
      </trkpt>
      <trkpt lat="45.55497" lon="6.6427">
        <ele>581.73</ele>
        <time>2016-08-06T05:48:56Z</time>
      </trkpt>
      <trkpt lat="45.55467" lon="6.64155">
        <ele>584.62</ele>
        <time>2016-08-06T05:49:11Z</time>
      </trkpt>
      <trkpt lat="45.5546" lon="6.64134">
        <ele>585.1</ele>
        <time>2016-08-06T05:49:14Z</time>
      </trkpt>
      <trkpt lat="45.55447" lon="6.64103">
        <ele>585.58</ele>
        <time>2016-08-06T05:49:19Z</time>
      </trkpt>
      <trkpt lat="45.55409" lon="6.64019">
        <ele>588.95</ele>
        <time>2016-08-06T05:49:33Z</time>
      </trkpt>
      <trkpt lat="45.55406" lon="6.64013">
        <ele>589.43</ele>
        <time>2016-08-06T05:49:34Z</time>
      </trkpt>
      <trkpt lat="45.55359" lon="6.6392">
        <ele>591.35</ele>
        <time>2016-08-06T05:49:48Z</time>
      </trkpt>
      <trkpt lat="45.55331" lon="6.63809">
        <ele>592.79</ele>
        <time>2016-08-06T05:50:03Z</time>
      </trkpt>
      <trkpt lat="45.55302" lon="6.63681">
        <ele>592.31</ele>
        <time>2016-08-06T05:50:18Z</time>
      </trkpt>
      <trkpt lat="45.55283" lon="6.63642">
        <ele>594.23</ele>
        <time>2016-08-06T05:50:24Z</time>
      </trkpt>
      <trkpt lat="45.55262" lon="6.6361">
        <ele>596.15</ele>
        <time>2016-08-06T05:50:30Z</time>
      </trkpt>
      <trkpt lat="45.55215" lon="6.6353">
        <ele>599.04</ele>
        <time>2016-08-06T05:50:45Z</time>
      </trkpt>
      <trkpt lat="45.55165" lon="6.63409">
        <ele>601.44</ele>
        <time>2016-08-06T05:51:04Z</time>
      </trkpt>
      <trkpt lat="45.55151" lon="6.6327">
        <ele>603.36</ele>
        <time>2016-08-06T05:51:21Z</time>
      </trkpt>
      <trkpt lat="45.55162" lon="6.63129">
        <ele>604.81</ele>
        <time>2016-08-06T05:51:37Z</time>
      </trkpt>
      <trkpt lat="45.55157" lon="6.62952">
        <ele>607.69</ele>
        <time>2016-08-06T05:51:58Z</time>
      </trkpt>
      <trkpt lat="45.55122" lon="6.62839">
        <ele>610.09</ele>
        <time>2016-08-06T05:52:13Z</time>
      </trkpt>
      <trkpt lat="45.55065" lon="6.62705">
        <ele>611.54</ele>
        <time>2016-08-06T05:52:30Z</time>
      </trkpt>
      <trkpt lat="45.55023" lon="6.62598">
        <ele>608.17</ele>
        <time>2016-08-06T05:52:41Z</time>
      </trkpt>
      <trkpt lat="45.5499" lon="6.62461">
        <ele>606.25</ele>
        <time>2016-08-06T05:52:53Z</time>
      </trkpt>
      <trkpt lat="45.54967" lon="6.62328">
        <ele>606.25</ele>
        <time>2016-08-06T05:53:05Z</time>
      </trkpt>
      <trkpt lat="45.54958" lon="6.62252">
        <ele>606.25</ele>
        <time>2016-08-06T05:53:12Z</time>
      </trkpt>
      <trkpt lat="45.54958" lon="6.62241">
        <ele>606.25</ele>
        <time>2016-08-06T05:53:13Z</time>
      </trkpt>
      <trkpt lat="45.54958" lon="6.6223">
        <ele>606.25</ele>
        <time>2016-08-06T05:53:14Z</time>
      </trkpt>
      <trkpt lat="45.54959" lon="6.62219">
        <ele>606.25</ele>
        <time>2016-08-06T05:53:15Z</time>
      </trkpt>
      <trkpt lat="45.54962" lon="6.62208">
        <ele>605.77</ele>
        <time>2016-08-06T05:53:16Z</time>
      </trkpt>
      <trkpt lat="45.54965" lon="6.62198">
        <ele>605.77</ele>
        <time>2016-08-06T05:53:17Z</time>
      </trkpt>
      <trkpt lat="45.54968" lon="6.62188">
        <ele>605.77</ele>
        <time>2016-08-06T05:53:18Z</time>
      </trkpt>
      <trkpt lat="45.54972" lon="6.62178">
        <ele>605.77</ele>
        <time>2016-08-06T05:53:19Z</time>
      </trkpt>
      <trkpt lat="45.54977" lon="6.6217">
        <ele>605.77</ele>
        <time>2016-08-06T05:53:20Z</time>
      </trkpt>
      <trkpt lat="45.54981" lon="6.62162">
        <ele>605.77</ele>
        <time>2016-08-06T05:53:21Z</time>
      </trkpt>
      <trkpt lat="45.54985" lon="6.62156">
        <ele>605.77</ele>
        <time>2016-08-06T05:53:22Z</time>
      </trkpt>
      <trkpt lat="45.55037" lon="6.62055">
        <ele>605.77</ele>
        <time>2016-08-06T05:53:33Z</time>
      </trkpt>
      <trkpt lat="45.55051" lon="6.61977">
        <ele>605.77</ele>
        <time>2016-08-06T05:53:40Z</time>
      </trkpt>
      <trkpt lat="45.5505" lon="6.61966">
        <ele>605.77</ele>
        <time>2016-08-06T05:53:41Z</time>
      </trkpt>
      <trkpt lat="45.55047" lon="6.61944">
        <ele>605.77</ele>
        <time>2016-08-06T05:53:43Z</time>
      </trkpt>
      <trkpt lat="45.55044" lon="6.61934">
        <ele>605.77</ele>
        <time>2016-08-06T05:53:44Z</time>
      </trkpt>
      <trkpt lat="45.55039" lon="6.61924">
        <ele>605.77</ele>
        <time>2016-08-06T05:53:45Z</time>
      </trkpt>
      <trkpt lat="45.55034" lon="6.61916">
        <ele>605.77</ele>
        <time>2016-08-06T05:53:46Z</time>
      </trkpt>
      <trkpt lat="45.55027" lon="6.61907">
        <ele>606.25</ele>
        <time>2016-08-06T05:53:47Z</time>
      </trkpt>
      <trkpt lat="45.54958" lon="6.61791">
        <ele>603.85</ele>
        <time>2016-08-06T05:54:00Z</time>
      </trkpt>
      <trkpt lat="45.54902" lon="6.61666">
        <ele>602.4</ele>
        <time>2016-08-06T05:54:12Z</time>
      </trkpt>
      <trkpt lat="45.54896" lon="6.61658">
        <ele>602.4</ele>
        <time>2016-08-06T05:54:13Z</time>
      </trkpt>
      <trkpt lat="45.54882" lon="6.61644">
        <ele>601.92</ele>
        <time>2016-08-06T05:54:15Z</time>
      </trkpt>
      <trkpt lat="45.54763" lon="6.61559">
        <ele>599.52</ele>
        <time>2016-08-06T05:54:31Z</time>
      </trkpt>
      <trkpt lat="45.54723" lon="6.61536">
        <ele>599.04</ele>
        <time>2016-08-06T05:54:36Z</time>
      </trkpt>
      <trkpt lat="45.54715" lon="6.61534">
        <ele>598.56</ele>
        <time>2016-08-06T05:54:37Z</time>
      </trkpt>
      <trkpt lat="45.54706" lon="6.61533">
        <ele>598.56</ele>
        <time>2016-08-06T05:54:38Z</time>
      </trkpt>
      <trkpt lat="45.54698" lon="6.61533">
        <ele>598.56</ele>
        <time>2016-08-06T05:54:39Z</time>
      </trkpt>
      <trkpt lat="45.54689" lon="6.61534">
        <ele>598.56</ele>
        <time>2016-08-06T05:54:40Z</time>
      </trkpt>
      <trkpt lat="45.5468" lon="6.61537">
        <ele>598.08</ele>
        <time>2016-08-06T05:54:41Z</time>
      </trkpt>
      <trkpt lat="45.54673" lon="6.6154">
        <ele>598.08</ele>
        <time>2016-08-06T05:54:42Z</time>
      </trkpt>
      <trkpt lat="45.54664" lon="6.61544">
        <ele>597.6</ele>
        <time>2016-08-06T05:54:43Z</time>
      </trkpt>
      <trkpt lat="45.54608" lon="6.61576">
        <ele>597.6</ele>
        <time>2016-08-06T05:54:50Z</time>
      </trkpt>
      <trkpt lat="45.546" lon="6.61577">
        <ele>597.12</ele>
        <time>2016-08-06T05:54:51Z</time>
      </trkpt>
      <trkpt lat="45.54591" lon="6.61578">
        <ele>597.12</ele>
        <time>2016-08-06T05:54:52Z</time>
      </trkpt>
      <trkpt lat="45.54582" lon="6.61577">
        <ele>597.12</ele>
        <time>2016-08-06T05:54:53Z</time>
      </trkpt>
      <trkpt lat="45.54574" lon="6.61575">
        <ele>596.64</ele>
        <time>2016-08-06T05:54:54Z</time>
      </trkpt>
      <trkpt lat="45.54566" lon="6.61571">
        <ele>596.64</ele>
        <time>2016-08-06T05:54:55Z</time>
      </trkpt>
      <trkpt lat="45.54557" lon="6.61568">
        <ele>596.64</ele>
        <time>2016-08-06T05:54:56Z</time>
      </trkpt>
      <trkpt lat="45.54438" lon="6.61521">
        <ele>595.67</ele>
        <time>2016-08-06T05:55:10Z</time>
      </trkpt>
      <trkpt lat="45.54318" lon="6.61474">
        <ele>592.79</ele>
        <time>2016-08-06T05:55:24Z</time>
      </trkpt>
      <trkpt lat="45.54311" lon="6.61467">
        <ele>592.79</ele>
        <time>2016-08-06T05:55:25Z</time>
      </trkpt>
      <trkpt lat="45.54262" lon="6.61412">
        <ele>591.83</ele>
        <time>2016-08-06T05:55:32Z</time>
      </trkpt>
      <trkpt lat="45.54251" lon="6.61391">
        <ele>591.35</ele>
        <time>2016-08-06T05:55:34Z</time>
      </trkpt>
      <trkpt lat="45.54247" lon="6.6138">
        <ele>591.35</ele>
        <time>2016-08-06T05:55:35Z</time>
      </trkpt>
      <trkpt lat="45.54243" lon="6.61368">
        <ele>591.35</ele>
        <time>2016-08-06T05:55:36Z</time>
      </trkpt>
      <trkpt lat="45.54241" lon="6.61357">
        <ele>591.35</ele>
        <time>2016-08-06T05:55:37Z</time>
      </trkpt>
      <trkpt lat="45.54239" lon="6.61345">
        <ele>591.35</ele>
        <time>2016-08-06T05:55:38Z</time>
      </trkpt>
      <trkpt lat="45.54248" lon="6.61186">
        <ele>589.91</ele>
        <time>2016-08-06T05:55:51Z</time>
      </trkpt>
      <trkpt lat="45.54276" lon="6.61051">
        <ele>589.91</ele>
        <time>2016-08-06T05:56:03Z</time>
      </trkpt>
      <trkpt lat="45.54276" lon="6.61039">
        <ele>589.43</ele>
        <time>2016-08-06T05:56:04Z</time>
      </trkpt>
      <trkpt lat="45.54275" lon="6.61028">
        <ele>589.43</ele>
        <time>2016-08-06T05:56:05Z</time>
      </trkpt>
      <trkpt lat="45.54273" lon="6.61016">
        <ele>589.43</ele>
        <time>2016-08-06T05:56:06Z</time>
      </trkpt>
      <trkpt lat="45.54267" lon="6.60994">
        <ele>589.43</ele>
        <time>2016-08-06T05:56:08Z</time>
      </trkpt>
      <trkpt lat="45.54255" lon="6.60963">
        <ele>589.43</ele>
        <time>2016-08-06T05:56:11Z</time>
      </trkpt>
      <trkpt lat="45.54185" lon="6.60831">
        <ele>588.95</ele>
        <time>2016-08-06T05:56:25Z</time>
      </trkpt>
      <trkpt lat="45.5413" lon="6.6064">
        <ele>588.95</ele>
        <time>2016-08-06T05:56:43Z</time>
      </trkpt>
      <trkpt lat="45.54086" lon="6.60476">
        <ele>588.46</ele>
        <time>2016-08-06T05:56:59Z</time>
      </trkpt>
      <trkpt lat="45.54082" lon="6.60467">
        <ele>588.46</ele>
        <time>2016-08-06T05:57:00Z</time>
      </trkpt>
      <trkpt lat="45.54077" lon="6.60459">
        <ele>588.46</ele>
        <time>2016-08-06T05:57:01Z</time>
      </trkpt>
      <trkpt lat="45.54072" lon="6.60451">
        <ele>588.46</ele>
        <time>2016-08-06T05:57:02Z</time>
      </trkpt>
      <trkpt lat="45.54067" lon="6.60444">
        <ele>588.46</ele>
        <time>2016-08-06T05:57:03Z</time>
      </trkpt>
      <trkpt lat="45.54061" lon="6.60437">
        <ele>588.95</ele>
        <time>2016-08-06T05:57:04Z</time>
      </trkpt>
      <trkpt lat="45.53968" lon="6.6034">
        <ele>588.46</ele>
        <time>2016-08-06T05:57:19Z</time>
      </trkpt>
      <trkpt lat="45.53899" lon="6.60213">
        <ele>587.02</ele>
        <time>2016-08-06T05:57:33Z</time>
      </trkpt>
      <trkpt lat="45.53875" lon="6.60142">
        <ele>586.54</ele>
        <time>2016-08-06T05:57:40Z</time>
      </trkpt>
      <trkpt lat="45.53873" lon="6.60132">
        <ele>587.02</ele>
        <time>2016-08-06T05:57:41Z</time>
      </trkpt>
      <trkpt lat="45.53872" lon="6.60121">
        <ele>587.02</ele>
        <time>2016-08-06T05:57:42Z</time>
      </trkpt>
      <trkpt lat="45.53869" lon="6.60112">
        <ele>587.02</ele>
        <time>2016-08-06T05:57:43Z</time>
      </trkpt>
      <trkpt lat="45.53865" lon="6.60102">
        <ele>586.54</ele>
        <time>2016-08-06T05:57:44Z</time>
      </trkpt>
      <trkpt lat="45.53862" lon="6.60093">
        <ele>586.54</ele>
        <time>2016-08-06T05:57:45Z</time>
      </trkpt>
      <trkpt lat="45.53859" lon="6.60083">
        <ele>586.54</ele>
        <time>2016-08-06T05:57:46Z</time>
      </trkpt>
      <trkpt lat="45.53857" lon="6.60073">
        <ele>586.54</ele>
        <time>2016-08-06T05:57:47Z</time>
      </trkpt>
      <trkpt lat="45.53854" lon="6.6006">
        <ele>586.54</ele>
        <time>2016-08-06T05:57:48Z</time>
      </trkpt>
      <trkpt lat="45.53842" lon="6.59896">
        <ele>585.1</ele>
        <time>2016-08-06T05:58:02Z</time>
      </trkpt>
      <trkpt lat="45.53829" lon="6.59708">
        <ele>584.62</ele>
        <time>2016-08-06T05:58:18Z</time>
      </trkpt>
      <trkpt lat="45.53825" lon="6.59695">
        <ele>584.14</ele>
        <time>2016-08-06T05:58:19Z</time>
      </trkpt>
      <trkpt lat="45.53809" lon="6.59657">
        <ele>584.14</ele>
        <time>2016-08-06T05:58:23Z</time>
      </trkpt>
      <trkpt lat="45.53722" lon="6.59561">
        <ele>582.7</ele>
        <time>2016-08-06T05:58:36Z</time>
      </trkpt>
      <trkpt lat="45.53655" lon="6.59456">
        <ele>581.73</ele>
        <time>2016-08-06T05:58:48Z</time>
      </trkpt>
      <trkpt lat="45.53578" lon="6.59375">
        <ele>580.29</ele>
        <time>2016-08-06T05:59:00Z</time>
      </trkpt>
      <trkpt lat="45.53571" lon="6.5937">
        <ele>580.29</ele>
        <time>2016-08-06T05:59:01Z</time>
      </trkpt>
      <trkpt lat="45.53545" lon="6.59349">
        <ele>579.81</ele>
        <time>2016-08-06T05:59:05Z</time>
      </trkpt>
      <trkpt lat="45.53531" lon="6.59327">
        <ele>579.81</ele>
        <time>2016-08-06T05:59:08Z</time>
      </trkpt>
      <trkpt lat="45.53524" lon="6.59314">
        <ele>579.81</ele>
        <time>2016-08-06T05:59:10Z</time>
      </trkpt>
      <trkpt lat="45.5352" lon="6.59308">
        <ele>580.29</ele>
        <time>2016-08-06T05:59:11Z</time>
      </trkpt>
      <trkpt lat="45.53516" lon="6.59304">
        <ele>581.25</ele>
        <time>2016-08-06T05:59:12Z</time>
      </trkpt>
      <trkpt lat="45.53512" lon="6.593">
        <ele>581.73</ele>
        <time>2016-08-06T05:59:13Z</time>
      </trkpt>
      <trkpt lat="45.53508" lon="6.59297">
        <ele>582.22</ele>
        <time>2016-08-06T05:59:14Z</time>
      </trkpt>
      <trkpt lat="45.53474" lon="6.59273">
        <ele>585.58</ele>
        <time>2016-08-06T05:59:25Z</time>
      </trkpt>
      <trkpt lat="45.53451" lon="6.59245">
        <ele>588.95</ele>
        <time>2016-08-06T05:59:36Z</time>
      </trkpt>
      <trkpt lat="45.53436" lon="6.59216">
        <ele>591.83</ele>
        <time>2016-08-06T05:59:46Z</time>
      </trkpt>
      <trkpt lat="45.53414" lon="6.59187">
        <ele>595.19</ele>
        <time>2016-08-06T05:59:58Z</time>
      </trkpt>
      <trkpt lat="45.53391" lon="6.59165">
        <ele>597.6</ele>
        <time>2016-08-06T06:00:09Z</time>
      </trkpt>
      <trkpt lat="45.53389" lon="6.59162">
        <ele>597.6</ele>
        <time>2016-08-06T06:00:10Z</time>
      </trkpt>
      <trkpt lat="45.53387" lon="6.5916">
        <ele>598.08</ele>
        <time>2016-08-06T06:00:11Z</time>
      </trkpt>
      <trkpt lat="45.53385" lon="6.59158">
        <ele>598.56</ele>
        <time>2016-08-06T06:00:12Z</time>
      </trkpt>
      <trkpt lat="45.53382" lon="6.59156">
        <ele>598.56</ele>
        <time>2016-08-06T06:00:13Z</time>
      </trkpt>
      <trkpt lat="45.5338" lon="6.59154">
        <ele>598.56</ele>
        <time>2016-08-06T06:00:14Z</time>
      </trkpt>
      <trkpt lat="45.53356" lon="6.59119">
        <ele>601.92</ele>
        <time>2016-08-06T06:00:27Z</time>
      </trkpt>
      <trkpt lat="45.53342" lon="6.59079">
        <ele>605.29</ele>
        <time>2016-08-06T06:00:39Z</time>
      </trkpt>
      <trkpt lat="45.53324" lon="6.59046">
        <ele>608.17</ele>
        <time>2016-08-06T06:00:51Z</time>
      </trkpt>
      <trkpt lat="45.53301" lon="6.59026">
        <ele>610.57</ele>
        <time>2016-08-06T06:01:01Z</time>
      </trkpt>
      <trkpt lat="45.53301" lon="6.59023">
        <ele>610.57</ele>
        <time>2016-08-06T06:01:02Z</time>
      </trkpt>
      <trkpt lat="45.53301" lon="6.59021">
        <ele>611.06</ele>
        <time>2016-08-06T06:01:03Z</time>
      </trkpt>
      <trkpt lat="45.53303" lon="6.59019">
        <ele>611.06</ele>
        <time>2016-08-06T06:01:04Z</time>
      </trkpt>
      <trkpt lat="45.53305" lon="6.59019">
        <ele>612.02</ele>
        <time>2016-08-06T06:01:05Z</time>
      </trkpt>
      <trkpt lat="45.53307" lon="6.59019">
        <ele>612.02</ele>
        <time>2016-08-06T06:01:06Z</time>
      </trkpt>
      <trkpt lat="45.53309" lon="6.5902">
        <ele>612.02</ele>
        <time>2016-08-06T06:01:07Z</time>
      </trkpt>
      <trkpt lat="45.53311" lon="6.59022">
        <ele>612.5</ele>
        <time>2016-08-06T06:01:08Z</time>
      </trkpt>
      <trkpt lat="45.53313" lon="6.59025">
        <ele>612.5</ele>
        <time>2016-08-06T06:01:09Z</time>
      </trkpt>
      <trkpt lat="45.5334" lon="6.59053">
        <ele>615.86</ele>
        <time>2016-08-06T06:01:21Z</time>
      </trkpt>
      <trkpt lat="45.53369" lon="6.5908">
        <ele>619.23</ele>
        <time>2016-08-06T06:01:34Z</time>
      </trkpt>
      <trkpt lat="45.53393" lon="6.59111">
        <ele>622.11</ele>
        <time>2016-08-06T06:01:46Z</time>
      </trkpt>
      <trkpt lat="45.53417" lon="6.59135">
        <ele>624.99</ele>
        <time>2016-08-06T06:01:57Z</time>
      </trkpt>
      <trkpt lat="45.53448" lon="6.59165">
        <ele>628.36</ele>
        <time>2016-08-06T06:02:11Z</time>
      </trkpt>
      <trkpt lat="45.5347" lon="6.59194">
        <ele>631.72</ele>
        <time>2016-08-06T06:02:22Z</time>
      </trkpt>
      <trkpt lat="45.535" lon="6.59216">
        <ele>634.61</ele>
        <time>2016-08-06T06:02:35Z</time>
      </trkpt>
      <trkpt lat="45.53502" lon="6.59214">
        <ele>635.09</ele>
        <time>2016-08-06T06:02:36Z</time>
      </trkpt>
      <trkpt lat="45.53503" lon="6.59211">
        <ele>635.09</ele>
        <time>2016-08-06T06:02:37Z</time>
      </trkpt>
      <trkpt lat="45.53504" lon="6.59208">
        <ele>635.57</ele>
        <time>2016-08-06T06:02:38Z</time>
      </trkpt>
      <trkpt lat="45.53503" lon="6.59204">
        <ele>635.57</ele>
        <time>2016-08-06T06:02:39Z</time>
      </trkpt>
      <trkpt lat="45.53502" lon="6.59201">
        <ele>636.05</ele>
        <time>2016-08-06T06:02:40Z</time>
      </trkpt>
      <trkpt lat="45.53501" lon="6.59199">
        <ele>636.53</ele>
        <time>2016-08-06T06:02:41Z</time>
      </trkpt>
      <trkpt lat="45.53477" lon="6.59172">
        <ele>638.45</ele>
        <time>2016-08-06T06:02:52Z</time>
      </trkpt>
      <trkpt lat="45.53449" lon="6.59123">
        <ele>641.34</ele>
        <time>2016-08-06T06:03:07Z</time>
      </trkpt>
      <trkpt lat="45.53433" lon="6.59082">
        <ele>644.7</ele>
        <time>2016-08-06T06:03:19Z</time>
      </trkpt>
      <trkpt lat="45.53412" lon="6.59044">
        <ele>648.07</ele>
        <time>2016-08-06T06:03:32Z</time>
      </trkpt>
      <trkpt lat="45.53391" lon="6.59004">
        <ele>651.43</ele>
        <time>2016-08-06T06:03:45Z</time>
      </trkpt>
      <trkpt lat="45.53369" lon="6.58967">
        <ele>654.8</ele>
        <time>2016-08-06T06:03:58Z</time>
      </trkpt>
      <trkpt lat="45.53346" lon="6.58935">
        <ele>657.68</ele>
        <time>2016-08-06T06:04:09Z</time>
      </trkpt>
      <trkpt lat="45.53318" lon="6.58904">
        <ele>661.04</ele>
        <time>2016-08-06T06:04:22Z</time>
      </trkpt>
      <trkpt lat="45.53283" lon="6.58886">
        <ele>663.93</ele>
        <time>2016-08-06T06:04:34Z</time>
      </trkpt>
      <trkpt lat="45.53246" lon="6.58869">
        <ele>667.77</ele>
        <time>2016-08-06T06:04:47Z</time>
      </trkpt>
      <trkpt lat="45.53221" lon="6.58836">
        <ele>670.66</ele>
        <time>2016-08-06T06:04:59Z</time>
      </trkpt>
      <trkpt lat="45.53202" lon="6.5879">
        <ele>674.02</ele>
        <time>2016-08-06T06:05:12Z</time>
      </trkpt>
      <trkpt lat="45.53188" lon="6.58741">
        <ele>677.39</ele>
        <time>2016-08-06T06:05:25Z</time>
      </trkpt>
      <trkpt lat="45.53192" lon="6.58715">
        <ele>678.83</ele>
        <time>2016-08-06T06:05:33Z</time>
      </trkpt>
      <trkpt lat="45.53194" lon="6.58715">
        <ele>679.31</ele>
        <time>2016-08-06T06:05:34Z</time>
      </trkpt>
      <trkpt lat="45.53197" lon="6.58716">
        <ele>679.31</ele>
        <time>2016-08-06T06:05:35Z</time>
      </trkpt>
      <trkpt lat="45.532" lon="6.58717">
        <ele>679.79</ele>
        <time>2016-08-06T06:05:36Z</time>
      </trkpt>
      <trkpt lat="45.53202" lon="6.58719">
        <ele>680.27</ele>
        <time>2016-08-06T06:05:37Z</time>
      </trkpt>
      <trkpt lat="45.53204" lon="6.58722">
        <ele>680.27</ele>
        <time>2016-08-06T06:05:38Z</time>
      </trkpt>
      <trkpt lat="45.53206" lon="6.58724">
        <ele>681.23</ele>
        <time>2016-08-06T06:05:39Z</time>
      </trkpt>
      <trkpt lat="45.53208" lon="6.58727">
        <ele>681.23</ele>
        <time>2016-08-06T06:05:40Z</time>
      </trkpt>
      <trkpt lat="45.53226" lon="6.58743">
        <ele>684.12</ele>
        <time>2016-08-06T06:05:48Z</time>
      </trkpt>
      <trkpt lat="45.53248" lon="6.58766">
        <ele>687</ele>
        <time>2016-08-06T06:05:59Z</time>
      </trkpt>
      <trkpt lat="45.53276" lon="6.58786">
        <ele>690.36</ele>
        <time>2016-08-06T06:06:11Z</time>
      </trkpt>
      <trkpt lat="45.53306" lon="6.588">
        <ele>693.73</ele>
        <time>2016-08-06T06:06:23Z</time>
      </trkpt>
      <trkpt lat="45.53326" lon="6.5881">
        <ele>695.17</ele>
        <time>2016-08-06T06:06:35Z</time>
      </trkpt>
      <trkpt lat="45.53328" lon="6.5881">
        <ele>696.13</ele>
        <time>2016-08-06T06:06:37Z</time>
      </trkpt>
      <trkpt lat="45.53328" lon="6.58808">
        <ele>696.13</ele>
        <time>2016-08-06T06:06:39Z</time>
      </trkpt>
      <trkpt lat="45.53326" lon="6.58806">
        <ele>696.13</ele>
        <time>2016-08-06T06:06:40Z</time>
      </trkpt>
      <trkpt lat="45.53324" lon="6.58806">
        <ele>696.13</ele>
        <time>2016-08-06T06:06:41Z</time>
      </trkpt>
      <trkpt lat="45.53287" lon="6.5879">
        <ele>692.77</ele>
        <time>2016-08-06T06:06:49Z</time>
      </trkpt>
      <trkpt lat="45.53276" lon="6.58788">
        <ele>691.81</ele>
        <time>2016-08-06T06:06:52Z</time>
      </trkpt>
      <trkpt lat="45.53274" lon="6.5879">
        <ele>691.33</ele>
        <time>2016-08-06T06:06:53Z</time>
      </trkpt>
      <trkpt lat="45.53274" lon="6.58794">
        <ele>691.33</ele>
        <time>2016-08-06T06:06:54Z</time>
      </trkpt>
      <trkpt lat="45.53276" lon="6.58797">
        <ele>691.33</ele>
        <time>2016-08-06T06:06:55Z</time>
      </trkpt>
      <trkpt lat="45.5328" lon="6.588">
        <ele>691.33</ele>
        <time>2016-08-06T06:06:56Z</time>
      </trkpt>
      <trkpt lat="45.53282" lon="6.58801">
        <ele>691.33</ele>
        <time>2016-08-06T06:06:57Z</time>
      </trkpt>
      <trkpt lat="45.53286" lon="6.58804">
        <ele>690.36</ele>
        <time>2016-08-06T06:06:58Z</time>
      </trkpt>
      <trkpt lat="45.53294" lon="6.58812">
        <ele>690.36</ele>
        <time>2016-08-06T06:07:00Z</time>
      </trkpt>
      <trkpt lat="45.53298" lon="6.58816">
        <ele>689.88</ele>
        <time>2016-08-06T06:07:01Z</time>
      </trkpt>
      <trkpt lat="45.53339" lon="6.58855">
        <ele>688.44</ele>
        <time>2016-08-06T06:07:10Z</time>
      </trkpt>
      <trkpt lat="45.53374" lon="6.58892">
        <ele>690.36</ele>
        <time>2016-08-06T06:07:18Z</time>
      </trkpt>
      <trkpt lat="45.53392" lon="6.5891">
        <ele>690.84</ele>
        <time>2016-08-06T06:07:22Z</time>
      </trkpt>
      <trkpt lat="45.53451" lon="6.58973">
        <ele>694.21</ele>
        <time>2016-08-06T06:07:37Z</time>
      </trkpt>
      <trkpt lat="45.53473" lon="6.58997">
        <ele>697.57</ele>
        <time>2016-08-06T06:07:46Z</time>
      </trkpt>
      <trkpt lat="45.53496" lon="6.5902">
        <ele>700.94</ele>
        <time>2016-08-06T06:07:56Z</time>
      </trkpt>
      <trkpt lat="45.5352" lon="6.59046">
        <ele>704.3</ele>
        <time>2016-08-06T06:08:06Z</time>
      </trkpt>
      <trkpt lat="45.53528" lon="6.59056">
        <ele>705.75</ele>
        <time>2016-08-06T06:08:10Z</time>
      </trkpt>
      <trkpt lat="45.53553" lon="6.59082">
        <ele>709.11</ele>
        <time>2016-08-06T06:08:21Z</time>
      </trkpt>
      <trkpt lat="45.53595" lon="6.59126">
        <ele>711.51</ele>
        <time>2016-08-06T06:08:35Z</time>
      </trkpt>
      <trkpt lat="45.53641" lon="6.59175">
        <ele>714.88</ele>
        <time>2016-08-06T06:08:50Z</time>
      </trkpt>
      <trkpt lat="45.53675" lon="6.59212">
        <ele>717.76</ele>
        <time>2016-08-06T06:09:02Z</time>
      </trkpt>
      <trkpt lat="45.5371" lon="6.5925">
        <ele>720.16</ele>
        <time>2016-08-06T06:09:14Z</time>
      </trkpt>
      <trkpt lat="45.5377" lon="6.59309">
        <ele>718.24</ele>
        <time>2016-08-06T06:09:27Z</time>
      </trkpt>
      <trkpt lat="45.53847" lon="6.59393">
        <ele>715.84</ele>
        <time>2016-08-06T06:09:41Z</time>
      </trkpt>
      <trkpt lat="45.53884" lon="6.59429">
        <ele>717.76</ele>
        <time>2016-08-06T06:09:48Z</time>
      </trkpt>
      <trkpt lat="45.53932" lon="6.59453">
        <ele>721.13</ele>
        <time>2016-08-06T06:09:58Z</time>
      </trkpt>
      <trkpt lat="45.53959" lon="6.59466">
        <ele>724.49</ele>
        <time>2016-08-06T06:10:06Z</time>
      </trkpt>
      <trkpt lat="45.53965" lon="6.59468">
        <ele>724.97</ele>
        <time>2016-08-06T06:10:08Z</time>
      </trkpt>
      <trkpt lat="45.54003" lon="6.59483">
        <ele>728.34</ele>
        <time>2016-08-06T06:10:20Z</time>
      </trkpt>
      <trkpt lat="45.54015" lon="6.59485">
        <ele>728.34</ele>
        <time>2016-08-06T06:10:23Z</time>
      </trkpt>
      <trkpt lat="45.5402" lon="6.59487">
        <ele>728.34</ele>
        <time>2016-08-06T06:10:24Z</time>
      </trkpt>
      <trkpt lat="45.54025" lon="6.5949">
        <ele>728.34</ele>
        <time>2016-08-06T06:10:25Z</time>
      </trkpt>
      <trkpt lat="45.54029" lon="6.59495">
        <ele>728.34</ele>
        <time>2016-08-06T06:10:26Z</time>
      </trkpt>
      <trkpt lat="45.54033" lon="6.59501">
        <ele>728.34</ele>
        <time>2016-08-06T06:10:27Z</time>
      </trkpt>
      <trkpt lat="45.54035" lon="6.59507">
        <ele>728.82</ele>
        <time>2016-08-06T06:10:28Z</time>
      </trkpt>
      <trkpt lat="45.5404" lon="6.59519">
        <ele>729.3</ele>
        <time>2016-08-06T06:10:30Z</time>
      </trkpt>
      <trkpt lat="45.54044" lon="6.59525">
        <ele>729.3</ele>
        <time>2016-08-06T06:10:31Z</time>
      </trkpt>
      <trkpt lat="45.54048" lon="6.59529">
        <ele>729.3</ele>
        <time>2016-08-06T06:10:32Z</time>
      </trkpt>
      <trkpt lat="45.54052" lon="6.59533">
        <ele>729.3</ele>
        <time>2016-08-06T06:10:33Z</time>
      </trkpt>
      <trkpt lat="45.54057" lon="6.59536">
        <ele>729.3</ele>
        <time>2016-08-06T06:10:34Z</time>
      </trkpt>
      <trkpt lat="45.54062" lon="6.59538">
        <ele>729.3</ele>
        <time>2016-08-06T06:10:35Z</time>
      </trkpt>
      <trkpt lat="45.54067" lon="6.59539">
        <ele>729.3</ele>
        <time>2016-08-06T06:10:36Z</time>
      </trkpt>
      <trkpt lat="45.54072" lon="6.5954">
        <ele>729.3</ele>
        <time>2016-08-06T06:10:37Z</time>
      </trkpt>
      <trkpt lat="45.54078" lon="6.5954">
        <ele>729.3</ele>
        <time>2016-08-06T06:10:38Z</time>
      </trkpt>
      <trkpt lat="45.54099" lon="6.5954">
        <ele>729.3</ele>
        <time>2016-08-06T06:10:42Z</time>
      </trkpt>
      <trkpt lat="45.54105" lon="6.5954">
        <ele>729.3</ele>
        <time>2016-08-06T06:10:43Z</time>
      </trkpt>
      <trkpt lat="45.54123" lon="6.59543">
        <ele>729.78</ele>
        <time>2016-08-06T06:10:46Z</time>
      </trkpt>
      <trkpt lat="45.54129" lon="6.59546">
        <ele>729.78</ele>
        <time>2016-08-06T06:10:47Z</time>
      </trkpt>
      <trkpt lat="45.54133" lon="6.5955">
        <ele>729.78</ele>
        <time>2016-08-06T06:10:48Z</time>
      </trkpt>
      <trkpt lat="45.54137" lon="6.59555">
        <ele>730.26</ele>
        <time>2016-08-06T06:10:49Z</time>
      </trkpt>
      <trkpt lat="45.5414" lon="6.59561">
        <ele>730.26</ele>
        <time>2016-08-06T06:10:50Z</time>
      </trkpt>
      <trkpt lat="45.54143" lon="6.59566">
        <ele>730.74</ele>
        <time>2016-08-06T06:10:51Z</time>
      </trkpt>
      <trkpt lat="45.54158" lon="6.59594">
        <ele>733.14</ele>
        <time>2016-08-06T06:11:01Z</time>
      </trkpt>
      <trkpt lat="45.54155" lon="6.5959">
        <ele>733.14</ele>
        <time>2016-08-06T06:11:04Z</time>
      </trkpt>
      <trkpt lat="45.54146" lon="6.59572">
        <ele>732.18</ele>
        <time>2016-08-06T06:11:09Z</time>
      </trkpt>
      <trkpt lat="45.54145" lon="6.59567">
        <ele>732.18</ele>
        <time>2016-08-06T06:11:19Z</time>
      </trkpt>
      <trkpt lat="45.54144" lon="6.59566">
        <ele>732.66</ele>
        <time>2016-08-06T06:11:36Z</time>
      </trkpt>
      <trkpt lat="45.54146" lon="6.59566">
        <ele>732.66</ele>
        <time>2016-08-06T06:11:50Z</time>
      </trkpt>
      <trkpt lat="45.54145" lon="6.59569">
        <ele>733.14</ele>
        <time>2016-08-06T06:12:16Z</time>
      </trkpt>
      <trkpt lat="45.54145" lon="6.59572">
        <ele>733.62</ele>
        <time>2016-08-06T06:12:24Z</time>
      </trkpt>
      <trkpt lat="45.54145" lon="6.59575">
        <ele>733.62</ele>
        <time>2016-08-06T06:12:25Z</time>
      </trkpt>
      <trkpt lat="45.54146" lon="6.59578">
        <ele>733.62</ele>
        <time>2016-08-06T06:12:26Z</time>
      </trkpt>
      <trkpt lat="45.54147" lon="6.5958">
        <ele>733.62</ele>
        <time>2016-08-06T06:12:27Z</time>
      </trkpt>
      <trkpt lat="45.54149" lon="6.59582">
        <ele>733.62</ele>
        <time>2016-08-06T06:12:28Z</time>
      </trkpt>
      <trkpt lat="45.54153" lon="6.59591">
        <ele>735.07</ele>
        <time>2016-08-06T06:12:31Z</time>
      </trkpt>
      <trkpt lat="45.54189" lon="6.59626">
        <ele>736.03</ele>
        <time>2016-08-06T06:12:42Z</time>
      </trkpt>
      <trkpt lat="45.54197" lon="6.59636">
        <ele>736.03</ele>
        <time>2016-08-06T06:12:44Z</time>
      </trkpt>
      <trkpt lat="45.54201" lon="6.59642">
        <ele>734.58</ele>
        <time>2016-08-06T06:12:45Z</time>
      </trkpt>
      <trkpt lat="45.54203" lon="6.59649">
        <ele>735.07</ele>
        <time>2016-08-06T06:12:46Z</time>
      </trkpt>
      <trkpt lat="45.54206" lon="6.59656">
        <ele>735.07</ele>
        <time>2016-08-06T06:12:47Z</time>
      </trkpt>
      <trkpt lat="45.54207" lon="6.59664">
        <ele>735.07</ele>
        <time>2016-08-06T06:12:48Z</time>
      </trkpt>
      <trkpt lat="45.54208" lon="6.59672">
        <ele>735.07</ele>
        <time>2016-08-06T06:12:49Z</time>
      </trkpt>
      <trkpt lat="45.54211" lon="6.59686">
        <ele>736.51</ele>
        <time>2016-08-06T06:12:51Z</time>
      </trkpt>
      <trkpt lat="45.54212" lon="6.59692">
        <ele>736.51</ele>
        <time>2016-08-06T06:12:52Z</time>
      </trkpt>
      <trkpt lat="45.54215" lon="6.59698">
        <ele>736.99</ele>
        <time>2016-08-06T06:12:53Z</time>
      </trkpt>
      <trkpt lat="45.54218" lon="6.59703">
        <ele>736.99</ele>
        <time>2016-08-06T06:12:54Z</time>
      </trkpt>
      <trkpt lat="45.54221" lon="6.59706">
        <ele>736.99</ele>
        <time>2016-08-06T06:12:55Z</time>
      </trkpt>
      <trkpt lat="45.54226" lon="6.59709">
        <ele>736.99</ele>
        <time>2016-08-06T06:12:56Z</time>
      </trkpt>
      <trkpt lat="45.5423" lon="6.59711">
        <ele>736.99</ele>
        <time>2016-08-06T06:12:57Z</time>
      </trkpt>
      <trkpt lat="45.54236" lon="6.59712">
        <ele>736.99</ele>
        <time>2016-08-06T06:12:58Z</time>
      </trkpt>
      <trkpt lat="45.54242" lon="6.59712">
        <ele>735.55</ele>
        <time>2016-08-06T06:12:59Z</time>
      </trkpt>
      <trkpt lat="45.54248" lon="6.59712">
        <ele>735.55</ele>
        <time>2016-08-06T06:13:00Z</time>
      </trkpt>
      <trkpt lat="45.54262" lon="6.59712">
        <ele>734.58</ele>
        <time>2016-08-06T06:13:02Z</time>
      </trkpt>
      <trkpt lat="45.54276" lon="6.59716">
        <ele>733.62</ele>
        <time>2016-08-06T06:13:04Z</time>
      </trkpt>
      <trkpt lat="45.54283" lon="6.59719">
        <ele>733.62</ele>
        <time>2016-08-06T06:13:05Z</time>
      </trkpt>
      <trkpt lat="45.54296" lon="6.59729">
        <ele>733.14</ele>
        <time>2016-08-06T06:13:07Z</time>
      </trkpt>
      <trkpt lat="45.54301" lon="6.59735">
        <ele>733.14</ele>
        <time>2016-08-06T06:13:08Z</time>
      </trkpt>
      <trkpt lat="45.54305" lon="6.59742">
        <ele>733.14</ele>
        <time>2016-08-06T06:13:09Z</time>
      </trkpt>
      <trkpt lat="45.54309" lon="6.5975">
        <ele>732.66</ele>
        <time>2016-08-06T06:13:10Z</time>
      </trkpt>
      <trkpt lat="45.54312" lon="6.59758">
        <ele>732.66</ele>
        <time>2016-08-06T06:13:11Z</time>
      </trkpt>
      <trkpt lat="45.54315" lon="6.59766">
        <ele>732.66</ele>
        <time>2016-08-06T06:13:12Z</time>
      </trkpt>
      <trkpt lat="45.54319" lon="6.59781">
        <ele>732.66</ele>
        <time>2016-08-06T06:13:14Z</time>
      </trkpt>
      <trkpt lat="45.54322" lon="6.59787">
        <ele>732.66</ele>
        <time>2016-08-06T06:13:15Z</time>
      </trkpt>
      <trkpt lat="45.54325" lon="6.59793">
        <ele>732.66</ele>
        <time>2016-08-06T06:13:16Z</time>
      </trkpt>
      <trkpt lat="45.54329" lon="6.59799">
        <ele>732.66</ele>
        <time>2016-08-06T06:13:17Z</time>
      </trkpt>
      <trkpt lat="45.54333" lon="6.59805">
        <ele>732.66</ele>
        <time>2016-08-06T06:13:18Z</time>
      </trkpt>
      <trkpt lat="45.54338" lon="6.59811">
        <ele>732.18</ele>
        <time>2016-08-06T06:13:19Z</time>
      </trkpt>
      <trkpt lat="45.54367" lon="6.59851">
        <ele>729.3</ele>
        <time>2016-08-06T06:13:24Z</time>
      </trkpt>
      <trkpt lat="45.54434" lon="6.59977">
        <ele>727.37</ele>
        <time>2016-08-06T06:13:38Z</time>
      </trkpt>
      <trkpt lat="45.54504" lon="6.6011">
        <ele>724.97</ele>
        <time>2016-08-06T06:13:54Z</time>
      </trkpt>
      <trkpt lat="45.54507" lon="6.60119">
        <ele>724.97</ele>
        <time>2016-08-06T06:13:55Z</time>
      </trkpt>
      <trkpt lat="45.54513" lon="6.60135">
        <ele>726.41</ele>
        <time>2016-08-06T06:13:57Z</time>
      </trkpt>
      <trkpt lat="45.54517" lon="6.60151">
        <ele>727.37</ele>
        <time>2016-08-06T06:13:59Z</time>
      </trkpt>
      <trkpt lat="45.54519" lon="6.60159">
        <ele>727.37</ele>
        <time>2016-08-06T06:14:00Z</time>
      </trkpt>
      <trkpt lat="45.54521" lon="6.60166">
        <ele>727.86</ele>
        <time>2016-08-06T06:14:01Z</time>
      </trkpt>
      <trkpt lat="45.54527" lon="6.6021">
        <ele>729.78</ele>
        <time>2016-08-06T06:14:08Z</time>
      </trkpt>
      <trkpt lat="45.5453" lon="6.60224">
        <ele>729.78</ele>
        <time>2016-08-06T06:14:10Z</time>
      </trkpt>
      <trkpt lat="45.5454" lon="6.60272">
        <ele>729.78</ele>
        <time>2016-08-06T06:14:16Z</time>
      </trkpt>
      <trkpt lat="45.54547" lon="6.60303">
        <ele>730.26</ele>
        <time>2016-08-06T06:14:20Z</time>
      </trkpt>
      <trkpt lat="45.54551" lon="6.60316">
        <ele>731.7</ele>
        <time>2016-08-06T06:14:22Z</time>
      </trkpt>
      <trkpt lat="45.54553" lon="6.60322">
        <ele>732.18</ele>
        <time>2016-08-06T06:14:23Z</time>
      </trkpt>
      <trkpt lat="45.54557" lon="6.60342">
        <ele>732.66</ele>
        <time>2016-08-06T06:14:28Z</time>
      </trkpt>
      <trkpt lat="45.54557" lon="6.60343">
        <ele>732.66</ele>
        <time>2016-08-06T06:14:29Z</time>
      </trkpt>
      <trkpt lat="45.54557" lon="6.60345">
        <ele>732.66</ele>
        <time>2016-08-06T06:14:30Z</time>
      </trkpt>
      <trkpt lat="45.54557" lon="6.60347">
        <ele>732.66</ele>
        <time>2016-08-06T06:14:31Z</time>
      </trkpt>
      <trkpt lat="45.54558" lon="6.60348">
        <ele>732.66</ele>
        <time>2016-08-06T06:14:32Z</time>
      </trkpt>
      <trkpt lat="45.54559" lon="6.60318">
        <ele>733.14</ele>
        <time>2016-08-06T06:14:42Z</time>
      </trkpt>
      <trkpt lat="45.54568" lon="6.60268">
        <ele>735.55</ele>
        <time>2016-08-06T06:14:55Z</time>
      </trkpt>
      <trkpt lat="45.5457" lon="6.60265">
        <ele>736.51</ele>
        <time>2016-08-06T06:14:56Z</time>
      </trkpt>
      <trkpt lat="45.54573" lon="6.60264">
        <ele>736.51</ele>
        <time>2016-08-06T06:14:57Z</time>
      </trkpt>
      <trkpt lat="45.54575" lon="6.60264">
        <ele>736.51</ele>
        <time>2016-08-06T06:14:58Z</time>
      </trkpt>
      <trkpt lat="45.54577" lon="6.60264">
        <ele>736.99</ele>
        <time>2016-08-06T06:14:59Z</time>
      </trkpt>
      <trkpt lat="45.54579" lon="6.60266">
        <ele>736.99</ele>
        <time>2016-08-06T06:15:00Z</time>
      </trkpt>
      <trkpt lat="45.5458" lon="6.60269">
        <ele>737.47</ele>
        <time>2016-08-06T06:15:01Z</time>
      </trkpt>
      <trkpt lat="45.54581" lon="6.60272">
        <ele>737.47</ele>
        <time>2016-08-06T06:15:02Z</time>
      </trkpt>
      <trkpt lat="45.54594" lon="6.60302">
        <ele>740.35</ele>
        <time>2016-08-06T06:15:12Z</time>
      </trkpt>
      <trkpt lat="45.54596" lon="6.603">
        <ele>740.35</ele>
        <time>2016-08-06T06:15:13Z</time>
      </trkpt>
      <trkpt lat="45.54598" lon="6.60297">
        <ele>740.35</ele>
        <time>2016-08-06T06:15:14Z</time>
      </trkpt>
      <trkpt lat="45.546" lon="6.60293">
        <ele>740.83</ele>
        <time>2016-08-06T06:15:15Z</time>
      </trkpt>
      <trkpt lat="45.54601" lon="6.60289">
        <ele>740.83</ele>
        <time>2016-08-06T06:15:16Z</time>
      </trkpt>
      <trkpt lat="45.54601" lon="6.60285">
        <ele>741.79</ele>
        <time>2016-08-06T06:15:17Z</time>
      </trkpt>
      <trkpt lat="45.54602" lon="6.60281">
        <ele>741.79</ele>
        <time>2016-08-06T06:15:18Z</time>
      </trkpt>
      <trkpt lat="45.54603" lon="6.60236">
        <ele>745.16</ele>
        <time>2016-08-06T06:15:29Z</time>
      </trkpt>
      <trkpt lat="45.54606" lon="6.60208">
        <ele>747.08</ele>
        <time>2016-08-06T06:15:38Z</time>
      </trkpt>
      <trkpt lat="45.54609" lon="6.60206">
        <ele>747.08</ele>
        <time>2016-08-06T06:15:39Z</time>
      </trkpt>
      <trkpt lat="45.54611" lon="6.60207">
        <ele>747.56</ele>
        <time>2016-08-06T06:15:40Z</time>
      </trkpt>
      <trkpt lat="45.54613" lon="6.60208">
        <ele>747.56</ele>
        <time>2016-08-06T06:15:41Z</time>
      </trkpt>
      <trkpt lat="45.54614" lon="6.60211">
        <ele>748.04</ele>
        <time>2016-08-06T06:15:42Z</time>
      </trkpt>
      <trkpt lat="45.54618" lon="6.60219">
        <ele>749</ele>
        <time>2016-08-06T06:15:45Z</time>
      </trkpt>
      <trkpt lat="45.54619" lon="6.60222">
        <ele>749</ele>
        <time>2016-08-06T06:15:46Z</time>
      </trkpt>
      <trkpt lat="45.54641" lon="6.60251">
        <ele>752.37</ele>
        <time>2016-08-06T06:15:58Z</time>
      </trkpt>
      <trkpt lat="45.5467" lon="6.60261">
        <ele>755.25</ele>
        <time>2016-08-06T06:16:09Z</time>
      </trkpt>
      <trkpt lat="45.54682" lon="6.60267">
        <ele>756.21</ele>
        <time>2016-08-06T06:16:14Z</time>
      </trkpt>
      <trkpt lat="45.54685" lon="6.60268">
        <ele>756.21</ele>
        <time>2016-08-06T06:16:15Z</time>
      </trkpt>
      <trkpt lat="45.54687" lon="6.6027">
        <ele>756.69</ele>
        <time>2016-08-06T06:16:16Z</time>
      </trkpt>
      <trkpt lat="45.5469" lon="6.60271">
        <ele>757.18</ele>
        <time>2016-08-06T06:16:17Z</time>
      </trkpt>
      <trkpt lat="45.54693" lon="6.60272">
        <ele>757.18</ele>
        <time>2016-08-06T06:16:18Z</time>
      </trkpt>
      <trkpt lat="45.54695" lon="6.60272">
        <ele>757.18</ele>
        <time>2016-08-06T06:16:19Z</time>
      </trkpt>
      <trkpt lat="45.54719" lon="6.60276">
        <ele>760.54</ele>
        <time>2016-08-06T06:16:30Z</time>
      </trkpt>
      <trkpt lat="45.54747" lon="6.60282">
        <ele>763.42</ele>
        <time>2016-08-06T06:16:42Z</time>
      </trkpt>
      <trkpt lat="45.54764" lon="6.60298">
        <ele>764.87</ele>
        <time>2016-08-06T06:16:49Z</time>
      </trkpt>
      <trkpt lat="45.54767" lon="6.60299">
        <ele>765.35</ele>
        <time>2016-08-06T06:16:50Z</time>
      </trkpt>
      <trkpt lat="45.54769" lon="6.60299">
        <ele>765.83</ele>
        <time>2016-08-06T06:16:51Z</time>
      </trkpt>
      <trkpt lat="45.548" lon="6.60285">
        <ele>769.19</ele>
        <time>2016-08-06T06:17:03Z</time>
      </trkpt>
      <trkpt lat="45.54812" lon="6.60272">
        <ele>770.63</ele>
        <time>2016-08-06T06:17:09Z</time>
      </trkpt>
      <trkpt lat="45.54813" lon="6.60268">
        <ele>770.63</ele>
        <time>2016-08-06T06:17:10Z</time>
      </trkpt>
      <trkpt lat="45.54811" lon="6.60265">
        <ele>771.11</ele>
        <time>2016-08-06T06:17:12Z</time>
      </trkpt>
      <trkpt lat="45.5481" lon="6.60266">
        <ele>771.6</ele>
        <time>2016-08-06T06:17:13Z</time>
      </trkpt>
      <trkpt lat="45.54808" lon="6.60266">
        <ele>771.6</ele>
        <time>2016-08-06T06:17:14Z</time>
      </trkpt>
      <trkpt lat="45.54806" lon="6.60266">
        <ele>771.6</ele>
        <time>2016-08-06T06:17:15Z</time>
      </trkpt>
      <trkpt lat="45.54804" lon="6.60265">
        <ele>771.6</ele>
        <time>2016-08-06T06:17:16Z</time>
      </trkpt>
      <trkpt lat="45.54802" lon="6.60265">
        <ele>772.08</ele>
        <time>2016-08-06T06:17:17Z</time>
      </trkpt>
      <trkpt lat="45.54782" lon="6.60255">
        <ele>774.48</ele>
        <time>2016-08-06T06:17:26Z</time>
      </trkpt>
      <trkpt lat="45.54781" lon="6.60252">
        <ele>775.44</ele>
        <time>2016-08-06T06:17:27Z</time>
      </trkpt>
      <trkpt lat="45.54779" lon="6.60249">
        <ele>775.44</ele>
        <time>2016-08-06T06:17:28Z</time>
      </trkpt>
      <trkpt lat="45.54778" lon="6.60245">
        <ele>775.44</ele>
        <time>2016-08-06T06:17:29Z</time>
      </trkpt>
      <trkpt lat="45.54777" lon="6.60241">
        <ele>775.92</ele>
        <time>2016-08-06T06:17:30Z</time>
      </trkpt>
      <trkpt lat="45.54768" lon="6.60218">
        <ele>778.32</ele>
        <time>2016-08-06T06:17:37Z</time>
      </trkpt>
      <trkpt lat="45.54754" lon="6.60183">
        <ele>780.73</ele>
        <time>2016-08-06T06:17:47Z</time>
      </trkpt>
      <trkpt lat="45.54741" lon="6.60163">
        <ele>782.65</ele>
        <time>2016-08-06T06:17:54Z</time>
      </trkpt>
      <trkpt lat="45.54739" lon="6.6016">
        <ele>782.65</ele>
        <time>2016-08-06T06:17:55Z</time>
      </trkpt>
      <trkpt lat="45.54738" lon="6.60157">
        <ele>783.13</ele>
        <time>2016-08-06T06:17:56Z</time>
      </trkpt>
      <trkpt lat="45.54738" lon="6.60154">
        <ele>783.13</ele>
        <time>2016-08-06T06:17:57Z</time>
      </trkpt>
      <trkpt lat="45.54738" lon="6.60153">
        <ele>784.09</ele>
        <time>2016-08-06T06:17:58Z</time>
      </trkpt>
      <trkpt lat="45.5474" lon="6.60153">
        <ele>784.09</ele>
        <time>2016-08-06T06:17:59Z</time>
      </trkpt>
      <trkpt lat="45.54741" lon="6.60153">
        <ele>784.09</ele>
        <time>2016-08-06T06:18:00Z</time>
      </trkpt>
      <trkpt lat="45.54743" lon="6.60155">
        <ele>784.57</ele>
        <time>2016-08-06T06:18:01Z</time>
      </trkpt>
      <trkpt lat="45.54745" lon="6.60157">
        <ele>784.57</ele>
        <time>2016-08-06T06:18:02Z</time>
      </trkpt>
      <trkpt lat="45.54772" lon="6.60175">
        <ele>787.46</ele>
        <time>2016-08-06T06:18:13Z</time>
      </trkpt>
      <trkpt lat="45.54777" lon="6.60176">
        <ele>787.46</ele>
        <time>2016-08-06T06:18:15Z</time>
      </trkpt>
      <trkpt lat="45.54778" lon="6.60177">
        <ele>788.42</ele>
        <time>2016-08-06T06:18:16Z</time>
      </trkpt>
      <trkpt lat="45.54782" lon="6.60177">
        <ele>788.9</ele>
        <time>2016-08-06T06:18:18Z</time>
      </trkpt>
      <trkpt lat="45.54784" lon="6.60177">
        <ele>788.9</ele>
        <time>2016-08-06T06:18:20Z</time>
      </trkpt>
      <trkpt lat="45.54786" lon="6.60176">
        <ele>789.38</ele>
        <time>2016-08-06T06:18:21Z</time>
      </trkpt>
      <trkpt lat="45.54788" lon="6.60175">
        <ele>789.38</ele>
        <time>2016-08-06T06:18:22Z</time>
      </trkpt>
      <trkpt lat="45.54791" lon="6.60174">
        <ele>789.86</ele>
        <time>2016-08-06T06:18:23Z</time>
      </trkpt>
      <trkpt lat="45.54793" lon="6.60173">
        <ele>789.86</ele>
        <time>2016-08-06T06:18:24Z</time>
      </trkpt>
      <trkpt lat="45.54827" lon="6.60165">
        <ele>793.22</ele>
        <time>2016-08-06T06:18:36Z</time>
      </trkpt>
      <trkpt lat="45.54843" lon="6.60151">
        <ele>794.67</ele>
        <time>2016-08-06T06:18:45Z</time>
      </trkpt>
      <trkpt lat="45.54841" lon="6.6015">
        <ele>795.63</ele>
        <time>2016-08-06T06:18:46Z</time>
      </trkpt>
      <trkpt lat="45.54841" lon="6.6015">
        <ele>795.63</ele>
        <time>2016-08-06T06:18:47Z</time>
      </trkpt>
      <trkpt lat="45.54821" lon="6.60146">
        <ele>797.55</ele>
        <time>2016-08-06T06:18:55Z</time>
      </trkpt>
      <trkpt lat="45.54818" lon="6.60143">
        <ele>797.55</ele>
        <time>2016-08-06T06:18:56Z</time>
      </trkpt>
      <trkpt lat="45.54816" lon="6.60141">
        <ele>797.55</ele>
        <time>2016-08-06T06:18:57Z</time>
      </trkpt>
      <trkpt lat="45.54814" lon="6.60138">
        <ele>798.03</ele>
        <time>2016-08-06T06:18:58Z</time>
      </trkpt>
      <trkpt lat="45.54811" lon="6.60136">
        <ele>798.03</ele>
        <time>2016-08-06T06:18:59Z</time>
      </trkpt>
      <trkpt lat="45.5481" lon="6.60134">
        <ele>798.51</ele>
        <time>2016-08-06T06:19:00Z</time>
      </trkpt>
      <trkpt lat="45.54807" lon="6.60133">
        <ele>798.99</ele>
        <time>2016-08-06T06:19:01Z</time>
      </trkpt>
      <trkpt lat="45.54805" lon="6.60131">
        <ele>798.99</ele>
        <time>2016-08-06T06:19:02Z</time>
      </trkpt>
      <trkpt lat="45.54802" lon="6.60128">
        <ele>798.99</ele>
        <time>2016-08-06T06:19:03Z</time>
      </trkpt>
      <trkpt lat="45.54786" lon="6.60103">
        <ele>801.4</ele>
        <time>2016-08-06T06:19:12Z</time>
      </trkpt>
      <trkpt lat="45.54787" lon="6.60101">
        <ele>801.88</ele>
        <time>2016-08-06T06:19:13Z</time>
      </trkpt>
      <trkpt lat="45.54789" lon="6.60101">
        <ele>802.36</ele>
        <time>2016-08-06T06:19:14Z</time>
      </trkpt>
      <trkpt lat="45.54792" lon="6.60102">
        <ele>802.36</ele>
        <time>2016-08-06T06:19:15Z</time>
      </trkpt>
      <trkpt lat="45.54794" lon="6.60103">
        <ele>802.36</ele>
        <time>2016-08-06T06:19:16Z</time>
      </trkpt>
      <trkpt lat="45.54797" lon="6.60104">
        <ele>802.84</ele>
        <time>2016-08-06T06:19:17Z</time>
      </trkpt>
      <trkpt lat="45.54799" lon="6.60105">
        <ele>803.32</ele>
        <time>2016-08-06T06:19:18Z</time>
      </trkpt>
      <trkpt lat="45.54802" lon="6.60105">
        <ele>803.8</ele>
        <time>2016-08-06T06:19:19Z</time>
      </trkpt>
      <trkpt lat="45.54805" lon="6.60104">
        <ele>803.8</ele>
        <time>2016-08-06T06:19:20Z</time>
      </trkpt>
      <trkpt lat="45.54829" lon="6.60102">
        <ele>806.68</ele>
        <time>2016-08-06T06:19:30Z</time>
      </trkpt>
      <trkpt lat="45.5485" lon="6.60099">
        <ele>808.13</ele>
        <time>2016-08-06T06:19:38Z</time>
      </trkpt>
      <trkpt lat="45.54852" lon="6.60096">
        <ele>808.13</ele>
        <time>2016-08-06T06:19:39Z</time>
      </trkpt>
      <trkpt lat="45.54853" lon="6.60093">
        <ele>808.61</ele>
        <time>2016-08-06T06:19:40Z</time>
      </trkpt>
      <trkpt lat="45.54852" lon="6.6009">
        <ele>809.09</ele>
        <time>2016-08-06T06:19:41Z</time>
      </trkpt>
      <trkpt lat="45.5485" lon="6.60089">
        <ele>809.57</ele>
        <time>2016-08-06T06:19:42Z</time>
      </trkpt>
      <trkpt lat="45.54848" lon="6.60088">
        <ele>809.57</ele>
        <time>2016-08-06T06:19:43Z</time>
      </trkpt>
      <trkpt lat="45.54846" lon="6.60087">
        <ele>809.57</ele>
        <time>2016-08-06T06:19:44Z</time>
      </trkpt>
      <trkpt lat="45.5482" lon="6.60073">
        <ele>813.41</ele>
        <time>2016-08-06T06:19:56Z</time>
      </trkpt>
      <trkpt lat="45.54814" lon="6.60066">
        <ele>813.89</ele>
        <time>2016-08-06T06:19:59Z</time>
      </trkpt>
      <trkpt lat="45.54814" lon="6.60063">
        <ele>813.89</ele>
        <time>2016-08-06T06:20:00Z</time>
      </trkpt>
      <trkpt lat="45.54815" lon="6.6006">
        <ele>814.37</ele>
        <time>2016-08-06T06:20:01Z</time>
      </trkpt>
      <trkpt lat="45.54817" lon="6.60058">
        <ele>814.85</ele>
        <time>2016-08-06T06:20:02Z</time>
      </trkpt>
      <trkpt lat="45.54819" lon="6.60058">
        <ele>814.85</ele>
        <time>2016-08-06T06:20:03Z</time>
      </trkpt>
      <trkpt lat="45.54821" lon="6.60059">
        <ele>814.85</ele>
        <time>2016-08-06T06:20:04Z</time>
      </trkpt>
      <trkpt lat="45.54823" lon="6.60061">
        <ele>815.82</ele>
        <time>2016-08-06T06:20:05Z</time>
      </trkpt>
      <trkpt lat="45.54826" lon="6.60062">
        <ele>815.82</ele>
        <time>2016-08-06T06:20:06Z</time>
      </trkpt>
      <trkpt lat="45.54859" lon="6.60074">
        <ele>818.22</ele>
        <time>2016-08-06T06:20:18Z</time>
      </trkpt>
      <trkpt lat="45.54864" lon="6.60075">
        <ele>819.18</ele>
        <time>2016-08-06T06:20:20Z</time>
      </trkpt>
      <trkpt lat="45.54866" lon="6.60073">
        <ele>819.18</ele>
        <time>2016-08-06T06:20:21Z</time>
      </trkpt>
      <trkpt lat="45.54868" lon="6.60069">
        <ele>819.18</ele>
        <time>2016-08-06T06:20:22Z</time>
      </trkpt>
      <trkpt lat="45.54867" lon="6.60066">
        <ele>819.66</ele>
        <time>2016-08-06T06:20:23Z</time>
      </trkpt>
      <trkpt lat="45.54865" lon="6.60064">
        <ele>820.14</ele>
        <time>2016-08-06T06:20:24Z</time>
      </trkpt>
      <trkpt lat="45.54864" lon="6.60062">
        <ele>820.14</ele>
        <time>2016-08-06T06:20:25Z</time>
      </trkpt>
      <trkpt lat="45.54861" lon="6.60061">
        <ele>820.62</ele>
        <time>2016-08-06T06:20:26Z</time>
      </trkpt>
      <trkpt lat="45.54839" lon="6.60039">
        <ele>823.51</ele>
        <time>2016-08-06T06:20:37Z</time>
      </trkpt>
      <trkpt lat="45.54838" lon="6.60037">
        <ele>823.99</ele>
        <time>2016-08-06T06:20:38Z</time>
      </trkpt>
      <trkpt lat="45.54837" lon="6.60034">
        <ele>823.99</ele>
        <time>2016-08-06T06:20:39Z</time>
      </trkpt>
      <trkpt lat="45.54837" lon="6.6003">
        <ele>823.99</ele>
        <time>2016-08-06T06:20:40Z</time>
      </trkpt>
      <trkpt lat="45.54838" lon="6.60028">
        <ele>824.47</ele>
        <time>2016-08-06T06:20:41Z</time>
      </trkpt>
      <trkpt lat="45.5484" lon="6.60028">
        <ele>824.47</ele>
        <time>2016-08-06T06:20:42Z</time>
      </trkpt>
      <trkpt lat="45.54843" lon="6.60028">
        <ele>824.95</ele>
        <time>2016-08-06T06:20:43Z</time>
      </trkpt>
      <trkpt lat="45.54845" lon="6.60028">
        <ele>824.95</ele>
        <time>2016-08-06T06:20:44Z</time>
      </trkpt>
      <trkpt lat="45.54847" lon="6.6003">
        <ele>825.43</ele>
        <time>2016-08-06T06:20:45Z</time>
      </trkpt>
      <trkpt lat="45.54849" lon="6.60032">
        <ele>825.43</ele>
        <time>2016-08-06T06:20:46Z</time>
      </trkpt>
      <trkpt lat="45.54851" lon="6.60034">
        <ele>825.91</ele>
        <time>2016-08-06T06:20:47Z</time>
      </trkpt>
      <trkpt lat="45.54852" lon="6.60036">
        <ele>825.91</ele>
        <time>2016-08-06T06:20:48Z</time>
      </trkpt>
      <trkpt lat="45.54854" lon="6.60039">
        <ele>826.39</ele>
        <time>2016-08-06T06:20:49Z</time>
      </trkpt>
      <trkpt lat="45.54855" lon="6.60041">
        <ele>826.39</ele>
        <time>2016-08-06T06:20:50Z</time>
      </trkpt>
      <trkpt lat="45.54857" lon="6.60043">
        <ele>827.35</ele>
        <time>2016-08-06T06:20:51Z</time>
      </trkpt>
      <trkpt lat="45.54859" lon="6.60045">
        <ele>827.35</ele>
        <time>2016-08-06T06:20:52Z</time>
      </trkpt>
      <trkpt lat="45.54861" lon="6.60046">
        <ele>827.83</ele>
        <time>2016-08-06T06:20:53Z</time>
      </trkpt>
      <trkpt lat="45.54863" lon="6.60045">
        <ele>827.83</ele>
        <time>2016-08-06T06:20:54Z</time>
      </trkpt>
      <trkpt lat="45.54864" lon="6.60042">
        <ele>828.31</ele>
        <time>2016-08-06T06:20:55Z</time>
      </trkpt>
      <trkpt lat="45.54864" lon="6.60038">
        <ele>828.31</ele>
        <time>2016-08-06T06:20:56Z</time>
      </trkpt>
      <trkpt lat="45.54864" lon="6.60035">
        <ele>828.31</ele>
        <time>2016-08-06T06:20:57Z</time>
      </trkpt>
      <trkpt lat="45.54863" lon="6.60032">
        <ele>829.27</ele>
        <time>2016-08-06T06:20:58Z</time>
      </trkpt>
      <trkpt lat="45.54861" lon="6.60029">
        <ele>829.27</ele>
        <time>2016-08-06T06:20:59Z</time>
      </trkpt>
      <trkpt lat="45.5486" lon="6.60027">
        <ele>830.24</ele>
        <time>2016-08-06T06:21:00Z</time>
      </trkpt>
      <trkpt lat="45.54858" lon="6.60025">
        <ele>830.24</ele>
        <time>2016-08-06T06:21:01Z</time>
      </trkpt>
      <trkpt lat="45.54856" lon="6.60023">
        <ele>830.72</ele>
        <time>2016-08-06T06:21:02Z</time>
      </trkpt>
      <trkpt lat="45.54854" lon="6.60022">
        <ele>831.2</ele>
        <time>2016-08-06T06:21:03Z</time>
      </trkpt>
      <trkpt lat="45.54853" lon="6.60019">
        <ele>831.2</ele>
        <time>2016-08-06T06:21:04Z</time>
      </trkpt>
      <trkpt lat="45.54853" lon="6.60016">
        <ele>831.68</ele>
        <time>2016-08-06T06:21:05Z</time>
      </trkpt>
      <trkpt lat="45.54853" lon="6.60013">
        <ele>831.68</ele>
        <time>2016-08-06T06:21:06Z</time>
      </trkpt>
      <trkpt lat="45.54854" lon="6.60011">
        <ele>831.68</ele>
        <time>2016-08-06T06:21:07Z</time>
      </trkpt>
      <trkpt lat="45.54857" lon="6.60011">
        <ele>832.64</ele>
        <time>2016-08-06T06:21:08Z</time>
      </trkpt>
      <trkpt lat="45.54859" lon="6.60011">
        <ele>832.64</ele>
        <time>2016-08-06T06:21:09Z</time>
      </trkpt>
      <trkpt lat="45.54861" lon="6.60012">
        <ele>832.64</ele>
        <time>2016-08-06T06:21:10Z</time>
      </trkpt>
      <trkpt lat="45.54863" lon="6.60015">
        <ele>833.12</ele>
        <time>2016-08-06T06:21:11Z</time>
      </trkpt>
      <trkpt lat="45.54864" lon="6.60017">
        <ele>833.12</ele>
        <time>2016-08-06T06:21:12Z</time>
      </trkpt>
      <trkpt lat="45.54866" lon="6.60021">
        <ele>833.12</ele>
        <time>2016-08-06T06:21:13Z</time>
      </trkpt>
      <trkpt lat="45.54867" lon="6.60024">
        <ele>833.6</ele>
        <time>2016-08-06T06:21:14Z</time>
      </trkpt>
      <trkpt lat="45.54893" lon="6.60055">
        <ele>836.96</ele>
        <time>2016-08-06T06:21:27Z</time>
      </trkpt>
      <trkpt lat="45.54904" lon="6.60072">
        <ele>838.89</ele>
        <time>2016-08-06T06:21:34Z</time>
      </trkpt>
      <trkpt lat="45.54906" lon="6.60074">
        <ele>838.89</ele>
        <time>2016-08-06T06:21:35Z</time>
      </trkpt>
      <trkpt lat="45.54907" lon="6.60077">
        <ele>839.37</ele>
        <time>2016-08-06T06:21:36Z</time>
      </trkpt>
      <trkpt lat="45.54912" lon="6.60111">
        <ele>842.25</ele>
        <time>2016-08-06T06:21:46Z</time>
      </trkpt>
      <trkpt lat="45.54916" lon="6.60147">
        <ele>845.14</ele>
        <time>2016-08-06T06:21:57Z</time>
      </trkpt>
      <trkpt lat="45.54908" lon="6.60195">
        <ele>847.06</ele>
        <time>2016-08-06T06:22:08Z</time>
      </trkpt>
      <trkpt lat="45.54912" lon="6.60242">
        <ele>849.94</ele>
        <time>2016-08-06T06:22:19Z</time>
      </trkpt>
      <trkpt lat="45.54913" lon="6.60282">
        <ele>853.31</ele>
        <time>2016-08-06T06:22:30Z</time>
      </trkpt>
      <trkpt lat="45.54911" lon="6.60319">
        <ele>856.19</ele>
        <time>2016-08-06T06:22:41Z</time>
      </trkpt>
      <trkpt lat="45.54933" lon="6.60345">
        <ele>859.08</ele>
        <time>2016-08-06T06:22:53Z</time>
      </trkpt>
      <trkpt lat="45.54959" lon="6.60377">
        <ele>861.96</ele>
        <time>2016-08-06T06:23:06Z</time>
      </trkpt>
      <trkpt lat="45.54964" lon="6.60383">
        <ele>862.92</ele>
        <time>2016-08-06T06:23:09Z</time>
      </trkpt>
      <trkpt lat="45.54965" lon="6.60386">
        <ele>862.92</ele>
        <time>2016-08-06T06:23:10Z</time>
      </trkpt>
      <trkpt lat="45.54966" lon="6.60389">
        <ele>863.4</ele>
        <time>2016-08-06T06:23:11Z</time>
      </trkpt>
      <trkpt lat="45.54984" lon="6.60432">
        <ele>866.77</ele>
        <time>2016-08-06T06:23:24Z</time>
      </trkpt>
      <trkpt lat="45.54991" lon="6.60442">
        <ele>868.21</ele>
        <time>2016-08-06T06:23:28Z</time>
      </trkpt>
      <trkpt lat="45.54993" lon="6.60444">
        <ele>868.21</ele>
        <time>2016-08-06T06:23:29Z</time>
      </trkpt>
      <trkpt lat="45.54995" lon="6.60443">
        <ele>868.21</ele>
        <time>2016-08-06T06:23:30Z</time>
      </trkpt>
      <trkpt lat="45.55004" lon="6.60433">
        <ele>869.17</ele>
        <time>2016-08-06T06:23:35Z</time>
      </trkpt>
      <trkpt lat="45.55004" lon="6.6043">
        <ele>869.65</ele>
        <time>2016-08-06T06:23:36Z</time>
      </trkpt>
      <trkpt lat="45.55003" lon="6.60427">
        <ele>869.65</ele>
        <time>2016-08-06T06:23:37Z</time>
      </trkpt>
      <trkpt lat="45.55003" lon="6.60423">
        <ele>870.61</ele>
        <time>2016-08-06T06:23:38Z</time>
      </trkpt>
      <trkpt lat="45.55002" lon="6.6042">
        <ele>870.61</ele>
        <time>2016-08-06T06:23:39Z</time>
      </trkpt>
      <trkpt lat="45.55001" lon="6.60417">
        <ele>871.09</ele>
        <time>2016-08-06T06:23:40Z</time>
      </trkpt>
      <trkpt lat="45.54997" lon="6.60412">
        <ele>871.09</ele>
        <time>2016-08-06T06:23:41Z</time>
      </trkpt>
      <trkpt lat="45.54996" lon="6.60408">
        <ele>871.57</ele>
        <time>2016-08-06T06:23:42Z</time>
      </trkpt>
      <trkpt lat="45.54996" lon="6.60404">
        <ele>871.57</ele>
        <time>2016-08-06T06:23:43Z</time>
      </trkpt>
      <trkpt lat="45.54988" lon="6.60359">
        <ele>874.94</ele>
        <time>2016-08-06T06:23:55Z</time>
      </trkpt>
      <trkpt lat="45.54979" lon="6.60345">
        <ele>877.34</ele>
        <time>2016-08-06T06:24:01Z</time>
      </trkpt>
      <trkpt lat="45.54978" lon="6.60341">
        <ele>877.34</ele>
        <time>2016-08-06T06:24:02Z</time>
      </trkpt>
      <trkpt lat="45.54978" lon="6.60338">
        <ele>877.34</ele>
        <time>2016-08-06T06:24:03Z</time>
      </trkpt>
      <trkpt lat="45.54977" lon="6.60335">
        <ele>877.82</ele>
        <time>2016-08-06T06:24:04Z</time>
      </trkpt>
      <trkpt lat="45.54976" lon="6.60331">
        <ele>878.3</ele>
        <time>2016-08-06T06:24:05Z</time>
      </trkpt>
      <trkpt lat="45.54976" lon="6.60328">
        <ele>878.3</ele>
        <time>2016-08-06T06:24:06Z</time>
      </trkpt>
      <trkpt lat="45.54976" lon="6.60324">
        <ele>878.78</ele>
        <time>2016-08-06T06:24:07Z</time>
      </trkpt>
      <trkpt lat="45.54973" lon="6.60305">
        <ele>879.74</ele>
        <time>2016-08-06T06:24:13Z</time>
      </trkpt>
      <trkpt lat="45.54972" lon="6.60301">
        <ele>880.22</ele>
        <time>2016-08-06T06:24:14Z</time>
      </trkpt>
      <trkpt lat="45.54971" lon="6.60298">
        <ele>880.22</ele>
        <time>2016-08-06T06:24:15Z</time>
      </trkpt>
      <trkpt lat="45.54957" lon="6.60259">
        <ele>883.11</ele>
        <time>2016-08-06T06:24:27Z</time>
      </trkpt>
      <trkpt lat="45.54945" lon="6.60221">
        <ele>885.99</ele>
        <time>2016-08-06T06:24:38Z</time>
      </trkpt>
      <trkpt lat="45.54944" lon="6.60217">
        <ele>885.99</ele>
        <time>2016-08-06T06:24:39Z</time>
      </trkpt>
      <trkpt lat="45.54947" lon="6.6019">
        <ele>889.36</ele>
        <time>2016-08-06T06:24:48Z</time>
      </trkpt>
      <trkpt lat="45.54966" lon="6.6017">
        <ele>892.24</ele>
        <time>2016-08-06T06:24:58Z</time>
      </trkpt>
      <trkpt lat="45.54972" lon="6.60157">
        <ele>893.2</ele>
        <time>2016-08-06T06:25:03Z</time>
      </trkpt>
      <trkpt lat="45.54972" lon="6.60154">
        <ele>893.2</ele>
        <time>2016-08-06T06:25:04Z</time>
      </trkpt>
      <trkpt lat="45.54972" lon="6.6015">
        <ele>893.2</ele>
        <time>2016-08-06T06:25:05Z</time>
      </trkpt>
      <trkpt lat="45.54969" lon="6.60115">
        <ele>895.61</ele>
        <time>2016-08-06T06:25:15Z</time>
      </trkpt>
      <trkpt lat="45.54967" lon="6.60066">
        <ele>899.45</ele>
        <time>2016-08-06T06:25:28Z</time>
      </trkpt>
      <trkpt lat="45.54971" lon="6.60057">
        <ele>900.41</ele>
        <time>2016-08-06T06:25:31Z</time>
      </trkpt>
      <trkpt lat="45.54973" lon="6.60057">
        <ele>900.41</ele>
        <time>2016-08-06T06:25:32Z</time>
      </trkpt>
      <trkpt lat="45.54974" lon="6.60058">
        <ele>900.41</ele>
        <time>2016-08-06T06:25:33Z</time>
      </trkpt>
      <trkpt lat="45.54975" lon="6.60061">
        <ele>901.37</ele>
        <time>2016-08-06T06:25:34Z</time>
      </trkpt>
      <trkpt lat="45.54976" lon="6.60065">
        <ele>901.37</ele>
        <time>2016-08-06T06:25:35Z</time>
      </trkpt>
      <trkpt lat="45.54975" lon="6.60069">
        <ele>901.37</ele>
        <time>2016-08-06T06:25:36Z</time>
      </trkpt>
      <trkpt lat="45.54974" lon="6.60074">
        <ele>901.85</ele>
        <time>2016-08-06T06:25:37Z</time>
      </trkpt>
      <trkpt lat="45.54973" lon="6.60078">
        <ele>901.85</ele>
        <time>2016-08-06T06:25:38Z</time>
      </trkpt>
      <trkpt lat="45.54971" lon="6.60082">
        <ele>902.33</ele>
        <time>2016-08-06T06:25:39Z</time>
      </trkpt>
      <trkpt lat="45.5497" lon="6.60085">
        <ele>902.82</ele>
        <time>2016-08-06T06:25:40Z</time>
      </trkpt>
      <trkpt lat="45.54969" lon="6.60089">
        <ele>902.82</ele>
        <time>2016-08-06T06:25:41Z</time>
      </trkpt>
      <trkpt lat="45.54969" lon="6.60093">
        <ele>903.3</ele>
        <time>2016-08-06T06:25:42Z</time>
      </trkpt>
      <trkpt lat="45.54969" lon="6.60096">
        <ele>903.78</ele>
        <time>2016-08-06T06:25:43Z</time>
      </trkpt>
      <trkpt lat="45.54969" lon="6.60099">
        <ele>903.78</ele>
        <time>2016-08-06T06:25:44Z</time>
      </trkpt>
      <trkpt lat="45.54969" lon="6.60102">
        <ele>904.26</ele>
        <time>2016-08-06T06:25:45Z</time>
      </trkpt>
      <trkpt lat="45.54969" lon="6.60105">
        <ele>904.26</ele>
        <time>2016-08-06T06:25:46Z</time>
      </trkpt>
      <trkpt lat="45.5497" lon="6.60108">
        <ele>904.74</ele>
        <time>2016-08-06T06:25:47Z</time>
      </trkpt>
      <trkpt lat="45.54971" lon="6.60111">
        <ele>905.22</ele>
        <time>2016-08-06T06:25:48Z</time>
      </trkpt>
      <trkpt lat="45.54971" lon="6.60114">
        <ele>905.7</ele>
        <time>2016-08-06T06:25:49Z</time>
      </trkpt>
      <trkpt lat="45.54974" lon="6.60118">
        <ele>906.18</ele>
        <time>2016-08-06T06:25:51Z</time>
      </trkpt>
      <trkpt lat="45.54975" lon="6.6012">
        <ele>906.18</ele>
        <time>2016-08-06T06:25:52Z</time>
      </trkpt>
      <trkpt lat="45.54977" lon="6.60123">
        <ele>906.66</ele>
        <time>2016-08-06T06:25:53Z</time>
      </trkpt>
      <trkpt lat="45.54978" lon="6.60125">
        <ele>906.66</ele>
        <time>2016-08-06T06:25:54Z</time>
      </trkpt>
      <trkpt lat="45.54979" lon="6.60126">
        <ele>907.14</ele>
        <time>2016-08-06T06:25:55Z</time>
      </trkpt>
      <trkpt lat="45.54981" lon="6.60128">
        <ele>907.14</ele>
        <time>2016-08-06T06:25:56Z</time>
      </trkpt>
      <trkpt lat="45.54982" lon="6.6013">
        <ele>907.62</ele>
        <time>2016-08-06T06:25:57Z</time>
      </trkpt>
      <trkpt lat="45.54984" lon="6.60131">
        <ele>907.62</ele>
        <time>2016-08-06T06:25:58Z</time>
      </trkpt>
      <trkpt lat="45.54986" lon="6.60135">
        <ele>908.1</ele>
        <time>2016-08-06T06:26:00Z</time>
      </trkpt>
      <trkpt lat="45.54988" lon="6.60142">
        <ele>909.06</ele>
        <time>2016-08-06T06:26:03Z</time>
      </trkpt>
      <trkpt lat="45.54988" lon="6.60146">
        <ele>909.06</ele>
        <time>2016-08-06T06:26:04Z</time>
      </trkpt>
      <trkpt lat="45.54988" lon="6.60149">
        <ele>909.54</ele>
        <time>2016-08-06T06:26:05Z</time>
      </trkpt>
      <trkpt lat="45.54988" lon="6.60153">
        <ele>909.54</ele>
        <time>2016-08-06T06:26:06Z</time>
      </trkpt>
      <trkpt lat="45.54988" lon="6.60156">
        <ele>910.51</ele>
        <time>2016-08-06T06:26:07Z</time>
      </trkpt>
      <trkpt lat="45.54988" lon="6.60159">
        <ele>910.51</ele>
        <time>2016-08-06T06:26:08Z</time>
      </trkpt>
      <trkpt lat="45.54982" lon="6.60198">
        <ele>913.87</ele>
        <time>2016-08-06T06:26:19Z</time>
      </trkpt>
      <trkpt lat="45.54983" lon="6.60201">
        <ele>913.87</ele>
        <time>2016-08-06T06:26:20Z</time>
      </trkpt>
      <trkpt lat="45.54985" lon="6.60204">
        <ele>914.35</ele>
        <time>2016-08-06T06:26:21Z</time>
      </trkpt>
      <trkpt lat="45.54987" lon="6.60206">
        <ele>914.35</ele>
        <time>2016-08-06T06:26:22Z</time>
      </trkpt>
      <trkpt lat="45.55011" lon="6.60221">
        <ele>917.72</ele>
        <time>2016-08-06T06:26:33Z</time>
      </trkpt>
      <trkpt lat="45.55028" lon="6.60245">
        <ele>921.08</ele>
        <time>2016-08-06T06:26:43Z</time>
      </trkpt>
      <trkpt lat="45.55045" lon="6.60274">
        <ele>923.96</ele>
        <time>2016-08-06T06:26:55Z</time>
      </trkpt>
      <trkpt lat="45.55076" lon="6.60284">
        <ele>927.33</ele>
        <time>2016-08-06T06:27:07Z</time>
      </trkpt>
      <trkpt lat="45.55085" lon="6.60317">
        <ele>930.21</ele>
        <time>2016-08-06T06:27:18Z</time>
      </trkpt>
      <trkpt lat="45.55082" lon="6.60356">
        <ele>933.1</ele>
        <time>2016-08-06T06:27:29Z</time>
      </trkpt>
      <trkpt lat="45.5509" lon="6.60375">
        <ele>934.54</ele>
        <time>2016-08-06T06:27:35Z</time>
      </trkpt>
      <trkpt lat="45.55106" lon="6.60412">
        <ele>937.9</ele>
        <time>2016-08-06T06:27:47Z</time>
      </trkpt>
      <trkpt lat="45.55116" lon="6.60452">
        <ele>940.79</ele>
        <time>2016-08-06T06:27:59Z</time>
      </trkpt>
      <trkpt lat="45.55132" lon="6.60487">
        <ele>943.67</ele>
        <time>2016-08-06T06:28:11Z</time>
      </trkpt>
      <trkpt lat="45.55151" lon="6.60515">
        <ele>947.52</ele>
        <time>2016-08-06T06:28:21Z</time>
      </trkpt>
      <trkpt lat="45.55171" lon="6.60548">
        <ele>950.88</ele>
        <time>2016-08-06T06:28:33Z</time>
      </trkpt>
      <trkpt lat="45.5519" lon="6.60569">
        <ele>953.28</ele>
        <time>2016-08-06T06:28:43Z</time>
      </trkpt>
      <trkpt lat="45.55192" lon="6.60571">
        <ele>953.77</ele>
        <time>2016-08-06T06:28:44Z</time>
      </trkpt>
      <trkpt lat="45.55193" lon="6.60574">
        <ele>953.77</ele>
        <time>2016-08-06T06:28:45Z</time>
      </trkpt>
      <trkpt lat="45.55213" lon="6.60598">
        <ele>957.13</ele>
        <time>2016-08-06T06:28:56Z</time>
      </trkpt>
      <trkpt lat="45.55236" lon="6.60617">
        <ele>960.49</ele>
        <time>2016-08-06T06:29:08Z</time>
      </trkpt>
      <trkpt lat="45.55247" lon="6.6061">
        <ele>961.94</ele>
        <time>2016-08-06T06:29:14Z</time>
      </trkpt>
      <trkpt lat="45.55247" lon="6.60606">
        <ele>961.94</ele>
        <time>2016-08-06T06:29:15Z</time>
      </trkpt>
      <trkpt lat="45.55246" lon="6.60602">
        <ele>961.94</ele>
        <time>2016-08-06T06:29:16Z</time>
      </trkpt>
      <trkpt lat="45.55244" lon="6.606">
        <ele>962.42</ele>
        <time>2016-08-06T06:29:17Z</time>
      </trkpt>
      <trkpt lat="45.55241" lon="6.60598">
        <ele>962.42</ele>
        <time>2016-08-06T06:29:18Z</time>
      </trkpt>
      <trkpt lat="45.55239" lon="6.60596">
        <ele>962.9</ele>
        <time>2016-08-06T06:29:19Z</time>
      </trkpt>
      <trkpt lat="45.55237" lon="6.60594">
        <ele>962.9</ele>
        <time>2016-08-06T06:29:20Z</time>
      </trkpt>
      <trkpt lat="45.55235" lon="6.60592">
        <ele>963.38</ele>
        <time>2016-08-06T06:29:21Z</time>
      </trkpt>
      <trkpt lat="45.55224" lon="6.60556">
        <ele>966.74</ele>
        <time>2016-08-06T06:29:32Z</time>
      </trkpt>
      <trkpt lat="45.5522" lon="6.60515">
        <ele>969.63</ele>
        <time>2016-08-06T06:29:44Z</time>
      </trkpt>
      <trkpt lat="45.55222" lon="6.60476">
        <ele>972.99</ele>
        <time>2016-08-06T06:29:56Z</time>
      </trkpt>
      <trkpt lat="45.55222" lon="6.60435">
        <ele>976.36</ele>
        <time>2016-08-06T06:30:08Z</time>
      </trkpt>
      <trkpt lat="45.55205" lon="6.60395">
        <ele>979.72</ele>
        <time>2016-08-06T06:30:21Z</time>
      </trkpt>
      <trkpt lat="45.55205" lon="6.60386">
        <ele>980.2</ele>
        <time>2016-08-06T06:30:24Z</time>
      </trkpt>
      <trkpt lat="45.55207" lon="6.60384">
        <ele>980.2</ele>
        <time>2016-08-06T06:30:25Z</time>
      </trkpt>
      <trkpt lat="45.55209" lon="6.60384">
        <ele>980.68</ele>
        <time>2016-08-06T06:30:26Z</time>
      </trkpt>
      <trkpt lat="45.55211" lon="6.60385">
        <ele>980.68</ele>
        <time>2016-08-06T06:30:27Z</time>
      </trkpt>
      <trkpt lat="45.55213" lon="6.60388">
        <ele>981.16</ele>
        <time>2016-08-06T06:30:28Z</time>
      </trkpt>
      <trkpt lat="45.55215" lon="6.60391">
        <ele>981.64</ele>
        <time>2016-08-06T06:30:29Z</time>
      </trkpt>
      <trkpt lat="45.55216" lon="6.60395">
        <ele>981.64</ele>
        <time>2016-08-06T06:30:30Z</time>
      </trkpt>
      <trkpt lat="45.55218" lon="6.60398">
        <ele>981.64</ele>
        <time>2016-08-06T06:30:31Z</time>
      </trkpt>
      <trkpt lat="45.5522" lon="6.604">
        <ele>982.12</ele>
        <time>2016-08-06T06:30:32Z</time>
      </trkpt>
      <trkpt lat="45.55247" lon="6.60439">
        <ele>985.49</ele>
        <time>2016-08-06T06:30:47Z</time>
      </trkpt>
      <trkpt lat="45.55261" lon="6.6048">
        <ele>988.85</ele>
        <time>2016-08-06T06:31:00Z</time>
      </trkpt>
      <trkpt lat="45.55271" lon="6.60517">
        <ele>992.22</ele>
        <time>2016-08-06T06:31:11Z</time>
      </trkpt>
      <trkpt lat="45.55288" lon="6.60538">
        <ele>995.1</ele>
        <time>2016-08-06T06:31:21Z</time>
      </trkpt>
      <trkpt lat="45.55311" lon="6.60545">
        <ele>998.47</ele>
        <time>2016-08-06T06:31:31Z</time>
      </trkpt>
      <trkpt lat="45.55334" lon="6.60549">
        <ele>1001.83</ele>
        <time>2016-08-06T06:31:42Z</time>
      </trkpt>
      <trkpt lat="45.5536" lon="6.60547">
        <ele>1004.72</ele>
        <time>2016-08-06T06:31:53Z</time>
      </trkpt>
      <trkpt lat="45.55363" lon="6.6055">
        <ele>1005.2</ele>
        <time>2016-08-06T06:31:55Z</time>
      </trkpt>
      <trkpt lat="45.55373" lon="6.60595">
        <ele>1007.6</ele>
        <time>2016-08-06T06:32:07Z</time>
      </trkpt>
      <trkpt lat="45.55392" lon="6.60625">
        <ele>1010.96</ele>
        <time>2016-08-06T06:32:18Z</time>
      </trkpt>
      <trkpt lat="45.55409" lon="6.60649">
        <ele>1013.85</ele>
        <time>2016-08-06T06:32:29Z</time>
      </trkpt>
      <trkpt lat="45.55429" lon="6.60678">
        <ele>1017.21</ele>
        <time>2016-08-06T06:32:41Z</time>
      </trkpt>
      <trkpt lat="45.55446" lon="6.6071">
        <ele>1020.58</ele>
        <time>2016-08-06T06:32:52Z</time>
      </trkpt>
      <trkpt lat="45.55462" lon="6.60734">
        <ele>1022.98</ele>
        <time>2016-08-06T06:33:01Z</time>
      </trkpt>
      <trkpt lat="45.55481" lon="6.60765">
        <ele>1026.34</ele>
        <time>2016-08-06T06:33:13Z</time>
      </trkpt>
      <trkpt lat="45.555" lon="6.60797">
        <ele>1029.71</ele>
        <time>2016-08-06T06:33:25Z</time>
      </trkpt>
      <trkpt lat="45.55515" lon="6.60834">
        <ele>1033.55</ele>
        <time>2016-08-06T06:33:37Z</time>
      </trkpt>
      <trkpt lat="45.55535" lon="6.60858">
        <ele>1036.44</ele>
        <time>2016-08-06T06:33:48Z</time>
      </trkpt>
      <trkpt lat="45.55536" lon="6.60859">
        <ele>1036.44</ele>
        <time>2016-08-06T06:33:49Z</time>
      </trkpt>
      <trkpt lat="45.55537" lon="6.60861">
        <ele>1036.92</ele>
        <time>2016-08-06T06:33:50Z</time>
      </trkpt>
      <trkpt lat="45.55538" lon="6.60862">
        <ele>1036.92</ele>
        <time>2016-08-06T06:33:51Z</time>
      </trkpt>
      <trkpt lat="45.5554" lon="6.60863">
        <ele>1037.4</ele>
        <time>2016-08-06T06:33:52Z</time>
      </trkpt>
      <trkpt lat="45.55542" lon="6.60864">
        <ele>1037.88</ele>
        <time>2016-08-06T06:33:53Z</time>
      </trkpt>
      <trkpt lat="45.55544" lon="6.60865">
        <ele>1037.88</ele>
        <time>2016-08-06T06:33:54Z</time>
      </trkpt>
      <trkpt lat="45.55546" lon="6.60867">
        <ele>1038.36</ele>
        <time>2016-08-06T06:33:55Z</time>
      </trkpt>
      <trkpt lat="45.5557" lon="6.60885">
        <ele>1041.73</ele>
        <time>2016-08-06T06:34:05Z</time>
      </trkpt>
      <trkpt lat="45.55578" lon="6.60893">
        <ele>1043.17</ele>
        <time>2016-08-06T06:34:09Z</time>
      </trkpt>
      <trkpt lat="45.55579" lon="6.60897">
        <ele>1043.17</ele>
        <time>2016-08-06T06:34:10Z</time>
      </trkpt>
      <trkpt lat="45.55593" lon="6.60924">
        <ele>1046.53</ele>
        <time>2016-08-06T06:34:20Z</time>
      </trkpt>
      <trkpt lat="45.55605" lon="6.6096">
        <ele>1049.42</ele>
        <time>2016-08-06T06:34:31Z</time>
      </trkpt>
      <trkpt lat="45.55616" lon="6.6099">
        <ele>1052.3</ele>
        <time>2016-08-06T06:34:41Z</time>
      </trkpt>
      <trkpt lat="45.55629" lon="6.61022">
        <ele>1055.67</ele>
        <time>2016-08-06T06:34:52Z</time>
      </trkpt>
      <trkpt lat="45.55644" lon="6.61056">
        <ele>1059.03</ele>
        <time>2016-08-06T06:35:03Z</time>
      </trkpt>
      <trkpt lat="45.55659" lon="6.61082">
        <ele>1061.91</ele>
        <time>2016-08-06T06:35:13Z</time>
      </trkpt>
      <trkpt lat="45.55677" lon="6.611">
        <ele>1065.28</ele>
        <time>2016-08-06T06:35:23Z</time>
      </trkpt>
      <trkpt lat="45.55679" lon="6.61102">
        <ele>1065.76</ele>
        <time>2016-08-06T06:35:24Z</time>
      </trkpt>
      <trkpt lat="45.5569" lon="6.61114">
        <ele>1067.68</ele>
        <time>2016-08-06T06:35:30Z</time>
      </trkpt>
      <trkpt lat="45.5569" lon="6.61117">
        <ele>1067.68</ele>
        <time>2016-08-06T06:35:31Z</time>
      </trkpt>
      <trkpt lat="45.55691" lon="6.61121">
        <ele>1068.16</ele>
        <time>2016-08-06T06:35:32Z</time>
      </trkpt>
      <trkpt lat="45.55694" lon="6.61162">
        <ele>1071.53</ele>
        <time>2016-08-06T06:35:45Z</time>
      </trkpt>
      <trkpt lat="45.55695" lon="6.61164">
        <ele>1071.53</ele>
        <time>2016-08-06T06:35:46Z</time>
      </trkpt>
      <trkpt lat="45.55696" lon="6.61164">
        <ele>1071.53</ele>
        <time>2016-08-06T06:35:47Z</time>
      </trkpt>
      <trkpt lat="45.55697" lon="6.61163">
        <ele>1071.53</ele>
        <time>2016-08-06T06:35:48Z</time>
      </trkpt>
      <trkpt lat="45.55697" lon="6.61161">
        <ele>1071.53</ele>
        <time>2016-08-06T06:35:49Z</time>
      </trkpt>
      <trkpt lat="45.55696" lon="6.61158">
        <ele>1071.53</ele>
        <time>2016-08-06T06:35:50Z</time>
      </trkpt>
      <trkpt lat="45.55695" lon="6.61156">
        <ele>1071.53</ele>
        <time>2016-08-06T06:35:51Z</time>
      </trkpt>
      <trkpt lat="45.55692" lon="6.61154">
        <ele>1071.53</ele>
        <time>2016-08-06T06:35:52Z</time>
      </trkpt>
      <trkpt lat="45.55688" lon="6.61157">
        <ele>1070.57</ele>
        <time>2016-08-06T06:35:53Z</time>
      </trkpt>
      <trkpt lat="45.55685" lon="6.6116">
        <ele>1070.57</ele>
        <time>2016-08-06T06:35:54Z</time>
      </trkpt>
      <trkpt lat="45.55682" lon="6.61163">
        <ele>1070.08</ele>
        <time>2016-08-06T06:35:55Z</time>
      </trkpt>
      <trkpt lat="45.55658" lon="6.61185">
        <ele>1067.68</ele>
        <time>2016-08-06T06:36:00Z</time>
      </trkpt>
      <trkpt lat="45.55654" lon="6.6119">
        <ele>1067.68</ele>
        <time>2016-08-06T06:36:01Z</time>
      </trkpt>
      <trkpt lat="45.55651" lon="6.61196">
        <ele>1067.68</ele>
        <time>2016-08-06T06:36:02Z</time>
      </trkpt>
      <trkpt lat="45.55649" lon="6.61203">
        <ele>1066.72</ele>
        <time>2016-08-06T06:36:03Z</time>
      </trkpt>
      <trkpt lat="45.5565" lon="6.6121">
        <ele>1066.24</ele>
        <time>2016-08-06T06:36:04Z</time>
      </trkpt>
      <trkpt lat="45.55652" lon="6.61218">
        <ele>1066.24</ele>
        <time>2016-08-06T06:36:05Z</time>
      </trkpt>
      <trkpt lat="45.55654" lon="6.61225">
        <ele>1065.28</ele>
        <time>2016-08-06T06:36:06Z</time>
      </trkpt>
      <trkpt lat="45.55657" lon="6.6123">
        <ele>1064.8</ele>
        <time>2016-08-06T06:36:07Z</time>
      </trkpt>
      <trkpt lat="45.5566" lon="6.61236">
        <ele>1064.8</ele>
        <time>2016-08-06T06:36:08Z</time>
      </trkpt>
      <trkpt lat="45.55663" lon="6.61241">
        <ele>1064.32</ele>
        <time>2016-08-06T06:36:09Z</time>
      </trkpt>
      <trkpt lat="45.55687" lon="6.61282">
        <ele>1060.95</ele>
        <time>2016-08-06T06:36:15Z</time>
      </trkpt>
      <trkpt lat="45.55696" lon="6.61301">
        <ele>1059.03</ele>
        <time>2016-08-06T06:36:17Z</time>
      </trkpt>
      <trkpt lat="45.557" lon="6.61312">
        <ele>1058.55</ele>
        <time>2016-08-06T06:36:18Z</time>
      </trkpt>
      <trkpt lat="45.55703" lon="6.61323">
        <ele>1057.59</ele>
        <time>2016-08-06T06:36:19Z</time>
      </trkpt>
      <trkpt lat="45.55705" lon="6.61333">
        <ele>1057.11</ele>
        <time>2016-08-06T06:36:20Z</time>
      </trkpt>
      <trkpt lat="45.55707" lon="6.61342">
        <ele>1056.15</ele>
        <time>2016-08-06T06:36:21Z</time>
      </trkpt>
      <trkpt lat="45.55711" lon="6.61349">
        <ele>1055.67</ele>
        <time>2016-08-06T06:36:22Z</time>
      </trkpt>
      <trkpt lat="45.55717" lon="6.61353">
        <ele>1055.18</ele>
        <time>2016-08-06T06:36:23Z</time>
      </trkpt>
      <trkpt lat="45.55725" lon="6.61355">
        <ele>1053.74</ele>
        <time>2016-08-06T06:36:24Z</time>
      </trkpt>
      <trkpt lat="45.55733" lon="6.61356">
        <ele>1053.26</ele>
        <time>2016-08-06T06:36:25Z</time>
      </trkpt>
      <trkpt lat="45.55761" lon="6.61358">
        <ele>1049.9</ele>
        <time>2016-08-06T06:36:28Z</time>
      </trkpt>
      <trkpt lat="45.55771" lon="6.61361">
        <ele>1048.45</ele>
        <time>2016-08-06T06:36:29Z</time>
      </trkpt>
      <trkpt lat="45.55801" lon="6.61372">
        <ele>1045.57</ele>
        <time>2016-08-06T06:36:32Z</time>
      </trkpt>
      <trkpt lat="45.55831" lon="6.61384">
        <ele>1043.17</ele>
        <time>2016-08-06T06:36:35Z</time>
      </trkpt>
      <trkpt lat="45.55839" lon="6.61386">
        <ele>1041.73</ele>
        <time>2016-08-06T06:36:36Z</time>
      </trkpt>
      <trkpt lat="45.55848" lon="6.61384">
        <ele>1041.25</ele>
        <time>2016-08-06T06:36:37Z</time>
      </trkpt>
      <trkpt lat="45.55856" lon="6.6138">
        <ele>1040.76</ele>
        <time>2016-08-06T06:36:38Z</time>
      </trkpt>
      <trkpt lat="45.55863" lon="6.61373">
        <ele>1039.8</ele>
        <time>2016-08-06T06:36:39Z</time>
      </trkpt>
      <trkpt lat="45.5587" lon="6.61367">
        <ele>1039.8</ele>
        <time>2016-08-06T06:36:40Z</time>
      </trkpt>
      <trkpt lat="45.55882" lon="6.61357">
        <ele>1038.36</ele>
        <time>2016-08-06T06:36:42Z</time>
      </trkpt>
      <trkpt lat="45.55889" lon="6.61356">
        <ele>1037.4</ele>
        <time>2016-08-06T06:36:43Z</time>
      </trkpt>
      <trkpt lat="45.55895" lon="6.61357">
        <ele>1036.92</ele>
        <time>2016-08-06T06:36:44Z</time>
      </trkpt>
      <trkpt lat="45.55899" lon="6.61361">
        <ele>1036.44</ele>
        <time>2016-08-06T06:36:45Z</time>
      </trkpt>
      <trkpt lat="45.55902" lon="6.6137">
        <ele>1035.96</ele>
        <time>2016-08-06T06:36:46Z</time>
      </trkpt>
      <trkpt lat="45.55904" lon="6.61381">
        <ele>1035.96</ele>
        <time>2016-08-06T06:36:47Z</time>
      </trkpt>
      <trkpt lat="45.55905" lon="6.61393">
        <ele>1035.96</ele>
        <time>2016-08-06T06:36:48Z</time>
      </trkpt>
      <trkpt lat="45.55904" lon="6.61413">
        <ele>1035.48</ele>
        <time>2016-08-06T06:36:50Z</time>
      </trkpt>
      <trkpt lat="45.559" lon="6.61418">
        <ele>1035</ele>
        <time>2016-08-06T06:36:51Z</time>
      </trkpt>
      <trkpt lat="45.55891" lon="6.61421">
        <ele>1035</ele>
        <time>2016-08-06T06:36:52Z</time>
      </trkpt>
      <trkpt lat="45.5587" lon="6.61437">
        <ele>1034.04</ele>
        <time>2016-08-06T06:36:55Z</time>
      </trkpt>
      <trkpt lat="45.55865" lon="6.61445">
        <ele>1034.04</ele>
        <time>2016-08-06T06:36:56Z</time>
      </trkpt>
      <trkpt lat="45.55849" lon="6.6147">
        <ele>1033.55</ele>
        <time>2016-08-06T06:36:59Z</time>
      </trkpt>
      <trkpt lat="45.55843" lon="6.61478">
        <ele>1032.59</ele>
        <time>2016-08-06T06:37:00Z</time>
      </trkpt>
      <trkpt lat="45.55837" lon="6.61484">
        <ele>1032.59</ele>
        <time>2016-08-06T06:37:01Z</time>
      </trkpt>
      <trkpt lat="45.55811" lon="6.61511">
        <ele>1032.59</ele>
        <time>2016-08-06T06:37:05Z</time>
      </trkpt>
      <trkpt lat="45.55806" lon="6.6152">
        <ele>1032.11</ele>
        <time>2016-08-06T06:37:06Z</time>
      </trkpt>
      <trkpt lat="45.558" lon="6.61539">
        <ele>1031.63</ele>
        <time>2016-08-06T06:37:08Z</time>
      </trkpt>
      <trkpt lat="45.55797" lon="6.61549">
        <ele>1031.63</ele>
        <time>2016-08-06T06:37:09Z</time>
      </trkpt>
      <trkpt lat="45.55796" lon="6.6156">
        <ele>1031.15</ele>
        <time>2016-08-06T06:37:10Z</time>
      </trkpt>
      <trkpt lat="45.55796" lon="6.6157">
        <ele>1031.15</ele>
        <time>2016-08-06T06:37:11Z</time>
      </trkpt>
      <trkpt lat="45.55799" lon="6.6158">
        <ele>1031.15</ele>
        <time>2016-08-06T06:37:12Z</time>
      </trkpt>
      <trkpt lat="45.55803" lon="6.61587">
        <ele>1030.19</ele>
        <time>2016-08-06T06:37:13Z</time>
      </trkpt>
      <trkpt lat="45.55807" lon="6.61594">
        <ele>1030.19</ele>
        <time>2016-08-06T06:37:14Z</time>
      </trkpt>
      <trkpt lat="45.5581" lon="6.61599">
        <ele>1029.71</ele>
        <time>2016-08-06T06:37:15Z</time>
      </trkpt>
      <trkpt lat="45.55814" lon="6.61604">
        <ele>1029.71</ele>
        <time>2016-08-06T06:37:16Z</time>
      </trkpt>
      <trkpt lat="45.55818" lon="6.61609">
        <ele>1029.23</ele>
        <time>2016-08-06T06:37:17Z</time>
      </trkpt>
      <trkpt lat="45.55826" lon="6.61618">
        <ele>1028.75</ele>
        <time>2016-08-06T06:37:20Z</time>
      </trkpt>
      <trkpt lat="45.55826" lon="6.61621">
        <ele>1028.75</ele>
        <time>2016-08-06T06:37:22Z</time>
      </trkpt>
      <trkpt lat="45.55826" lon="6.61624">
        <ele>1028.27</ele>
        <time>2016-08-06T06:37:23Z</time>
      </trkpt>
      <trkpt lat="45.55826" lon="6.61629">
        <ele>1027.79</ele>
        <time>2016-08-06T06:37:24Z</time>
      </trkpt>
      <trkpt lat="45.55828" lon="6.61634">
        <ele>1027.31</ele>
        <time>2016-08-06T06:37:25Z</time>
      </trkpt>
      <trkpt lat="45.5583" lon="6.61641">
        <ele>1027.31</ele>
        <time>2016-08-06T06:37:26Z</time>
      </trkpt>
      <trkpt lat="45.55832" lon="6.61648">
        <ele>1026.34</ele>
        <time>2016-08-06T06:37:27Z</time>
      </trkpt>
      <trkpt lat="45.55833" lon="6.61657">
        <ele>1025.86</ele>
        <time>2016-08-06T06:37:28Z</time>
      </trkpt>
      <trkpt lat="45.55834" lon="6.61667">
        <ele>1024.9</ele>
        <time>2016-08-06T06:37:29Z</time>
      </trkpt>
      <trkpt lat="45.55838" lon="6.61687">
        <ele>1023.46</ele>
        <time>2016-08-06T06:37:31Z</time>
      </trkpt>
      <trkpt lat="45.55841" lon="6.61696">
        <ele>1022.98</ele>
        <time>2016-08-06T06:37:32Z</time>
      </trkpt>
      <trkpt lat="45.5585" lon="6.61714">
        <ele>1021.54</ele>
        <time>2016-08-06T06:37:34Z</time>
      </trkpt>
      <trkpt lat="45.55855" lon="6.61722">
        <ele>1020.58</ele>
        <time>2016-08-06T06:37:35Z</time>
      </trkpt>
      <trkpt lat="45.55882" lon="6.6176">
        <ele>1017.21</ele>
        <time>2016-08-06T06:37:39Z</time>
      </trkpt>
      <trkpt lat="45.55898" lon="6.6178">
        <ele>1014.81</ele>
        <time>2016-08-06T06:37:41Z</time>
      </trkpt>
      <trkpt lat="45.55904" lon="6.61794">
        <ele>1013.85</ele>
        <time>2016-08-06T06:37:42Z</time>
      </trkpt>
      <trkpt lat="45.55909" lon="6.61809">
        <ele>1012.41</ele>
        <time>2016-08-06T06:37:43Z</time>
      </trkpt>
      <trkpt lat="45.55913" lon="6.61826">
        <ele>1011.44</ele>
        <time>2016-08-06T06:37:44Z</time>
      </trkpt>
      <trkpt lat="45.55916" lon="6.61839">
        <ele>1010.48</ele>
        <time>2016-08-06T06:37:45Z</time>
      </trkpt>
      <trkpt lat="45.55918" lon="6.61855">
        <ele>1010.48</ele>
        <time>2016-08-06T06:37:46Z</time>
      </trkpt>
      <trkpt lat="45.5592" lon="6.61871">
        <ele>1008.56</ele>
        <time>2016-08-06T06:37:47Z</time>
      </trkpt>
      <trkpt lat="45.55919" lon="6.61885">
        <ele>1007.6</ele>
        <time>2016-08-06T06:37:48Z</time>
      </trkpt>
      <trkpt lat="45.55916" lon="6.61898">
        <ele>1007.12</ele>
        <time>2016-08-06T06:37:49Z</time>
      </trkpt>
      <trkpt lat="45.55913" lon="6.61907">
        <ele>1006.16</ele>
        <time>2016-08-06T06:37:50Z</time>
      </trkpt>
      <trkpt lat="45.55907" lon="6.61916">
        <ele>1005.68</ele>
        <time>2016-08-06T06:37:51Z</time>
      </trkpt>
      <trkpt lat="45.55899" lon="6.61924">
        <ele>1005.2</ele>
        <time>2016-08-06T06:37:52Z</time>
      </trkpt>
      <trkpt lat="45.55891" lon="6.61931">
        <ele>1004.23</ele>
        <time>2016-08-06T06:37:53Z</time>
      </trkpt>
      <trkpt lat="45.55883" lon="6.61936">
        <ele>1003.75</ele>
        <time>2016-08-06T06:37:54Z</time>
      </trkpt>
      <trkpt lat="45.55874" lon="6.6194">
        <ele>1002.79</ele>
        <time>2016-08-06T06:37:55Z</time>
      </trkpt>
      <trkpt lat="45.5586" lon="6.6195">
        <ele>1001.83</ele>
        <time>2016-08-06T06:37:57Z</time>
      </trkpt>
      <trkpt lat="45.55855" lon="6.61959">
        <ele>1001.35</ele>
        <time>2016-08-06T06:37:58Z</time>
      </trkpt>
      <trkpt lat="45.55852" lon="6.61969">
        <ele>1000.39</ele>
        <time>2016-08-06T06:37:59Z</time>
      </trkpt>
      <trkpt lat="45.55851" lon="6.61981">
        <ele>999.91</ele>
        <time>2016-08-06T06:38:00Z</time>
      </trkpt>
      <trkpt lat="45.55853" lon="6.61991">
        <ele>998.95</ele>
        <time>2016-08-06T06:38:01Z</time>
      </trkpt>
      <trkpt lat="45.55856" lon="6.61999">
        <ele>998.47</ele>
        <time>2016-08-06T06:38:02Z</time>
      </trkpt>
      <trkpt lat="45.5586" lon="6.62007">
        <ele>997.99</ele>
        <time>2016-08-06T06:38:03Z</time>
      </trkpt>
      <trkpt lat="45.55863" lon="6.62013">
        <ele>997.51</ele>
        <time>2016-08-06T06:38:04Z</time>
      </trkpt>
      <trkpt lat="45.55871" lon="6.62031">
        <ele>995.58</ele>
        <time>2016-08-06T06:38:07Z</time>
      </trkpt>
      <trkpt lat="45.55876" lon="6.62048">
        <ele>994.62</ele>
        <time>2016-08-06T06:38:09Z</time>
      </trkpt>
      <trkpt lat="45.55877" lon="6.6206">
        <ele>993.66</ele>
        <time>2016-08-06T06:38:10Z</time>
      </trkpt>
      <trkpt lat="45.55878" lon="6.6207">
        <ele>992.7</ele>
        <time>2016-08-06T06:38:11Z</time>
      </trkpt>
      <trkpt lat="45.55877" lon="6.62082">
        <ele>992.7</ele>
        <time>2016-08-06T06:38:12Z</time>
      </trkpt>
      <trkpt lat="45.55877" lon="6.62094">
        <ele>991.74</ele>
        <time>2016-08-06T06:38:13Z</time>
      </trkpt>
      <trkpt lat="45.55876" lon="6.62107">
        <ele>990.78</ele>
        <time>2016-08-06T06:38:14Z</time>
      </trkpt>
      <trkpt lat="45.55873" lon="6.6212">
        <ele>990.3</ele>
        <time>2016-08-06T06:38:15Z</time>
      </trkpt>
      <trkpt lat="45.5587" lon="6.62133">
        <ele>989.33</ele>
        <time>2016-08-06T06:38:16Z</time>
      </trkpt>
      <trkpt lat="45.55853" lon="6.62185">
        <ele>985.97</ele>
        <time>2016-08-06T06:38:20Z</time>
      </trkpt>
      <trkpt lat="45.55834" lon="6.62224">
        <ele>983.09</ele>
        <time>2016-08-06T06:38:23Z</time>
      </trkpt>
      <trkpt lat="45.55818" lon="6.62262">
        <ele>980.2</ele>
        <time>2016-08-06T06:38:26Z</time>
      </trkpt>
      <trkpt lat="45.55812" lon="6.62283">
        <ele>978.76</ele>
        <time>2016-08-06T06:38:28Z</time>
      </trkpt>
      <trkpt lat="45.55812" lon="6.62294">
        <ele>977.8</ele>
        <time>2016-08-06T06:38:29Z</time>
      </trkpt>
      <trkpt lat="45.55814" lon="6.62342">
        <ele>975.39</ele>
        <time>2016-08-06T06:38:33Z</time>
      </trkpt>
      <trkpt lat="45.55815" lon="6.62387">
        <ele>972.03</ele>
        <time>2016-08-06T06:38:37Z</time>
      </trkpt>
      <trkpt lat="45.55815" lon="6.62398">
        <ele>971.07</ele>
        <time>2016-08-06T06:38:38Z</time>
      </trkpt>
      <trkpt lat="45.55814" lon="6.62409">
        <ele>970.59</ele>
        <time>2016-08-06T06:38:39Z</time>
      </trkpt>
      <trkpt lat="45.55813" lon="6.62421">
        <ele>969.63</ele>
        <time>2016-08-06T06:38:40Z</time>
      </trkpt>
      <trkpt lat="45.55814" lon="6.62431">
        <ele>969.15</ele>
        <time>2016-08-06T06:38:41Z</time>
      </trkpt>
      <trkpt lat="45.55816" lon="6.62442">
        <ele>968.18</ele>
        <time>2016-08-06T06:38:42Z</time>
      </trkpt>
      <trkpt lat="45.55832" lon="6.62511">
        <ele>966.26</ele>
        <time>2016-08-06T06:38:48Z</time>
      </trkpt>
      <trkpt lat="45.55836" lon="6.62522">
        <ele>965.3</ele>
        <time>2016-08-06T06:38:49Z</time>
      </trkpt>
      <trkpt lat="45.55859" lon="6.62578">
        <ele>962.9</ele>
        <time>2016-08-06T06:38:54Z</time>
      </trkpt>
      <trkpt lat="45.55862" lon="6.62591">
        <ele>962.42</ele>
        <time>2016-08-06T06:38:55Z</time>
      </trkpt>
      <trkpt lat="45.55878" lon="6.62658">
        <ele>959.05</ele>
        <time>2016-08-06T06:39:00Z</time>
      </trkpt>
      <trkpt lat="45.55882" lon="6.62679">
        <ele>958.09</ele>
        <time>2016-08-06T06:39:02Z</time>
      </trkpt>
      <trkpt lat="45.55888" lon="6.62739">
        <ele>955.21</ele>
        <time>2016-08-06T06:39:07Z</time>
      </trkpt>
      <trkpt lat="45.55889" lon="6.6275">
        <ele>955.21</ele>
        <time>2016-08-06T06:39:08Z</time>
      </trkpt>
      <trkpt lat="45.55893" lon="6.6276">
        <ele>954.25</ele>
        <time>2016-08-06T06:39:09Z</time>
      </trkpt>
      <trkpt lat="45.55898" lon="6.62767">
        <ele>954.25</ele>
        <time>2016-08-06T06:39:10Z</time>
      </trkpt>
      <trkpt lat="45.55914" lon="6.62791">
        <ele>953.28</ele>
        <time>2016-08-06T06:39:17Z</time>
      </trkpt>
      <trkpt lat="45.55928" lon="6.62811">
        <ele>954.25</ele>
        <time>2016-08-06T06:39:25Z</time>
      </trkpt>
      <trkpt lat="45.55954" lon="6.62834">
        <ele>957.61</ele>
        <time>2016-08-06T06:39:35Z</time>
      </trkpt>
      <trkpt lat="45.55979" lon="6.62874">
        <ele>960.98</ele>
        <time>2016-08-06T06:39:48Z</time>
      </trkpt>
      <trkpt lat="45.56" lon="6.62918">
        <ele>963.86</ele>
        <time>2016-08-06T06:40:00Z</time>
      </trkpt>
      <trkpt lat="45.56027" lon="6.62949">
        <ele>967.22</ele>
        <time>2016-08-06T06:40:13Z</time>
      </trkpt>
      <trkpt lat="45.56042" lon="6.62997">
        <ele>970.11</ele>
        <time>2016-08-06T06:40:27Z</time>
      </trkpt>
      <trkpt lat="45.56033" lon="6.63047">
        <ele>973.47</ele>
        <time>2016-08-06T06:40:40Z</time>
      </trkpt>
      <trkpt lat="45.56035" lon="6.63099">
        <ele>976.36</ele>
        <time>2016-08-06T06:40:53Z</time>
      </trkpt>
      <trkpt lat="45.56028" lon="6.63147">
        <ele>979.72</ele>
        <time>2016-08-06T06:41:05Z</time>
      </trkpt>
      <trkpt lat="45.56008" lon="6.63194">
        <ele>983.09</ele>
        <time>2016-08-06T06:41:18Z</time>
      </trkpt>
      <trkpt lat="45.56014" lon="6.63254">
        <ele>986.45</ele>
        <time>2016-08-06T06:41:33Z</time>
      </trkpt>
      <trkpt lat="45.56038" lon="6.63298">
        <ele>989.81</ele>
        <time>2016-08-06T06:41:47Z</time>
      </trkpt>
      <trkpt lat="45.56068" lon="6.63336">
        <ele>992.7</ele>
        <time>2016-08-06T06:42:01Z</time>
      </trkpt>
      <trkpt lat="45.56087" lon="6.63377">
        <ele>996.06</ele>
        <time>2016-08-06T06:42:14Z</time>
      </trkpt>
      <trkpt lat="45.5611" lon="6.63415">
        <ele>998.95</ele>
        <time>2016-08-06T06:42:28Z</time>
      </trkpt>
      <trkpt lat="45.56148" lon="6.63442">
        <ele>1001.83</ele>
        <time>2016-08-06T06:42:44Z</time>
      </trkpt>
      <trkpt lat="45.56178" lon="6.63472">
        <ele>1004.72</ele>
        <time>2016-08-06T06:42:58Z</time>
      </trkpt>
      <trkpt lat="45.56211" lon="6.63493">
        <ele>1008.08</ele>
        <time>2016-08-06T06:43:12Z</time>
      </trkpt>
      <trkpt lat="45.56235" lon="6.63533">
        <ele>1011.44</ele>
        <time>2016-08-06T06:43:26Z</time>
      </trkpt>
      <trkpt lat="45.5625" lon="6.63573">
        <ele>1014.33</ele>
        <time>2016-08-06T06:43:38Z</time>
      </trkpt>
      <trkpt lat="45.56249" lon="6.63631">
        <ele>1017.69</ele>
        <time>2016-08-06T06:43:52Z</time>
      </trkpt>
      <trkpt lat="45.56256" lon="6.63679">
        <ele>1020.58</ele>
        <time>2016-08-06T06:44:04Z</time>
      </trkpt>
      <trkpt lat="45.56281" lon="6.6372">
        <ele>1023.94</ele>
        <time>2016-08-06T06:44:17Z</time>
      </trkpt>
      <trkpt lat="45.56291" lon="6.63776">
        <ele>1026.83</ele>
        <time>2016-08-06T06:44:31Z</time>
      </trkpt>
      <trkpt lat="45.56298" lon="6.63831">
        <ele>1030.19</ele>
        <time>2016-08-06T06:44:44Z</time>
      </trkpt>
      <trkpt lat="45.56311" lon="6.63887">
        <ele>1033.55</ele>
        <time>2016-08-06T06:44:58Z</time>
      </trkpt>
      <trkpt lat="45.56327" lon="6.63945">
        <ele>1036.92</ele>
        <time>2016-08-06T06:45:12Z</time>
      </trkpt>
      <trkpt lat="45.56347" lon="6.64003">
        <ele>1040.28</ele>
        <time>2016-08-06T06:45:27Z</time>
      </trkpt>
      <trkpt lat="45.56361" lon="6.64055">
        <ele>1043.65</ele>
        <time>2016-08-06T06:45:40Z</time>
      </trkpt>
      <trkpt lat="45.56394" lon="6.64101">
        <ele>1047.01</ele>
        <time>2016-08-06T06:45:55Z</time>
      </trkpt>
      <trkpt lat="45.56428" lon="6.64142">
        <ele>1050.38</ele>
        <time>2016-08-06T06:46:10Z</time>
      </trkpt>
      <trkpt lat="45.56446" lon="6.642">
        <ele>1053.74</ele>
        <time>2016-08-06T06:46:25Z</time>
      </trkpt>
      <trkpt lat="45.56463" lon="6.64252">
        <ele>1057.11</ele>
        <time>2016-08-06T06:46:39Z</time>
      </trkpt>
      <trkpt lat="45.56481" lon="6.64294">
        <ele>1059.99</ele>
        <time>2016-08-06T06:46:51Z</time>
      </trkpt>
      <trkpt lat="45.56506" lon="6.64326">
        <ele>1063.36</ele>
        <time>2016-08-06T06:47:03Z</time>
      </trkpt>
      <trkpt lat="45.5654" lon="6.64357">
        <ele>1066.72</ele>
        <time>2016-08-06T06:47:17Z</time>
      </trkpt>
      <trkpt lat="45.5656" lon="6.64401">
        <ele>1070.08</ele>
        <time>2016-08-06T06:47:30Z</time>
      </trkpt>
      <trkpt lat="45.56575" lon="6.64453">
        <ele>1073.45</ele>
        <time>2016-08-06T06:47:44Z</time>
      </trkpt>
      <trkpt lat="45.56587" lon="6.6451">
        <ele>1076.81</ele>
        <time>2016-08-06T06:47:58Z</time>
      </trkpt>
      <trkpt lat="45.56595" lon="6.6456">
        <ele>1079.7</ele>
        <time>2016-08-06T06:48:10Z</time>
      </trkpt>
      <trkpt lat="45.56623" lon="6.64607">
        <ele>1082.58</ele>
        <time>2016-08-06T06:48:24Z</time>
      </trkpt>
      <trkpt lat="45.56638" lon="6.64654">
        <ele>1085.95</ele>
        <time>2016-08-06T06:48:36Z</time>
      </trkpt>
      <trkpt lat="45.56644" lon="6.64661">
        <ele>1086.43</ele>
        <time>2016-08-06T06:48:39Z</time>
      </trkpt>
      <trkpt lat="45.56648" lon="6.64661">
        <ele>1086.43</ele>
        <time>2016-08-06T06:48:40Z</time>
      </trkpt>
      <trkpt lat="45.5665" lon="6.6466">
        <ele>1086.43</ele>
        <time>2016-08-06T06:48:41Z</time>
      </trkpt>
      <trkpt lat="45.56653" lon="6.64657">
        <ele>1086.91</ele>
        <time>2016-08-06T06:48:42Z</time>
      </trkpt>
      <trkpt lat="45.56654" lon="6.64653">
        <ele>1086.91</ele>
        <time>2016-08-06T06:48:43Z</time>
      </trkpt>
      <trkpt lat="45.56655" lon="6.64648">
        <ele>1087.39</ele>
        <time>2016-08-06T06:48:44Z</time>
      </trkpt>
      <trkpt lat="45.56654" lon="6.64642">
        <ele>1087.39</ele>
        <time>2016-08-06T06:48:45Z</time>
      </trkpt>
      <trkpt lat="45.56653" lon="6.64637">
        <ele>1087.39</ele>
        <time>2016-08-06T06:48:46Z</time>
      </trkpt>
      <trkpt lat="45.56652" lon="6.64632">
        <ele>1087.87</ele>
        <time>2016-08-06T06:48:47Z</time>
      </trkpt>
      <trkpt lat="45.5665" lon="6.64627">
        <ele>1087.87</ele>
        <time>2016-08-06T06:48:48Z</time>
      </trkpt>
      <trkpt lat="45.56649" lon="6.64622">
        <ele>1087.87</ele>
        <time>2016-08-06T06:48:49Z</time>
      </trkpt>
      <trkpt lat="45.56647" lon="6.64617">
        <ele>1087.87</ele>
        <time>2016-08-06T06:48:50Z</time>
      </trkpt>
      <trkpt lat="45.56629" lon="6.64545">
        <ele>1091.23</ele>
        <time>2016-08-06T06:49:05Z</time>
      </trkpt>
      <trkpt lat="45.56634" lon="6.64488">
        <ele>1094.6</ele>
        <time>2016-08-06T06:49:17Z</time>
      </trkpt>
      <trkpt lat="45.56634" lon="6.64421">
        <ele>1097.96</ele>
        <time>2016-08-06T06:49:32Z</time>
      </trkpt>
      <trkpt lat="45.5663" lon="6.64359">
        <ele>1101.81</ele>
        <time>2016-08-06T06:49:46Z</time>
      </trkpt>
      <trkpt lat="45.5663" lon="6.64304">
        <ele>1105.17</ele>
        <time>2016-08-06T06:49:58Z</time>
      </trkpt>
      <trkpt lat="45.56613" lon="6.64243">
        <ele>1108.06</ele>
        <time>2016-08-06T06:50:13Z</time>
      </trkpt>
      <trkpt lat="45.56588" lon="6.64197">
        <ele>1111.42</ele>
        <time>2016-08-06T06:50:26Z</time>
      </trkpt>
      <trkpt lat="45.56572" lon="6.6415">
        <ele>1114.31</ele>
        <time>2016-08-06T06:50:38Z</time>
      </trkpt>
      <trkpt lat="45.56563" lon="6.64099">
        <ele>1117.19</ele>
        <time>2016-08-06T06:50:50Z</time>
      </trkpt>
      <trkpt lat="45.56561" lon="6.64043">
        <ele>1120.55</ele>
        <time>2016-08-06T06:51:03Z</time>
      </trkpt>
      <trkpt lat="45.56558" lon="6.64019">
        <ele>1122.48</ele>
        <time>2016-08-06T06:51:13Z</time>
      </trkpt>
      <trkpt lat="45.56558" lon="6.64016">
        <ele>1122.48</ele>
        <time>2016-08-06T06:51:47Z</time>
      </trkpt>
      <trkpt lat="45.56558" lon="6.6402">
        <ele>1122.96</ele>
        <time>2016-08-06T06:52:16Z</time>
      </trkpt>
      <trkpt lat="45.5654" lon="6.64002">
        <ele>1123.92</ele>
        <time>2016-08-06T06:52:27Z</time>
      </trkpt>
      <trkpt lat="45.56513" lon="6.63965">
        <ele>1127.76</ele>
        <time>2016-08-06T06:52:40Z</time>
      </trkpt>
      <trkpt lat="45.56504" lon="6.63914">
        <ele>1131.13</ele>
        <time>2016-08-06T06:52:53Z</time>
      </trkpt>
      <trkpt lat="45.56489" lon="6.63854">
        <ele>1134.49</ele>
        <time>2016-08-06T06:53:08Z</time>
      </trkpt>
      <trkpt lat="45.56478" lon="6.63797">
        <ele>1137.86</ele>
        <time>2016-08-06T06:53:21Z</time>
      </trkpt>
      <trkpt lat="45.56478" lon="6.6374">
        <ele>1140.74</ele>
        <time>2016-08-06T06:53:33Z</time>
      </trkpt>
      <trkpt lat="45.56482" lon="6.63678">
        <ele>1144.59</ele>
        <time>2016-08-06T06:53:47Z</time>
      </trkpt>
      <trkpt lat="45.56483" lon="6.6362">
        <ele>1147.47</ele>
        <time>2016-08-06T06:54:00Z</time>
      </trkpt>
      <trkpt lat="45.56482" lon="6.63579">
        <ele>1149.87</ele>
        <time>2016-08-06T06:54:09Z</time>
      </trkpt>
      <trkpt lat="45.56484" lon="6.63576">
        <ele>1149.87</ele>
        <time>2016-08-06T06:54:10Z</time>
      </trkpt>
      <trkpt lat="45.56487" lon="6.63575">
        <ele>1150.35</ele>
        <time>2016-08-06T06:54:11Z</time>
      </trkpt>
      <trkpt lat="45.5649" lon="6.63575">
        <ele>1150.35</ele>
        <time>2016-08-06T06:54:12Z</time>
      </trkpt>
      <trkpt lat="45.56493" lon="6.63577">
        <ele>1150.35</ele>
        <time>2016-08-06T06:54:13Z</time>
      </trkpt>
      <trkpt lat="45.56495" lon="6.63579">
        <ele>1150.35</ele>
        <time>2016-08-06T06:54:14Z</time>
      </trkpt>
      <trkpt lat="45.56497" lon="6.63583">
        <ele>1150.84</ele>
        <time>2016-08-06T06:54:15Z</time>
      </trkpt>
      <trkpt lat="45.56497" lon="6.63588">
        <ele>1150.84</ele>
        <time>2016-08-06T06:54:16Z</time>
      </trkpt>
      <trkpt lat="45.56498" lon="6.63592">
        <ele>1151.32</ele>
        <time>2016-08-06T06:54:17Z</time>
      </trkpt>
      <trkpt lat="45.565" lon="6.6366">
        <ele>1154.2</ele>
        <time>2016-08-06T06:54:30Z</time>
      </trkpt>
      <trkpt lat="45.56502" lon="6.63738">
        <ele>1157.56</ele>
        <time>2016-08-06T06:54:45Z</time>
      </trkpt>
      <trkpt lat="45.56513" lon="6.63809">
        <ele>1160.45</ele>
        <time>2016-08-06T06:54:59Z</time>
      </trkpt>
      <trkpt lat="45.56541" lon="6.63853">
        <ele>1163.33</ele>
        <time>2016-08-06T06:55:11Z</time>
      </trkpt>
      <trkpt lat="45.56567" lon="6.63886">
        <ele>1166.7</ele>
        <time>2016-08-06T06:55:21Z</time>
      </trkpt>
      <trkpt lat="45.56605" lon="6.63918">
        <ele>1170.06</ele>
        <time>2016-08-06T06:55:34Z</time>
      </trkpt>
      <trkpt lat="45.5664" lon="6.6394">
        <ele>1173.43</ele>
        <time>2016-08-06T06:55:46Z</time>
      </trkpt>
      <trkpt lat="45.56665" lon="6.63977">
        <ele>1176.31</ele>
        <time>2016-08-06T06:55:58Z</time>
      </trkpt>
      <trkpt lat="45.56684" lon="6.64028">
        <ele>1179.67</ele>
        <time>2016-08-06T06:56:11Z</time>
      </trkpt>
      <trkpt lat="45.56719" lon="6.6407">
        <ele>1183.04</ele>
        <time>2016-08-06T06:56:26Z</time>
      </trkpt>
      <trkpt lat="45.56747" lon="6.64108">
        <ele>1186.4</ele>
        <time>2016-08-06T06:56:39Z</time>
      </trkpt>
      <trkpt lat="45.56766" lon="6.64151">
        <ele>1189.29</ele>
        <time>2016-08-06T06:56:50Z</time>
      </trkpt>
      <trkpt lat="45.56784" lon="6.64202">
        <ele>1192.17</ele>
        <time>2016-08-06T06:57:03Z</time>
      </trkpt>
      <trkpt lat="45.568" lon="6.64243">
        <ele>1195.54</ele>
        <time>2016-08-06T06:57:13Z</time>
      </trkpt>
      <trkpt lat="45.56814" lon="6.643">
        <ele>1198.42</ele>
        <time>2016-08-06T06:57:27Z</time>
      </trkpt>
      <trkpt lat="45.56839" lon="6.6435">
        <ele>1200.82</ele>
        <time>2016-08-06T06:57:40Z</time>
      </trkpt>
      <trkpt lat="45.56856" lon="6.644">
        <ele>1203.71</ele>
        <time>2016-08-06T06:57:52Z</time>
      </trkpt>
      <trkpt lat="45.5686" lon="6.64413">
        <ele>1204.67</ele>
        <time>2016-08-06T06:58:00Z</time>
      </trkpt>
      <trkpt lat="45.56859" lon="6.6441">
        <ele>1204.67</ele>
        <time>2016-08-06T06:58:15Z</time>
      </trkpt>
      <trkpt lat="45.5686" lon="6.6441">
        <ele>1204.67</ele>
        <time>2016-08-06T06:58:41Z</time>
      </trkpt>
      <trkpt lat="45.56859" lon="6.64407">
        <ele>1205.15</ele>
        <time>2016-08-06T06:59:23Z</time>
      </trkpt>
      <trkpt lat="45.56858" lon="6.64407">
        <ele>1205.15</ele>
        <time>2016-08-06T06:59:25Z</time>
      </trkpt>
      <trkpt lat="45.56857" lon="6.64414">
        <ele>1205.15</ele>
        <time>2016-08-06T06:59:29Z</time>
      </trkpt>
      <trkpt lat="45.56859" lon="6.64418">
        <ele>1205.15</ele>
        <time>2016-08-06T06:59:30Z</time>
      </trkpt>
      <trkpt lat="45.56866" lon="6.64436">
        <ele>1206.11</ele>
        <time>2016-08-06T06:59:35Z</time>
      </trkpt>
      <trkpt lat="45.56868" lon="6.64439">
        <ele>1206.11</ele>
        <time>2016-08-06T06:59:36Z</time>
      </trkpt>
      <trkpt lat="45.56869" lon="6.64443">
        <ele>1206.11</ele>
        <time>2016-08-06T06:59:37Z</time>
      </trkpt>
      <trkpt lat="45.56896" lon="6.64501">
        <ele>1209.96</ele>
        <time>2016-08-06T06:59:52Z</time>
      </trkpt>
      <trkpt lat="45.56926" lon="6.64562">
        <ele>1212.84</ele>
        <time>2016-08-06T07:00:06Z</time>
      </trkpt>
      <trkpt lat="45.56955" lon="6.64622">
        <ele>1216.21</ele>
        <time>2016-08-06T07:00:20Z</time>
      </trkpt>
      <trkpt lat="45.56999" lon="6.64678">
        <ele>1218.61</ele>
        <time>2016-08-06T07:00:35Z</time>
      </trkpt>
      <trkpt lat="45.5703" lon="6.64744">
        <ele>1220.53</ele>
        <time>2016-08-06T07:00:49Z</time>
      </trkpt>
      <trkpt lat="45.57056" lon="6.64788">
        <ele>1222.93</ele>
        <time>2016-08-06T07:00:59Z</time>
      </trkpt>
      <trkpt lat="45.57059" lon="6.64792">
        <ele>1222.93</ele>
        <time>2016-08-06T07:01:00Z</time>
      </trkpt>
      <trkpt lat="45.57105" lon="6.64853">
        <ele>1225.82</ele>
        <time>2016-08-06T07:01:15Z</time>
      </trkpt>
      <trkpt lat="45.57157" lon="6.64901">
        <ele>1228.22</ele>
        <time>2016-08-06T07:01:30Z</time>
      </trkpt>
      <trkpt lat="45.5717" lon="6.64915">
        <ele>1228.7</ele>
        <time>2016-08-06T07:01:34Z</time>
      </trkpt>
      <trkpt lat="45.57173" lon="6.64919">
        <ele>1229.18</ele>
        <time>2016-08-06T07:01:35Z</time>
      </trkpt>
      <trkpt lat="45.57203" lon="6.64977">
        <ele>1232.07</ele>
        <time>2016-08-06T07:01:48Z</time>
      </trkpt>
      <trkpt lat="45.57223" lon="6.65015">
        <ele>1235.91</ele>
        <time>2016-08-06T07:01:59Z</time>
      </trkpt>
      <trkpt lat="45.5724" lon="6.65046">
        <ele>1238.8</ele>
        <time>2016-08-06T07:02:08Z</time>
      </trkpt>
      <trkpt lat="45.57257" lon="6.65078">
        <ele>1242.16</ele>
        <time>2016-08-06T07:02:19Z</time>
      </trkpt>
      <trkpt lat="45.57259" lon="6.65084">
        <ele>1242.16</ele>
        <time>2016-08-06T07:02:33Z</time>
      </trkpt>
      <trkpt lat="45.57265" lon="6.65084">
        <ele>1242.64</ele>
        <time>2016-08-06T07:02:59Z</time>
      </trkpt>
      <trkpt lat="45.57265" lon="6.65084">
        <ele>1242.64</ele>
        <time>2016-08-06T07:03:01Z</time>
      </trkpt>
      <trkpt lat="45.57265" lon="6.65086">
        <ele>1242.64</ele>
        <time>2016-08-06T07:03:02Z</time>
      </trkpt>
      <trkpt lat="45.57265" lon="6.65088">
        <ele>1242.64</ele>
        <time>2016-08-06T07:03:03Z</time>
      </trkpt>
      <trkpt lat="45.57265" lon="6.6509">
        <ele>1242.64</ele>
        <time>2016-08-06T07:03:04Z</time>
      </trkpt>
      <trkpt lat="45.57265" lon="6.65094">
        <ele>1242.64</ele>
        <time>2016-08-06T07:03:05Z</time>
      </trkpt>
      <trkpt lat="45.57266" lon="6.651">
        <ele>1242.64</ele>
        <time>2016-08-06T07:03:06Z</time>
      </trkpt>
      <trkpt lat="45.57266" lon="6.65103">
        <ele>1242.64</ele>
        <time>2016-08-06T07:03:07Z</time>
      </trkpt>
      <trkpt lat="45.57268" lon="6.65109">
        <ele>1241.2</ele>
        <time>2016-08-06T07:03:08Z</time>
      </trkpt>
      <trkpt lat="45.57269" lon="6.65116">
        <ele>1240.72</ele>
        <time>2016-08-06T07:03:09Z</time>
      </trkpt>
      <trkpt lat="45.57277" lon="6.6515">
        <ele>1238.8</ele>
        <time>2016-08-06T07:03:13Z</time>
      </trkpt>
      <trkpt lat="45.57284" lon="6.65168">
        <ele>1238.8</ele>
        <time>2016-08-06T07:03:15Z</time>
      </trkpt>
      <trkpt lat="45.57288" lon="6.65176">
        <ele>1237.83</ele>
        <time>2016-08-06T07:03:16Z</time>
      </trkpt>
      <trkpt lat="45.57292" lon="6.65184">
        <ele>1237.83</ele>
        <time>2016-08-06T07:03:17Z</time>
      </trkpt>
      <trkpt lat="45.57355" lon="6.65283">
        <ele>1235.91</ele>
        <time>2016-08-06T07:03:30Z</time>
      </trkpt>
      <trkpt lat="45.57359" lon="6.65292">
        <ele>1235.91</ele>
        <time>2016-08-06T07:03:31Z</time>
      </trkpt>
      <trkpt lat="45.57362" lon="6.65301">
        <ele>1235.91</ele>
        <time>2016-08-06T07:03:32Z</time>
      </trkpt>
      <trkpt lat="45.57395" lon="6.65404">
        <ele>1233.99</ele>
        <time>2016-08-06T07:03:42Z</time>
      </trkpt>
      <trkpt lat="45.574" lon="6.65412">
        <ele>1233.99</ele>
        <time>2016-08-06T07:03:43Z</time>
      </trkpt>
      <trkpt lat="45.57484" lon="6.65534">
        <ele>1233.51</ele>
        <time>2016-08-06T07:03:59Z</time>
      </trkpt>
      <trkpt lat="45.57513" lon="6.65575">
        <ele>1234.95</ele>
        <time>2016-08-06T07:04:05Z</time>
      </trkpt>
      <trkpt lat="45.57576" lon="6.65631">
        <ele>1236.87</ele>
        <time>2016-08-06T07:04:17Z</time>
      </trkpt>
      <trkpt lat="45.57636" lon="6.65677">
        <ele>1237.83</ele>
        <time>2016-08-06T07:04:28Z</time>
      </trkpt>
      <trkpt lat="45.57643" lon="6.65679">
        <ele>1237.83</ele>
        <time>2016-08-06T07:04:29Z</time>
      </trkpt>
      <trkpt lat="45.57649" lon="6.65679">
        <ele>1237.83</ele>
        <time>2016-08-06T07:04:30Z</time>
      </trkpt>
      <trkpt lat="45.57656" lon="6.65678">
        <ele>1237.35</ele>
        <time>2016-08-06T07:04:31Z</time>
      </trkpt>
      <trkpt lat="45.57662" lon="6.65674">
        <ele>1237.35</ele>
        <time>2016-08-06T07:04:32Z</time>
      </trkpt>
      <trkpt lat="45.57667" lon="6.65668">
        <ele>1237.35</ele>
        <time>2016-08-06T07:04:33Z</time>
      </trkpt>
      <trkpt lat="45.57672" lon="6.6566">
        <ele>1237.35</ele>
        <time>2016-08-06T07:04:34Z</time>
      </trkpt>
      <trkpt lat="45.57677" lon="6.65653">
        <ele>1235.91</ele>
        <time>2016-08-06T07:04:35Z</time>
      </trkpt>
      <trkpt lat="45.57682" lon="6.65645">
        <ele>1235.91</ele>
        <time>2016-08-06T07:04:36Z</time>
      </trkpt>
      <trkpt lat="45.57688" lon="6.65638">
        <ele>1235.91</ele>
        <time>2016-08-06T07:04:37Z</time>
      </trkpt>
      <trkpt lat="45.57695" lon="6.65632">
        <ele>1235.43</ele>
        <time>2016-08-06T07:04:38Z</time>
      </trkpt>
      <trkpt lat="45.5771" lon="6.65622">
        <ele>1234.47</ele>
        <time>2016-08-06T07:04:40Z</time>
      </trkpt>
      <trkpt lat="45.57717" lon="6.65619">
        <ele>1234.47</ele>
        <time>2016-08-06T07:04:41Z</time>
      </trkpt>
      <trkpt lat="45.57726" lon="6.65617">
        <ele>1233.51</ele>
        <time>2016-08-06T07:04:42Z</time>
      </trkpt>
      <trkpt lat="45.57734" lon="6.65619">
        <ele>1233.51</ele>
        <time>2016-08-06T07:04:43Z</time>
      </trkpt>
      <trkpt lat="45.57742" lon="6.65623">
        <ele>1233.03</ele>
        <time>2016-08-06T07:04:44Z</time>
      </trkpt>
      <trkpt lat="45.5775" lon="6.65629">
        <ele>1233.03</ele>
        <time>2016-08-06T07:04:45Z</time>
      </trkpt>
      <trkpt lat="45.57765" lon="6.65639">
        <ele>1232.55</ele>
        <time>2016-08-06T07:04:47Z</time>
      </trkpt>
      <trkpt lat="45.57772" lon="6.65642">
        <ele>1232.55</ele>
        <time>2016-08-06T07:04:48Z</time>
      </trkpt>
      <trkpt lat="45.5778" lon="6.65642">
        <ele>1232.55</ele>
        <time>2016-08-06T07:04:49Z</time>
      </trkpt>
      <trkpt lat="45.57788" lon="6.6564">
        <ele>1232.07</ele>
        <time>2016-08-06T07:04:50Z</time>
      </trkpt>
      <trkpt lat="45.57796" lon="6.65636">
        <ele>1232.07</ele>
        <time>2016-08-06T07:04:51Z</time>
      </trkpt>
      <trkpt lat="45.57803" lon="6.65632">
        <ele>1231.11</ele>
        <time>2016-08-06T07:04:52Z</time>
      </trkpt>
      <trkpt lat="45.57811" lon="6.6563">
        <ele>1230.62</ele>
        <time>2016-08-06T07:04:53Z</time>
      </trkpt>
      <trkpt lat="45.5782" lon="6.6563">
        <ele>1230.62</ele>
        <time>2016-08-06T07:04:54Z</time>
      </trkpt>
      <trkpt lat="45.57827" lon="6.65634">
        <ele>1230.14</ele>
        <time>2016-08-06T07:04:55Z</time>
      </trkpt>
      <trkpt lat="45.57834" lon="6.65641">
        <ele>1230.14</ele>
        <time>2016-08-06T07:04:56Z</time>
      </trkpt>
      <trkpt lat="45.57839" lon="6.65649">
        <ele>1229.66</ele>
        <time>2016-08-06T07:04:57Z</time>
      </trkpt>
      <trkpt lat="45.57844" lon="6.65659">
        <ele>1229.18</ele>
        <time>2016-08-06T07:04:58Z</time>
      </trkpt>
      <trkpt lat="45.57848" lon="6.65669">
        <ele>1229.66</ele>
        <time>2016-08-06T07:04:59Z</time>
      </trkpt>
      <trkpt lat="45.57853" lon="6.65678">
        <ele>1228.7</ele>
        <time>2016-08-06T07:05:00Z</time>
      </trkpt>
      <trkpt lat="45.57859" lon="6.65686">
        <ele>1229.18</ele>
        <time>2016-08-06T07:05:01Z</time>
      </trkpt>
      <trkpt lat="45.57866" lon="6.65691">
        <ele>1229.18</ele>
        <time>2016-08-06T07:05:02Z</time>
      </trkpt>
      <trkpt lat="45.57874" lon="6.65694">
        <ele>1228.7</ele>
        <time>2016-08-06T07:05:03Z</time>
      </trkpt>
      <trkpt lat="45.57882" lon="6.65695">
        <ele>1228.22</ele>
        <time>2016-08-06T07:05:04Z</time>
      </trkpt>
      <trkpt lat="45.5789" lon="6.65697">
        <ele>1228.22</ele>
        <time>2016-08-06T07:05:05Z</time>
      </trkpt>
      <trkpt lat="45.57898" lon="6.65701">
        <ele>1227.26</ele>
        <time>2016-08-06T07:05:06Z</time>
      </trkpt>
      <trkpt lat="45.57905" lon="6.65707">
        <ele>1226.78</ele>
        <time>2016-08-06T07:05:07Z</time>
      </trkpt>
      <trkpt lat="45.5791" lon="6.65716">
        <ele>1226.78</ele>
        <time>2016-08-06T07:05:08Z</time>
      </trkpt>
      <trkpt lat="45.57914" lon="6.65727">
        <ele>1226.78</ele>
        <time>2016-08-06T07:05:09Z</time>
      </trkpt>
      <trkpt lat="45.57916" lon="6.65739">
        <ele>1226.78</ele>
        <time>2016-08-06T07:05:10Z</time>
      </trkpt>
      <trkpt lat="45.57916" lon="6.65751">
        <ele>1226.3</ele>
        <time>2016-08-06T07:05:11Z</time>
      </trkpt>
      <trkpt lat="45.57917" lon="6.65763">
        <ele>1225.82</ele>
        <time>2016-08-06T07:05:12Z</time>
      </trkpt>
      <trkpt lat="45.57918" lon="6.65775">
        <ele>1225.82</ele>
        <time>2016-08-06T07:05:13Z</time>
      </trkpt>
      <trkpt lat="45.5792" lon="6.65786">
        <ele>1225.82</ele>
        <time>2016-08-06T07:05:14Z</time>
      </trkpt>
      <trkpt lat="45.57924" lon="6.65795">
        <ele>1225.82</ele>
        <time>2016-08-06T07:05:15Z</time>
      </trkpt>
      <trkpt lat="45.5793" lon="6.65802">
        <ele>1225.82</ele>
        <time>2016-08-06T07:05:16Z</time>
      </trkpt>
      <trkpt lat="45.57937" lon="6.65805">
        <ele>1225.82</ele>
        <time>2016-08-06T07:05:17Z</time>
      </trkpt>
      <trkpt lat="45.57944" lon="6.65805">
        <ele>1224.86</ele>
        <time>2016-08-06T07:05:18Z</time>
      </trkpt>
      <trkpt lat="45.57952" lon="6.65805">
        <ele>1224.38</ele>
        <time>2016-08-06T07:05:19Z</time>
      </trkpt>
      <trkpt lat="45.57976" lon="6.65806">
        <ele>1223.9</ele>
        <time>2016-08-06T07:05:22Z</time>
      </trkpt>
      <trkpt lat="45.58023" lon="6.65814">
        <ele>1222.45</ele>
        <time>2016-08-06T07:05:28Z</time>
      </trkpt>
      <trkpt lat="45.5803" lon="6.65811">
        <ele>1222.45</ele>
        <time>2016-08-06T07:05:29Z</time>
      </trkpt>
      <trkpt lat="45.58037" lon="6.65805">
        <ele>1222.45</ele>
        <time>2016-08-06T07:05:30Z</time>
      </trkpt>
      <trkpt lat="45.5805" lon="6.65793">
        <ele>1221.01</ele>
        <time>2016-08-06T07:05:32Z</time>
      </trkpt>
      <trkpt lat="45.58057" lon="6.6579">
        <ele>1221.01</ele>
        <time>2016-08-06T07:05:33Z</time>
      </trkpt>
      <trkpt lat="45.58064" lon="6.65792">
        <ele>1220.53</ele>
        <time>2016-08-06T07:05:34Z</time>
      </trkpt>
      <trkpt lat="45.58079" lon="6.65797">
        <ele>1220.53</ele>
        <time>2016-08-06T07:05:36Z</time>
      </trkpt>
      <trkpt lat="45.58087" lon="6.65796">
        <ele>1220.53</ele>
        <time>2016-08-06T07:05:37Z</time>
      </trkpt>
      <trkpt lat="45.58093" lon="6.65792">
        <ele>1220.53</ele>
        <time>2016-08-06T07:05:38Z</time>
      </trkpt>
      <trkpt lat="45.58099" lon="6.65784">
        <ele>1220.05</ele>
        <time>2016-08-06T07:05:39Z</time>
      </trkpt>
      <trkpt lat="45.58103" lon="6.65775">
        <ele>1219.57</ele>
        <time>2016-08-06T07:05:40Z</time>
      </trkpt>
      <trkpt lat="45.58108" lon="6.65767">
        <ele>1219.57</ele>
        <time>2016-08-06T07:05:41Z</time>
      </trkpt>
      <trkpt lat="45.58115" lon="6.6576">
        <ele>1218.61</ele>
        <time>2016-08-06T07:05:42Z</time>
      </trkpt>
      <trkpt lat="45.58122" lon="6.65756">
        <ele>1218.61</ele>
        <time>2016-08-06T07:05:43Z</time>
      </trkpt>
      <trkpt lat="45.5813" lon="6.65754">
        <ele>1218.13</ele>
        <time>2016-08-06T07:05:44Z</time>
      </trkpt>
      <trkpt lat="45.58138" lon="6.65753">
        <ele>1217.65</ele>
        <time>2016-08-06T07:05:45Z</time>
      </trkpt>
      <trkpt lat="45.58146" lon="6.65753">
        <ele>1217.65</ele>
        <time>2016-08-06T07:05:46Z</time>
      </trkpt>
      <trkpt lat="45.58154" lon="6.65755">
        <ele>1216.69</ele>
        <time>2016-08-06T07:05:47Z</time>
      </trkpt>
      <trkpt lat="45.58162" lon="6.65759">
        <ele>1216.69</ele>
        <time>2016-08-06T07:05:48Z</time>
      </trkpt>
      <trkpt lat="45.58169" lon="6.65763">
        <ele>1216.21</ele>
        <time>2016-08-06T07:05:49Z</time>
      </trkpt>
      <trkpt lat="45.58191" lon="6.65779">
        <ele>1215.72</ele>
        <time>2016-08-06T07:05:52Z</time>
      </trkpt>
      <trkpt lat="45.58197" lon="6.65787">
        <ele>1214.76</ele>
        <time>2016-08-06T07:05:53Z</time>
      </trkpt>
      <trkpt lat="45.58203" lon="6.65797">
        <ele>1214.76</ele>
        <time>2016-08-06T07:05:54Z</time>
      </trkpt>
      <trkpt lat="45.58208" lon="6.65808">
        <ele>1214.76</ele>
        <time>2016-08-06T07:05:55Z</time>
      </trkpt>
      <trkpt lat="45.58211" lon="6.65819">
        <ele>1214.28</ele>
        <time>2016-08-06T07:05:56Z</time>
      </trkpt>
      <trkpt lat="45.58216" lon="6.65829">
        <ele>1214.28</ele>
        <time>2016-08-06T07:05:57Z</time>
      </trkpt>
      <trkpt lat="45.58222" lon="6.65837">
        <ele>1214.28</ele>
        <time>2016-08-06T07:05:58Z</time>
      </trkpt>
      <trkpt lat="45.58246" lon="6.6587">
        <ele>1211.88</ele>
        <time>2016-08-06T07:06:02Z</time>
      </trkpt>
      <trkpt lat="45.58251" lon="6.6588">
        <ele>1212.36</ele>
        <time>2016-08-06T07:06:03Z</time>
      </trkpt>
      <trkpt lat="45.58256" lon="6.65889">
        <ele>1211.88</ele>
        <time>2016-08-06T07:06:04Z</time>
      </trkpt>
      <trkpt lat="45.58262" lon="6.65897">
        <ele>1211.88</ele>
        <time>2016-08-06T07:06:05Z</time>
      </trkpt>
      <trkpt lat="45.58268" lon="6.65902">
        <ele>1210.92</ele>
        <time>2016-08-06T07:06:06Z</time>
      </trkpt>
      <trkpt lat="45.58276" lon="6.65906">
        <ele>1210.92</ele>
        <time>2016-08-06T07:06:07Z</time>
      </trkpt>
      <trkpt lat="45.58283" lon="6.65909">
        <ele>1210.92</ele>
        <time>2016-08-06T07:06:08Z</time>
      </trkpt>
      <trkpt lat="45.58291" lon="6.6591">
        <ele>1210.44</ele>
        <time>2016-08-06T07:06:09Z</time>
      </trkpt>
      <trkpt lat="45.58386" lon="6.65937">
        <ele>1207.55</ele>
        <time>2016-08-06T07:06:20Z</time>
      </trkpt>
      <trkpt lat="45.58507" lon="6.65974">
        <ele>1204.67</ele>
        <time>2016-08-06T07:06:34Z</time>
      </trkpt>
      <trkpt lat="45.5853" lon="6.65983">
        <ele>1204.19</ele>
        <time>2016-08-06T07:06:37Z</time>
      </trkpt>
      <trkpt lat="45.58536" lon="6.65989">
        <ele>1204.19</ele>
        <time>2016-08-06T07:06:38Z</time>
      </trkpt>
      <trkpt lat="45.5854" lon="6.65998">
        <ele>1203.71</ele>
        <time>2016-08-06T07:06:39Z</time>
      </trkpt>
      <trkpt lat="45.58542" lon="6.66008">
        <ele>1203.71</ele>
        <time>2016-08-06T07:06:40Z</time>
      </trkpt>
      <trkpt lat="45.58541" lon="6.66019">
        <ele>1203.23</ele>
        <time>2016-08-06T07:06:41Z</time>
      </trkpt>
      <trkpt lat="45.58539" lon="6.6603">
        <ele>1202.75</ele>
        <time>2016-08-06T07:06:42Z</time>
      </trkpt>
      <trkpt lat="45.58536" lon="6.66042">
        <ele>1202.27</ele>
        <time>2016-08-06T07:06:43Z</time>
      </trkpt>
      <trkpt lat="45.5853" lon="6.66066">
        <ele>1201.3</ele>
        <time>2016-08-06T07:06:45Z</time>
      </trkpt>
      <trkpt lat="45.58526" lon="6.66077">
        <ele>1200.82</ele>
        <time>2016-08-06T07:06:46Z</time>
      </trkpt>
      <trkpt lat="45.58521" lon="6.66088">
        <ele>1200.82</ele>
        <time>2016-08-06T07:06:47Z</time>
      </trkpt>
      <trkpt lat="45.58514" lon="6.66098">
        <ele>1199.86</ele>
        <time>2016-08-06T07:06:48Z</time>
      </trkpt>
      <trkpt lat="45.58507" lon="6.66107">
        <ele>1198.9</ele>
        <time>2016-08-06T07:06:49Z</time>
      </trkpt>
      <trkpt lat="45.58498" lon="6.66114">
        <ele>1198.9</ele>
        <time>2016-08-06T07:06:50Z</time>
      </trkpt>
      <trkpt lat="45.58489" lon="6.66121">
        <ele>1197.94</ele>
        <time>2016-08-06T07:06:51Z</time>
      </trkpt>
      <trkpt lat="45.58481" lon="6.66127">
        <ele>1197.46</ele>
        <time>2016-08-06T07:06:52Z</time>
      </trkpt>
      <trkpt lat="45.58473" lon="6.66135">
        <ele>1196.98</ele>
        <time>2016-08-06T07:06:53Z</time>
      </trkpt>
      <trkpt lat="45.58466" lon="6.66143">
        <ele>1196.5</ele>
        <time>2016-08-06T07:06:54Z</time>
      </trkpt>
      <trkpt lat="45.58462" lon="6.66154">
        <ele>1196.5</ele>
        <time>2016-08-06T07:06:55Z</time>
      </trkpt>
      <trkpt lat="45.58459" lon="6.66166">
        <ele>1195.54</ele>
        <time>2016-08-06T07:06:56Z</time>
      </trkpt>
      <trkpt lat="45.58458" lon="6.66179">
        <ele>1195.54</ele>
        <time>2016-08-06T07:06:57Z</time>
      </trkpt>
      <trkpt lat="45.58459" lon="6.66191">
        <ele>1195.06</ele>
        <time>2016-08-06T07:06:58Z</time>
      </trkpt>
      <trkpt lat="45.58462" lon="6.66204">
        <ele>1194.58</ele>
        <time>2016-08-06T07:06:59Z</time>
      </trkpt>
      <trkpt lat="45.58465" lon="6.66214">
        <ele>1193.13</ele>
        <time>2016-08-06T07:07:00Z</time>
      </trkpt>
      <trkpt lat="45.5847" lon="6.66222">
        <ele>1193.13</ele>
        <time>2016-08-06T07:07:01Z</time>
      </trkpt>
      <trkpt lat="45.58477" lon="6.66229">
        <ele>1192.17</ele>
        <time>2016-08-06T07:07:02Z</time>
      </trkpt>
      <trkpt lat="45.58485" lon="6.66234">
        <ele>1191.21</ele>
        <time>2016-08-06T07:07:03Z</time>
      </trkpt>
      <trkpt lat="45.58493" lon="6.66238">
        <ele>1191.21</ele>
        <time>2016-08-06T07:07:04Z</time>
      </trkpt>
      <trkpt lat="45.58501" lon="6.66241">
        <ele>1190.25</ele>
        <time>2016-08-06T07:07:05Z</time>
      </trkpt>
      <trkpt lat="45.58509" lon="6.66247">
        <ele>1189.77</ele>
        <time>2016-08-06T07:07:06Z</time>
      </trkpt>
      <trkpt lat="45.58516" lon="6.66254">
        <ele>1189.29</ele>
        <time>2016-08-06T07:07:07Z</time>
      </trkpt>
      <trkpt lat="45.58522" lon="6.66262">
        <ele>1188.33</ele>
        <time>2016-08-06T07:07:08Z</time>
      </trkpt>
      <trkpt lat="45.58527" lon="6.66269">
        <ele>1188.33</ele>
        <time>2016-08-06T07:07:09Z</time>
      </trkpt>
      <trkpt lat="45.58531" lon="6.66276">
        <ele>1187.37</ele>
        <time>2016-08-06T07:07:10Z</time>
      </trkpt>
      <trkpt lat="45.58532" lon="6.66285">
        <ele>1186.4</ele>
        <time>2016-08-06T07:07:11Z</time>
      </trkpt>
      <trkpt lat="45.5853" lon="6.66294">
        <ele>1185.92</ele>
        <time>2016-08-06T07:07:12Z</time>
      </trkpt>
      <trkpt lat="45.58526" lon="6.66302">
        <ele>1184.96</ele>
        <time>2016-08-06T07:07:13Z</time>
      </trkpt>
      <trkpt lat="45.58519" lon="6.66306">
        <ele>1184.96</ele>
        <time>2016-08-06T07:07:14Z</time>
      </trkpt>
      <trkpt lat="45.58512" lon="6.66308">
        <ele>1184.48</ele>
        <time>2016-08-06T07:07:15Z</time>
      </trkpt>
      <trkpt lat="45.58504" lon="6.66306">
        <ele>1184</ele>
        <time>2016-08-06T07:07:16Z</time>
      </trkpt>
      <trkpt lat="45.58496" lon="6.66302">
        <ele>1184</ele>
        <time>2016-08-06T07:07:17Z</time>
      </trkpt>
      <trkpt lat="45.58488" lon="6.66299">
        <ele>1183.04</ele>
        <time>2016-08-06T07:07:18Z</time>
      </trkpt>
      <trkpt lat="45.58442" lon="6.66288">
        <ele>1179.67</ele>
        <time>2016-08-06T07:07:23Z</time>
      </trkpt>
      <trkpt lat="45.58433" lon="6.66284">
        <ele>1178.71</ele>
        <time>2016-08-06T07:07:24Z</time>
      </trkpt>
      <trkpt lat="45.58414" lon="6.66272">
        <ele>1177.27</ele>
        <time>2016-08-06T07:07:26Z</time>
      </trkpt>
      <trkpt lat="45.58405" lon="6.66266">
        <ele>1176.31</ele>
        <time>2016-08-06T07:07:27Z</time>
      </trkpt>
      <trkpt lat="45.58394" lon="6.66263">
        <ele>1175.83</ele>
        <time>2016-08-06T07:07:28Z</time>
      </trkpt>
      <trkpt lat="45.58351" lon="6.66257">
        <ele>1172.47</ele>
        <time>2016-08-06T07:07:32Z</time>
      </trkpt>
      <trkpt lat="45.58341" lon="6.66253">
        <ele>1171.5</ele>
        <time>2016-08-06T07:07:33Z</time>
      </trkpt>
      <trkpt lat="45.58332" lon="6.66248">
        <ele>1171.02</ele>
        <time>2016-08-06T07:07:34Z</time>
      </trkpt>
      <trkpt lat="45.58322" lon="6.66245">
        <ele>1170.06</ele>
        <time>2016-08-06T07:07:35Z</time>
      </trkpt>
      <trkpt lat="45.58313" lon="6.66243">
        <ele>1169.1</ele>
        <time>2016-08-06T07:07:36Z</time>
      </trkpt>
      <trkpt lat="45.58303" lon="6.66243">
        <ele>1168.14</ele>
        <time>2016-08-06T07:07:37Z</time>
      </trkpt>
      <trkpt lat="45.58292" lon="6.66245">
        <ele>1167.18</ele>
        <time>2016-08-06T07:07:38Z</time>
      </trkpt>
      <trkpt lat="45.58284" lon="6.66247">
        <ele>1166.22</ele>
        <time>2016-08-06T07:07:39Z</time>
      </trkpt>
      <trkpt lat="45.58235" lon="6.66253">
        <ele>1162.37</ele>
        <time>2016-08-06T07:07:43Z</time>
      </trkpt>
      <trkpt lat="45.58191" lon="6.66249">
        <ele>1158.53</ele>
        <time>2016-08-06T07:07:47Z</time>
      </trkpt>
      <trkpt lat="45.58161" lon="6.66248">
        <ele>1156.12</ele>
        <time>2016-08-06T07:07:50Z</time>
      </trkpt>
      <trkpt lat="45.58152" lon="6.66251">
        <ele>1155.16</ele>
        <time>2016-08-06T07:07:51Z</time>
      </trkpt>
      <trkpt lat="45.58142" lon="6.66255">
        <ele>1154.68</ele>
        <time>2016-08-06T07:07:52Z</time>
      </trkpt>
      <trkpt lat="45.58101" lon="6.66277">
        <ele>1151.32</ele>
        <time>2016-08-06T07:07:56Z</time>
      </trkpt>
      <trkpt lat="45.58089" lon="6.66282">
        <ele>1150.35</ele>
        <time>2016-08-06T07:07:57Z</time>
      </trkpt>
      <trkpt lat="45.58078" lon="6.66284">
        <ele>1149.87</ele>
        <time>2016-08-06T07:07:58Z</time>
      </trkpt>
      <trkpt lat="45.58056" lon="6.66289">
        <ele>1148.43</ele>
        <time>2016-08-06T07:08:00Z</time>
      </trkpt>
      <trkpt lat="45.58046" lon="6.66294">
        <ele>1147.47</ele>
        <time>2016-08-06T07:08:01Z</time>
      </trkpt>
      <trkpt lat="45.58035" lon="6.66301">
        <ele>1146.99</ele>
        <time>2016-08-06T07:08:02Z</time>
      </trkpt>
      <trkpt lat="45.58016" lon="6.66315">
        <ele>1145.07</ele>
        <time>2016-08-06T07:08:04Z</time>
      </trkpt>
      <trkpt lat="45.58008" lon="6.66324">
        <ele>1144.11</ele>
        <time>2016-08-06T07:08:05Z</time>
      </trkpt>
      <trkpt lat="45.58001" lon="6.66335">
        <ele>1143.14</ele>
        <time>2016-08-06T07:08:06Z</time>
      </trkpt>
      <trkpt lat="45.57994" lon="6.66347">
        <ele>1142.66</ele>
        <time>2016-08-06T07:08:07Z</time>
      </trkpt>
      <trkpt lat="45.57988" lon="6.6636">
        <ele>1141.7</ele>
        <time>2016-08-06T07:08:08Z</time>
      </trkpt>
      <trkpt lat="45.57973" lon="6.66384">
        <ele>1139.78</ele>
        <time>2016-08-06T07:08:10Z</time>
      </trkpt>
      <trkpt lat="45.57964" lon="6.66392">
        <ele>1138.82</ele>
        <time>2016-08-06T07:08:11Z</time>
      </trkpt>
      <trkpt lat="45.57954" lon="6.664">
        <ele>1137.86</ele>
        <time>2016-08-06T07:08:12Z</time>
      </trkpt>
      <trkpt lat="45.57911" lon="6.66427">
        <ele>1134.49</ele>
        <time>2016-08-06T07:08:16Z</time>
      </trkpt>
      <trkpt lat="45.57868" lon="6.66455">
        <ele>1131.61</ele>
        <time>2016-08-06T07:08:20Z</time>
      </trkpt>
      <trkpt lat="45.57841" lon="6.66483">
        <ele>1128.73</ele>
        <time>2016-08-06T07:08:23Z</time>
      </trkpt>
      <trkpt lat="45.57819" lon="6.66512">
        <ele>1126.32</ele>
        <time>2016-08-06T07:08:26Z</time>
      </trkpt>
      <trkpt lat="45.57816" lon="6.66522">
        <ele>1126.32</ele>
        <time>2016-08-06T07:08:27Z</time>
      </trkpt>
      <trkpt lat="45.57815" lon="6.66534">
        <ele>1125.36</ele>
        <time>2016-08-06T07:08:28Z</time>
      </trkpt>
      <trkpt lat="45.57816" lon="6.66546">
        <ele>1124.88</ele>
        <time>2016-08-06T07:08:29Z</time>
      </trkpt>
      <trkpt lat="45.57819" lon="6.66557">
        <ele>1124.4</ele>
        <time>2016-08-06T07:08:30Z</time>
      </trkpt>
      <trkpt lat="45.57823" lon="6.66568">
        <ele>1123.44</ele>
        <time>2016-08-06T07:08:31Z</time>
      </trkpt>
      <trkpt lat="45.57826" lon="6.66579">
        <ele>1122.96</ele>
        <time>2016-08-06T07:08:32Z</time>
      </trkpt>
      <trkpt lat="45.57827" lon="6.66591">
        <ele>1122</ele>
        <time>2016-08-06T07:08:33Z</time>
      </trkpt>
      <trkpt lat="45.57827" lon="6.66602">
        <ele>1121.52</ele>
        <time>2016-08-06T07:08:34Z</time>
      </trkpt>
      <trkpt lat="45.57825" lon="6.66612">
        <ele>1120.55</ele>
        <time>2016-08-06T07:08:35Z</time>
      </trkpt>
      <trkpt lat="45.57822" lon="6.6662">
        <ele>1120.55</ele>
        <time>2016-08-06T07:08:36Z</time>
      </trkpt>
      <trkpt lat="45.57818" lon="6.66626">
        <ele>1119.59</ele>
        <time>2016-08-06T07:08:37Z</time>
      </trkpt>
      <trkpt lat="45.57813" lon="6.66631">
        <ele>1119.59</ele>
        <time>2016-08-06T07:08:38Z</time>
      </trkpt>
      <trkpt lat="45.57806" lon="6.66635">
        <ele>1118.63</ele>
        <time>2016-08-06T07:08:39Z</time>
      </trkpt>
      <trkpt lat="45.57799" lon="6.66637">
        <ele>1117.67</ele>
        <time>2016-08-06T07:08:40Z</time>
      </trkpt>
      <trkpt lat="45.5779" lon="6.66637">
        <ele>1116.71</ele>
        <time>2016-08-06T07:08:41Z</time>
      </trkpt>
      <trkpt lat="45.5778" lon="6.66635">
        <ele>1115.75</ele>
        <time>2016-08-06T07:08:42Z</time>
      </trkpt>
      <trkpt lat="45.57768" lon="6.66632">
        <ele>1115.27</ele>
        <time>2016-08-06T07:08:43Z</time>
      </trkpt>
      <trkpt lat="45.57735" lon="6.66615">
        <ele>1112.86</ele>
        <time>2016-08-06T07:08:46Z</time>
      </trkpt>
      <trkpt lat="45.57725" lon="6.66607">
        <ele>1111.9</ele>
        <time>2016-08-06T07:08:47Z</time>
      </trkpt>
      <trkpt lat="45.57715" lon="6.66602">
        <ele>1111.9</ele>
        <time>2016-08-06T07:08:48Z</time>
      </trkpt>
      <trkpt lat="45.57704" lon="6.66601">
        <ele>1110.94</ele>
        <time>2016-08-06T07:08:49Z</time>
      </trkpt>
      <trkpt lat="45.57695" lon="6.66603">
        <ele>1110.46</ele>
        <time>2016-08-06T07:08:50Z</time>
      </trkpt>
      <trkpt lat="45.57685" lon="6.66608">
        <ele>1109.5</ele>
        <time>2016-08-06T07:08:51Z</time>
      </trkpt>
      <trkpt lat="45.57656" lon="6.66625">
        <ele>1107.1</ele>
        <time>2016-08-06T07:08:54Z</time>
      </trkpt>
      <trkpt lat="45.57647" lon="6.66633">
        <ele>1106.13</ele>
        <time>2016-08-06T07:08:55Z</time>
      </trkpt>
      <trkpt lat="45.57638" lon="6.66641">
        <ele>1105.17</ele>
        <time>2016-08-06T07:08:56Z</time>
      </trkpt>
      <trkpt lat="45.57627" lon="6.66648">
        <ele>1103.73</ele>
        <time>2016-08-06T07:08:57Z</time>
      </trkpt>
      <trkpt lat="45.57617" lon="6.66651">
        <ele>1103.25</ele>
        <time>2016-08-06T07:08:58Z</time>
      </trkpt>
      <trkpt lat="45.57606" lon="6.66653">
        <ele>1102.29</ele>
        <time>2016-08-06T07:08:59Z</time>
      </trkpt>
      <trkpt lat="45.57595" lon="6.66658">
        <ele>1101.33</ele>
        <time>2016-08-06T07:09:00Z</time>
      </trkpt>
      <trkpt lat="45.57585" lon="6.66665">
        <ele>1100.85</ele>
        <time>2016-08-06T07:09:01Z</time>
      </trkpt>
      <trkpt lat="45.57575" lon="6.66673">
        <ele>1099.89</ele>
        <time>2016-08-06T07:09:02Z</time>
      </trkpt>
      <trkpt lat="45.57566" lon="6.66683">
        <ele>1098.92</ele>
        <time>2016-08-06T07:09:03Z</time>
      </trkpt>
      <trkpt lat="45.57546" lon="6.66699">
        <ele>1097</ele>
        <time>2016-08-06T07:09:05Z</time>
      </trkpt>
      <trkpt lat="45.57534" lon="6.66705">
        <ele>1096.52</ele>
        <time>2016-08-06T07:09:06Z</time>
      </trkpt>
      <trkpt lat="45.57522" lon="6.66708">
        <ele>1095.56</ele>
        <time>2016-08-06T07:09:07Z</time>
      </trkpt>
      <trkpt lat="45.57475" lon="6.66717">
        <ele>1093.64</ele>
        <time>2016-08-06T07:09:11Z</time>
      </trkpt>
      <trkpt lat="45.57463" lon="6.66716">
        <ele>1092.68</ele>
        <time>2016-08-06T07:09:12Z</time>
      </trkpt>
      <trkpt lat="45.57443" lon="6.66714">
        <ele>1092.2</ele>
        <time>2016-08-06T07:09:14Z</time>
      </trkpt>
      <trkpt lat="45.57433" lon="6.66715">
        <ele>1091.23</ele>
        <time>2016-08-06T07:09:15Z</time>
      </trkpt>
      <trkpt lat="45.57424" lon="6.66719">
        <ele>1090.75</ele>
        <time>2016-08-06T07:09:16Z</time>
      </trkpt>
      <trkpt lat="45.57395" lon="6.66733">
        <ele>1089.31</ele>
        <time>2016-08-06T07:09:19Z</time>
      </trkpt>
      <trkpt lat="45.57384" lon="6.66734">
        <ele>1088.83</ele>
        <time>2016-08-06T07:09:20Z</time>
      </trkpt>
      <trkpt lat="45.57374" lon="6.66733">
        <ele>1087.87</ele>
        <time>2016-08-06T07:09:21Z</time>
      </trkpt>
      <trkpt lat="45.57363" lon="6.6673">
        <ele>1087.39</ele>
        <time>2016-08-06T07:09:22Z</time>
      </trkpt>
      <trkpt lat="45.57354" lon="6.66728">
        <ele>1086.91</ele>
        <time>2016-08-06T07:09:23Z</time>
      </trkpt>
      <trkpt lat="45.57345" lon="6.66727">
        <ele>1085.95</ele>
        <time>2016-08-06T07:09:24Z</time>
      </trkpt>
      <trkpt lat="45.57336" lon="6.66729">
        <ele>1085.47</ele>
        <time>2016-08-06T07:09:25Z</time>
      </trkpt>
      <trkpt lat="45.57328" lon="6.66734">
        <ele>1084.99</ele>
        <time>2016-08-06T07:09:26Z</time>
      </trkpt>
      <trkpt lat="45.57321" lon="6.66742">
        <ele>1084.5</ele>
        <time>2016-08-06T07:09:27Z</time>
      </trkpt>
      <trkpt lat="45.57315" lon="6.66751">
        <ele>1084.02</ele>
        <time>2016-08-06T07:09:28Z</time>
      </trkpt>
      <trkpt lat="45.57309" lon="6.66759">
        <ele>1083.06</ele>
        <time>2016-08-06T07:09:29Z</time>
      </trkpt>
      <trkpt lat="45.57298" lon="6.66776">
        <ele>1082.1</ele>
        <time>2016-08-06T07:09:31Z</time>
      </trkpt>
      <trkpt lat="45.57293" lon="6.66786">
        <ele>1081.62</ele>
        <time>2016-08-06T07:09:32Z</time>
      </trkpt>
      <trkpt lat="45.57291" lon="6.66799">
        <ele>1081.14</ele>
        <time>2016-08-06T07:09:33Z</time>
      </trkpt>
      <trkpt lat="45.57289" lon="6.6681">
        <ele>1081.14</ele>
        <time>2016-08-06T07:09:34Z</time>
      </trkpt>
      <trkpt lat="45.57287" lon="6.6682">
        <ele>1079.7</ele>
        <time>2016-08-06T07:09:35Z</time>
      </trkpt>
      <trkpt lat="45.57285" lon="6.6683">
        <ele>1079.22</ele>
        <time>2016-08-06T07:09:36Z</time>
      </trkpt>
      <trkpt lat="45.57282" lon="6.66839">
        <ele>1079.22</ele>
        <time>2016-08-06T07:09:37Z</time>
      </trkpt>
      <trkpt lat="45.57278" lon="6.6686">
        <ele>1078.26</ele>
        <time>2016-08-06T07:09:39Z</time>
      </trkpt>
      <trkpt lat="45.57277" lon="6.66871">
        <ele>1077.78</ele>
        <time>2016-08-06T07:09:40Z</time>
      </trkpt>
      <trkpt lat="45.57278" lon="6.66882">
        <ele>1077.29</ele>
        <time>2016-08-06T07:09:41Z</time>
      </trkpt>
      <trkpt lat="45.5728" lon="6.66893">
        <ele>1077.29</ele>
        <time>2016-08-06T07:09:42Z</time>
      </trkpt>
      <trkpt lat="45.57283" lon="6.66904">
        <ele>1076.33</ele>
        <time>2016-08-06T07:09:43Z</time>
      </trkpt>
      <trkpt lat="45.57288" lon="6.66915">
        <ele>1076.33</ele>
        <time>2016-08-06T07:09:44Z</time>
      </trkpt>
      <trkpt lat="45.57293" lon="6.66923">
        <ele>1075.37</ele>
        <time>2016-08-06T07:09:45Z</time>
      </trkpt>
      <trkpt lat="45.57299" lon="6.66931">
        <ele>1074.89</ele>
        <time>2016-08-06T07:09:46Z</time>
      </trkpt>
      <trkpt lat="45.57306" lon="6.66938">
        <ele>1074.41</ele>
        <time>2016-08-06T07:09:47Z</time>
      </trkpt>
      <trkpt lat="45.57314" lon="6.66944">
        <ele>1074.41</ele>
        <time>2016-08-06T07:09:48Z</time>
      </trkpt>
      <trkpt lat="45.57327" lon="6.66956">
        <ele>1073.45</ele>
        <time>2016-08-06T07:09:50Z</time>
      </trkpt>
      <trkpt lat="45.5733" lon="6.66963">
        <ele>1072.97</ele>
        <time>2016-08-06T07:09:51Z</time>
      </trkpt>
      <trkpt lat="45.57331" lon="6.6697">
        <ele>1072.97</ele>
        <time>2016-08-06T07:09:52Z</time>
      </trkpt>
      <trkpt lat="45.57328" lon="6.66977">
        <ele>1072.49</ele>
        <time>2016-08-06T07:09:53Z</time>
      </trkpt>
      <trkpt lat="45.57324" lon="6.66981">
        <ele>1072.49</ele>
        <time>2016-08-06T07:09:54Z</time>
      </trkpt>
      <trkpt lat="45.57318" lon="6.66982">
        <ele>1072.49</ele>
        <time>2016-08-06T07:09:55Z</time>
      </trkpt>
      <trkpt lat="45.57312" lon="6.6698">
        <ele>1072.01</ele>
        <time>2016-08-06T07:09:56Z</time>
      </trkpt>
      <trkpt lat="45.57306" lon="6.66977">
        <ele>1071.53</ele>
        <time>2016-08-06T07:09:57Z</time>
      </trkpt>
      <trkpt lat="45.573" lon="6.66974">
        <ele>1071.53</ele>
        <time>2016-08-06T07:09:58Z</time>
      </trkpt>
      <trkpt lat="45.57274" lon="6.66966">
        <ele>1070.08</ele>
        <time>2016-08-06T07:10:02Z</time>
      </trkpt>
      <trkpt lat="45.57268" lon="6.66966">
        <ele>1069.6</ele>
        <time>2016-08-06T07:10:03Z</time>
      </trkpt>
      <trkpt lat="45.57247" lon="6.66965">
        <ele>1068.16</ele>
        <time>2016-08-06T07:10:06Z</time>
      </trkpt>
      <trkpt lat="45.57203" lon="6.66972">
        <ele>1065.76</ele>
        <time>2016-08-06T07:10:11Z</time>
      </trkpt>
      <trkpt lat="45.57168" lon="6.66985">
        <ele>1064.8</ele>
        <time>2016-08-06T07:10:15Z</time>
      </trkpt>
      <trkpt lat="45.5716" lon="6.66989">
        <ele>1064.32</ele>
        <time>2016-08-06T07:10:16Z</time>
      </trkpt>
      <trkpt lat="45.57152" lon="6.66995">
        <ele>1063.36</ele>
        <time>2016-08-06T07:10:17Z</time>
      </trkpt>
      <trkpt lat="45.57145" lon="6.67003">
        <ele>1062.87</ele>
        <time>2016-08-06T07:10:18Z</time>
      </trkpt>
      <trkpt lat="45.57138" lon="6.67013">
        <ele>1062.87</ele>
        <time>2016-08-06T07:10:19Z</time>
      </trkpt>
      <trkpt lat="45.57132" lon="6.67023">
        <ele>1062.39</ele>
        <time>2016-08-06T07:10:20Z</time>
      </trkpt>
      <trkpt lat="45.57127" lon="6.67035">
        <ele>1062.39</ele>
        <time>2016-08-06T07:10:21Z</time>
      </trkpt>
      <trkpt lat="45.57123" lon="6.67045">
        <ele>1061.43</ele>
        <time>2016-08-06T07:10:22Z</time>
      </trkpt>
      <trkpt lat="45.57114" lon="6.67072">
        <ele>1059.99</ele>
        <time>2016-08-06T07:10:25Z</time>
      </trkpt>
      <trkpt lat="45.57112" lon="6.67085">
        <ele>1059.99</ele>
        <time>2016-08-06T07:10:26Z</time>
      </trkpt>
      <trkpt lat="45.5711" lon="6.67104">
        <ele>1059.99</ele>
        <time>2016-08-06T07:10:28Z</time>
      </trkpt>
      <trkpt lat="45.57108" lon="6.67112">
        <ele>1059.99</ele>
        <time>2016-08-06T07:10:29Z</time>
      </trkpt>
      <trkpt lat="45.57105" lon="6.67118">
        <ele>1060.95</ele>
        <time>2016-08-06T07:10:30Z</time>
      </trkpt>
      <trkpt lat="45.57102" lon="6.67125">
        <ele>1060.95</ele>
        <time>2016-08-06T07:10:31Z</time>
      </trkpt>
      <trkpt lat="45.571" lon="6.67132">
        <ele>1061.43</ele>
        <time>2016-08-06T07:10:32Z</time>
      </trkpt>
      <trkpt lat="45.57099" lon="6.67139">
        <ele>1061.91</ele>
        <time>2016-08-06T07:10:33Z</time>
      </trkpt>
      <trkpt lat="45.57099" lon="6.67145">
        <ele>1062.39</ele>
        <time>2016-08-06T07:10:34Z</time>
      </trkpt>
      <trkpt lat="45.57101" lon="6.67195">
        <ele>1065.28</ele>
        <time>2016-08-06T07:10:44Z</time>
      </trkpt>
      <trkpt lat="45.57103" lon="6.67258">
        <ele>1069.12</ele>
        <time>2016-08-06T07:10:58Z</time>
      </trkpt>
      <trkpt lat="45.57107" lon="6.67302">
        <ele>1072.01</ele>
        <time>2016-08-06T07:11:08Z</time>
      </trkpt>
      <trkpt lat="45.57126" lon="6.67359">
        <ele>1074.89</ele>
        <time>2016-08-06T07:11:23Z</time>
      </trkpt>
      <trkpt lat="45.57147" lon="6.67407">
        <ele>1078.26</ele>
        <time>2016-08-06T07:11:36Z</time>
      </trkpt>
      <trkpt lat="45.57157" lon="6.6745">
        <ele>1081.14</ele>
        <time>2016-08-06T07:11:47Z</time>
      </trkpt>
      <trkpt lat="45.57159" lon="6.67493">
        <ele>1084.5</ele>
        <time>2016-08-06T07:11:58Z</time>
      </trkpt>
      <trkpt lat="45.57163" lon="6.6753">
        <ele>1086.91</ele>
        <time>2016-08-06T07:12:08Z</time>
      </trkpt>
      <trkpt lat="45.57165" lon="6.67568">
        <ele>1090.27</ele>
        <time>2016-08-06T07:12:18Z</time>
      </trkpt>
      <trkpt lat="45.57175" lon="6.67607">
        <ele>1092.68</ele>
        <time>2016-08-06T07:12:29Z</time>
      </trkpt>
      <trkpt lat="45.572" lon="6.67621">
        <ele>1095.56</ele>
        <time>2016-08-06T07:12:39Z</time>
      </trkpt>
      <trkpt lat="45.57227" lon="6.67625">
        <ele>1098.44</ele>
        <time>2016-08-06T07:12:49Z</time>
      </trkpt>
      <trkpt lat="45.57256" lon="6.67656">
        <ele>1100.85</ele>
        <time>2016-08-06T07:13:02Z</time>
      </trkpt>
      <trkpt lat="45.57268" lon="6.67708">
        <ele>1103.73</ele>
        <time>2016-08-06T07:13:13Z</time>
      </trkpt>
      <trkpt lat="45.57286" lon="6.67756">
        <ele>1107.1</ele>
        <time>2016-08-06T07:13:26Z</time>
      </trkpt>
      <trkpt lat="45.57307" lon="6.67777">
        <ele>1109.5</ele>
        <time>2016-08-06T07:13:36Z</time>
      </trkpt>
      <trkpt lat="45.57336" lon="6.67791">
        <ele>1112.38</ele>
        <time>2016-08-06T07:13:47Z</time>
      </trkpt>
      <trkpt lat="45.57354" lon="6.67832">
        <ele>1115.27</ele>
        <time>2016-08-06T07:13:59Z</time>
      </trkpt>
      <trkpt lat="45.57364" lon="6.67872">
        <ele>1118.63</ele>
        <time>2016-08-06T07:14:10Z</time>
      </trkpt>
      <trkpt lat="45.57366" lon="6.67919">
        <ele>1121.52</ele>
        <time>2016-08-06T07:14:22Z</time>
      </trkpt>
      <trkpt lat="45.57371" lon="6.67962">
        <ele>1124.88</ele>
        <time>2016-08-06T07:14:33Z</time>
      </trkpt>
      <trkpt lat="45.57382" lon="6.68004">
        <ele>1128.24</ele>
        <time>2016-08-06T07:14:45Z</time>
      </trkpt>
      <trkpt lat="45.57408" lon="6.68027">
        <ele>1131.13</ele>
        <time>2016-08-06T07:14:57Z</time>
      </trkpt>
      <trkpt lat="45.57438" lon="6.68029">
        <ele>1133.53</ele>
        <time>2016-08-06T07:15:08Z</time>
      </trkpt>
      <trkpt lat="45.57456" lon="6.68045">
        <ele>1135.45</ele>
        <time>2016-08-06T07:15:16Z</time>
      </trkpt>
      <trkpt lat="45.57456" lon="6.6805">
        <ele>1135.45</ele>
        <time>2016-08-06T07:15:17Z</time>
      </trkpt>
      <trkpt lat="45.57455" lon="6.68055">
        <ele>1135.45</ele>
        <time>2016-08-06T07:15:18Z</time>
      </trkpt>
      <trkpt lat="45.57453" lon="6.6806">
        <ele>1135.45</ele>
        <time>2016-08-06T07:15:19Z</time>
      </trkpt>
      <trkpt lat="45.57451" lon="6.68064">
        <ele>1135.94</ele>
        <time>2016-08-06T07:15:20Z</time>
      </trkpt>
      <trkpt lat="45.57447" lon="6.68074">
        <ele>1135.94</ele>
        <time>2016-08-06T07:15:22Z</time>
      </trkpt>
      <trkpt lat="45.57443" lon="6.68079">
        <ele>1135.94</ele>
        <time>2016-08-06T07:15:23Z</time>
      </trkpt>
      <trkpt lat="45.5744" lon="6.68085">
        <ele>1135.94</ele>
        <time>2016-08-06T07:15:24Z</time>
      </trkpt>
      <trkpt lat="45.57407" lon="6.68158">
        <ele>1135.94</ele>
        <time>2016-08-06T07:15:34Z</time>
      </trkpt>
      <trkpt lat="45.57403" lon="6.68174">
        <ele>1135.94</ele>
        <time>2016-08-06T07:15:36Z</time>
      </trkpt>
      <trkpt lat="45.57402" lon="6.68183">
        <ele>1135.94</ele>
        <time>2016-08-06T07:15:37Z</time>
      </trkpt>
      <trkpt lat="45.57401" lon="6.68192">
        <ele>1135.94</ele>
        <time>2016-08-06T07:15:38Z</time>
      </trkpt>
      <trkpt lat="45.57401" lon="6.682">
        <ele>1135.94</ele>
        <time>2016-08-06T07:15:39Z</time>
      </trkpt>
      <trkpt lat="45.57401" lon="6.68208">
        <ele>1136.42</ele>
        <time>2016-08-06T07:15:40Z</time>
      </trkpt>
      <trkpt lat="45.57401" lon="6.68216">
        <ele>1136.42</ele>
        <time>2016-08-06T07:15:41Z</time>
      </trkpt>
      <trkpt lat="45.57402" lon="6.68225">
        <ele>1136.42</ele>
        <time>2016-08-06T07:15:42Z</time>
      </trkpt>
      <trkpt lat="45.57403" lon="6.68233">
        <ele>1136.42</ele>
        <time>2016-08-06T07:15:43Z</time>
      </trkpt>
      <trkpt lat="45.57405" lon="6.68241">
        <ele>1136.42</ele>
        <time>2016-08-06T07:15:44Z</time>
      </trkpt>
      <trkpt lat="45.57428" lon="6.68329">
        <ele>1138.34</ele>
        <time>2016-08-06T07:15:55Z</time>
      </trkpt>
      <trkpt lat="45.57431" lon="6.68337">
        <ele>1138.34</ele>
        <time>2016-08-06T07:15:56Z</time>
      </trkpt>
      <trkpt lat="45.57441" lon="6.68367">
        <ele>1138.82</ele>
        <time>2016-08-06T07:16:00Z</time>
      </trkpt>
      <trkpt lat="45.57445" lon="6.68373">
        <ele>1139.3</ele>
        <time>2016-08-06T07:16:01Z</time>
      </trkpt>
      <trkpt lat="45.5745" lon="6.68379">
        <ele>1139.3</ele>
        <time>2016-08-06T07:16:02Z</time>
      </trkpt>
      <trkpt lat="45.57511" lon="6.68462">
        <ele>1140.26</ele>
        <time>2016-08-06T07:16:15Z</time>
      </trkpt>
      <trkpt lat="45.57519" lon="6.68478">
        <ele>1140.26</ele>
        <time>2016-08-06T07:16:17Z</time>
      </trkpt>
      <trkpt lat="45.57522" lon="6.68486">
        <ele>1140.26</ele>
        <time>2016-08-06T07:16:18Z</time>
      </trkpt>
      <trkpt lat="45.57523" lon="6.68495">
        <ele>1140.26</ele>
        <time>2016-08-06T07:16:19Z</time>
      </trkpt>
      <trkpt lat="45.57524" lon="6.68504">
        <ele>1140.74</ele>
        <time>2016-08-06T07:16:20Z</time>
      </trkpt>
      <trkpt lat="45.57524" lon="6.68514">
        <ele>1140.74</ele>
        <time>2016-08-06T07:16:21Z</time>
      </trkpt>
      <trkpt lat="45.57523" lon="6.68524">
        <ele>1140.74</ele>
        <time>2016-08-06T07:16:22Z</time>
      </trkpt>
      <trkpt lat="45.57521" lon="6.68531">
        <ele>1140.74</ele>
        <time>2016-08-06T07:16:23Z</time>
      </trkpt>
      <trkpt lat="45.57518" lon="6.6854">
        <ele>1140.74</ele>
        <time>2016-08-06T07:16:24Z</time>
      </trkpt>
      <trkpt lat="45.57516" lon="6.68548">
        <ele>1141.22</ele>
        <time>2016-08-06T07:16:25Z</time>
      </trkpt>
      <trkpt lat="45.57514" lon="6.68557">
        <ele>1141.22</ele>
        <time>2016-08-06T07:16:26Z</time>
      </trkpt>
      <trkpt lat="45.57514" lon="6.68565">
        <ele>1141.7</ele>
        <time>2016-08-06T07:16:27Z</time>
      </trkpt>
      <trkpt lat="45.57514" lon="6.68574">
        <ele>1141.7</ele>
        <time>2016-08-06T07:16:28Z</time>
      </trkpt>
      <trkpt lat="45.57515" lon="6.68582">
        <ele>1141.7</ele>
        <time>2016-08-06T07:16:29Z</time>
      </trkpt>
      <trkpt lat="45.57517" lon="6.6859">
        <ele>1142.18</ele>
        <time>2016-08-06T07:16:30Z</time>
      </trkpt>
      <trkpt lat="45.5752" lon="6.68597">
        <ele>1142.18</ele>
        <time>2016-08-06T07:16:31Z</time>
      </trkpt>
      <trkpt lat="45.57524" lon="6.68604">
        <ele>1142.66</ele>
        <time>2016-08-06T07:16:32Z</time>
      </trkpt>
      <trkpt lat="45.57528" lon="6.68609">
        <ele>1142.66</ele>
        <time>2016-08-06T07:16:33Z</time>
      </trkpt>
      <trkpt lat="45.57533" lon="6.68614">
        <ele>1142.66</ele>
        <time>2016-08-06T07:16:34Z</time>
      </trkpt>
      <trkpt lat="45.57552" lon="6.6863">
        <ele>1144.11</ele>
        <time>2016-08-06T07:16:38Z</time>
      </trkpt>
      <trkpt lat="45.57558" lon="6.68632">
        <ele>1143.63</ele>
        <time>2016-08-06T07:16:39Z</time>
      </trkpt>
      <trkpt lat="45.57564" lon="6.68634">
        <ele>1144.11</ele>
        <time>2016-08-06T07:16:40Z</time>
      </trkpt>
      <trkpt lat="45.5757" lon="6.68634">
        <ele>1145.07</ele>
        <time>2016-08-06T07:16:41Z</time>
      </trkpt>
      <trkpt lat="45.57576" lon="6.68634">
        <ele>1145.07</ele>
        <time>2016-08-06T07:16:42Z</time>
      </trkpt>
      <trkpt lat="45.57581" lon="6.68634">
        <ele>1145.07</ele>
        <time>2016-08-06T07:16:43Z</time>
      </trkpt>
      <trkpt lat="45.57586" lon="6.68634">
        <ele>1145.55</ele>
        <time>2016-08-06T07:16:44Z</time>
      </trkpt>
      <trkpt lat="45.57591" lon="6.68634">
        <ele>1145.55</ele>
        <time>2016-08-06T07:16:45Z</time>
      </trkpt>
      <trkpt lat="45.57605" lon="6.68638">
        <ele>1146.51</ele>
        <time>2016-08-06T07:16:48Z</time>
      </trkpt>
      <trkpt lat="45.57614" lon="6.68642">
        <ele>1146.99</ele>
        <time>2016-08-06T07:16:50Z</time>
      </trkpt>
      <trkpt lat="45.57644" lon="6.68666">
        <ele>1148.91</ele>
        <time>2016-08-06T07:16:58Z</time>
      </trkpt>
      <trkpt lat="45.57677" lon="6.68692">
        <ele>1151.8</ele>
        <time>2016-08-06T07:17:08Z</time>
      </trkpt>
      <trkpt lat="45.57739" lon="6.68685">
        <ele>1154.68</ele>
        <time>2016-08-06T07:17:24Z</time>
      </trkpt>
      <trkpt lat="45.57783" lon="6.687">
        <ele>1158.05</ele>
        <time>2016-08-06T07:17:37Z</time>
      </trkpt>
      <trkpt lat="45.57769" lon="6.68752">
        <ele>1159.49</ele>
        <time>2016-08-06T07:17:47Z</time>
      </trkpt>
      <trkpt lat="45.57763" lon="6.68769">
        <ele>1159.97</ele>
        <time>2016-08-06T07:17:50Z</time>
      </trkpt>
      <trkpt lat="45.57761" lon="6.68774">
        <ele>1159.97</ele>
        <time>2016-08-06T07:17:51Z</time>
      </trkpt>
      <trkpt lat="45.57755" lon="6.68791">
        <ele>1160.93</ele>
        <time>2016-08-06T07:17:54Z</time>
      </trkpt>
      <trkpt lat="45.57744" lon="6.68809">
        <ele>1161.41</ele>
        <time>2016-08-06T07:17:58Z</time>
      </trkpt>
      <trkpt lat="45.57742" lon="6.68814">
        <ele>1161.89</ele>
        <time>2016-08-06T07:17:59Z</time>
      </trkpt>
      <trkpt lat="45.57739" lon="6.68818">
        <ele>1161.89</ele>
        <time>2016-08-06T07:18:00Z</time>
      </trkpt>
      <trkpt lat="45.57713" lon="6.68866">
        <ele>1165.26</ele>
        <time>2016-08-06T07:18:11Z</time>
      </trkpt>
      <trkpt lat="45.57705" lon="6.68938">
        <ele>1168.62</ele>
        <time>2016-08-06T07:18:24Z</time>
      </trkpt>
      <trkpt lat="45.57683" lon="6.69006">
        <ele>1171.5</ele>
        <time>2016-08-06T07:18:38Z</time>
      </trkpt>
      <trkpt lat="45.57653" lon="6.6906">
        <ele>1174.87</ele>
        <time>2016-08-06T07:18:52Z</time>
      </trkpt>
      <trkpt lat="45.57613" lon="6.69082">
        <ele>1177.75</ele>
        <time>2016-08-06T07:19:04Z</time>
      </trkpt>
      <trkpt lat="45.57586" lon="6.69136">
        <ele>1180.64</ele>
        <time>2016-08-06T07:19:17Z</time>
      </trkpt>
      <trkpt lat="45.57558" lon="6.6918">
        <ele>1183.04</ele>
        <time>2016-08-06T07:19:29Z</time>
      </trkpt>
      <trkpt lat="45.5753" lon="6.69238">
        <ele>1185.92</ele>
        <time>2016-08-06T07:19:42Z</time>
      </trkpt>
      <trkpt lat="45.57527" lon="6.69311">
        <ele>1188.33</ele>
        <time>2016-08-06T07:19:56Z</time>
      </trkpt>
      <trkpt lat="45.57547" lon="6.69356">
        <ele>1191.21</ele>
        <time>2016-08-06T07:20:09Z</time>
      </trkpt>
      <trkpt lat="45.57549" lon="6.69357">
        <ele>1191.69</ele>
        <time>2016-08-06T07:20:11Z</time>
      </trkpt>
      <trkpt lat="45.57551" lon="6.69359">
        <ele>1191.69</ele>
        <time>2016-08-06T07:20:12Z</time>
      </trkpt>
      <trkpt lat="45.57552" lon="6.6936">
        <ele>1191.69</ele>
        <time>2016-08-06T07:20:13Z</time>
      </trkpt>
      <trkpt lat="45.57553" lon="6.69361">
        <ele>1192.17</ele>
        <time>2016-08-06T07:20:14Z</time>
      </trkpt>
      <trkpt lat="45.57554" lon="6.69363">
        <ele>1192.17</ele>
        <time>2016-08-06T07:20:15Z</time>
      </trkpt>
      <trkpt lat="45.57569" lon="6.69416">
        <ele>1194.58</ele>
        <time>2016-08-06T07:20:27Z</time>
      </trkpt>
      <trkpt lat="45.57588" lon="6.69502">
        <ele>1197.94</ele>
        <time>2016-08-06T07:20:43Z</time>
      </trkpt>
      <trkpt lat="45.57619" lon="6.69569">
        <ele>1201.3</ele>
        <time>2016-08-06T07:20:58Z</time>
      </trkpt>
      <trkpt lat="45.57645" lon="6.6964">
        <ele>1204.19</ele>
        <time>2016-08-06T07:21:13Z</time>
      </trkpt>
      <trkpt lat="45.5767" lon="6.6972">
        <ele>1207.55</ele>
        <time>2016-08-06T07:21:29Z</time>
      </trkpt>
      <trkpt lat="45.57663" lon="6.69757">
        <ele>1208.51</ele>
        <time>2016-08-06T07:21:36Z</time>
      </trkpt>
      <trkpt lat="45.57662" lon="6.69763">
        <ele>1208.51</ele>
        <time>2016-08-06T07:21:37Z</time>
      </trkpt>
      <trkpt lat="45.57662" lon="6.69769">
        <ele>1209.48</ele>
        <time>2016-08-06T07:21:38Z</time>
      </trkpt>
      <trkpt lat="45.57663" lon="6.69774">
        <ele>1209.48</ele>
        <time>2016-08-06T07:21:39Z</time>
      </trkpt>
      <trkpt lat="45.57664" lon="6.6978">
        <ele>1209.48</ele>
        <time>2016-08-06T07:21:40Z</time>
      </trkpt>
      <trkpt lat="45.57665" lon="6.69785">
        <ele>1209.48</ele>
        <time>2016-08-06T07:21:41Z</time>
      </trkpt>
      <trkpt lat="45.57679" lon="6.69874">
        <ele>1209.96</ele>
        <time>2016-08-06T07:21:54Z</time>
      </trkpt>
      <trkpt lat="45.57678" lon="6.69883">
        <ele>1209.96</ele>
        <time>2016-08-06T07:21:55Z</time>
      </trkpt>
      <trkpt lat="45.57677" lon="6.69892">
        <ele>1209.96</ele>
        <time>2016-08-06T07:21:56Z</time>
      </trkpt>
      <trkpt lat="45.57668" lon="6.69936">
        <ele>1209.96</ele>
        <time>2016-08-06T07:22:01Z</time>
      </trkpt>
      <trkpt lat="45.57668" lon="6.69945">
        <ele>1209.96</ele>
        <time>2016-08-06T07:22:02Z</time>
      </trkpt>
      <trkpt lat="45.57668" lon="6.69954">
        <ele>1210.44</ele>
        <time>2016-08-06T07:22:03Z</time>
      </trkpt>
      <trkpt lat="45.5767" lon="6.69964">
        <ele>1210.44</ele>
        <time>2016-08-06T07:22:04Z</time>
      </trkpt>
      <trkpt lat="45.57672" lon="6.69972">
        <ele>1210.44</ele>
        <time>2016-08-06T07:22:05Z</time>
      </trkpt>
      <trkpt lat="45.57675" lon="6.69991">
        <ele>1210.44</ele>
        <time>2016-08-06T07:22:07Z</time>
      </trkpt>
      <trkpt lat="45.57675" lon="6.7">
        <ele>1210.92</ele>
        <time>2016-08-06T07:22:08Z</time>
      </trkpt>
      <trkpt lat="45.57675" lon="6.7001">
        <ele>1210.92</ele>
        <time>2016-08-06T07:22:09Z</time>
      </trkpt>
      <trkpt lat="45.57674" lon="6.70019">
        <ele>1210.92</ele>
        <time>2016-08-06T07:22:10Z</time>
      </trkpt>
      <trkpt lat="45.57673" lon="6.70028">
        <ele>1210.92</ele>
        <time>2016-08-06T07:22:11Z</time>
      </trkpt>
      <trkpt lat="45.57671" lon="6.70056">
        <ele>1211.4</ele>
        <time>2016-08-06T07:22:14Z</time>
      </trkpt>
      <trkpt lat="45.57667" lon="6.70074">
        <ele>1211.4</ele>
        <time>2016-08-06T07:22:16Z</time>
      </trkpt>
      <trkpt lat="45.57656" lon="6.70107">
        <ele>1212.36</ele>
        <time>2016-08-06T07:22:20Z</time>
      </trkpt>
      <trkpt lat="45.57655" lon="6.70116">
        <ele>1212.36</ele>
        <time>2016-08-06T07:22:21Z</time>
      </trkpt>
      <trkpt lat="45.57656" lon="6.70126">
        <ele>1212.36</ele>
        <time>2016-08-06T07:22:22Z</time>
      </trkpt>
      <trkpt lat="45.57658" lon="6.70134">
        <ele>1212.36</ele>
        <time>2016-08-06T07:22:23Z</time>
      </trkpt>
      <trkpt lat="45.57661" lon="6.70142">
        <ele>1212.36</ele>
        <time>2016-08-06T07:22:24Z</time>
      </trkpt>
      <trkpt lat="45.57665" lon="6.7015">
        <ele>1212.36</ele>
        <time>2016-08-06T07:22:25Z</time>
      </trkpt>
      <trkpt lat="45.57669" lon="6.70158">
        <ele>1211.88</ele>
        <time>2016-08-06T07:22:26Z</time>
      </trkpt>
      <trkpt lat="45.5774" lon="6.7026">
        <ele>1213.32</ele>
        <time>2016-08-06T07:22:41Z</time>
      </trkpt>
      <trkpt lat="45.57749" lon="6.70274">
        <ele>1213.32</ele>
        <time>2016-08-06T07:22:43Z</time>
      </trkpt>
      <trkpt lat="45.57753" lon="6.70282">
        <ele>1213.32</ele>
        <time>2016-08-06T07:22:44Z</time>
      </trkpt>
      <trkpt lat="45.57756" lon="6.70291">
        <ele>1213.32</ele>
        <time>2016-08-06T07:22:45Z</time>
      </trkpt>
      <trkpt lat="45.57759" lon="6.703">
        <ele>1213.32</ele>
        <time>2016-08-06T07:22:46Z</time>
      </trkpt>
      <trkpt lat="45.57762" lon="6.70308">
        <ele>1213.32</ele>
        <time>2016-08-06T07:22:47Z</time>
      </trkpt>
      <trkpt lat="45.57769" lon="6.70325">
        <ele>1213.32</ele>
        <time>2016-08-06T07:22:49Z</time>
      </trkpt>
      <trkpt lat="45.57774" lon="6.70332">
        <ele>1213.32</ele>
        <time>2016-08-06T07:22:50Z</time>
      </trkpt>
      <trkpt lat="45.57779" lon="6.70337">
        <ele>1213.8</ele>
        <time>2016-08-06T07:22:51Z</time>
      </trkpt>
      <trkpt lat="45.57785" lon="6.70342">
        <ele>1213.8</ele>
        <time>2016-08-06T07:22:52Z</time>
      </trkpt>
      <trkpt lat="45.57791" lon="6.70345">
        <ele>1213.8</ele>
        <time>2016-08-06T07:22:53Z</time>
      </trkpt>
      <trkpt lat="45.57798" lon="6.70349">
        <ele>1213.8</ele>
        <time>2016-08-06T07:22:54Z</time>
      </trkpt>
      <trkpt lat="45.5781" lon="6.70357">
        <ele>1213.8</ele>
        <time>2016-08-06T07:22:56Z</time>
      </trkpt>
      <trkpt lat="45.5787" lon="6.70416">
        <ele>1215.24</ele>
        <time>2016-08-06T07:23:07Z</time>
      </trkpt>
      <trkpt lat="45.57876" lon="6.70421">
        <ele>1215.24</ele>
        <time>2016-08-06T07:23:08Z</time>
      </trkpt>
      <trkpt lat="45.57882" lon="6.70424">
        <ele>1215.72</ele>
        <time>2016-08-06T07:23:09Z</time>
      </trkpt>
      <trkpt lat="45.57889" lon="6.70426">
        <ele>1215.72</ele>
        <time>2016-08-06T07:23:10Z</time>
      </trkpt>
      <trkpt lat="45.57895" lon="6.70427">
        <ele>1215.72</ele>
        <time>2016-08-06T07:23:11Z</time>
      </trkpt>
      <trkpt lat="45.57902" lon="6.70426">
        <ele>1216.21</ele>
        <time>2016-08-06T07:23:12Z</time>
      </trkpt>
      <trkpt lat="45.57908" lon="6.70424">
        <ele>1216.21</ele>
        <time>2016-08-06T07:23:13Z</time>
      </trkpt>
      <trkpt lat="45.57915" lon="6.70422">
        <ele>1216.21</ele>
        <time>2016-08-06T07:23:14Z</time>
      </trkpt>
      <trkpt lat="45.57921" lon="6.70421">
        <ele>1216.69</ele>
        <time>2016-08-06T07:23:15Z</time>
      </trkpt>
      <trkpt lat="45.57928" lon="6.70421">
        <ele>1216.21</ele>
        <time>2016-08-06T07:23:16Z</time>
      </trkpt>
      <trkpt lat="45.57934" lon="6.70423">
        <ele>1216.21</ele>
        <time>2016-08-06T07:23:17Z</time>
      </trkpt>
      <trkpt lat="45.5794" lon="6.70427">
        <ele>1216.69</ele>
        <time>2016-08-06T07:23:18Z</time>
      </trkpt>
      <trkpt lat="45.57945" lon="6.70434">
        <ele>1216.69</ele>
        <time>2016-08-06T07:23:19Z</time>
      </trkpt>
      <trkpt lat="45.57949" lon="6.70442">
        <ele>1216.69</ele>
        <time>2016-08-06T07:23:20Z</time>
      </trkpt>
      <trkpt lat="45.57952" lon="6.7045">
        <ele>1216.69</ele>
        <time>2016-08-06T07:23:21Z</time>
      </trkpt>
      <trkpt lat="45.57955" lon="6.70459">
        <ele>1216.69</ele>
        <time>2016-08-06T07:23:22Z</time>
      </trkpt>
      <trkpt lat="45.57959" lon="6.70468">
        <ele>1216.69</ele>
        <time>2016-08-06T07:23:23Z</time>
      </trkpt>
      <trkpt lat="45.58003" lon="6.7059">
        <ele>1216.69</ele>
        <time>2016-08-06T07:23:36Z</time>
      </trkpt>
      <trkpt lat="45.58005" lon="6.706">
        <ele>1216.69</ele>
        <time>2016-08-06T07:23:37Z</time>
      </trkpt>
      <trkpt lat="45.58006" lon="6.70611">
        <ele>1216.69</ele>
        <time>2016-08-06T07:23:38Z</time>
      </trkpt>
      <trkpt lat="45.58012" lon="6.70672">
        <ele>1216.69</ele>
        <time>2016-08-06T07:23:44Z</time>
      </trkpt>
      <trkpt lat="45.58015" lon="6.70681">
        <ele>1216.69</ele>
        <time>2016-08-06T07:23:45Z</time>
      </trkpt>
      <trkpt lat="45.58018" lon="6.7069">
        <ele>1216.69</ele>
        <time>2016-08-06T07:23:46Z</time>
      </trkpt>
      <trkpt lat="45.58022" lon="6.70699">
        <ele>1216.69</ele>
        <time>2016-08-06T07:23:47Z</time>
      </trkpt>
      <trkpt lat="45.58026" lon="6.70707">
        <ele>1216.69</ele>
        <time>2016-08-06T07:23:48Z</time>
      </trkpt>
      <trkpt lat="45.58031" lon="6.70715">
        <ele>1216.69</ele>
        <time>2016-08-06T07:23:49Z</time>
      </trkpt>
      <trkpt lat="45.58095" lon="6.70812">
        <ele>1217.17</ele>
        <time>2016-08-06T07:24:02Z</time>
      </trkpt>
      <trkpt lat="45.58103" lon="6.70823">
        <ele>1218.13</ele>
        <time>2016-08-06T07:24:04Z</time>
      </trkpt>
      <trkpt lat="45.58111" lon="6.70835">
        <ele>1219.57</ele>
        <time>2016-08-06T07:24:06Z</time>
      </trkpt>
      <trkpt lat="45.58134" lon="6.7088">
        <ele>1219.57</ele>
        <time>2016-08-06T07:24:13Z</time>
      </trkpt>
      <trkpt lat="45.58138" lon="6.70886">
        <ele>1220.53</ele>
        <time>2016-08-06T07:24:14Z</time>
      </trkpt>
      <trkpt lat="45.58162" lon="6.70913">
        <ele>1220.53</ele>
        <time>2016-08-06T07:24:19Z</time>
      </trkpt>
      <trkpt lat="45.58167" lon="6.70921">
        <ele>1220.53</ele>
        <time>2016-08-06T07:24:20Z</time>
      </trkpt>
      <trkpt lat="45.5817" lon="6.70929">
        <ele>1220.53</ele>
        <time>2016-08-06T07:24:21Z</time>
      </trkpt>
      <trkpt lat="45.58191" lon="6.70987">
        <ele>1221.49</ele>
        <time>2016-08-06T07:24:28Z</time>
      </trkpt>
      <trkpt lat="45.58192" lon="6.70995">
        <ele>1221.97</ele>
        <time>2016-08-06T07:24:29Z</time>
      </trkpt>
      <trkpt lat="45.58199" lon="6.71052">
        <ele>1220.53</ele>
        <time>2016-08-06T07:24:35Z</time>
      </trkpt>
      <trkpt lat="45.58203" lon="6.71061">
        <ele>1220.53</ele>
        <time>2016-08-06T07:24:36Z</time>
      </trkpt>
      <trkpt lat="45.58207" lon="6.71068">
        <ele>1220.53</ele>
        <time>2016-08-06T07:24:37Z</time>
      </trkpt>
      <trkpt lat="45.58212" lon="6.71074">
        <ele>1220.53</ele>
        <time>2016-08-06T07:24:38Z</time>
      </trkpt>
      <trkpt lat="45.58219" lon="6.71079">
        <ele>1220.53</ele>
        <time>2016-08-06T07:24:39Z</time>
      </trkpt>
      <trkpt lat="45.58229" lon="6.71091">
        <ele>1220.53</ele>
        <time>2016-08-06T07:24:41Z</time>
      </trkpt>
      <trkpt lat="45.58233" lon="6.71098">
        <ele>1220.53</ele>
        <time>2016-08-06T07:24:42Z</time>
      </trkpt>
      <trkpt lat="45.58236" lon="6.71106">
        <ele>1220.53</ele>
        <time>2016-08-06T07:24:43Z</time>
      </trkpt>
      <trkpt lat="45.58237" lon="6.71114">
        <ele>1220.53</ele>
        <time>2016-08-06T07:24:44Z</time>
      </trkpt>
      <trkpt lat="45.58239" lon="6.71123">
        <ele>1221.97</ele>
        <time>2016-08-06T07:24:45Z</time>
      </trkpt>
      <trkpt lat="45.58239" lon="6.7113">
        <ele>1221.97</ele>
        <time>2016-08-06T07:24:46Z</time>
      </trkpt>
      <trkpt lat="45.58239" lon="6.71139">
        <ele>1222.45</ele>
        <time>2016-08-06T07:24:47Z</time>
      </trkpt>
      <trkpt lat="45.58241" lon="6.7121">
        <ele>1224.38</ele>
        <time>2016-08-06T07:24:56Z</time>
      </trkpt>
      <trkpt lat="45.5824" lon="6.71218">
        <ele>1225.34</ele>
        <time>2016-08-06T07:24:57Z</time>
      </trkpt>
      <trkpt lat="45.58239" lon="6.71225">
        <ele>1225.34</ele>
        <time>2016-08-06T07:24:58Z</time>
      </trkpt>
      <trkpt lat="45.58236" lon="6.71287">
        <ele>1228.22</ele>
        <time>2016-08-06T07:25:08Z</time>
      </trkpt>
      <trkpt lat="45.58235" lon="6.71319">
        <ele>1229.18</ele>
        <time>2016-08-06T07:25:13Z</time>
      </trkpt>
      <trkpt lat="45.58236" lon="6.71332">
        <ele>1229.18</ele>
        <time>2016-08-06T07:25:15Z</time>
      </trkpt>
      <trkpt lat="45.58237" lon="6.71338">
        <ele>1229.18</ele>
        <time>2016-08-06T07:25:16Z</time>
      </trkpt>
      <trkpt lat="45.58238" lon="6.71344">
        <ele>1229.18</ele>
        <time>2016-08-06T07:25:17Z</time>
      </trkpt>
      <trkpt lat="45.58241" lon="6.7135">
        <ele>1229.18</ele>
        <time>2016-08-06T07:25:18Z</time>
      </trkpt>
      <trkpt lat="45.58243" lon="6.71358">
        <ele>1229.18</ele>
        <time>2016-08-06T07:25:19Z</time>
      </trkpt>
      <trkpt lat="45.58247" lon="6.71364">
        <ele>1227.74</ele>
        <time>2016-08-06T07:25:20Z</time>
      </trkpt>
      <trkpt lat="45.58252" lon="6.7137">
        <ele>1227.26</ele>
        <time>2016-08-06T07:25:21Z</time>
      </trkpt>
      <trkpt lat="45.58261" lon="6.71384">
        <ele>1226.78</ele>
        <time>2016-08-06T07:25:23Z</time>
      </trkpt>
      <trkpt lat="45.58263" lon="6.71392">
        <ele>1226.78</ele>
        <time>2016-08-06T07:25:24Z</time>
      </trkpt>
      <trkpt lat="45.58262" lon="6.71401">
        <ele>1226.78</ele>
        <time>2016-08-06T07:25:25Z</time>
      </trkpt>
      <trkpt lat="45.5826" lon="6.71409">
        <ele>1226.78</ele>
        <time>2016-08-06T07:25:26Z</time>
      </trkpt>
      <trkpt lat="45.58258" lon="6.71417">
        <ele>1226.3</ele>
        <time>2016-08-06T07:25:27Z</time>
      </trkpt>
      <trkpt lat="45.58255" lon="6.71425">
        <ele>1226.3</ele>
        <time>2016-08-06T07:25:28Z</time>
      </trkpt>
      <trkpt lat="45.58253" lon="6.71434">
        <ele>1225.82</ele>
        <time>2016-08-06T07:25:29Z</time>
      </trkpt>
      <trkpt lat="45.58245" lon="6.71468">
        <ele>1223.9</ele>
        <time>2016-08-06T07:25:33Z</time>
      </trkpt>
      <trkpt lat="45.58239" lon="6.71494">
        <ele>1222.45</ele>
        <time>2016-08-06T07:25:41Z</time>
      </trkpt>
      <trkpt lat="45.58223" lon="6.71526">
        <ele>1219.57</ele>
        <time>2016-08-06T07:25:50Z</time>
      </trkpt>
      <trkpt lat="45.58221" lon="6.71533">
        <ele>1219.57</ele>
        <time>2016-08-06T07:25:51Z</time>
      </trkpt>
      <trkpt lat="45.58213" lon="6.71583">
        <ele>1218.61</ele>
        <time>2016-08-06T07:26:00Z</time>
      </trkpt>
      <trkpt lat="45.58214" lon="6.71596">
        <ele>1217.65</ele>
        <time>2016-08-06T07:26:02Z</time>
      </trkpt>
      <trkpt lat="45.58216" lon="6.71617">
        <ele>1217.17</ele>
        <time>2016-08-06T07:26:05Z</time>
      </trkpt>
      <trkpt lat="45.58221" lon="6.71641">
        <ele>1216.21</ele>
        <time>2016-08-06T07:26:08Z</time>
      </trkpt>
      <trkpt lat="45.58252" lon="6.71738">
        <ele>1213.32</ele>
        <time>2016-08-06T07:26:19Z</time>
      </trkpt>
      <trkpt lat="45.58253" lon="6.71749">
        <ele>1212.84</ele>
        <time>2016-08-06T07:26:20Z</time>
      </trkpt>
      <trkpt lat="45.58253" lon="6.7176">
        <ele>1212.84</ele>
        <time>2016-08-06T07:26:21Z</time>
      </trkpt>
      <trkpt lat="45.58261" lon="6.71883">
        <ele>1209.48</ele>
        <time>2016-08-06T07:26:32Z</time>
      </trkpt>
      <trkpt lat="45.58293" lon="6.71999">
        <ele>1206.11</ele>
        <time>2016-08-06T07:26:42Z</time>
      </trkpt>
      <trkpt lat="45.5832" lon="6.72107">
        <ele>1202.75</ele>
        <time>2016-08-06T07:26:51Z</time>
      </trkpt>
      <trkpt lat="45.58326" lon="6.72133">
        <ele>1201.79</ele>
        <time>2016-08-06T07:26:53Z</time>
      </trkpt>
      <trkpt lat="45.58328" lon="6.72146">
        <ele>1201.79</ele>
        <time>2016-08-06T07:26:54Z</time>
      </trkpt>
      <trkpt lat="45.58328" lon="6.7216">
        <ele>1201.3</ele>
        <time>2016-08-06T07:26:55Z</time>
      </trkpt>
      <trkpt lat="45.58327" lon="6.72174">
        <ele>1200.34</ele>
        <time>2016-08-06T07:26:56Z</time>
      </trkpt>
      <trkpt lat="45.58325" lon="6.72187">
        <ele>1199.86</ele>
        <time>2016-08-06T07:26:57Z</time>
      </trkpt>
      <trkpt lat="45.58324" lon="6.72201">
        <ele>1200.34</ele>
        <time>2016-08-06T07:26:58Z</time>
      </trkpt>
      <trkpt lat="45.58325" lon="6.72215">
        <ele>1199.38</ele>
        <time>2016-08-06T07:26:59Z</time>
      </trkpt>
      <trkpt lat="45.58326" lon="6.72229">
        <ele>1198.9</ele>
        <time>2016-08-06T07:27:00Z</time>
      </trkpt>
      <trkpt lat="45.58328" lon="6.72242">
        <ele>1198.9</ele>
        <time>2016-08-06T07:27:01Z</time>
      </trkpt>
      <trkpt lat="45.58331" lon="6.72256">
        <ele>1197.94</ele>
        <time>2016-08-06T07:27:02Z</time>
      </trkpt>
      <trkpt lat="45.58338" lon="6.72355">
        <ele>1195.06</ele>
        <time>2016-08-06T07:27:09Z</time>
      </trkpt>
      <trkpt lat="45.58336" lon="6.72369">
        <ele>1194.58</ele>
        <time>2016-08-06T07:27:10Z</time>
      </trkpt>
      <trkpt lat="45.58333" lon="6.72383">
        <ele>1194.09</ele>
        <time>2016-08-06T07:27:11Z</time>
      </trkpt>
      <trkpt lat="45.58329" lon="6.72395">
        <ele>1194.09</ele>
        <time>2016-08-06T07:27:12Z</time>
      </trkpt>
      <trkpt lat="45.58323" lon="6.72408">
        <ele>1193.61</ele>
        <time>2016-08-06T07:27:13Z</time>
      </trkpt>
      <trkpt lat="45.58316" lon="6.72431">
        <ele>1193.13</ele>
        <time>2016-08-06T07:27:15Z</time>
      </trkpt>
      <trkpt lat="45.58316" lon="6.72443">
        <ele>1192.17</ele>
        <time>2016-08-06T07:27:16Z</time>
      </trkpt>
      <trkpt lat="45.58319" lon="6.72454">
        <ele>1192.17</ele>
        <time>2016-08-06T07:27:17Z</time>
      </trkpt>
      <trkpt lat="45.58325" lon="6.72462">
        <ele>1192.17</ele>
        <time>2016-08-06T07:27:18Z</time>
      </trkpt>
      <trkpt lat="45.58332" lon="6.72469">
        <ele>1191.69</ele>
        <time>2016-08-06T07:27:19Z</time>
      </trkpt>
      <trkpt lat="45.5834" lon="6.72476">
        <ele>1190.73</ele>
        <time>2016-08-06T07:27:20Z</time>
      </trkpt>
      <trkpt lat="45.58347" lon="6.72482">
        <ele>1190.73</ele>
        <time>2016-08-06T07:27:21Z</time>
      </trkpt>
      <trkpt lat="45.58371" lon="6.72502">
        <ele>1190.25</ele>
        <time>2016-08-06T07:27:24Z</time>
      </trkpt>
      <trkpt lat="45.58377" lon="6.7251">
        <ele>1188.81</ele>
        <time>2016-08-06T07:27:25Z</time>
      </trkpt>
      <trkpt lat="45.58381" lon="6.72521">
        <ele>1188.33</ele>
        <time>2016-08-06T07:27:26Z</time>
      </trkpt>
      <trkpt lat="45.58383" lon="6.72534">
        <ele>1187.85</ele>
        <time>2016-08-06T07:27:27Z</time>
      </trkpt>
      <trkpt lat="45.58384" lon="6.72547">
        <ele>1187.85</ele>
        <time>2016-08-06T07:27:28Z</time>
      </trkpt>
      <trkpt lat="45.58387" lon="6.7256">
        <ele>1186.88</ele>
        <time>2016-08-06T07:27:29Z</time>
      </trkpt>
      <trkpt lat="45.5839" lon="6.72572">
        <ele>1186.88</ele>
        <time>2016-08-06T07:27:30Z</time>
      </trkpt>
      <trkpt lat="45.58395" lon="6.72584">
        <ele>1186.88</ele>
        <time>2016-08-06T07:27:31Z</time>
      </trkpt>
      <trkpt lat="45.58436" lon="6.72659">
        <ele>1183.52</ele>
        <time>2016-08-06T07:27:38Z</time>
      </trkpt>
      <trkpt lat="45.58465" lon="6.72715">
        <ele>1181.12</ele>
        <time>2016-08-06T07:27:43Z</time>
      </trkpt>
      <trkpt lat="45.58469" lon="6.72728">
        <ele>1180.16</ele>
        <time>2016-08-06T07:27:44Z</time>
      </trkpt>
      <trkpt lat="45.58476" lon="6.72755">
        <ele>1180.16</ele>
        <time>2016-08-06T07:27:46Z</time>
      </trkpt>
      <trkpt lat="45.58481" lon="6.72767">
        <ele>1179.67</ele>
        <time>2016-08-06T07:27:47Z</time>
      </trkpt>
      <trkpt lat="45.58488" lon="6.72777">
        <ele>1179.67</ele>
        <time>2016-08-06T07:27:48Z</time>
      </trkpt>
      <trkpt lat="45.58495" lon="6.72786">
        <ele>1179.19</ele>
        <time>2016-08-06T07:27:49Z</time>
      </trkpt>
      <trkpt lat="45.58503" lon="6.72794">
        <ele>1178.71</ele>
        <time>2016-08-06T07:27:50Z</time>
      </trkpt>
      <trkpt lat="45.58511" lon="6.72801">
        <ele>1178.71</ele>
        <time>2016-08-06T07:27:51Z</time>
      </trkpt>
      <trkpt lat="45.58551" lon="6.72842">
        <ele>1175.83</ele>
        <time>2016-08-06T07:27:56Z</time>
      </trkpt>
      <trkpt lat="45.58556" lon="6.72853">
        <ele>1175.83</ele>
        <time>2016-08-06T07:27:57Z</time>
      </trkpt>
      <trkpt lat="45.58559" lon="6.72867">
        <ele>1175.83</ele>
        <time>2016-08-06T07:27:58Z</time>
      </trkpt>
      <trkpt lat="45.58559" lon="6.7288">
        <ele>1174.87</ele>
        <time>2016-08-06T07:27:59Z</time>
      </trkpt>
      <trkpt lat="45.58559" lon="6.72894">
        <ele>1174.39</ele>
        <time>2016-08-06T07:28:00Z</time>
      </trkpt>
      <trkpt lat="45.58559" lon="6.72937">
        <ele>1173.43</ele>
        <time>2016-08-06T07:28:03Z</time>
      </trkpt>
      <trkpt lat="45.58561" lon="6.7295">
        <ele>1173.43</ele>
        <time>2016-08-06T07:28:04Z</time>
      </trkpt>
      <trkpt lat="45.58564" lon="6.72963">
        <ele>1172.95</ele>
        <time>2016-08-06T07:28:05Z</time>
      </trkpt>
      <trkpt lat="45.58569" lon="6.72974">
        <ele>1172.47</ele>
        <time>2016-08-06T07:28:06Z</time>
      </trkpt>
      <trkpt lat="45.58575" lon="6.72984">
        <ele>1172.47</ele>
        <time>2016-08-06T07:28:07Z</time>
      </trkpt>
      <trkpt lat="45.58582" lon="6.72993">
        <ele>1171.98</ele>
        <time>2016-08-06T07:28:08Z</time>
      </trkpt>
      <trkpt lat="45.58616" lon="6.73049">
        <ele>1169.1</ele>
        <time>2016-08-06T07:28:14Z</time>
      </trkpt>
      <trkpt lat="45.58647" lon="6.73131">
        <ele>1167.18</ele>
        <time>2016-08-06T07:28:23Z</time>
      </trkpt>
      <trkpt lat="45.58653" lon="6.73143">
        <ele>1167.18</ele>
        <time>2016-08-06T07:28:25Z</time>
      </trkpt>
      <trkpt lat="45.58668" lon="6.73202">
        <ele>1167.66</ele>
        <time>2016-08-06T07:28:35Z</time>
      </trkpt>
      <trkpt lat="45.58666" lon="6.73201">
        <ele>1167.66</ele>
        <time>2016-08-06T07:28:57Z</time>
      </trkpt>
      <trkpt lat="45.58667" lon="6.73201">
        <ele>1168.62</ele>
        <time>2016-08-06T07:29:28Z</time>
      </trkpt>
      <trkpt lat="45.58668" lon="6.73201">
        <ele>1168.62</ele>
        <time>2016-08-06T07:29:32Z</time>
      </trkpt>
      <trkpt lat="45.58671" lon="6.73204">
        <ele>1168.62</ele>
        <time>2016-08-06T07:29:34Z</time>
      </trkpt>
      <trkpt lat="45.58673" lon="6.73206">
        <ele>1168.62</ele>
        <time>2016-08-06T07:29:35Z</time>
      </trkpt>
      <trkpt lat="45.5869" lon="6.7323">
        <ele>1168.62</ele>
        <time>2016-08-06T07:29:42Z</time>
      </trkpt>
      <trkpt lat="45.58697" lon="6.73237">
        <ele>1168.62</ele>
        <time>2016-08-06T07:29:44Z</time>
      </trkpt>
      <trkpt lat="45.58701" lon="6.7324">
        <ele>1168.62</ele>
        <time>2016-08-06T07:29:45Z</time>
      </trkpt>
      <trkpt lat="45.58757" lon="6.73275">
        <ele>1168.62</ele>
        <time>2016-08-06T07:29:56Z</time>
      </trkpt>
      <trkpt lat="45.58828" lon="6.73311">
        <ele>1169.58</ele>
        <time>2016-08-06T07:30:08Z</time>
      </trkpt>
      <trkpt lat="45.58834" lon="6.73312">
        <ele>1169.58</ele>
        <time>2016-08-06T07:30:09Z</time>
      </trkpt>
      <trkpt lat="45.58841" lon="6.73311">
        <ele>1169.58</ele>
        <time>2016-08-06T07:30:10Z</time>
      </trkpt>
      <trkpt lat="45.58847" lon="6.7331">
        <ele>1170.06</ele>
        <time>2016-08-06T07:30:11Z</time>
      </trkpt>
      <trkpt lat="45.58854" lon="6.73307">
        <ele>1170.06</ele>
        <time>2016-08-06T07:30:12Z</time>
      </trkpt>
      <trkpt lat="45.58869" lon="6.73304">
        <ele>1170.06</ele>
        <time>2016-08-06T07:30:14Z</time>
      </trkpt>
      <trkpt lat="45.58876" lon="6.73304">
        <ele>1170.06</ele>
        <time>2016-08-06T07:30:15Z</time>
      </trkpt>
      <trkpt lat="45.58883" lon="6.73305">
        <ele>1170.06</ele>
        <time>2016-08-06T07:30:16Z</time>
      </trkpt>
      <trkpt lat="45.5889" lon="6.73308">
        <ele>1170.06</ele>
        <time>2016-08-06T07:30:17Z</time>
      </trkpt>
      <trkpt lat="45.58895" lon="6.73314">
        <ele>1170.06</ele>
        <time>2016-08-06T07:30:18Z</time>
      </trkpt>
      <trkpt lat="45.58898" lon="6.73322">
        <ele>1170.06</ele>
        <time>2016-08-06T07:30:19Z</time>
      </trkpt>
      <trkpt lat="45.589" lon="6.7333">
        <ele>1170.06</ele>
        <time>2016-08-06T07:30:20Z</time>
      </trkpt>
      <trkpt lat="45.58902" lon="6.73339">
        <ele>1170.54</ele>
        <time>2016-08-06T07:30:21Z</time>
      </trkpt>
      <trkpt lat="45.58906" lon="6.73361">
        <ele>1170.54</ele>
        <time>2016-08-06T07:30:24Z</time>
      </trkpt>
      <trkpt lat="45.58909" lon="6.73368">
        <ele>1170.54</ele>
        <time>2016-08-06T07:30:25Z</time>
      </trkpt>
      <trkpt lat="45.58913" lon="6.73373">
        <ele>1170.54</ele>
        <time>2016-08-06T07:30:26Z</time>
      </trkpt>
      <trkpt lat="45.58918" lon="6.73377">
        <ele>1171.02</ele>
        <time>2016-08-06T07:30:27Z</time>
      </trkpt>
      <trkpt lat="45.58924" lon="6.73378">
        <ele>1171.02</ele>
        <time>2016-08-06T07:30:28Z</time>
      </trkpt>
      <trkpt lat="45.5893" lon="6.73376">
        <ele>1171.02</ele>
        <time>2016-08-06T07:30:29Z</time>
      </trkpt>
      <trkpt lat="45.58936" lon="6.73371">
        <ele>1171.02</ele>
        <time>2016-08-06T07:30:30Z</time>
      </trkpt>
      <trkpt lat="45.5894" lon="6.73365">
        <ele>1171.02</ele>
        <time>2016-08-06T07:30:31Z</time>
      </trkpt>
      <trkpt lat="45.58945" lon="6.73359">
        <ele>1171.02</ele>
        <time>2016-08-06T07:30:32Z</time>
      </trkpt>
      <trkpt lat="45.58949" lon="6.73353">
        <ele>1171.5</ele>
        <time>2016-08-06T07:30:33Z</time>
      </trkpt>
      <trkpt lat="45.58961" lon="6.73338">
        <ele>1171.98</ele>
        <time>2016-08-06T07:30:36Z</time>
      </trkpt>
      <trkpt lat="45.58966" lon="6.73334">
        <ele>1171.98</ele>
        <time>2016-08-06T07:30:37Z</time>
      </trkpt>
      <trkpt lat="45.5897" lon="6.73331">
        <ele>1171.98</ele>
        <time>2016-08-06T07:30:38Z</time>
      </trkpt>
      <trkpt lat="45.58975" lon="6.73328">
        <ele>1171.98</ele>
        <time>2016-08-06T07:30:39Z</time>
      </trkpt>
      <trkpt lat="45.5898" lon="6.73328">
        <ele>1171.98</ele>
        <time>2016-08-06T07:30:40Z</time>
      </trkpt>
      <trkpt lat="45.58985" lon="6.73332">
        <ele>1171.5</ele>
        <time>2016-08-06T07:30:41Z</time>
      </trkpt>
      <trkpt lat="45.58988" lon="6.73338">
        <ele>1171.5</ele>
        <time>2016-08-06T07:30:42Z</time>
      </trkpt>
      <trkpt lat="45.5899" lon="6.73347">
        <ele>1171.5</ele>
        <time>2016-08-06T07:30:43Z</time>
      </trkpt>
      <trkpt lat="45.5899" lon="6.73356">
        <ele>1171.5</ele>
        <time>2016-08-06T07:30:44Z</time>
      </trkpt>
      <trkpt lat="45.58991" lon="6.73375">
        <ele>1171.5</ele>
        <time>2016-08-06T07:30:46Z</time>
      </trkpt>
      <trkpt lat="45.58993" lon="6.73383">
        <ele>1171.98</ele>
        <time>2016-08-06T07:30:47Z</time>
      </trkpt>
      <trkpt lat="45.58997" lon="6.73391">
        <ele>1171.98</ele>
        <time>2016-08-06T07:30:48Z</time>
      </trkpt>
      <trkpt lat="45.59001" lon="6.73398">
        <ele>1171.98</ele>
        <time>2016-08-06T07:30:49Z</time>
      </trkpt>
      <trkpt lat="45.59006" lon="6.73403">
        <ele>1171.98</ele>
        <time>2016-08-06T07:30:50Z</time>
      </trkpt>
      <trkpt lat="45.59011" lon="6.73409">
        <ele>1171.98</ele>
        <time>2016-08-06T07:30:51Z</time>
      </trkpt>
      <trkpt lat="45.59017" lon="6.73414">
        <ele>1171.98</ele>
        <time>2016-08-06T07:30:52Z</time>
      </trkpt>
      <trkpt lat="45.59033" lon="6.73429">
        <ele>1171.98</ele>
        <time>2016-08-06T07:30:55Z</time>
      </trkpt>
      <trkpt lat="45.59037" lon="6.73436">
        <ele>1172.95</ele>
        <time>2016-08-06T07:30:56Z</time>
      </trkpt>
      <trkpt lat="45.5904" lon="6.73443">
        <ele>1172.95</ele>
        <time>2016-08-06T07:30:57Z</time>
      </trkpt>
      <trkpt lat="45.59043" lon="6.73451">
        <ele>1172.95</ele>
        <time>2016-08-06T07:30:58Z</time>
      </trkpt>
      <trkpt lat="45.59046" lon="6.73458">
        <ele>1173.43</ele>
        <time>2016-08-06T07:30:59Z</time>
      </trkpt>
      <trkpt lat="45.59052" lon="6.73474">
        <ele>1173.43</ele>
        <time>2016-08-06T07:31:01Z</time>
      </trkpt>
      <trkpt lat="45.59056" lon="6.73481">
        <ele>1173.43</ele>
        <time>2016-08-06T07:31:02Z</time>
      </trkpt>
      <trkpt lat="45.59061" lon="6.73486">
        <ele>1173.43</ele>
        <time>2016-08-06T07:31:03Z</time>
      </trkpt>
      <trkpt lat="45.59068" lon="6.7349">
        <ele>1173.43</ele>
        <time>2016-08-06T07:31:04Z</time>
      </trkpt>
      <trkpt lat="45.59074" lon="6.73493">
        <ele>1173.43</ele>
        <time>2016-08-06T07:31:05Z</time>
      </trkpt>
      <trkpt lat="45.5908" lon="6.73496">
        <ele>1173.43</ele>
        <time>2016-08-06T07:31:06Z</time>
      </trkpt>
      <trkpt lat="45.59103" lon="6.73509">
        <ele>1173.43</ele>
        <time>2016-08-06T07:31:10Z</time>
      </trkpt>
      <trkpt lat="45.59108" lon="6.73514">
        <ele>1173.91</ele>
        <time>2016-08-06T07:31:11Z</time>
      </trkpt>
      <trkpt lat="45.59112" lon="6.73519">
        <ele>1174.39</ele>
        <time>2016-08-06T07:31:12Z</time>
      </trkpt>
      <trkpt lat="45.59116" lon="6.73525">
        <ele>1174.39</ele>
        <time>2016-08-06T07:31:13Z</time>
      </trkpt>
      <trkpt lat="45.5912" lon="6.73531">
        <ele>1174.39</ele>
        <time>2016-08-06T07:31:14Z</time>
      </trkpt>
      <trkpt lat="45.59128" lon="6.73543">
        <ele>1174.87</ele>
        <time>2016-08-06T07:31:16Z</time>
      </trkpt>
      <trkpt lat="45.59137" lon="6.73552">
        <ele>1174.87</ele>
        <time>2016-08-06T07:31:18Z</time>
      </trkpt>
      <trkpt lat="45.59141" lon="6.73555">
        <ele>1175.35</ele>
        <time>2016-08-06T07:31:19Z</time>
      </trkpt>
      <trkpt lat="45.59145" lon="6.73557">
        <ele>1175.83</ele>
        <time>2016-08-06T07:31:20Z</time>
      </trkpt>
      <trkpt lat="45.59149" lon="6.73559">
        <ele>1175.83</ele>
        <time>2016-08-06T07:31:21Z</time>
      </trkpt>
      <trkpt lat="45.59153" lon="6.73562">
        <ele>1175.83</ele>
        <time>2016-08-06T07:31:22Z</time>
      </trkpt>
      <trkpt lat="45.59156" lon="6.73565">
        <ele>1175.83</ele>
        <time>2016-08-06T07:31:23Z</time>
      </trkpt>
      <trkpt lat="45.59159" lon="6.73569">
        <ele>1175.83</ele>
        <time>2016-08-06T07:31:24Z</time>
      </trkpt>
      <trkpt lat="45.59179" lon="6.736">
        <ele>1175.83</ele>
        <time>2016-08-06T07:31:35Z</time>
      </trkpt>
      <trkpt lat="45.59183" lon="6.73602">
        <ele>1175.83</ele>
        <time>2016-08-06T07:31:39Z</time>
      </trkpt>
      <trkpt lat="45.59184" lon="6.736">
        <ele>1175.83</ele>
        <time>2016-08-06T07:31:40Z</time>
      </trkpt>
      <trkpt lat="45.59184" lon="6.73597">
        <ele>1175.83</ele>
        <time>2016-08-06T07:31:41Z</time>
      </trkpt>
      <trkpt lat="45.59182" lon="6.73595">
        <ele>1175.83</ele>
        <time>2016-08-06T07:31:42Z</time>
      </trkpt>
      <trkpt lat="45.5918" lon="6.73594">
        <ele>1175.83</ele>
        <time>2016-08-06T07:31:43Z</time>
      </trkpt>
      <trkpt lat="45.59175" lon="6.73589">
        <ele>1175.83</ele>
        <time>2016-08-06T07:31:45Z</time>
      </trkpt>
      <trkpt lat="45.59152" lon="6.73557">
        <ele>1175.83</ele>
        <time>2016-08-06T07:31:54Z</time>
      </trkpt>
      <trkpt lat="45.59149" lon="6.73556">
        <ele>1175.83</ele>
        <time>2016-08-06T07:31:55Z</time>
      </trkpt>
      <trkpt lat="45.59146" lon="6.73556">
        <ele>1175.83</ele>
        <time>2016-08-06T07:31:56Z</time>
      </trkpt>
      <trkpt lat="45.59143" lon="6.73554">
        <ele>1175.83</ele>
        <time>2016-08-06T07:31:57Z</time>
      </trkpt>
      <trkpt lat="45.5914" lon="6.73553">
        <ele>1175.83</ele>
        <time>2016-08-06T07:31:58Z</time>
      </trkpt>
      <trkpt lat="45.59136" lon="6.7355">
        <ele>1175.83</ele>
        <time>2016-08-06T07:31:59Z</time>
      </trkpt>
      <trkpt lat="45.59133" lon="6.73547">
        <ele>1175.83</ele>
        <time>2016-08-06T07:32:00Z</time>
      </trkpt>
      <trkpt lat="45.5913" lon="6.73543">
        <ele>1175.83</ele>
        <time>2016-08-06T07:32:01Z</time>
      </trkpt>
      <trkpt lat="45.59127" lon="6.73539">
        <ele>1175.83</ele>
        <time>2016-08-06T07:32:02Z</time>
      </trkpt>
      <trkpt lat="45.59123" lon="6.73535">
        <ele>1175.83</ele>
        <time>2016-08-06T07:32:03Z</time>
      </trkpt>
      <trkpt lat="45.5912" lon="6.7353">
        <ele>1174.39</ele>
        <time>2016-08-06T07:32:04Z</time>
      </trkpt>
      <trkpt lat="45.59116" lon="6.73525">
        <ele>1174.39</ele>
        <time>2016-08-06T07:32:05Z</time>
      </trkpt>
      <trkpt lat="45.59105" lon="6.73508">
        <ele>1174.39</ele>
        <time>2016-08-06T07:32:08Z</time>
      </trkpt>
      <trkpt lat="45.59101" lon="6.73504">
        <ele>1173.91</ele>
        <time>2016-08-06T07:32:09Z</time>
      </trkpt>
      <trkpt lat="45.59096" lon="6.73501">
        <ele>1173.91</ele>
        <time>2016-08-06T07:32:10Z</time>
      </trkpt>
      <trkpt lat="45.59091" lon="6.73499">
        <ele>1173.43</ele>
        <time>2016-08-06T07:32:11Z</time>
      </trkpt>
      <trkpt lat="45.59085" lon="6.73496">
        <ele>1173.43</ele>
        <time>2016-08-06T07:32:12Z</time>
      </trkpt>
      <trkpt lat="45.59066" lon="6.73486">
        <ele>1173.43</ele>
        <time>2016-08-06T07:32:16Z</time>
      </trkpt>
      <trkpt lat="45.59062" lon="6.73483">
        <ele>1173.43</ele>
        <time>2016-08-06T07:32:17Z</time>
      </trkpt>
      <trkpt lat="45.59058" lon="6.73479">
        <ele>1173.43</ele>
        <time>2016-08-06T07:32:18Z</time>
      </trkpt>
      <trkpt lat="45.59055" lon="6.73474">
        <ele>1173.43</ele>
        <time>2016-08-06T07:32:19Z</time>
      </trkpt>
      <trkpt lat="45.59052" lon="6.73468">
        <ele>1173.43</ele>
        <time>2016-08-06T07:32:20Z</time>
      </trkpt>
      <trkpt lat="45.59049" lon="6.73461">
        <ele>1173.43</ele>
        <time>2016-08-06T07:32:21Z</time>
      </trkpt>
      <trkpt lat="45.59046" lon="6.73454">
        <ele>1173.43</ele>
        <time>2016-08-06T07:32:22Z</time>
      </trkpt>
      <trkpt lat="45.59041" lon="6.73438">
        <ele>1172.95</ele>
        <time>2016-08-06T07:32:24Z</time>
      </trkpt>
      <trkpt lat="45.59037" lon="6.73431">
        <ele>1172.95</ele>
        <time>2016-08-06T07:32:25Z</time>
      </trkpt>
      <trkpt lat="45.59032" lon="6.73425">
        <ele>1172.47</ele>
        <time>2016-08-06T07:32:26Z</time>
      </trkpt>
      <trkpt lat="45.59026" lon="6.73419">
        <ele>1172.47</ele>
        <time>2016-08-06T07:32:27Z</time>
      </trkpt>
      <trkpt lat="45.5902" lon="6.73414">
        <ele>1171.98</ele>
        <time>2016-08-06T07:32:28Z</time>
      </trkpt>
      <trkpt lat="45.59014" lon="6.73408">
        <ele>1171.98</ele>
        <time>2016-08-06T07:32:29Z</time>
      </trkpt>
      <trkpt lat="45.59009" lon="6.73401">
        <ele>1171.98</ele>
        <time>2016-08-06T07:32:30Z</time>
      </trkpt>
      <trkpt lat="45.59004" lon="6.73394">
        <ele>1171.5</ele>
        <time>2016-08-06T07:32:31Z</time>
      </trkpt>
      <trkpt lat="45.58999" lon="6.73387">
        <ele>1171.98</ele>
        <time>2016-08-06T07:32:32Z</time>
      </trkpt>
      <trkpt lat="45.58996" lon="6.73378">
        <ele>1171.5</ele>
        <time>2016-08-06T07:32:33Z</time>
      </trkpt>
      <trkpt lat="45.58994" lon="6.73368">
        <ele>1171.98</ele>
        <time>2016-08-06T07:32:34Z</time>
      </trkpt>
      <trkpt lat="45.58993" lon="6.73359">
        <ele>1171.5</ele>
        <time>2016-08-06T07:32:35Z</time>
      </trkpt>
      <trkpt lat="45.58992" lon="6.73349">
        <ele>1171.5</ele>
        <time>2016-08-06T07:32:36Z</time>
      </trkpt>
      <trkpt lat="45.5899" lon="6.73339">
        <ele>1171.5</ele>
        <time>2016-08-06T07:32:37Z</time>
      </trkpt>
      <trkpt lat="45.58987" lon="6.73331">
        <ele>1171.98</ele>
        <time>2016-08-06T07:32:38Z</time>
      </trkpt>
      <trkpt lat="45.58981" lon="6.73326">
        <ele>1171.98</ele>
        <time>2016-08-06T07:32:39Z</time>
      </trkpt>
      <trkpt lat="45.58974" lon="6.73326">
        <ele>1171.98</ele>
        <time>2016-08-06T07:32:40Z</time>
      </trkpt>
      <trkpt lat="45.58969" lon="6.73329">
        <ele>1171.98</ele>
        <time>2016-08-06T07:32:41Z</time>
      </trkpt>
      <trkpt lat="45.58963" lon="6.73334">
        <ele>1171.98</ele>
        <time>2016-08-06T07:32:42Z</time>
      </trkpt>
      <trkpt lat="45.58958" lon="6.73339">
        <ele>1171.98</ele>
        <time>2016-08-06T07:32:43Z</time>
      </trkpt>
      <trkpt lat="45.58947" lon="6.73352">
        <ele>1171.98</ele>
        <time>2016-08-06T07:32:45Z</time>
      </trkpt>
      <trkpt lat="45.58942" lon="6.73359">
        <ele>1171.02</ele>
        <time>2016-08-06T07:32:46Z</time>
      </trkpt>
      <trkpt lat="45.58937" lon="6.73366">
        <ele>1171.02</ele>
        <time>2016-08-06T07:32:47Z</time>
      </trkpt>
      <trkpt lat="45.58931" lon="6.73372">
        <ele>1171.02</ele>
        <time>2016-08-06T07:32:48Z</time>
      </trkpt>
      <trkpt lat="45.58925" lon="6.73375">
        <ele>1171.02</ele>
        <time>2016-08-06T07:32:49Z</time>
      </trkpt>
      <trkpt lat="45.58918" lon="6.73373">
        <ele>1171.02</ele>
        <time>2016-08-06T07:32:50Z</time>
      </trkpt>
      <trkpt lat="45.58912" lon="6.73368">
        <ele>1171.02</ele>
        <time>2016-08-06T07:32:51Z</time>
      </trkpt>
      <trkpt lat="45.58908" lon="6.7336">
        <ele>1171.02</ele>
        <time>2016-08-06T07:32:52Z</time>
      </trkpt>
      <trkpt lat="45.58906" lon="6.73351">
        <ele>1171.02</ele>
        <time>2016-08-06T07:32:53Z</time>
      </trkpt>
      <trkpt lat="45.58904" lon="6.73341">
        <ele>1171.02</ele>
        <time>2016-08-06T07:32:54Z</time>
      </trkpt>
      <trkpt lat="45.58896" lon="6.73313">
        <ele>1170.54</ele>
        <time>2016-08-06T07:32:57Z</time>
      </trkpt>
      <trkpt lat="45.58891" lon="6.73307">
        <ele>1170.54</ele>
        <time>2016-08-06T07:32:58Z</time>
      </trkpt>
      <trkpt lat="45.58886" lon="6.73303">
        <ele>1170.54</ele>
        <time>2016-08-06T07:32:59Z</time>
      </trkpt>
      <trkpt lat="45.5888" lon="6.73302">
        <ele>1170.54</ele>
        <time>2016-08-06T07:33:00Z</time>
      </trkpt>
      <trkpt lat="45.58873" lon="6.73302">
        <ele>1170.06</ele>
        <time>2016-08-06T07:33:01Z</time>
      </trkpt>
      <trkpt lat="45.58866" lon="6.73302">
        <ele>1170.06</ele>
        <time>2016-08-06T07:33:02Z</time>
      </trkpt>
      <trkpt lat="45.58859" lon="6.73304">
        <ele>1170.06</ele>
        <time>2016-08-06T07:33:03Z</time>
      </trkpt>
      <trkpt lat="45.58839" lon="6.73308">
        <ele>1170.06</ele>
        <time>2016-08-06T07:33:06Z</time>
      </trkpt>
      <trkpt lat="45.58832" lon="6.73308">
        <ele>1170.06</ele>
        <time>2016-08-06T07:33:07Z</time>
      </trkpt>
      <trkpt lat="45.58825" lon="6.73307">
        <ele>1170.06</ele>
        <time>2016-08-06T07:33:08Z</time>
      </trkpt>
      <trkpt lat="45.58818" lon="6.73305">
        <ele>1170.06</ele>
        <time>2016-08-06T07:33:09Z</time>
      </trkpt>
      <trkpt lat="45.58811" lon="6.73302">
        <ele>1170.06</ele>
        <time>2016-08-06T07:33:10Z</time>
      </trkpt>
      <trkpt lat="45.58724" lon="6.73252">
        <ele>1168.62</ele>
        <time>2016-08-06T07:33:23Z</time>
      </trkpt>
      <trkpt lat="45.58706" lon="6.73241">
        <ele>1168.62</ele>
        <time>2016-08-06T07:33:26Z</time>
      </trkpt>
      <trkpt lat="45.58701" lon="6.73237">
        <ele>1168.62</ele>
        <time>2016-08-06T07:33:27Z</time>
      </trkpt>
      <trkpt lat="45.58696" lon="6.73231">
        <ele>1168.62</ele>
        <time>2016-08-06T07:33:28Z</time>
      </trkpt>
      <trkpt lat="45.58679" lon="6.73208">
        <ele>1168.62</ele>
        <time>2016-08-06T07:33:32Z</time>
      </trkpt>
      <trkpt lat="45.58672" lon="6.73195">
        <ele>1168.62</ele>
        <time>2016-08-06T07:33:34Z</time>
      </trkpt>
      <trkpt lat="45.58651" lon="6.73136">
        <ele>1167.66</ele>
        <time>2016-08-06T07:33:43Z</time>
      </trkpt>
      <trkpt lat="45.5864" lon="6.73117">
        <ele>1167.66</ele>
        <time>2016-08-06T07:33:46Z</time>
      </trkpt>
      <trkpt lat="45.58636" lon="6.73111">
        <ele>1167.66</ele>
        <time>2016-08-06T07:33:47Z</time>
      </trkpt>
      <trkpt lat="45.5859" lon="6.73061">
        <ele>1163.81</ele>
        <time>2016-08-06T07:33:56Z</time>
      </trkpt>
      <trkpt lat="45.58583" lon="6.73054">
        <ele>1163.81</ele>
        <time>2016-08-06T07:33:57Z</time>
      </trkpt>
      <trkpt lat="45.58576" lon="6.73046">
        <ele>1163.33</ele>
        <time>2016-08-06T07:33:58Z</time>
      </trkpt>
      <trkpt lat="45.5857" lon="6.73038">
        <ele>1162.37</ele>
        <time>2016-08-06T07:33:59Z</time>
      </trkpt>
      <trkpt lat="45.58563" lon="6.73029">
        <ele>1162.37</ele>
        <time>2016-08-06T07:34:00Z</time>
      </trkpt>
      <trkpt lat="45.58547" lon="6.73012">
        <ele>1159.97</ele>
        <time>2016-08-06T07:34:02Z</time>
      </trkpt>
      <trkpt lat="45.5854" lon="6.73001">
        <ele>1159.01</ele>
        <time>2016-08-06T07:34:03Z</time>
      </trkpt>
      <trkpt lat="45.58534" lon="6.72989">
        <ele>1158.05</ele>
        <time>2016-08-06T07:34:04Z</time>
      </trkpt>
      <trkpt lat="45.58509" lon="6.72938">
        <ele>1154.68</ele>
        <time>2016-08-06T07:34:08Z</time>
      </trkpt>
      <trkpt lat="45.58482" lon="6.72885">
        <ele>1150.84</ele>
        <time>2016-08-06T07:34:12Z</time>
      </trkpt>
      <trkpt lat="45.58474" lon="6.72874">
        <ele>1150.35</ele>
        <time>2016-08-06T07:34:13Z</time>
      </trkpt>
      <trkpt lat="45.58466" lon="6.72865">
        <ele>1149.39</ele>
        <time>2016-08-06T07:34:14Z</time>
      </trkpt>
      <trkpt lat="45.58456" lon="6.72856">
        <ele>1148.43</ele>
        <time>2016-08-06T07:34:15Z</time>
      </trkpt>
      <trkpt lat="45.58448" lon="6.7285">
        <ele>1147.47</ele>
        <time>2016-08-06T07:34:16Z</time>
      </trkpt>
      <trkpt lat="45.58438" lon="6.72843">
        <ele>1146.99</ele>
        <time>2016-08-06T07:34:17Z</time>
      </trkpt>
      <trkpt lat="45.584" lon="6.72812">
        <ele>1143.14</ele>
        <time>2016-08-06T07:34:21Z</time>
      </trkpt>
      <trkpt lat="45.58382" lon="6.72793">
        <ele>1141.22</ele>
        <time>2016-08-06T07:34:23Z</time>
      </trkpt>
      <trkpt lat="45.58366" lon="6.72777">
        <ele>1139.3</ele>
        <time>2016-08-06T07:34:25Z</time>
      </trkpt>
      <trkpt lat="45.58357" lon="6.72773">
        <ele>1138.82</ele>
        <time>2016-08-06T07:34:26Z</time>
      </trkpt>
      <trkpt lat="45.58348" lon="6.72774">
        <ele>1137.86</ele>
        <time>2016-08-06T07:34:27Z</time>
      </trkpt>
      <trkpt lat="45.58319" lon="6.72782">
        <ele>1134.97</ele>
        <time>2016-08-06T07:34:30Z</time>
      </trkpt>
      <trkpt lat="45.5831" lon="6.72783">
        <ele>1134.49</ele>
        <time>2016-08-06T07:34:31Z</time>
      </trkpt>
      <trkpt lat="45.58301" lon="6.72782">
        <ele>1134.01</ele>
        <time>2016-08-06T07:34:32Z</time>
      </trkpt>
      <trkpt lat="45.58292" lon="6.72778">
        <ele>1133.05</ele>
        <time>2016-08-06T07:34:33Z</time>
      </trkpt>
      <trkpt lat="45.58284" lon="6.72772">
        <ele>1132.57</ele>
        <time>2016-08-06T07:34:34Z</time>
      </trkpt>
      <trkpt lat="45.58276" lon="6.72763">
        <ele>1131.13</ele>
        <time>2016-08-06T07:34:35Z</time>
      </trkpt>
      <trkpt lat="45.5827" lon="6.72753">
        <ele>1130.65</ele>
        <time>2016-08-06T07:34:36Z</time>
      </trkpt>
      <trkpt lat="45.58265" lon="6.72739">
        <ele>1129.69</ele>
        <time>2016-08-06T07:34:37Z</time>
      </trkpt>
      <trkpt lat="45.58262" lon="6.72725">
        <ele>1128.73</ele>
        <time>2016-08-06T07:34:38Z</time>
      </trkpt>
      <trkpt lat="45.58261" lon="6.72708">
        <ele>1128.24</ele>
        <time>2016-08-06T07:34:39Z</time>
      </trkpt>
      <trkpt lat="45.58261" lon="6.72694">
        <ele>1127.28</ele>
        <time>2016-08-06T07:34:40Z</time>
      </trkpt>
      <trkpt lat="45.58263" lon="6.72677">
        <ele>1126.32</ele>
        <time>2016-08-06T07:34:41Z</time>
      </trkpt>
      <trkpt lat="45.58265" lon="6.72662">
        <ele>1125.36</ele>
        <time>2016-08-06T07:34:42Z</time>
      </trkpt>
      <trkpt lat="45.58268" lon="6.72645">
        <ele>1124.4</ele>
        <time>2016-08-06T07:34:43Z</time>
      </trkpt>
      <trkpt lat="45.58272" lon="6.72614">
        <ele>1122.48</ele>
        <time>2016-08-06T07:34:45Z</time>
      </trkpt>
      <trkpt lat="45.58272" lon="6.72598">
        <ele>1121.52</ele>
        <time>2016-08-06T07:34:46Z</time>
      </trkpt>
      <trkpt lat="45.58268" lon="6.72583">
        <ele>1120.55</ele>
        <time>2016-08-06T07:34:47Z</time>
      </trkpt>
      <trkpt lat="45.58261" lon="6.7257">
        <ele>1119.59</ele>
        <time>2016-08-06T07:34:48Z</time>
      </trkpt>
      <trkpt lat="45.58252" lon="6.72559">
        <ele>1119.11</ele>
        <time>2016-08-06T07:34:49Z</time>
      </trkpt>
      <trkpt lat="45.58243" lon="6.72548">
        <ele>1117.67</ele>
        <time>2016-08-06T07:34:50Z</time>
      </trkpt>
      <trkpt lat="45.58214" lon="6.72518">
        <ele>1114.79</ele>
        <time>2016-08-06T07:34:53Z</time>
      </trkpt>
      <trkpt lat="45.58183" lon="6.7249">
        <ele>1111.9</ele>
        <time>2016-08-06T07:34:56Z</time>
      </trkpt>
      <trkpt lat="45.58151" lon="6.72469">
        <ele>1108.54</ele>
        <time>2016-08-06T07:34:59Z</time>
      </trkpt>
      <trkpt lat="45.58141" lon="6.7246">
        <ele>1107.58</ele>
        <time>2016-08-06T07:35:00Z</time>
      </trkpt>
      <trkpt lat="45.5811" lon="6.72431">
        <ele>1104.21</ele>
        <time>2016-08-06T07:35:03Z</time>
      </trkpt>
      <trkpt lat="45.58099" lon="6.72425">
        <ele>1103.25</ele>
        <time>2016-08-06T07:35:04Z</time>
      </trkpt>
      <trkpt lat="45.58086" lon="6.7242">
        <ele>1102.29</ele>
        <time>2016-08-06T07:35:05Z</time>
      </trkpt>
      <trkpt lat="45.58076" lon="6.72414">
        <ele>1101.33</ele>
        <time>2016-08-06T07:35:06Z</time>
      </trkpt>
      <trkpt lat="45.58065" lon="6.72405">
        <ele>1100.37</ele>
        <time>2016-08-06T07:35:07Z</time>
      </trkpt>
      <trkpt lat="45.58055" lon="6.72393">
        <ele>1099.4</ele>
        <time>2016-08-06T07:35:08Z</time>
      </trkpt>
      <trkpt lat="45.58046" lon="6.7238">
        <ele>1097.96</ele>
        <time>2016-08-06T07:35:09Z</time>
      </trkpt>
      <trkpt lat="45.58038" lon="6.72368">
        <ele>1097</ele>
        <time>2016-08-06T07:35:10Z</time>
      </trkpt>
      <trkpt lat="45.58009" lon="6.72329">
        <ele>1093.64</ele>
        <time>2016-08-06T07:35:13Z</time>
      </trkpt>
      <trkpt lat="45.57981" lon="6.72292">
        <ele>1090.27</ele>
        <time>2016-08-06T07:35:16Z</time>
      </trkpt>
      <trkpt lat="45.5795" lon="6.72238">
        <ele>1086.43</ele>
        <time>2016-08-06T07:35:20Z</time>
      </trkpt>
      <trkpt lat="45.57923" lon="6.72188">
        <ele>1083.06</ele>
        <time>2016-08-06T07:35:24Z</time>
      </trkpt>
      <trkpt lat="45.57909" lon="6.72164">
        <ele>1081.14</ele>
        <time>2016-08-06T07:35:26Z</time>
      </trkpt>
      <trkpt lat="45.579" lon="6.72154">
        <ele>1080.18</ele>
        <time>2016-08-06T07:35:27Z</time>
      </trkpt>
      <trkpt lat="45.57861" lon="6.72119">
        <ele>1076.81</ele>
        <time>2016-08-06T07:35:31Z</time>
      </trkpt>
      <trkpt lat="45.57843" lon="6.721">
        <ele>1074.89</ele>
        <time>2016-08-06T07:35:33Z</time>
      </trkpt>
      <trkpt lat="45.57836" lon="6.72086">
        <ele>1073.45</ele>
        <time>2016-08-06T07:35:34Z</time>
      </trkpt>
      <trkpt lat="45.57832" lon="6.7207">
        <ele>1072.97</ele>
        <time>2016-08-06T07:35:35Z</time>
      </trkpt>
      <trkpt lat="45.57829" lon="6.72054">
        <ele>1072.01</ele>
        <time>2016-08-06T07:35:36Z</time>
      </trkpt>
      <trkpt lat="45.57829" lon="6.72036">
        <ele>1071.05</ele>
        <time>2016-08-06T07:35:37Z</time>
      </trkpt>
      <trkpt lat="45.5783" lon="6.72018">
        <ele>1069.6</ele>
        <time>2016-08-06T07:35:38Z</time>
      </trkpt>
      <trkpt lat="45.57832" lon="6.72001">
        <ele>1068.64</ele>
        <time>2016-08-06T07:35:39Z</time>
      </trkpt>
      <trkpt lat="45.57833" lon="6.71983">
        <ele>1067.68</ele>
        <time>2016-08-06T07:35:40Z</time>
      </trkpt>
      <trkpt lat="45.57833" lon="6.71965">
        <ele>1066.72</ele>
        <time>2016-08-06T07:35:41Z</time>
      </trkpt>
      <trkpt lat="45.57831" lon="6.71947">
        <ele>1065.28</ele>
        <time>2016-08-06T07:35:42Z</time>
      </trkpt>
      <trkpt lat="45.5782" lon="6.71874">
        <ele>1061.43</ele>
        <time>2016-08-06T07:35:46Z</time>
      </trkpt>
      <trkpt lat="45.57816" lon="6.71817">
        <ele>1058.55</ele>
        <time>2016-08-06T07:35:49Z</time>
      </trkpt>
      <trkpt lat="45.57812" lon="6.71779">
        <ele>1056.15</ele>
        <time>2016-08-06T07:35:51Z</time>
      </trkpt>
      <trkpt lat="45.57802" lon="6.71729">
        <ele>1052.78</ele>
        <time>2016-08-06T07:35:54Z</time>
      </trkpt>
      <trkpt lat="45.57796" lon="6.71711">
        <ele>1051.82</ele>
        <time>2016-08-06T07:35:55Z</time>
      </trkpt>
      <trkpt lat="45.5779" lon="6.717">
        <ele>1050.86</ele>
        <time>2016-08-06T07:35:56Z</time>
      </trkpt>
      <trkpt lat="45.57783" lon="6.71687">
        <ele>1050.38</ele>
        <time>2016-08-06T07:35:57Z</time>
      </trkpt>
      <trkpt lat="45.57776" lon="6.71672">
        <ele>1048.94</ele>
        <time>2016-08-06T07:35:58Z</time>
      </trkpt>
      <trkpt lat="45.57771" lon="6.71657">
        <ele>1047.49</ele>
        <time>2016-08-06T07:35:59Z</time>
      </trkpt>
      <trkpt lat="45.57747" lon="6.71593">
        <ele>1043.65</ele>
        <time>2016-08-06T07:36:03Z</time>
      </trkpt>
      <trkpt lat="45.57741" lon="6.71577">
        <ele>1042.21</ele>
        <time>2016-08-06T07:36:04Z</time>
      </trkpt>
      <trkpt lat="45.57737" lon="6.71561">
        <ele>1040.76</ele>
        <time>2016-08-06T07:36:05Z</time>
      </trkpt>
      <trkpt lat="45.57734" lon="6.71543">
        <ele>1040.28</ele>
        <time>2016-08-06T07:36:06Z</time>
      </trkpt>
      <trkpt lat="45.57731" lon="6.71525">
        <ele>1038.84</ele>
        <time>2016-08-06T07:36:07Z</time>
      </trkpt>
      <trkpt lat="45.5773" lon="6.71507">
        <ele>1037.88</ele>
        <time>2016-08-06T07:36:08Z</time>
      </trkpt>
      <trkpt lat="45.5773" lon="6.71489">
        <ele>1036.44</ele>
        <time>2016-08-06T07:36:09Z</time>
      </trkpt>
      <trkpt lat="45.57731" lon="6.71471">
        <ele>1035.96</ele>
        <time>2016-08-06T07:36:10Z</time>
      </trkpt>
      <trkpt lat="45.57733" lon="6.71453">
        <ele>1035</ele>
        <time>2016-08-06T07:36:11Z</time>
      </trkpt>
      <trkpt lat="45.57731" lon="6.71403">
        <ele>1032.11</ele>
        <time>2016-08-06T07:36:14Z</time>
      </trkpt>
      <trkpt lat="45.57728" lon="6.71388">
        <ele>1031.15</ele>
        <time>2016-08-06T07:36:15Z</time>
      </trkpt>
      <trkpt lat="45.57722" lon="6.71375">
        <ele>1030.19</ele>
        <time>2016-08-06T07:36:16Z</time>
      </trkpt>
      <trkpt lat="45.57716" lon="6.71364">
        <ele>1029.71</ele>
        <time>2016-08-06T07:36:17Z</time>
      </trkpt>
      <trkpt lat="45.57709" lon="6.71356">
        <ele>1029.23</ele>
        <time>2016-08-06T07:36:18Z</time>
      </trkpt>
      <trkpt lat="45.57703" lon="6.7135">
        <ele>1028.75</ele>
        <time>2016-08-06T07:36:19Z</time>
      </trkpt>
      <trkpt lat="45.57697" lon="6.71347">
        <ele>1028.27</ele>
        <time>2016-08-06T07:36:20Z</time>
      </trkpt>
      <trkpt lat="45.57691" lon="6.71348">
        <ele>1028.27</ele>
        <time>2016-08-06T07:36:21Z</time>
      </trkpt>
      <trkpt lat="45.57687" lon="6.71354">
        <ele>1027.79</ele>
        <time>2016-08-06T07:36:22Z</time>
      </trkpt>
      <trkpt lat="45.57685" lon="6.71363">
        <ele>1027.31</ele>
        <time>2016-08-06T07:36:23Z</time>
      </trkpt>
      <trkpt lat="45.57687" lon="6.71374">
        <ele>1026.34</ele>
        <time>2016-08-06T07:36:24Z</time>
      </trkpt>
      <trkpt lat="45.57691" lon="6.71385">
        <ele>1025.38</ele>
        <time>2016-08-06T07:36:25Z</time>
      </trkpt>
      <trkpt lat="45.57695" lon="6.71397">
        <ele>1024.42</ele>
        <time>2016-08-06T07:36:26Z</time>
      </trkpt>
      <trkpt lat="45.57698" lon="6.7141">
        <ele>1023.46</ele>
        <time>2016-08-06T07:36:27Z</time>
      </trkpt>
      <trkpt lat="45.57699" lon="6.71425">
        <ele>1022.5</ele>
        <time>2016-08-06T07:36:28Z</time>
      </trkpt>
      <trkpt lat="45.57698" lon="6.7144">
        <ele>1022.02</ele>
        <time>2016-08-06T07:36:29Z</time>
      </trkpt>
      <trkpt lat="45.57695" lon="6.71455">
        <ele>1021.06</ele>
        <time>2016-08-06T07:36:30Z</time>
      </trkpt>
      <trkpt lat="45.57692" lon="6.7147">
        <ele>1020.1</ele>
        <time>2016-08-06T07:36:31Z</time>
      </trkpt>
      <trkpt lat="45.57689" lon="6.71486">
        <ele>1019.13</ele>
        <time>2016-08-06T07:36:32Z</time>
      </trkpt>
      <trkpt lat="45.57687" lon="6.71503">
        <ele>1018.17</ele>
        <time>2016-08-06T07:36:33Z</time>
      </trkpt>
      <trkpt lat="45.57685" lon="6.71519">
        <ele>1017.21</ele>
        <time>2016-08-06T07:36:34Z</time>
      </trkpt>
      <trkpt lat="45.57679" lon="6.71586">
        <ele>1013.37</ele>
        <time>2016-08-06T07:36:38Z</time>
      </trkpt>
      <trkpt lat="45.57676" lon="6.71638">
        <ele>1010</ele>
        <time>2016-08-06T07:36:41Z</time>
      </trkpt>
      <trkpt lat="45.57672" lon="6.71691">
        <ele>1006.64</ele>
        <time>2016-08-06T07:36:44Z</time>
      </trkpt>
      <trkpt lat="45.5767" lon="6.71743">
        <ele>1004.23</ele>
        <time>2016-08-06T07:36:47Z</time>
      </trkpt>
      <trkpt lat="45.57673" lon="6.71759">
        <ele>1003.27</ele>
        <time>2016-08-06T07:36:48Z</time>
      </trkpt>
      <trkpt lat="45.57677" lon="6.71774">
        <ele>1002.31</ele>
        <time>2016-08-06T07:36:49Z</time>
      </trkpt>
      <trkpt lat="45.57685" lon="6.71789">
        <ele>1001.35</ele>
        <time>2016-08-06T07:36:50Z</time>
      </trkpt>
      <trkpt lat="45.5769" lon="6.71801">
        <ele>1000.39</ele>
        <time>2016-08-06T07:36:51Z</time>
      </trkpt>
      <trkpt lat="45.57695" lon="6.71816">
        <ele>999.43</ele>
        <time>2016-08-06T07:36:52Z</time>
      </trkpt>
      <trkpt lat="45.57697" lon="6.71833">
        <ele>998.47</ele>
        <time>2016-08-06T07:36:53Z</time>
      </trkpt>
      <trkpt lat="45.57697" lon="6.7185">
        <ele>997.02</ele>
        <time>2016-08-06T07:36:54Z</time>
      </trkpt>
      <trkpt lat="45.57697" lon="6.71868">
        <ele>995.58</ele>
        <time>2016-08-06T07:36:55Z</time>
      </trkpt>
      <trkpt lat="45.57694" lon="6.71923">
        <ele>992.7</ele>
        <time>2016-08-06T07:36:58Z</time>
      </trkpt>
      <trkpt lat="45.5769" lon="6.71978">
        <ele>989.81</ele>
        <time>2016-08-06T07:37:01Z</time>
      </trkpt>
      <trkpt lat="45.57686" lon="6.72034">
        <ele>986.45</ele>
        <time>2016-08-06T07:37:04Z</time>
      </trkpt>
      <trkpt lat="45.57682" lon="6.72081">
        <ele>983.57</ele>
        <time>2016-08-06T07:37:07Z</time>
      </trkpt>
      <trkpt lat="45.57683" lon="6.72095">
        <ele>983.09</ele>
        <time>2016-08-06T07:37:08Z</time>
      </trkpt>
      <trkpt lat="45.57684" lon="6.72106">
        <ele>982.12</ele>
        <time>2016-08-06T07:37:09Z</time>
      </trkpt>
      <trkpt lat="45.57685" lon="6.72115">
        <ele>982.12</ele>
        <time>2016-08-06T07:37:10Z</time>
      </trkpt>
      <trkpt lat="45.57683" lon="6.72121">
        <ele>981.64</ele>
        <time>2016-08-06T07:37:11Z</time>
      </trkpt>
      <trkpt lat="45.57678" lon="6.72122">
        <ele>981.64</ele>
        <time>2016-08-06T07:37:12Z</time>
      </trkpt>
      <trkpt lat="45.57674" lon="6.72116">
        <ele>980.2</ele>
        <time>2016-08-06T07:37:13Z</time>
      </trkpt>
      <trkpt lat="45.57672" lon="6.72107">
        <ele>980.2</ele>
        <time>2016-08-06T07:37:14Z</time>
      </trkpt>
      <trkpt lat="45.57671" lon="6.72096">
        <ele>979.24</ele>
        <time>2016-08-06T07:37:15Z</time>
      </trkpt>
      <trkpt lat="45.57671" lon="6.72085">
        <ele>978.76</ele>
        <time>2016-08-06T07:37:16Z</time>
      </trkpt>
      <trkpt lat="45.57664" lon="6.7202">
        <ele>974.91</ele>
        <time>2016-08-06T07:37:21Z</time>
      </trkpt>
      <trkpt lat="45.57661" lon="6.72006">
        <ele>973.95</ele>
        <time>2016-08-06T07:37:22Z</time>
      </trkpt>
      <trkpt lat="45.57651" lon="6.71964">
        <ele>971.55</ele>
        <time>2016-08-06T07:37:25Z</time>
      </trkpt>
      <trkpt lat="45.57646" lon="6.7195">
        <ele>970.59</ele>
        <time>2016-08-06T07:37:26Z</time>
      </trkpt>
      <trkpt lat="45.57641" lon="6.71936">
        <ele>969.63</ele>
        <time>2016-08-06T07:37:27Z</time>
      </trkpt>
      <trkpt lat="45.57623" lon="6.71895">
        <ele>967.22</ele>
        <time>2016-08-06T07:37:30Z</time>
      </trkpt>
      <trkpt lat="45.57591" lon="6.71846">
        <ele>963.38</ele>
        <time>2016-08-06T07:37:34Z</time>
      </trkpt>
      <trkpt lat="45.57567" lon="6.71807">
        <ele>960.01</ele>
        <time>2016-08-06T07:37:37Z</time>
      </trkpt>
      <trkpt lat="45.5756" lon="6.71791">
        <ele>959.05</ele>
        <time>2016-08-06T07:37:38Z</time>
      </trkpt>
      <trkpt lat="45.57549" lon="6.71759">
        <ele>956.65</ele>
        <time>2016-08-06T07:37:40Z</time>
      </trkpt>
      <trkpt lat="45.57541" lon="6.71745">
        <ele>956.17</ele>
        <time>2016-08-06T07:37:41Z</time>
      </trkpt>
      <trkpt lat="45.57532" lon="6.71731">
        <ele>954.73</ele>
        <time>2016-08-06T07:37:42Z</time>
      </trkpt>
      <trkpt lat="45.57505" lon="6.71693">
        <ele>951.84</ele>
        <time>2016-08-06T07:37:45Z</time>
      </trkpt>
      <trkpt lat="45.57477" lon="6.71653">
        <ele>948</ele>
        <time>2016-08-06T07:37:48Z</time>
      </trkpt>
      <trkpt lat="45.57469" lon="6.71639">
        <ele>947.04</ele>
        <time>2016-08-06T07:37:49Z</time>
      </trkpt>
      <trkpt lat="45.57462" lon="6.71623">
        <ele>945.59</ele>
        <time>2016-08-06T07:37:50Z</time>
      </trkpt>
      <trkpt lat="45.57457" lon="6.71606">
        <ele>944.63</ele>
        <time>2016-08-06T07:37:51Z</time>
      </trkpt>
      <trkpt lat="45.57453" lon="6.71589">
        <ele>943.67</ele>
        <time>2016-08-06T07:37:52Z</time>
      </trkpt>
      <trkpt lat="45.57449" lon="6.71571">
        <ele>942.23</ele>
        <time>2016-08-06T07:37:53Z</time>
      </trkpt>
      <trkpt lat="45.57448" lon="6.71554">
        <ele>941.27</ele>
        <time>2016-08-06T07:37:54Z</time>
      </trkpt>
      <trkpt lat="45.57448" lon="6.71542">
        <ele>940.31</ele>
        <time>2016-08-06T07:37:55Z</time>
      </trkpt>
      <trkpt lat="45.57451" lon="6.71529">
        <ele>939.83</ele>
        <time>2016-08-06T07:37:56Z</time>
      </trkpt>
      <trkpt lat="45.57452" lon="6.71518">
        <ele>939.83</ele>
        <time>2016-08-06T07:37:57Z</time>
      </trkpt>
      <trkpt lat="45.57451" lon="6.7151">
        <ele>939.83</ele>
        <time>2016-08-06T07:37:58Z</time>
      </trkpt>
      <trkpt lat="45.57446" lon="6.71505">
        <ele>938.86</ele>
        <time>2016-08-06T07:37:59Z</time>
      </trkpt>
      <trkpt lat="45.57439" lon="6.71506">
        <ele>938.38</ele>
        <time>2016-08-06T07:38:00Z</time>
      </trkpt>
      <trkpt lat="45.57436" lon="6.71512">
        <ele>937.9</ele>
        <time>2016-08-06T07:38:01Z</time>
      </trkpt>
      <trkpt lat="45.57433" lon="6.71521">
        <ele>937.42</ele>
        <time>2016-08-06T07:38:02Z</time>
      </trkpt>
      <trkpt lat="45.57431" lon="6.71532">
        <ele>936.46</ele>
        <time>2016-08-06T07:38:03Z</time>
      </trkpt>
      <trkpt lat="45.57428" lon="6.71542">
        <ele>935.98</ele>
        <time>2016-08-06T07:38:04Z</time>
      </trkpt>
      <trkpt lat="45.57423" lon="6.71553">
        <ele>935.02</ele>
        <time>2016-08-06T07:38:05Z</time>
      </trkpt>
      <trkpt lat="45.57417" lon="6.71563">
        <ele>934.54</ele>
        <time>2016-08-06T07:38:06Z</time>
      </trkpt>
      <trkpt lat="45.5741" lon="6.71573">
        <ele>934.06</ele>
        <time>2016-08-06T07:38:07Z</time>
      </trkpt>
      <trkpt lat="45.57405" lon="6.71585">
        <ele>933.1</ele>
        <time>2016-08-06T07:38:08Z</time>
      </trkpt>
      <trkpt lat="45.57401" lon="6.71598">
        <ele>932.62</ele>
        <time>2016-08-06T07:38:09Z</time>
      </trkpt>
      <trkpt lat="45.574" lon="6.71613">
        <ele>931.65</ele>
        <time>2016-08-06T07:38:10Z</time>
      </trkpt>
      <trkpt lat="45.574" lon="6.71628">
        <ele>930.69</ele>
        <time>2016-08-06T07:38:11Z</time>
      </trkpt>
      <trkpt lat="45.57401" lon="6.71643">
        <ele>929.73</ele>
        <time>2016-08-06T07:38:12Z</time>
      </trkpt>
      <trkpt lat="45.57404" lon="6.71674">
        <ele>927.81</ele>
        <time>2016-08-06T07:38:14Z</time>
      </trkpt>
      <trkpt lat="45.57407" lon="6.71691">
        <ele>926.85</ele>
        <time>2016-08-06T07:38:15Z</time>
      </trkpt>
      <trkpt lat="45.57412" lon="6.71705">
        <ele>925.89</ele>
        <time>2016-08-06T07:38:16Z</time>
      </trkpt>
      <trkpt lat="45.57419" lon="6.7172">
        <ele>924.93</ele>
        <time>2016-08-06T07:38:17Z</time>
      </trkpt>
      <trkpt lat="45.57425" lon="6.71734">
        <ele>923.96</ele>
        <time>2016-08-06T07:38:18Z</time>
      </trkpt>
      <trkpt lat="45.57431" lon="6.7175">
        <ele>923</ele>
        <time>2016-08-06T07:38:19Z</time>
      </trkpt>
      <trkpt lat="45.57436" lon="6.71766">
        <ele>922.04</ele>
        <time>2016-08-06T07:38:20Z</time>
      </trkpt>
      <trkpt lat="45.5744" lon="6.71785">
        <ele>920.6</ele>
        <time>2016-08-06T07:38:21Z</time>
      </trkpt>
      <trkpt lat="45.57443" lon="6.71803">
        <ele>919.16</ele>
        <time>2016-08-06T07:38:22Z</time>
      </trkpt>
      <trkpt lat="45.57443" lon="6.71822">
        <ele>918.2</ele>
        <time>2016-08-06T07:38:23Z</time>
      </trkpt>
      <trkpt lat="45.57442" lon="6.71838">
        <ele>917.24</ele>
        <time>2016-08-06T07:38:24Z</time>
      </trkpt>
      <trkpt lat="45.57441" lon="6.71856">
        <ele>915.79</ele>
        <time>2016-08-06T07:38:25Z</time>
      </trkpt>
      <trkpt lat="45.57439" lon="6.71873">
        <ele>915.31</ele>
        <time>2016-08-06T07:38:26Z</time>
      </trkpt>
      <trkpt lat="45.57438" lon="6.71889">
        <ele>914.35</ele>
        <time>2016-08-06T07:38:27Z</time>
      </trkpt>
      <trkpt lat="45.5744" lon="6.71905">
        <ele>913.39</ele>
        <time>2016-08-06T07:38:28Z</time>
      </trkpt>
      <trkpt lat="45.57445" lon="6.71919">
        <ele>912.43</ele>
        <time>2016-08-06T07:38:29Z</time>
      </trkpt>
      <trkpt lat="45.57451" lon="6.71934">
        <ele>911.95</ele>
        <time>2016-08-06T07:38:30Z</time>
      </trkpt>
      <trkpt lat="45.57453" lon="6.71949">
        <ele>910.51</ele>
        <time>2016-08-06T07:38:31Z</time>
      </trkpt>
      <trkpt lat="45.57455" lon="6.71964">
        <ele>910.03</ele>
        <time>2016-08-06T07:38:32Z</time>
      </trkpt>
      <trkpt lat="45.57456" lon="6.71985">
        <ele>909.54</ele>
        <time>2016-08-06T07:38:34Z</time>
      </trkpt>
      <trkpt lat="45.57454" lon="6.71992">
        <ele>909.06</ele>
        <time>2016-08-06T07:38:35Z</time>
      </trkpt>
      <trkpt lat="45.5745" lon="6.71994">
        <ele>908.58</ele>
        <time>2016-08-06T07:38:36Z</time>
      </trkpt>
      <trkpt lat="45.57446" lon="6.71991">
        <ele>908.58</ele>
        <time>2016-08-06T07:38:37Z</time>
      </trkpt>
      <trkpt lat="45.57445" lon="6.71983">
        <ele>907.62</ele>
        <time>2016-08-06T07:38:38Z</time>
      </trkpt>
      <trkpt lat="45.57445" lon="6.71974">
        <ele>907.62</ele>
        <time>2016-08-06T07:38:39Z</time>
      </trkpt>
      <trkpt lat="45.57444" lon="6.71964">
        <ele>906.66</ele>
        <time>2016-08-06T07:38:40Z</time>
      </trkpt>
      <trkpt lat="45.57443" lon="6.71954">
        <ele>906.18</ele>
        <time>2016-08-06T07:38:41Z</time>
      </trkpt>
      <trkpt lat="45.5744" lon="6.71944">
        <ele>905.7</ele>
        <time>2016-08-06T07:38:42Z</time>
      </trkpt>
      <trkpt lat="45.57434" lon="6.71935">
        <ele>905.22</ele>
        <time>2016-08-06T07:38:43Z</time>
      </trkpt>
      <trkpt lat="45.57427" lon="6.71929">
        <ele>904.26</ele>
        <time>2016-08-06T07:38:44Z</time>
      </trkpt>
      <trkpt lat="45.57419" lon="6.71922">
        <ele>903.78</ele>
        <time>2016-08-06T07:38:45Z</time>
      </trkpt>
      <trkpt lat="45.57413" lon="6.71913">
        <ele>902.82</ele>
        <time>2016-08-06T07:38:46Z</time>
      </trkpt>
      <trkpt lat="45.57408" lon="6.71901">
        <ele>901.85</ele>
        <time>2016-08-06T07:38:47Z</time>
      </trkpt>
      <trkpt lat="45.57403" lon="6.71888">
        <ele>901.37</ele>
        <time>2016-08-06T07:38:48Z</time>
      </trkpt>
      <trkpt lat="45.57391" lon="6.71864">
        <ele>899.45</ele>
        <time>2016-08-06T07:38:50Z</time>
      </trkpt>
      <trkpt lat="45.57383" lon="6.71852">
        <ele>898.49</ele>
        <time>2016-08-06T07:38:51Z</time>
      </trkpt>
      <trkpt lat="45.57374" lon="6.71841">
        <ele>897.05</ele>
        <time>2016-08-06T07:38:52Z</time>
      </trkpt>
      <trkpt lat="45.57366" lon="6.71832">
        <ele>896.57</ele>
        <time>2016-08-06T07:38:53Z</time>
      </trkpt>
      <trkpt lat="45.57356" lon="6.71822">
        <ele>896.09</ele>
        <time>2016-08-06T07:38:54Z</time>
      </trkpt>
      <trkpt lat="45.57327" lon="6.71794">
        <ele>892.24</ele>
        <time>2016-08-06T07:38:57Z</time>
      </trkpt>
      <trkpt lat="45.57287" lon="6.71755">
        <ele>888.4</ele>
        <time>2016-08-06T07:39:01Z</time>
      </trkpt>
      <trkpt lat="45.57247" lon="6.71715">
        <ele>884.55</ele>
        <time>2016-08-06T07:39:05Z</time>
      </trkpt>
      <trkpt lat="45.57221" lon="6.71685">
        <ele>881.19</ele>
        <time>2016-08-06T07:39:08Z</time>
      </trkpt>
      <trkpt lat="45.57216" lon="6.71674">
        <ele>880.71</ele>
        <time>2016-08-06T07:39:09Z</time>
      </trkpt>
      <trkpt lat="45.57214" lon="6.71661">
        <ele>879.74</ele>
        <time>2016-08-06T07:39:10Z</time>
      </trkpt>
      <trkpt lat="45.57216" lon="6.71651">
        <ele>878.78</ele>
        <time>2016-08-06T07:39:11Z</time>
      </trkpt>
      <trkpt lat="45.57223" lon="6.7164">
        <ele>877.82</ele>
        <time>2016-08-06T07:39:12Z</time>
      </trkpt>
      <trkpt lat="45.57231" lon="6.71633">
        <ele>876.86</ele>
        <time>2016-08-06T07:39:13Z</time>
      </trkpt>
      <trkpt lat="45.5724" lon="6.71626">
        <ele>875.9</ele>
        <time>2016-08-06T07:39:14Z</time>
      </trkpt>
      <trkpt lat="45.57248" lon="6.71617">
        <ele>874.94</ele>
        <time>2016-08-06T07:39:15Z</time>
      </trkpt>
      <trkpt lat="45.57255" lon="6.71606">
        <ele>874.46</ele>
        <time>2016-08-06T07:39:16Z</time>
      </trkpt>
      <trkpt lat="45.57262" lon="6.71593">
        <ele>873.5</ele>
        <time>2016-08-06T07:39:17Z</time>
      </trkpt>
      <trkpt lat="45.57266" lon="6.7158">
        <ele>872.53</ele>
        <time>2016-08-06T07:39:18Z</time>
      </trkpt>
      <trkpt lat="45.57271" lon="6.71564">
        <ele>871.57</ele>
        <time>2016-08-06T07:39:19Z</time>
      </trkpt>
      <trkpt lat="45.57275" lon="6.71548">
        <ele>870.61</ele>
        <time>2016-08-06T07:39:20Z</time>
      </trkpt>
      <trkpt lat="45.5728" lon="6.71533">
        <ele>869.65</ele>
        <time>2016-08-06T07:39:21Z</time>
      </trkpt>
      <trkpt lat="45.57287" lon="6.7152">
        <ele>869.17</ele>
        <time>2016-08-06T07:39:22Z</time>
      </trkpt>
      <trkpt lat="45.57293" lon="6.71509">
        <ele>868.21</ele>
        <time>2016-08-06T07:39:23Z</time>
      </trkpt>
      <trkpt lat="45.57298" lon="6.71498">
        <ele>867.73</ele>
        <time>2016-08-06T07:39:24Z</time>
      </trkpt>
      <trkpt lat="45.573" lon="6.71487">
        <ele>867.73</ele>
        <time>2016-08-06T07:39:25Z</time>
      </trkpt>
      <trkpt lat="45.57299" lon="6.71478">
        <ele>866.77</ele>
        <time>2016-08-06T07:39:26Z</time>
      </trkpt>
      <trkpt lat="45.57294" lon="6.71469">
        <ele>865.8</ele>
        <time>2016-08-06T07:39:27Z</time>
      </trkpt>
      <trkpt lat="45.57288" lon="6.71462">
        <ele>865.32</ele>
        <time>2016-08-06T07:39:28Z</time>
      </trkpt>
      <trkpt lat="45.57279" lon="6.71456">
        <ele>864.36</ele>
        <time>2016-08-06T07:39:29Z</time>
      </trkpt>
      <trkpt lat="45.57271" lon="6.71451">
        <ele>863.4</ele>
        <time>2016-08-06T07:39:30Z</time>
      </trkpt>
      <trkpt lat="45.57232" lon="6.71424">
        <ele>860.04</ele>
        <time>2016-08-06T07:39:34Z</time>
      </trkpt>
      <trkpt lat="45.57222" lon="6.71419">
        <ele>859.08</ele>
        <time>2016-08-06T07:39:35Z</time>
      </trkpt>
      <trkpt lat="45.57178" lon="6.714">
        <ele>855.23</ele>
        <time>2016-08-06T07:39:39Z</time>
      </trkpt>
      <trkpt lat="45.57157" lon="6.71387">
        <ele>853.31</ele>
        <time>2016-08-06T07:39:41Z</time>
      </trkpt>
      <trkpt lat="45.57151" lon="6.71378">
        <ele>852.35</ele>
        <time>2016-08-06T07:39:42Z</time>
      </trkpt>
      <trkpt lat="45.57147" lon="6.71364">
        <ele>851.38</ele>
        <time>2016-08-06T07:39:43Z</time>
      </trkpt>
      <trkpt lat="45.57147" lon="6.71349">
        <ele>850.9</ele>
        <time>2016-08-06T07:39:44Z</time>
      </trkpt>
      <trkpt lat="45.57147" lon="6.71334">
        <ele>849.46</ele>
        <time>2016-08-06T07:39:45Z</time>
      </trkpt>
      <trkpt lat="45.57147" lon="6.71286">
        <ele>846.58</ele>
        <time>2016-08-06T07:39:48Z</time>
      </trkpt>
      <trkpt lat="45.57141" lon="6.71235">
        <ele>843.69</ele>
        <time>2016-08-06T07:39:51Z</time>
      </trkpt>
      <trkpt lat="45.57134" lon="6.71169">
        <ele>839.85</ele>
        <time>2016-08-06T07:39:55Z</time>
      </trkpt>
      <trkpt lat="45.57133" lon="6.71155">
        <ele>838.89</ele>
        <time>2016-08-06T07:39:56Z</time>
      </trkpt>
      <trkpt lat="45.57134" lon="6.71143">
        <ele>837.93</ele>
        <time>2016-08-06T07:39:57Z</time>
      </trkpt>
      <trkpt lat="45.57136" lon="6.71131">
        <ele>837.93</ele>
        <time>2016-08-06T07:39:58Z</time>
      </trkpt>
      <trkpt lat="45.57137" lon="6.71122">
        <ele>837.93</ele>
        <time>2016-08-06T07:39:59Z</time>
      </trkpt>
      <trkpt lat="45.57135" lon="6.71114">
        <ele>836.96</ele>
        <time>2016-08-06T07:40:00Z</time>
      </trkpt>
      <trkpt lat="45.5713" lon="6.71109">
        <ele>836.48</ele>
        <time>2016-08-06T07:40:01Z</time>
      </trkpt>
      <trkpt lat="45.57124" lon="6.71111">
        <ele>836</ele>
        <time>2016-08-06T07:40:02Z</time>
      </trkpt>
      <trkpt lat="45.5712" lon="6.71118">
        <ele>835.52</ele>
        <time>2016-08-06T07:40:03Z</time>
      </trkpt>
      <trkpt lat="45.57119" lon="6.71129">
        <ele>835.04</ele>
        <time>2016-08-06T07:40:04Z</time>
      </trkpt>
      <trkpt lat="45.5712" lon="6.71141">
        <ele>834.08</ele>
        <time>2016-08-06T07:40:05Z</time>
      </trkpt>
      <trkpt lat="45.57121" lon="6.71151">
        <ele>833.6</ele>
        <time>2016-08-06T07:40:06Z</time>
      </trkpt>
      <trkpt lat="45.57122" lon="6.71191">
        <ele>832.16</ele>
        <time>2016-08-06T07:40:09Z</time>
      </trkpt>
      <trkpt lat="45.57111" lon="6.71267">
        <ele>828.31</ele>
        <time>2016-08-06T07:40:14Z</time>
      </trkpt>
      <trkpt lat="45.5711" lon="6.71284">
        <ele>826.87</ele>
        <time>2016-08-06T07:40:15Z</time>
      </trkpt>
      <trkpt lat="45.57109" lon="6.71299">
        <ele>825.91</ele>
        <time>2016-08-06T07:40:16Z</time>
      </trkpt>
      <trkpt lat="45.57104" lon="6.71367">
        <ele>821.58</ele>
        <time>2016-08-06T07:40:20Z</time>
      </trkpt>
      <trkpt lat="45.57098" lon="6.71429">
        <ele>818.22</ele>
        <time>2016-08-06T07:40:24Z</time>
      </trkpt>
      <trkpt lat="45.57102" lon="6.71442">
        <ele>817.26</ele>
        <time>2016-08-06T07:40:25Z</time>
      </trkpt>
      <trkpt lat="45.57107" lon="6.71451">
        <ele>816.78</ele>
        <time>2016-08-06T07:40:26Z</time>
      </trkpt>
      <trkpt lat="45.57116" lon="6.71459">
        <ele>815.82</ele>
        <time>2016-08-06T07:40:27Z</time>
      </trkpt>
      <trkpt lat="45.57124" lon="6.71465">
        <ele>814.85</ele>
        <time>2016-08-06T07:40:28Z</time>
      </trkpt>
      <trkpt lat="45.57133" lon="6.71471">
        <ele>813.89</ele>
        <time>2016-08-06T07:40:29Z</time>
      </trkpt>
      <trkpt lat="45.57144" lon="6.71476">
        <ele>813.89</ele>
        <time>2016-08-06T07:40:30Z</time>
      </trkpt>
      <trkpt lat="45.5717" lon="6.71488">
        <ele>811.97</ele>
        <time>2016-08-06T07:40:33Z</time>
      </trkpt>
      <trkpt lat="45.57175" lon="6.71492">
        <ele>811.49</ele>
        <time>2016-08-06T07:40:34Z</time>
      </trkpt>
      <trkpt lat="45.57179" lon="6.71498">
        <ele>811.01</ele>
        <time>2016-08-06T07:40:35Z</time>
      </trkpt>
      <trkpt lat="45.57179" lon="6.71505">
        <ele>811.01</ele>
        <time>2016-08-06T07:40:36Z</time>
      </trkpt>
      <trkpt lat="45.57176" lon="6.71511">
        <ele>810.05</ele>
        <time>2016-08-06T07:40:37Z</time>
      </trkpt>
      <trkpt lat="45.5717" lon="6.7151">
        <ele>810.05</ele>
        <time>2016-08-06T07:40:38Z</time>
      </trkpt>
      <trkpt lat="45.57164" lon="6.71505">
        <ele>809.09</ele>
        <time>2016-08-06T07:40:39Z</time>
      </trkpt>
      <trkpt lat="45.57156" lon="6.71498">
        <ele>808.61</ele>
        <time>2016-08-06T07:40:40Z</time>
      </trkpt>
      <trkpt lat="45.57149" lon="6.71492">
        <ele>808.61</ele>
        <time>2016-08-06T07:40:41Z</time>
      </trkpt>
      <trkpt lat="45.57141" lon="6.71488">
        <ele>807.16</ele>
        <time>2016-08-06T07:40:42Z</time>
      </trkpt>
      <trkpt lat="45.57101" lon="6.71471">
        <ele>804.28</ele>
        <time>2016-08-06T07:40:46Z</time>
      </trkpt>
      <trkpt lat="45.57074" lon="6.71454">
        <ele>800.92</ele>
        <time>2016-08-06T07:40:49Z</time>
      </trkpt>
      <trkpt lat="45.57069" lon="6.71446">
        <ele>800.44</ele>
        <time>2016-08-06T07:40:50Z</time>
      </trkpt>
      <trkpt lat="45.57066" lon="6.71435">
        <ele>799.47</ele>
        <time>2016-08-06T07:40:51Z</time>
      </trkpt>
      <trkpt lat="45.57065" lon="6.71422">
        <ele>798.51</ele>
        <time>2016-08-06T07:40:52Z</time>
      </trkpt>
      <trkpt lat="45.57064" lon="6.71409">
        <ele>798.03</ele>
        <time>2016-08-06T07:40:53Z</time>
      </trkpt>
      <trkpt lat="45.57061" lon="6.71396">
        <ele>797.07</ele>
        <time>2016-08-06T07:40:54Z</time>
      </trkpt>
      <trkpt lat="45.57057" lon="6.71385">
        <ele>796.59</ele>
        <time>2016-08-06T07:40:55Z</time>
      </trkpt>
      <trkpt lat="45.5705" lon="6.71375">
        <ele>796.11</ele>
        <time>2016-08-06T07:40:56Z</time>
      </trkpt>
      <trkpt lat="45.57043" lon="6.71368">
        <ele>795.15</ele>
        <time>2016-08-06T07:40:57Z</time>
      </trkpt>
      <trkpt lat="45.57035" lon="6.71363">
        <ele>794.67</ele>
        <time>2016-08-06T07:40:58Z</time>
      </trkpt>
      <trkpt lat="45.57025" lon="6.71358">
        <ele>793.22</ele>
        <time>2016-08-06T07:40:59Z</time>
      </trkpt>
      <trkpt lat="45.56985" lon="6.71339">
        <ele>790.34</ele>
        <time>2016-08-06T07:41:04Z</time>
      </trkpt>
      <trkpt lat="45.56949" lon="6.7132">
        <ele>787.94</ele>
        <time>2016-08-06T07:41:08Z</time>
      </trkpt>
      <trkpt lat="45.56923" lon="6.71307">
        <ele>785.53</ele>
        <time>2016-08-06T07:41:11Z</time>
      </trkpt>
      <trkpt lat="45.56905" lon="6.71297">
        <ele>784.09</ele>
        <time>2016-08-06T07:41:14Z</time>
      </trkpt>
      <trkpt lat="45.56898" lon="6.71298">
        <ele>782.65</ele>
        <time>2016-08-06T07:41:18Z</time>
      </trkpt>
      <trkpt lat="45.56897" lon="6.71302">
        <ele>782.65</ele>
        <time>2016-08-06T07:41:19Z</time>
      </trkpt>
      <trkpt lat="45.56897" lon="6.71305">
        <ele>783.13</ele>
        <time>2016-08-06T07:41:20Z</time>
      </trkpt>
      <trkpt lat="45.56898" lon="6.7131">
        <ele>783.13</ele>
        <time>2016-08-06T07:41:21Z</time>
      </trkpt>
      <trkpt lat="45.56899" lon="6.71315">
        <ele>782.65</ele>
        <time>2016-08-06T07:41:22Z</time>
      </trkpt>
      <trkpt lat="45.56903" lon="6.71332">
        <ele>782.17</ele>
        <time>2016-08-06T07:41:25Z</time>
      </trkpt>
      <trkpt lat="45.56904" lon="6.71338">
        <ele>782.17</ele>
        <time>2016-08-06T07:41:26Z</time>
      </trkpt>
      <trkpt lat="45.56902" lon="6.71342">
        <ele>781.69</ele>
        <time>2016-08-06T07:41:27Z</time>
      </trkpt>
      <trkpt lat="45.56898" lon="6.71345">
        <ele>781.69</ele>
        <time>2016-08-06T07:41:28Z</time>
      </trkpt>
      <trkpt lat="45.56894" lon="6.71345">
        <ele>781.21</ele>
        <time>2016-08-06T07:41:29Z</time>
      </trkpt>
      <trkpt lat="45.56888" lon="6.71345">
        <ele>780.25</ele>
        <time>2016-08-06T07:41:30Z</time>
      </trkpt>
      <trkpt lat="45.56883" lon="6.71343">
        <ele>780.25</ele>
        <time>2016-08-06T07:41:31Z</time>
      </trkpt>
      <trkpt lat="45.56877" lon="6.71339">
        <ele>780.25</ele>
        <time>2016-08-06T07:41:32Z</time>
      </trkpt>
      <trkpt lat="45.56871" lon="6.71333">
        <ele>779.29</ele>
        <time>2016-08-06T07:41:33Z</time>
      </trkpt>
      <trkpt lat="45.56868" lon="6.71327">
        <ele>779.29</ele>
        <time>2016-08-06T07:41:34Z</time>
      </trkpt>
      <trkpt lat="45.56864" lon="6.71319">
        <ele>778.32</ele>
        <time>2016-08-06T07:41:35Z</time>
      </trkpt>
      <trkpt lat="45.56861" lon="6.71312">
        <ele>777.84</ele>
        <time>2016-08-06T07:41:36Z</time>
      </trkpt>
      <trkpt lat="45.56856" lon="6.71308">
        <ele>777.84</ele>
        <time>2016-08-06T07:41:37Z</time>
      </trkpt>
      <trkpt lat="45.5685" lon="6.71309">
        <ele>776.88</ele>
        <time>2016-08-06T07:41:38Z</time>
      </trkpt>
      <trkpt lat="45.56845" lon="6.71314">
        <ele>776.4</ele>
        <time>2016-08-06T07:41:39Z</time>
      </trkpt>
      <trkpt lat="45.56843" lon="6.71323">
        <ele>776.4</ele>
        <time>2016-08-06T07:41:40Z</time>
      </trkpt>
      <trkpt lat="45.56844" lon="6.71332">
        <ele>775.44</ele>
        <time>2016-08-06T07:41:41Z</time>
      </trkpt>
      <trkpt lat="45.56845" lon="6.71343">
        <ele>774.96</ele>
        <time>2016-08-06T07:41:42Z</time>
      </trkpt>
      <trkpt lat="45.56854" lon="6.71403">
        <ele>771.11</ele>
        <time>2016-08-06T07:41:47Z</time>
      </trkpt>
      <trkpt lat="45.56865" lon="6.71466">
        <ele>767.75</ele>
        <time>2016-08-06T07:41:52Z</time>
      </trkpt>
      <trkpt lat="45.56868" lon="6.71476">
        <ele>767.75</ele>
        <time>2016-08-06T07:41:53Z</time>
      </trkpt>
      <trkpt lat="45.56875" lon="6.715">
        <ele>766.31</ele>
        <time>2016-08-06T07:41:56Z</time>
      </trkpt>
      <trkpt lat="45.56875" lon="6.71505">
        <ele>766.31</ele>
        <time>2016-08-06T07:41:57Z</time>
      </trkpt>
      <trkpt lat="45.56874" lon="6.71509">
        <ele>766.31</ele>
        <time>2016-08-06T07:41:58Z</time>
      </trkpt>
      <trkpt lat="45.56872" lon="6.71511">
        <ele>766.31</ele>
        <time>2016-08-06T07:41:59Z</time>
      </trkpt>
      <trkpt lat="45.5687" lon="6.71512">
        <ele>766.31</ele>
        <time>2016-08-06T07:42:00Z</time>
      </trkpt>
      <trkpt lat="45.56868" lon="6.71513">
        <ele>765.83</ele>
        <time>2016-08-06T07:42:01Z</time>
      </trkpt>
      <trkpt lat="45.56866" lon="6.71515">
        <ele>765.83</ele>
        <time>2016-08-06T07:42:02Z</time>
      </trkpt>
      <trkpt lat="45.56863" lon="6.71519">
        <ele>765.83</ele>
        <time>2016-08-06T07:42:03Z</time>
      </trkpt>
      <trkpt lat="45.56861" lon="6.71523">
        <ele>765.83</ele>
        <time>2016-08-06T07:42:04Z</time>
      </trkpt>
      <trkpt lat="45.56858" lon="6.71526">
        <ele>765.83</ele>
        <time>2016-08-06T07:42:05Z</time>
      </trkpt>
      <trkpt lat="45.56854" lon="6.71528">
        <ele>765.83</ele>
        <time>2016-08-06T07:42:06Z</time>
      </trkpt>
      <trkpt lat="45.5685" lon="6.71528">
        <ele>765.83</ele>
        <time>2016-08-06T07:42:07Z</time>
      </trkpt>
      <trkpt lat="45.56845" lon="6.71529">
        <ele>765.83</ele>
        <time>2016-08-06T07:42:08Z</time>
      </trkpt>
      <trkpt lat="45.5684" lon="6.71528">
        <ele>764.87</ele>
        <time>2016-08-06T07:42:09Z</time>
      </trkpt>
      <trkpt lat="45.56834" lon="6.71525">
        <ele>764.39</ele>
        <time>2016-08-06T07:42:10Z</time>
      </trkpt>
      <trkpt lat="45.56829" lon="6.7152">
        <ele>763.9</ele>
        <time>2016-08-06T07:42:11Z</time>
      </trkpt>
      <trkpt lat="45.56823" lon="6.71513">
        <ele>763.42</ele>
        <time>2016-08-06T07:42:12Z</time>
      </trkpt>
      <trkpt lat="45.56818" lon="6.71504">
        <ele>762.94</ele>
        <time>2016-08-06T07:42:13Z</time>
      </trkpt>
      <trkpt lat="45.56809" lon="6.71485">
        <ele>761.5</ele>
        <time>2016-08-06T07:42:15Z</time>
      </trkpt>
      <trkpt lat="45.56804" lon="6.71474">
        <ele>760.06</ele>
        <time>2016-08-06T07:42:16Z</time>
      </trkpt>
      <trkpt lat="45.56793" lon="6.71438">
        <ele>758.62</ele>
        <time>2016-08-06T07:42:19Z</time>
      </trkpt>
      <trkpt lat="45.56791" lon="6.71425">
        <ele>758.14</ele>
        <time>2016-08-06T07:42:20Z</time>
      </trkpt>
      <trkpt lat="45.5679" lon="6.71411">
        <ele>757.18</ele>
        <time>2016-08-06T07:42:21Z</time>
      </trkpt>
      <trkpt lat="45.5679" lon="6.71397">
        <ele>756.21</ele>
        <time>2016-08-06T07:42:22Z</time>
      </trkpt>
      <trkpt lat="45.56791" lon="6.71382">
        <ele>755.73</ele>
        <time>2016-08-06T07:42:23Z</time>
      </trkpt>
      <trkpt lat="45.56793" lon="6.71368">
        <ele>755.25</ele>
        <time>2016-08-06T07:42:24Z</time>
      </trkpt>
      <trkpt lat="45.56797" lon="6.71329">
        <ele>752.85</ele>
        <time>2016-08-06T07:42:27Z</time>
      </trkpt>
      <trkpt lat="45.56797" lon="6.71318">
        <ele>752.37</ele>
        <time>2016-08-06T07:42:28Z</time>
      </trkpt>
      <trkpt lat="45.56795" lon="6.71309">
        <ele>752.37</ele>
        <time>2016-08-06T07:42:29Z</time>
      </trkpt>
      <trkpt lat="45.5679" lon="6.71302">
        <ele>751.41</ele>
        <time>2016-08-06T07:42:30Z</time>
      </trkpt>
      <trkpt lat="45.56785" lon="6.713">
        <ele>750.93</ele>
        <time>2016-08-06T07:42:31Z</time>
      </trkpt>
      <trkpt lat="45.56779" lon="6.71303">
        <ele>750.45</ele>
        <time>2016-08-06T07:42:32Z</time>
      </trkpt>
      <trkpt lat="45.56775" lon="6.71311">
        <ele>749.49</ele>
        <time>2016-08-06T07:42:33Z</time>
      </trkpt>
      <trkpt lat="45.56775" lon="6.71322">
        <ele>749</ele>
        <time>2016-08-06T07:42:34Z</time>
      </trkpt>
      <trkpt lat="45.56776" lon="6.71334">
        <ele>748.04</ele>
        <time>2016-08-06T07:42:35Z</time>
      </trkpt>
      <trkpt lat="45.56775" lon="6.71358">
        <ele>746.12</ele>
        <time>2016-08-06T07:42:37Z</time>
      </trkpt>
      <trkpt lat="45.56773" lon="6.7137">
        <ele>746.12</ele>
        <time>2016-08-06T07:42:38Z</time>
      </trkpt>
      <trkpt lat="45.56771" lon="6.71382">
        <ele>745.64</ele>
        <time>2016-08-06T07:42:39Z</time>
      </trkpt>
      <trkpt lat="45.56767" lon="6.71407">
        <ele>744.68</ele>
        <time>2016-08-06T07:42:41Z</time>
      </trkpt>
      <trkpt lat="45.56768" lon="6.7142">
        <ele>743.72</ele>
        <time>2016-08-06T07:42:42Z</time>
      </trkpt>
      <trkpt lat="45.5677" lon="6.7143">
        <ele>743.72</ele>
        <time>2016-08-06T07:42:43Z</time>
      </trkpt>
      <trkpt lat="45.56768" lon="6.71439">
        <ele>742.76</ele>
        <time>2016-08-06T07:42:44Z</time>
      </trkpt>
      <trkpt lat="45.56764" lon="6.71444">
        <ele>742.76</ele>
        <time>2016-08-06T07:42:45Z</time>
      </trkpt>
      <trkpt lat="45.56758" lon="6.71444">
        <ele>741.31</ele>
        <time>2016-08-06T07:42:46Z</time>
      </trkpt>
      <trkpt lat="45.56754" lon="6.71437">
        <ele>740.83</ele>
        <time>2016-08-06T07:42:47Z</time>
      </trkpt>
      <trkpt lat="45.56751" lon="6.71427">
        <ele>740.83</ele>
        <time>2016-08-06T07:42:48Z</time>
      </trkpt>
      <trkpt lat="45.56751" lon="6.71416">
        <ele>739.87</ele>
        <time>2016-08-06T07:42:49Z</time>
      </trkpt>
      <trkpt lat="45.5675" lon="6.71405">
        <ele>739.87</ele>
        <time>2016-08-06T07:42:50Z</time>
      </trkpt>
      <trkpt lat="45.56748" lon="6.71394">
        <ele>739.39</ele>
        <time>2016-08-06T07:42:51Z</time>
      </trkpt>
      <trkpt lat="45.56745" lon="6.71384">
        <ele>738.43</ele>
        <time>2016-08-06T07:42:52Z</time>
      </trkpt>
      <trkpt lat="45.5674" lon="6.71377">
        <ele>738.43</ele>
        <time>2016-08-06T07:42:53Z</time>
      </trkpt>
      <trkpt lat="45.56733" lon="6.71372">
        <ele>736.99</ele>
        <time>2016-08-06T07:42:54Z</time>
      </trkpt>
      <trkpt lat="45.56726" lon="6.71373">
        <ele>736.99</ele>
        <time>2016-08-06T07:42:55Z</time>
      </trkpt>
      <trkpt lat="45.56721" lon="6.71378">
        <ele>735.55</ele>
        <time>2016-08-06T07:42:56Z</time>
      </trkpt>
      <trkpt lat="45.56717" lon="6.71389">
        <ele>735.07</ele>
        <time>2016-08-06T07:42:57Z</time>
      </trkpt>
      <trkpt lat="45.56716" lon="6.71401">
        <ele>734.1</ele>
        <time>2016-08-06T07:42:58Z</time>
      </trkpt>
      <trkpt lat="45.56715" lon="6.71413">
        <ele>733.62</ele>
        <time>2016-08-06T07:42:59Z</time>
      </trkpt>
      <trkpt lat="45.56715" lon="6.71427">
        <ele>732.66</ele>
        <time>2016-08-06T07:43:00Z</time>
      </trkpt>
      <trkpt lat="45.56716" lon="6.7144">
        <ele>731.7</ele>
        <time>2016-08-06T07:43:01Z</time>
      </trkpt>
      <trkpt lat="45.56716" lon="6.71454">
        <ele>731.22</ele>
        <time>2016-08-06T07:43:02Z</time>
      </trkpt>
      <trkpt lat="45.56716" lon="6.71467">
        <ele>730.26</ele>
        <time>2016-08-06T07:43:03Z</time>
      </trkpt>
      <trkpt lat="45.56714" lon="6.71478">
        <ele>729.78</ele>
        <time>2016-08-06T07:43:04Z</time>
      </trkpt>
      <trkpt lat="45.56709" lon="6.71487">
        <ele>729.3</ele>
        <time>2016-08-06T07:43:05Z</time>
      </trkpt>
      <trkpt lat="45.56703" lon="6.71494">
        <ele>729.3</ele>
        <time>2016-08-06T07:43:06Z</time>
      </trkpt>
      <trkpt lat="45.56695" lon="6.715">
        <ele>729.3</ele>
        <time>2016-08-06T07:43:07Z</time>
      </trkpt>
      <trkpt lat="45.56688" lon="6.71505">
        <ele>728.82</ele>
        <time>2016-08-06T07:43:08Z</time>
      </trkpt>
      <trkpt lat="45.56666" lon="6.71525">
        <ele>728.34</ele>
        <time>2016-08-06T07:43:13Z</time>
      </trkpt>
      <trkpt lat="45.56666" lon="6.71532">
        <ele>728.34</ele>
        <time>2016-08-06T07:43:14Z</time>
      </trkpt>
      <trkpt lat="45.56667" lon="6.71536">
        <ele>728.34</ele>
        <time>2016-08-06T07:43:15Z</time>
      </trkpt>
      <trkpt lat="45.56671" lon="6.71563">
        <ele>728.34</ele>
        <time>2016-08-06T07:43:19Z</time>
      </trkpt>
      <trkpt lat="45.56673" lon="6.7157">
        <ele>728.34</ele>
        <time>2016-08-06T07:43:20Z</time>
      </trkpt>
      <trkpt lat="45.56678" lon="6.71585">
        <ele>728.34</ele>
        <time>2016-08-06T07:43:22Z</time>
      </trkpt>
      <trkpt lat="45.56679" lon="6.71594">
        <ele>727.86</ele>
        <time>2016-08-06T07:43:23Z</time>
      </trkpt>
      <trkpt lat="45.5668" lon="6.71604">
        <ele>726.89</ele>
        <time>2016-08-06T07:43:24Z</time>
      </trkpt>
      <trkpt lat="45.5668" lon="6.71615">
        <ele>726.41</ele>
        <time>2016-08-06T07:43:25Z</time>
      </trkpt>
      <trkpt lat="45.56681" lon="6.71626">
        <ele>726.41</ele>
        <time>2016-08-06T07:43:26Z</time>
      </trkpt>
      <trkpt lat="45.56684" lon="6.71636">
        <ele>725.45</ele>
        <time>2016-08-06T07:43:27Z</time>
      </trkpt>
      <trkpt lat="45.56689" lon="6.71645">
        <ele>725.45</ele>
        <time>2016-08-06T07:43:28Z</time>
      </trkpt>
      <trkpt lat="45.56695" lon="6.71653">
        <ele>724.49</ele>
        <time>2016-08-06T07:43:29Z</time>
      </trkpt>
      <trkpt lat="45.56743" lon="6.71729">
        <ele>724.49</ele>
        <time>2016-08-06T07:43:38Z</time>
      </trkpt>
      <trkpt lat="45.56754" lon="6.71744">
        <ele>724.49</ele>
        <time>2016-08-06T07:43:40Z</time>
      </trkpt>
      <trkpt lat="45.56789" lon="6.71795">
        <ele>724.49</ele>
        <time>2016-08-06T07:43:47Z</time>
      </trkpt>
      <trkpt lat="45.56792" lon="6.71803">
        <ele>725.93</ele>
        <time>2016-08-06T07:43:48Z</time>
      </trkpt>
      <trkpt lat="45.56795" lon="6.71812">
        <ele>725.93</ele>
        <time>2016-08-06T07:43:49Z</time>
      </trkpt>
      <trkpt lat="45.56797" lon="6.7182">
        <ele>725.93</ele>
        <time>2016-08-06T07:43:50Z</time>
      </trkpt>
      <trkpt lat="45.56799" lon="6.71829">
        <ele>725.93</ele>
        <time>2016-08-06T07:43:51Z</time>
      </trkpt>
      <trkpt lat="45.568" lon="6.71839">
        <ele>725.93</ele>
        <time>2016-08-06T07:43:52Z</time>
      </trkpt>
      <trkpt lat="45.56802" lon="6.71857">
        <ele>725.93</ele>
        <time>2016-08-06T07:43:54Z</time>
      </trkpt>
      <trkpt lat="45.56804" lon="6.71866">
        <ele>725.93</ele>
        <time>2016-08-06T07:43:55Z</time>
      </trkpt>
      <trkpt lat="45.56806" lon="6.71875">
        <ele>725.93</ele>
        <time>2016-08-06T07:43:56Z</time>
      </trkpt>
      <trkpt lat="45.56816" lon="6.71921">
        <ele>725.93</ele>
        <time>2016-08-06T07:44:01Z</time>
      </trkpt>
      <trkpt lat="45.56817" lon="6.71955">
        <ele>726.41</ele>
        <time>2016-08-06T07:44:05Z</time>
      </trkpt>
      <trkpt lat="45.56816" lon="6.71964">
        <ele>726.89</ele>
        <time>2016-08-06T07:44:06Z</time>
      </trkpt>
      <trkpt lat="45.56817" lon="6.71972">
        <ele>726.89</ele>
        <time>2016-08-06T07:44:07Z</time>
      </trkpt>
      <trkpt lat="45.56817" lon="6.71981">
        <ele>726.89</ele>
        <time>2016-08-06T07:44:08Z</time>
      </trkpt>
      <trkpt lat="45.56817" lon="6.71989">
        <ele>726.89</ele>
        <time>2016-08-06T07:44:09Z</time>
      </trkpt>
      <trkpt lat="45.56817" lon="6.72015">
        <ele>726.89</ele>
        <time>2016-08-06T07:44:12Z</time>
      </trkpt>
      <trkpt lat="45.56813" lon="6.72052">
        <ele>727.37</ele>
        <time>2016-08-06T07:44:16Z</time>
      </trkpt>
      <trkpt lat="45.56812" lon="6.72062">
        <ele>727.37</ele>
        <time>2016-08-06T07:44:17Z</time>
      </trkpt>
      <trkpt lat="45.56812" lon="6.72071">
        <ele>727.37</ele>
        <time>2016-08-06T07:44:18Z</time>
      </trkpt>
      <trkpt lat="45.56809" lon="6.72121">
        <ele>727.37</ele>
        <time>2016-08-06T07:44:23Z</time>
      </trkpt>
      <trkpt lat="45.56815" lon="6.72191">
        <ele>727.37</ele>
        <time>2016-08-06T07:44:30Z</time>
      </trkpt>
      <trkpt lat="45.56831" lon="6.72265">
        <ele>727.37</ele>
        <time>2016-08-06T07:44:38Z</time>
      </trkpt>
      <trkpt lat="45.56849" lon="6.72318">
        <ele>727.37</ele>
        <time>2016-08-06T07:44:44Z</time>
      </trkpt>
      <trkpt lat="45.56854" lon="6.72324">
        <ele>727.37</ele>
        <time>2016-08-06T07:44:45Z</time>
      </trkpt>
      <trkpt lat="45.5686" lon="6.72329">
        <ele>727.37</ele>
        <time>2016-08-06T07:44:46Z</time>
      </trkpt>
      <trkpt lat="45.56865" lon="6.72333">
        <ele>727.37</ele>
        <time>2016-08-06T07:44:47Z</time>
      </trkpt>
      <trkpt lat="45.56871" lon="6.72336">
        <ele>727.37</ele>
        <time>2016-08-06T07:44:48Z</time>
      </trkpt>
      <trkpt lat="45.56961" lon="6.72392">
        <ele>728.34</ele>
        <time>2016-08-06T07:45:03Z</time>
      </trkpt>
      <trkpt lat="45.57039" lon="6.72462">
        <ele>729.3</ele>
        <time>2016-08-06T07:45:17Z</time>
      </trkpt>
      <trkpt lat="45.57057" lon="6.72475">
        <ele>729.3</ele>
        <time>2016-08-06T07:45:20Z</time>
      </trkpt>
      <trkpt lat="45.57063" lon="6.72481">
        <ele>729.3</ele>
        <time>2016-08-06T07:45:21Z</time>
      </trkpt>
      <trkpt lat="45.57067" lon="6.72487">
        <ele>729.3</ele>
        <time>2016-08-06T07:45:22Z</time>
      </trkpt>
      <trkpt lat="45.57071" lon="6.72495">
        <ele>729.3</ele>
        <time>2016-08-06T07:45:23Z</time>
      </trkpt>
      <trkpt lat="45.57074" lon="6.72504">
        <ele>729.3</ele>
        <time>2016-08-06T07:45:24Z</time>
      </trkpt>
      <trkpt lat="45.57076" lon="6.72512">
        <ele>729.78</ele>
        <time>2016-08-06T07:45:25Z</time>
      </trkpt>
      <trkpt lat="45.5708" lon="6.72519">
        <ele>729.78</ele>
        <time>2016-08-06T07:45:26Z</time>
      </trkpt>
      <trkpt lat="45.57084" lon="6.72526">
        <ele>729.78</ele>
        <time>2016-08-06T07:45:27Z</time>
      </trkpt>
      <trkpt lat="45.57108" lon="6.72556">
        <ele>730.26</ele>
        <time>2016-08-06T07:45:32Z</time>
      </trkpt>
      <trkpt lat="45.57113" lon="6.72561">
        <ele>730.26</ele>
        <time>2016-08-06T07:45:33Z</time>
      </trkpt>
      <trkpt lat="45.57119" lon="6.72565">
        <ele>730.74</ele>
        <time>2016-08-06T07:45:34Z</time>
      </trkpt>
      <trkpt lat="45.5715" lon="6.72583">
        <ele>730.74</ele>
        <time>2016-08-06T07:45:39Z</time>
      </trkpt>
      <trkpt lat="45.57155" lon="6.72589">
        <ele>730.74</ele>
        <time>2016-08-06T07:45:40Z</time>
      </trkpt>
      <trkpt lat="45.5716" lon="6.72597">
        <ele>730.74</ele>
        <time>2016-08-06T07:45:41Z</time>
      </trkpt>
      <trkpt lat="45.57163" lon="6.72605">
        <ele>730.74</ele>
        <time>2016-08-06T07:45:42Z</time>
      </trkpt>
      <trkpt lat="45.57167" lon="6.72613">
        <ele>730.74</ele>
        <time>2016-08-06T07:45:43Z</time>
      </trkpt>
      <trkpt lat="45.57169" lon="6.72622">
        <ele>730.74</ele>
        <time>2016-08-06T07:45:44Z</time>
      </trkpt>
      <trkpt lat="45.57178" lon="6.72647">
        <ele>731.22</ele>
        <time>2016-08-06T07:45:47Z</time>
      </trkpt>
      <trkpt lat="45.57181" lon="6.72654">
        <ele>731.7</ele>
        <time>2016-08-06T07:45:48Z</time>
      </trkpt>
      <trkpt lat="45.5719" lon="6.72668">
        <ele>731.7</ele>
        <time>2016-08-06T07:45:50Z</time>
      </trkpt>
      <trkpt lat="45.57222" lon="6.72716">
        <ele>731.7</ele>
        <time>2016-08-06T07:45:57Z</time>
      </trkpt>
      <trkpt lat="45.57267" lon="6.72784">
        <ele>732.18</ele>
        <time>2016-08-06T07:46:07Z</time>
      </trkpt>
      <trkpt lat="45.57272" lon="6.72789">
        <ele>732.18</ele>
        <time>2016-08-06T07:46:08Z</time>
      </trkpt>
      <trkpt lat="45.57378" lon="6.72843">
        <ele>733.14</ele>
        <time>2016-08-06T07:46:25Z</time>
      </trkpt>
      <trkpt lat="45.57397" lon="6.72854">
        <ele>733.14</ele>
        <time>2016-08-06T07:46:28Z</time>
      </trkpt>
      <trkpt lat="45.57402" lon="6.7286">
        <ele>733.14</ele>
        <time>2016-08-06T07:46:29Z</time>
      </trkpt>
      <trkpt lat="45.57406" lon="6.72867">
        <ele>733.62</ele>
        <time>2016-08-06T07:46:30Z</time>
      </trkpt>
      <trkpt lat="45.5741" lon="6.72876">
        <ele>733.62</ele>
        <time>2016-08-06T07:46:31Z</time>
      </trkpt>
      <trkpt lat="45.57413" lon="6.72884">
        <ele>733.62</ele>
        <time>2016-08-06T07:46:32Z</time>
      </trkpt>
      <trkpt lat="45.57415" lon="6.72893">
        <ele>734.1</ele>
        <time>2016-08-06T07:46:33Z</time>
      </trkpt>
      <trkpt lat="45.57415" lon="6.72903">
        <ele>734.1</ele>
        <time>2016-08-06T07:46:34Z</time>
      </trkpt>
      <trkpt lat="45.57415" lon="6.72912">
        <ele>734.1</ele>
        <time>2016-08-06T07:46:35Z</time>
      </trkpt>
      <trkpt lat="45.57415" lon="6.72922">
        <ele>734.58</ele>
        <time>2016-08-06T07:46:36Z</time>
      </trkpt>
      <trkpt lat="45.57414" lon="6.7294">
        <ele>735.07</ele>
        <time>2016-08-06T07:46:38Z</time>
      </trkpt>
      <trkpt lat="45.5741" lon="6.72965">
        <ele>735.07</ele>
        <time>2016-08-06T07:46:41Z</time>
      </trkpt>
      <trkpt lat="45.57409" lon="6.72974">
        <ele>735.55</ele>
        <time>2016-08-06T07:46:42Z</time>
      </trkpt>
      <trkpt lat="45.57408" lon="6.72983">
        <ele>735.55</ele>
        <time>2016-08-06T07:46:43Z</time>
      </trkpt>
      <trkpt lat="45.57409" lon="6.72992">
        <ele>735.55</ele>
        <time>2016-08-06T07:46:44Z</time>
      </trkpt>
      <trkpt lat="45.5741" lon="6.73001">
        <ele>735.55</ele>
        <time>2016-08-06T07:46:45Z</time>
      </trkpt>
      <trkpt lat="45.57444" lon="6.73135">
        <ele>735.55</ele>
        <time>2016-08-06T07:47:00Z</time>
      </trkpt>
      <trkpt lat="45.57447" lon="6.73143">
        <ele>735.55</ele>
        <time>2016-08-06T07:47:01Z</time>
      </trkpt>
      <trkpt lat="45.57451" lon="6.73151">
        <ele>735.55</ele>
        <time>2016-08-06T07:47:02Z</time>
      </trkpt>
      <trkpt lat="45.57456" lon="6.73158">
        <ele>735.55</ele>
        <time>2016-08-06T07:47:03Z</time>
      </trkpt>
      <trkpt lat="45.5746" lon="6.73165">
        <ele>736.03</ele>
        <time>2016-08-06T07:47:04Z</time>
      </trkpt>
      <trkpt lat="45.57492" lon="6.73202">
        <ele>736.03</ele>
        <time>2016-08-06T07:47:10Z</time>
      </trkpt>
      <trkpt lat="45.57575" lon="6.73267">
        <ele>736.51</ele>
        <time>2016-08-06T07:47:24Z</time>
      </trkpt>
      <trkpt lat="45.5758" lon="6.73272">
        <ele>736.51</ele>
        <time>2016-08-06T07:47:25Z</time>
      </trkpt>
      <trkpt lat="45.57586" lon="6.73279">
        <ele>736.99</ele>
        <time>2016-08-06T07:47:26Z</time>
      </trkpt>
      <trkpt lat="45.57636" lon="6.73346">
        <ele>736.99</ele>
        <time>2016-08-06T07:47:36Z</time>
      </trkpt>
      <trkpt lat="45.5764" lon="6.73354">
        <ele>736.99</ele>
        <time>2016-08-06T07:47:37Z</time>
      </trkpt>
      <trkpt lat="45.57665" lon="6.73404">
        <ele>738.43</ele>
        <time>2016-08-06T07:47:44Z</time>
      </trkpt>
      <trkpt lat="45.57666" lon="6.73411">
        <ele>738.43</ele>
        <time>2016-08-06T07:47:45Z</time>
      </trkpt>
      <trkpt lat="45.57667" lon="6.73419">
        <ele>738.43</ele>
        <time>2016-08-06T07:47:46Z</time>
      </trkpt>
      <trkpt lat="45.57666" lon="6.73426">
        <ele>738.43</ele>
        <time>2016-08-06T07:47:47Z</time>
      </trkpt>
      <trkpt lat="45.57665" lon="6.73434">
        <ele>738.91</ele>
        <time>2016-08-06T07:47:48Z</time>
      </trkpt>
      <trkpt lat="45.57665" lon="6.73441">
        <ele>738.91</ele>
        <time>2016-08-06T07:47:49Z</time>
      </trkpt>
      <trkpt lat="45.57665" lon="6.73449">
        <ele>739.39</ele>
        <time>2016-08-06T07:47:50Z</time>
      </trkpt>
      <trkpt lat="45.57666" lon="6.73471">
        <ele>739.87</ele>
        <time>2016-08-06T07:47:53Z</time>
      </trkpt>
      <trkpt lat="45.57667" lon="6.73478">
        <ele>739.87</ele>
        <time>2016-08-06T07:47:54Z</time>
      </trkpt>
      <trkpt lat="45.57669" lon="6.73486">
        <ele>739.87</ele>
        <time>2016-08-06T07:47:55Z</time>
      </trkpt>
      <trkpt lat="45.57672" lon="6.73493">
        <ele>739.87</ele>
        <time>2016-08-06T07:47:56Z</time>
      </trkpt>
      <trkpt lat="45.57674" lon="6.73501">
        <ele>740.35</ele>
        <time>2016-08-06T07:47:57Z</time>
      </trkpt>
      <trkpt lat="45.57677" lon="6.73508">
        <ele>740.35</ele>
        <time>2016-08-06T07:47:58Z</time>
      </trkpt>
      <trkpt lat="45.57703" lon="6.73591">
        <ele>740.35</ele>
        <time>2016-08-06T07:48:08Z</time>
      </trkpt>
      <trkpt lat="45.57704" lon="6.736">
        <ele>740.83</ele>
        <time>2016-08-06T07:48:09Z</time>
      </trkpt>
      <trkpt lat="45.57703" lon="6.73609">
        <ele>740.83</ele>
        <time>2016-08-06T07:48:10Z</time>
      </trkpt>
      <trkpt lat="45.577" lon="6.73652">
        <ele>740.83</ele>
        <time>2016-08-06T07:48:15Z</time>
      </trkpt>
      <trkpt lat="45.57696" lon="6.73679">
        <ele>740.83</ele>
        <time>2016-08-06T07:48:18Z</time>
      </trkpt>
      <trkpt lat="45.5769" lon="6.73695">
        <ele>741.31</ele>
        <time>2016-08-06T07:48:20Z</time>
      </trkpt>
      <trkpt lat="45.57686" lon="6.73702">
        <ele>741.31</ele>
        <time>2016-08-06T07:48:21Z</time>
      </trkpt>
      <trkpt lat="45.57681" lon="6.73706">
        <ele>741.79</ele>
        <time>2016-08-06T07:48:22Z</time>
      </trkpt>
      <trkpt lat="45.57677" lon="6.73709">
        <ele>742.28</ele>
        <time>2016-08-06T07:48:23Z</time>
      </trkpt>
      <trkpt lat="45.57674" lon="6.73714">
        <ele>742.28</ele>
        <time>2016-08-06T07:48:24Z</time>
      </trkpt>
      <trkpt lat="45.57673" lon="6.73719">
        <ele>743.24</ele>
        <time>2016-08-06T07:48:25Z</time>
      </trkpt>
      <trkpt lat="45.57673" lon="6.73725">
        <ele>743.24</ele>
        <time>2016-08-06T07:48:26Z</time>
      </trkpt>
      <trkpt lat="45.57674" lon="6.73731">
        <ele>743.24</ele>
        <time>2016-08-06T07:48:27Z</time>
      </trkpt>
      <trkpt lat="45.57675" lon="6.73737">
        <ele>743.24</ele>
        <time>2016-08-06T07:48:28Z</time>
      </trkpt>
      <trkpt lat="45.57676" lon="6.73744">
        <ele>743.24</ele>
        <time>2016-08-06T07:48:29Z</time>
      </trkpt>
      <trkpt lat="45.57676" lon="6.73751">
        <ele>743.24</ele>
        <time>2016-08-06T07:48:30Z</time>
      </trkpt>
      <trkpt lat="45.57674" lon="6.73759">
        <ele>743.24</ele>
        <time>2016-08-06T07:48:31Z</time>
      </trkpt>
      <trkpt lat="45.57673" lon="6.73766">
        <ele>743.24</ele>
        <time>2016-08-06T07:48:32Z</time>
      </trkpt>
      <trkpt lat="45.57672" lon="6.73774">
        <ele>743.24</ele>
        <time>2016-08-06T07:48:33Z</time>
      </trkpt>
      <trkpt lat="45.57669" lon="6.73783">
        <ele>741.79</ele>
        <time>2016-08-06T07:48:34Z</time>
      </trkpt>
      <trkpt lat="45.57666" lon="6.73792">
        <ele>741.79</ele>
        <time>2016-08-06T07:48:35Z</time>
      </trkpt>
      <trkpt lat="45.5766" lon="6.7381">
        <ele>741.79</ele>
        <time>2016-08-06T07:48:37Z</time>
      </trkpt>
      <trkpt lat="45.57654" lon="6.73839">
        <ele>741.79</ele>
        <time>2016-08-06T07:48:40Z</time>
      </trkpt>
      <trkpt lat="45.57656" lon="6.73958">
        <ele>741.79</ele>
        <time>2016-08-06T07:48:52Z</time>
      </trkpt>
      <trkpt lat="45.57658" lon="6.73967">
        <ele>741.79</ele>
        <time>2016-08-06T07:48:53Z</time>
      </trkpt>
      <trkpt lat="45.57662" lon="6.73984">
        <ele>741.79</ele>
        <time>2016-08-06T07:48:55Z</time>
      </trkpt>
      <trkpt lat="45.57673" lon="6.7402">
        <ele>742.76</ele>
        <time>2016-08-06T07:49:00Z</time>
      </trkpt>
      <trkpt lat="45.57686" lon="6.74072">
        <ele>745.64</ele>
        <time>2016-08-06T07:49:08Z</time>
      </trkpt>
      <trkpt lat="45.57689" lon="6.74077">
        <ele>745.64</ele>
        <time>2016-08-06T07:49:09Z</time>
      </trkpt>
      <trkpt lat="45.57692" lon="6.74082">
        <ele>745.64</ele>
        <time>2016-08-06T07:49:10Z</time>
      </trkpt>
      <trkpt lat="45.57719" lon="6.74111">
        <ele>747.56</ele>
        <time>2016-08-06T07:49:17Z</time>
      </trkpt>
      <trkpt lat="45.57724" lon="6.74113">
        <ele>748.04</ele>
        <time>2016-08-06T07:49:18Z</time>
      </trkpt>
      <trkpt lat="45.57728" lon="6.74114">
        <ele>748.04</ele>
        <time>2016-08-06T07:49:19Z</time>
      </trkpt>
      <trkpt lat="45.57758" lon="6.74124">
        <ele>749.97</ele>
        <time>2016-08-06T07:49:25Z</time>
      </trkpt>
      <trkpt lat="45.57761" lon="6.74126">
        <ele>750.45</ele>
        <time>2016-08-06T07:49:26Z</time>
      </trkpt>
      <trkpt lat="45.57765" lon="6.74129">
        <ele>750.93</ele>
        <time>2016-08-06T07:49:27Z</time>
      </trkpt>
      <trkpt lat="45.57768" lon="6.7413">
        <ele>750.93</ele>
        <time>2016-08-06T07:49:28Z</time>
      </trkpt>
      <trkpt lat="45.57771" lon="6.74132">
        <ele>750.93</ele>
        <time>2016-08-06T07:49:29Z</time>
      </trkpt>
      <trkpt lat="45.57784" lon="6.74141">
        <ele>749</ele>
        <time>2016-08-06T07:49:32Z</time>
      </trkpt>
      <trkpt lat="45.57803" lon="6.74152">
        <ele>747.56</ele>
        <time>2016-08-06T07:49:35Z</time>
      </trkpt>
      <trkpt lat="45.5781" lon="6.74154">
        <ele>746.6</ele>
        <time>2016-08-06T07:49:36Z</time>
      </trkpt>
      <trkpt lat="45.57817" lon="6.74153">
        <ele>746.12</ele>
        <time>2016-08-06T07:49:37Z</time>
      </trkpt>
      <trkpt lat="45.57825" lon="6.7415">
        <ele>745.16</ele>
        <time>2016-08-06T07:49:38Z</time>
      </trkpt>
      <trkpt lat="45.57834" lon="6.74147">
        <ele>744.68</ele>
        <time>2016-08-06T07:49:39Z</time>
      </trkpt>
      <trkpt lat="45.57912" lon="6.74114">
        <ele>745.16</ele>
        <time>2016-08-06T07:49:50Z</time>
      </trkpt>
      <trkpt lat="45.57925" lon="6.74106">
        <ele>746.6</ele>
        <time>2016-08-06T07:49:52Z</time>
      </trkpt>
      <trkpt lat="45.57931" lon="6.74104">
        <ele>746.6</ele>
        <time>2016-08-06T07:49:53Z</time>
      </trkpt>
      <trkpt lat="45.57958" lon="6.741">
        <ele>746.6</ele>
        <time>2016-08-06T07:49:57Z</time>
      </trkpt>
      <trkpt lat="45.5806" lon="6.74129">
        <ele>747.56</ele>
        <time>2016-08-06T07:50:13Z</time>
      </trkpt>
      <trkpt lat="45.58066" lon="6.74133">
        <ele>748.04</ele>
        <time>2016-08-06T07:50:14Z</time>
      </trkpt>
      <trkpt lat="45.58071" lon="6.74138">
        <ele>748.04</ele>
        <time>2016-08-06T07:50:15Z</time>
      </trkpt>
      <trkpt lat="45.58076" lon="6.74144">
        <ele>748.04</ele>
        <time>2016-08-06T07:50:16Z</time>
      </trkpt>
      <trkpt lat="45.5808" lon="6.74151">
        <ele>749</ele>
        <time>2016-08-06T07:50:17Z</time>
      </trkpt>
      <trkpt lat="45.58083" lon="6.74159">
        <ele>749</ele>
        <time>2016-08-06T07:50:18Z</time>
      </trkpt>
      <trkpt lat="45.58086" lon="6.74167">
        <ele>749</ele>
        <time>2016-08-06T07:50:19Z</time>
      </trkpt>
      <trkpt lat="45.58088" lon="6.74175">
        <ele>749</ele>
        <time>2016-08-06T07:50:20Z</time>
      </trkpt>
      <trkpt lat="45.58091" lon="6.74183">
        <ele>749</ele>
        <time>2016-08-06T07:50:21Z</time>
      </trkpt>
      <trkpt lat="45.58111" lon="6.74242">
        <ele>749.49</ele>
        <time>2016-08-06T07:50:28Z</time>
      </trkpt>
      <trkpt lat="45.58114" lon="6.7426">
        <ele>749.49</ele>
        <time>2016-08-06T07:50:30Z</time>
      </trkpt>
      <trkpt lat="45.58115" lon="6.74269">
        <ele>749.97</ele>
        <time>2016-08-06T07:50:31Z</time>
      </trkpt>
      <trkpt lat="45.58116" lon="6.74278">
        <ele>749.97</ele>
        <time>2016-08-06T07:50:32Z</time>
      </trkpt>
      <trkpt lat="45.58116" lon="6.74286">
        <ele>749.97</ele>
        <time>2016-08-06T07:50:33Z</time>
      </trkpt>
      <trkpt lat="45.58116" lon="6.74295">
        <ele>749.97</ele>
        <time>2016-08-06T07:50:34Z</time>
      </trkpt>
      <trkpt lat="45.58117" lon="6.74304">
        <ele>749.97</ele>
        <time>2016-08-06T07:50:35Z</time>
      </trkpt>
      <trkpt lat="45.58118" lon="6.74314">
        <ele>749.97</ele>
        <time>2016-08-06T07:50:36Z</time>
      </trkpt>
      <trkpt lat="45.58121" lon="6.74323">
        <ele>749.97</ele>
        <time>2016-08-06T07:50:37Z</time>
      </trkpt>
      <trkpt lat="45.58124" lon="6.74331">
        <ele>749.97</ele>
        <time>2016-08-06T07:50:38Z</time>
      </trkpt>
      <trkpt lat="45.58128" lon="6.74339">
        <ele>749.97</ele>
        <time>2016-08-06T07:50:39Z</time>
      </trkpt>
      <trkpt lat="45.58184" lon="6.74452">
        <ele>750.45</ele>
        <time>2016-08-06T07:50:53Z</time>
      </trkpt>
      <trkpt lat="45.58186" lon="6.74461">
        <ele>750.45</ele>
        <time>2016-08-06T07:50:54Z</time>
      </trkpt>
      <trkpt lat="45.58188" lon="6.7447">
        <ele>750.45</ele>
        <time>2016-08-06T07:50:55Z</time>
      </trkpt>
      <trkpt lat="45.58189" lon="6.7448">
        <ele>750.45</ele>
        <time>2016-08-06T07:50:56Z</time>
      </trkpt>
      <trkpt lat="45.5819" lon="6.74489">
        <ele>750.45</ele>
        <time>2016-08-06T07:50:57Z</time>
      </trkpt>
      <trkpt lat="45.58215" lon="6.74599">
        <ele>750.93</ele>
        <time>2016-08-06T07:51:09Z</time>
      </trkpt>
      <trkpt lat="45.58218" lon="6.74607">
        <ele>750.93</ele>
        <time>2016-08-06T07:51:10Z</time>
      </trkpt>
      <trkpt lat="45.5822" lon="6.74616">
        <ele>750.93</ele>
        <time>2016-08-06T07:51:11Z</time>
      </trkpt>
      <trkpt lat="45.58223" lon="6.74634">
        <ele>751.89</ele>
        <time>2016-08-06T07:51:13Z</time>
      </trkpt>
      <trkpt lat="45.58226" lon="6.74642">
        <ele>751.89</ele>
        <time>2016-08-06T07:51:14Z</time>
      </trkpt>
      <trkpt lat="45.5823" lon="6.7465">
        <ele>751.89</ele>
        <time>2016-08-06T07:51:15Z</time>
      </trkpt>
      <trkpt lat="45.58234" lon="6.74658">
        <ele>751.89</ele>
        <time>2016-08-06T07:51:16Z</time>
      </trkpt>
      <trkpt lat="45.58238" lon="6.74664">
        <ele>752.37</ele>
        <time>2016-08-06T07:51:17Z</time>
      </trkpt>
      <trkpt lat="45.58243" lon="6.74671">
        <ele>752.37</ele>
        <time>2016-08-06T07:51:18Z</time>
      </trkpt>
      <trkpt lat="45.58249" lon="6.74677">
        <ele>751.89</ele>
        <time>2016-08-06T07:51:19Z</time>
      </trkpt>
      <trkpt lat="45.58255" lon="6.74682">
        <ele>751.89</ele>
        <time>2016-08-06T07:51:20Z</time>
      </trkpt>
      <trkpt lat="45.58261" lon="6.74687">
        <ele>751.89</ele>
        <time>2016-08-06T07:51:21Z</time>
      </trkpt>
      <trkpt lat="45.583" lon="6.74728">
        <ele>752.37</ele>
        <time>2016-08-06T07:51:28Z</time>
      </trkpt>
      <trkpt lat="45.58305" lon="6.74733">
        <ele>752.37</ele>
        <time>2016-08-06T07:51:29Z</time>
      </trkpt>
      <trkpt lat="45.58312" lon="6.74738">
        <ele>752.37</ele>
        <time>2016-08-06T07:51:30Z</time>
      </trkpt>
      <trkpt lat="45.58369" lon="6.74776">
        <ele>752.85</ele>
        <time>2016-08-06T07:51:39Z</time>
      </trkpt>
      <trkpt lat="45.58376" lon="6.74779">
        <ele>752.85</ele>
        <time>2016-08-06T07:51:40Z</time>
      </trkpt>
      <trkpt lat="45.58383" lon="6.74781">
        <ele>752.85</ele>
        <time>2016-08-06T07:51:41Z</time>
      </trkpt>
      <trkpt lat="45.5839" lon="6.74782">
        <ele>752.85</ele>
        <time>2016-08-06T07:51:42Z</time>
      </trkpt>
      <trkpt lat="45.58398" lon="6.74783">
        <ele>752.85</ele>
        <time>2016-08-06T07:51:43Z</time>
      </trkpt>
      <trkpt lat="45.58488" lon="6.74802">
        <ele>753.81</ele>
        <time>2016-08-06T07:51:56Z</time>
      </trkpt>
      <trkpt lat="45.58494" lon="6.74805">
        <ele>753.81</ele>
        <time>2016-08-06T07:51:57Z</time>
      </trkpt>
      <trkpt lat="45.585" lon="6.74809">
        <ele>753.81</ele>
        <time>2016-08-06T07:51:58Z</time>
      </trkpt>
      <trkpt lat="45.58506" lon="6.74814">
        <ele>754.77</ele>
        <time>2016-08-06T07:51:59Z</time>
      </trkpt>
      <trkpt lat="45.5851" lon="6.7482">
        <ele>755.25</ele>
        <time>2016-08-06T07:52:00Z</time>
      </trkpt>
      <trkpt lat="45.58514" lon="6.74827">
        <ele>755.25</ele>
        <time>2016-08-06T07:52:01Z</time>
      </trkpt>
      <trkpt lat="45.58519" lon="6.74834">
        <ele>755.25</ele>
        <time>2016-08-06T07:52:02Z</time>
      </trkpt>
      <trkpt lat="45.58525" lon="6.74839">
        <ele>755.25</ele>
        <time>2016-08-06T07:52:03Z</time>
      </trkpt>
      <trkpt lat="45.58531" lon="6.74843">
        <ele>755.25</ele>
        <time>2016-08-06T07:52:04Z</time>
      </trkpt>
      <trkpt lat="45.58538" lon="6.74846">
        <ele>755.25</ele>
        <time>2016-08-06T07:52:05Z</time>
      </trkpt>
      <trkpt lat="45.58545" lon="6.74848">
        <ele>755.25</ele>
        <time>2016-08-06T07:52:06Z</time>
      </trkpt>
      <trkpt lat="45.58571" lon="6.74858">
        <ele>755.25</ele>
        <time>2016-08-06T07:52:10Z</time>
      </trkpt>
      <trkpt lat="45.58577" lon="6.74863">
        <ele>755.25</ele>
        <time>2016-08-06T07:52:11Z</time>
      </trkpt>
      <trkpt lat="45.58583" lon="6.74869">
        <ele>755.25</ele>
        <time>2016-08-06T07:52:12Z</time>
      </trkpt>
      <trkpt lat="45.586" lon="6.74886">
        <ele>755.25</ele>
        <time>2016-08-06T07:52:15Z</time>
      </trkpt>
      <trkpt lat="45.58606" lon="6.7489">
        <ele>755.25</ele>
        <time>2016-08-06T07:52:16Z</time>
      </trkpt>
      <trkpt lat="45.58613" lon="6.74893">
        <ele>755.25</ele>
        <time>2016-08-06T07:52:17Z</time>
      </trkpt>
      <trkpt lat="45.5862" lon="6.74895">
        <ele>755.25</ele>
        <time>2016-08-06T07:52:18Z</time>
      </trkpt>
      <trkpt lat="45.58627" lon="6.74896">
        <ele>755.25</ele>
        <time>2016-08-06T07:52:19Z</time>
      </trkpt>
      <trkpt lat="45.58654" lon="6.74899">
        <ele>756.21</ele>
        <time>2016-08-06T07:52:23Z</time>
      </trkpt>
      <trkpt lat="45.58661" lon="6.74898">
        <ele>756.21</ele>
        <time>2016-08-06T07:52:24Z</time>
      </trkpt>
      <trkpt lat="45.58675" lon="6.74897">
        <ele>756.21</ele>
        <time>2016-08-06T07:52:26Z</time>
      </trkpt>
      <trkpt lat="45.58682" lon="6.74898">
        <ele>756.21</ele>
        <time>2016-08-06T07:52:27Z</time>
      </trkpt>
      <trkpt lat="45.58717" lon="6.74902">
        <ele>756.21</ele>
        <time>2016-08-06T07:52:32Z</time>
      </trkpt>
      <trkpt lat="45.58743" lon="6.74903">
        <ele>756.21</ele>
        <time>2016-08-06T07:52:36Z</time>
      </trkpt>
      <trkpt lat="45.5875" lon="6.74906">
        <ele>756.21</ele>
        <time>2016-08-06T07:52:37Z</time>
      </trkpt>
      <trkpt lat="45.5877" lon="6.74913">
        <ele>756.21</ele>
        <time>2016-08-06T07:52:40Z</time>
      </trkpt>
      <trkpt lat="45.58776" lon="6.74913">
        <ele>756.21</ele>
        <time>2016-08-06T07:52:41Z</time>
      </trkpt>
      <trkpt lat="45.58872" lon="6.74911">
        <ele>758.14</ele>
        <time>2016-08-06T07:52:55Z</time>
      </trkpt>
      <trkpt lat="45.58878" lon="6.7491">
        <ele>758.14</ele>
        <time>2016-08-06T07:52:56Z</time>
      </trkpt>
      <trkpt lat="45.58892" lon="6.74908">
        <ele>758.62</ele>
        <time>2016-08-06T07:52:58Z</time>
      </trkpt>
      <trkpt lat="45.58899" lon="6.74909">
        <ele>758.62</ele>
        <time>2016-08-06T07:52:59Z</time>
      </trkpt>
      <trkpt lat="45.58926" lon="6.74914">
        <ele>759.1</ele>
        <time>2016-08-06T07:53:03Z</time>
      </trkpt>
      <trkpt lat="45.58933" lon="6.74914">
        <ele>759.1</ele>
        <time>2016-08-06T07:53:04Z</time>
      </trkpt>
      <trkpt lat="45.58939" lon="6.74917">
        <ele>759.58</ele>
        <time>2016-08-06T07:53:05Z</time>
      </trkpt>
      <trkpt lat="45.58946" lon="6.7492">
        <ele>759.58</ele>
        <time>2016-08-06T07:53:06Z</time>
      </trkpt>
      <trkpt lat="45.58952" lon="6.74924">
        <ele>759.58</ele>
        <time>2016-08-06T07:53:07Z</time>
      </trkpt>
      <trkpt lat="45.58988" lon="6.74947">
        <ele>760.54</ele>
        <time>2016-08-06T07:53:13Z</time>
      </trkpt>
      <trkpt lat="45.59042" lon="6.74967">
        <ele>761.02</ele>
        <time>2016-08-06T07:53:21Z</time>
      </trkpt>
      <trkpt lat="45.59048" lon="6.74974">
        <ele>761.02</ele>
        <time>2016-08-06T07:53:22Z</time>
      </trkpt>
      <trkpt lat="45.59053" lon="6.74982">
        <ele>761.02</ele>
        <time>2016-08-06T07:53:23Z</time>
      </trkpt>
      <trkpt lat="45.59059" lon="6.7499">
        <ele>761.02</ele>
        <time>2016-08-06T07:53:24Z</time>
      </trkpt>
      <trkpt lat="45.59064" lon="6.74996">
        <ele>761.02</ele>
        <time>2016-08-06T07:53:25Z</time>
      </trkpt>
      <trkpt lat="45.59071" lon="6.75">
        <ele>761.02</ele>
        <time>2016-08-06T07:53:26Z</time>
      </trkpt>
      <trkpt lat="45.59078" lon="6.75002">
        <ele>761.02</ele>
        <time>2016-08-06T07:53:27Z</time>
      </trkpt>
      <trkpt lat="45.59085" lon="6.75003">
        <ele>761.02</ele>
        <time>2016-08-06T07:53:28Z</time>
      </trkpt>
      <trkpt lat="45.59173" lon="6.75018">
        <ele>761.98</ele>
        <time>2016-08-06T07:53:41Z</time>
      </trkpt>
      <trkpt lat="45.59178" lon="6.75023">
        <ele>761.98</ele>
        <time>2016-08-06T07:53:42Z</time>
      </trkpt>
      <trkpt lat="45.59189" lon="6.75034">
        <ele>761.98</ele>
        <time>2016-08-06T07:53:44Z</time>
      </trkpt>
      <trkpt lat="45.59194" lon="6.7504">
        <ele>761.98</ele>
        <time>2016-08-06T07:53:45Z</time>
      </trkpt>
      <trkpt lat="45.59203" lon="6.75053">
        <ele>761.98</ele>
        <time>2016-08-06T07:53:47Z</time>
      </trkpt>
      <trkpt lat="45.59238" lon="6.75091">
        <ele>762.94</ele>
        <time>2016-08-06T07:53:54Z</time>
      </trkpt>
      <trkpt lat="45.59243" lon="6.75098">
        <ele>762.94</ele>
        <time>2016-08-06T07:53:55Z</time>
      </trkpt>
      <trkpt lat="45.59247" lon="6.75104">
        <ele>762.94</ele>
        <time>2016-08-06T07:53:56Z</time>
      </trkpt>
      <trkpt lat="45.59266" lon="6.75137">
        <ele>763.42</ele>
        <time>2016-08-06T07:54:01Z</time>
      </trkpt>
      <trkpt lat="45.59271" lon="6.75142">
        <ele>763.42</ele>
        <time>2016-08-06T07:54:02Z</time>
      </trkpt>
      <trkpt lat="45.59275" lon="6.75147">
        <ele>764.39</ele>
        <time>2016-08-06T07:54:03Z</time>
      </trkpt>
      <trkpt lat="45.59281" lon="6.7515">
        <ele>764.39</ele>
        <time>2016-08-06T07:54:04Z</time>
      </trkpt>
      <trkpt lat="45.59286" lon="6.75153">
        <ele>764.39</ele>
        <time>2016-08-06T07:54:05Z</time>
      </trkpt>
      <trkpt lat="45.59292" lon="6.75155">
        <ele>764.39</ele>
        <time>2016-08-06T07:54:06Z</time>
      </trkpt>
      <trkpt lat="45.59299" lon="6.75156">
        <ele>764.87</ele>
        <time>2016-08-06T07:54:07Z</time>
      </trkpt>
      <trkpt lat="45.59312" lon="6.75159">
        <ele>764.87</ele>
        <time>2016-08-06T07:54:09Z</time>
      </trkpt>
      <trkpt lat="45.59318" lon="6.75162">
        <ele>764.87</ele>
        <time>2016-08-06T07:54:10Z</time>
      </trkpt>
      <trkpt lat="45.59374" lon="6.75191">
        <ele>765.83</ele>
        <time>2016-08-06T07:54:19Z</time>
      </trkpt>
      <trkpt lat="45.59396" lon="6.75195">
        <ele>765.83</ele>
        <time>2016-08-06T07:54:23Z</time>
      </trkpt>
      <trkpt lat="45.59402" lon="6.75197">
        <ele>765.83</ele>
        <time>2016-08-06T07:54:24Z</time>
      </trkpt>
      <trkpt lat="45.59407" lon="6.75201">
        <ele>765.83</ele>
        <time>2016-08-06T07:54:25Z</time>
      </trkpt>
      <trkpt lat="45.59412" lon="6.75205">
        <ele>765.83</ele>
        <time>2016-08-06T07:54:26Z</time>
      </trkpt>
      <trkpt lat="45.59417" lon="6.7521">
        <ele>765.83</ele>
        <time>2016-08-06T07:54:27Z</time>
      </trkpt>
      <trkpt lat="45.59421" lon="6.75217">
        <ele>765.83</ele>
        <time>2016-08-06T07:54:28Z</time>
      </trkpt>
      <trkpt lat="45.59425" lon="6.75224">
        <ele>765.83</ele>
        <time>2016-08-06T07:54:29Z</time>
      </trkpt>
      <trkpt lat="45.59444" lon="6.75263">
        <ele>765.83</ele>
        <time>2016-08-06T07:54:34Z</time>
      </trkpt>
      <trkpt lat="45.59449" lon="6.75269">
        <ele>765.83</ele>
        <time>2016-08-06T07:54:35Z</time>
      </trkpt>
      <trkpt lat="45.59518" lon="6.7535">
        <ele>767.75</ele>
        <time>2016-08-06T07:54:49Z</time>
      </trkpt>
      <trkpt lat="45.59548" lon="6.75382">
        <ele>768.23</ele>
        <time>2016-08-06T07:54:55Z</time>
      </trkpt>
      <trkpt lat="45.59554" lon="6.75386">
        <ele>768.23</ele>
        <time>2016-08-06T07:54:56Z</time>
      </trkpt>
      <trkpt lat="45.59565" lon="6.75394">
        <ele>768.71</ele>
        <time>2016-08-06T07:54:58Z</time>
      </trkpt>
      <trkpt lat="45.59569" lon="6.75399">
        <ele>768.71</ele>
        <time>2016-08-06T07:54:59Z</time>
      </trkpt>
      <trkpt lat="45.59574" lon="6.75406">
        <ele>768.71</ele>
        <time>2016-08-06T07:55:00Z</time>
      </trkpt>
      <trkpt lat="45.59578" lon="6.75413">
        <ele>768.71</ele>
        <time>2016-08-06T07:55:01Z</time>
      </trkpt>
      <trkpt lat="45.59583" lon="6.75418">
        <ele>768.71</ele>
        <time>2016-08-06T07:55:02Z</time>
      </trkpt>
      <trkpt lat="45.59589" lon="6.75421">
        <ele>769.19</ele>
        <time>2016-08-06T07:55:03Z</time>
      </trkpt>
      <trkpt lat="45.59595" lon="6.75423">
        <ele>769.19</ele>
        <time>2016-08-06T07:55:04Z</time>
      </trkpt>
      <trkpt lat="45.59608" lon="6.75428">
        <ele>768.71</ele>
        <time>2016-08-06T07:55:06Z</time>
      </trkpt>
      <trkpt lat="45.59673" lon="6.75469">
        <ele>768.71</ele>
        <time>2016-08-06T07:55:17Z</time>
      </trkpt>
      <trkpt lat="45.59685" lon="6.75479">
        <ele>768.71</ele>
        <time>2016-08-06T07:55:19Z</time>
      </trkpt>
      <trkpt lat="45.59691" lon="6.75483">
        <ele>768.71</ele>
        <time>2016-08-06T07:55:20Z</time>
      </trkpt>
      <trkpt lat="45.59697" lon="6.75485">
        <ele>768.71</ele>
        <time>2016-08-06T07:55:21Z</time>
      </trkpt>
      <trkpt lat="45.59703" lon="6.75486">
        <ele>768.71</ele>
        <time>2016-08-06T07:55:22Z</time>
      </trkpt>
      <trkpt lat="45.59709" lon="6.75486">
        <ele>769.67</ele>
        <time>2016-08-06T07:55:23Z</time>
      </trkpt>
      <trkpt lat="45.59715" lon="6.75487">
        <ele>769.67</ele>
        <time>2016-08-06T07:55:24Z</time>
      </trkpt>
      <trkpt lat="45.59721" lon="6.75489">
        <ele>769.67</ele>
        <time>2016-08-06T07:55:25Z</time>
      </trkpt>
      <trkpt lat="45.59727" lon="6.75494">
        <ele>769.67</ele>
        <time>2016-08-06T07:55:26Z</time>
      </trkpt>
      <trkpt lat="45.59732" lon="6.755">
        <ele>769.67</ele>
        <time>2016-08-06T07:55:27Z</time>
      </trkpt>
      <trkpt lat="45.59736" lon="6.75506">
        <ele>769.67</ele>
        <time>2016-08-06T07:55:28Z</time>
      </trkpt>
      <trkpt lat="45.59765" lon="6.75555">
        <ele>770.15</ele>
        <time>2016-08-06T07:55:35Z</time>
      </trkpt>
      <trkpt lat="45.59774" lon="6.75577">
        <ele>770.15</ele>
        <time>2016-08-06T07:55:38Z</time>
      </trkpt>
      <trkpt lat="45.59787" lon="6.75607">
        <ele>771.11</ele>
        <time>2016-08-06T07:55:42Z</time>
      </trkpt>
      <trkpt lat="45.59796" lon="6.75627">
        <ele>772.08</ele>
        <time>2016-08-06T07:55:45Z</time>
      </trkpt>
      <trkpt lat="45.59798" lon="6.75635">
        <ele>772.08</ele>
        <time>2016-08-06T07:55:46Z</time>
      </trkpt>
      <trkpt lat="45.59799" lon="6.75644">
        <ele>772.08</ele>
        <time>2016-08-06T07:55:47Z</time>
      </trkpt>
      <trkpt lat="45.59799" lon="6.75652">
        <ele>772.08</ele>
        <time>2016-08-06T07:55:48Z</time>
      </trkpt>
      <trkpt lat="45.598" lon="6.75662">
        <ele>772.08</ele>
        <time>2016-08-06T07:55:49Z</time>
      </trkpt>
      <trkpt lat="45.59799" lon="6.7567">
        <ele>772.08</ele>
        <time>2016-08-06T07:55:50Z</time>
      </trkpt>
      <trkpt lat="45.598" lon="6.75687">
        <ele>772.56</ele>
        <time>2016-08-06T07:55:52Z</time>
      </trkpt>
      <trkpt lat="45.598" lon="6.75695">
        <ele>772.56</ele>
        <time>2016-08-06T07:55:53Z</time>
      </trkpt>
      <trkpt lat="45.59805" lon="6.75718">
        <ele>772.56</ele>
        <time>2016-08-06T07:55:56Z</time>
      </trkpt>
      <trkpt lat="45.59807" lon="6.75725">
        <ele>773.04</ele>
        <time>2016-08-06T07:55:57Z</time>
      </trkpt>
      <trkpt lat="45.59811" lon="6.75732">
        <ele>773.04</ele>
        <time>2016-08-06T07:55:58Z</time>
      </trkpt>
      <trkpt lat="45.59814" lon="6.75737">
        <ele>773.04</ele>
        <time>2016-08-06T07:55:59Z</time>
      </trkpt>
      <trkpt lat="45.59818" lon="6.75742">
        <ele>773.04</ele>
        <time>2016-08-06T07:56:00Z</time>
      </trkpt>
      <trkpt lat="45.59825" lon="6.75753">
        <ele>774</ele>
        <time>2016-08-06T07:56:02Z</time>
      </trkpt>
      <trkpt lat="45.59828" lon="6.7576">
        <ele>774.48</ele>
        <time>2016-08-06T07:56:03Z</time>
      </trkpt>
      <trkpt lat="45.59833" lon="6.75775">
        <ele>774.96</ele>
        <time>2016-08-06T07:56:05Z</time>
      </trkpt>
      <trkpt lat="45.59836" lon="6.75789">
        <ele>775.44</ele>
        <time>2016-08-06T07:56:07Z</time>
      </trkpt>
      <trkpt lat="45.59839" lon="6.75795">
        <ele>775.44</ele>
        <time>2016-08-06T07:56:08Z</time>
      </trkpt>
      <trkpt lat="45.59843" lon="6.75801">
        <ele>775.44</ele>
        <time>2016-08-06T07:56:09Z</time>
      </trkpt>
      <trkpt lat="45.59847" lon="6.75805">
        <ele>775.92</ele>
        <time>2016-08-06T07:56:10Z</time>
      </trkpt>
      <trkpt lat="45.59851" lon="6.75809">
        <ele>775.92</ele>
        <time>2016-08-06T07:56:11Z</time>
      </trkpt>
      <trkpt lat="45.59882" lon="6.75848">
        <ele>777.36</ele>
        <time>2016-08-06T07:56:19Z</time>
      </trkpt>
      <trkpt lat="45.59884" lon="6.75855">
        <ele>777.84</ele>
        <time>2016-08-06T07:56:20Z</time>
      </trkpt>
      <trkpt lat="45.59893" lon="6.7588">
        <ele>779.29</ele>
        <time>2016-08-06T07:56:24Z</time>
      </trkpt>
      <trkpt lat="45.59896" lon="6.75885">
        <ele>779.29</ele>
        <time>2016-08-06T07:56:25Z</time>
      </trkpt>
      <trkpt lat="45.599" lon="6.75887">
        <ele>779.29</ele>
        <time>2016-08-06T07:56:26Z</time>
      </trkpt>
      <trkpt lat="45.59905" lon="6.75888">
        <ele>779.29</ele>
        <time>2016-08-06T07:56:27Z</time>
      </trkpt>
      <trkpt lat="45.59909" lon="6.75888">
        <ele>779.29</ele>
        <time>2016-08-06T07:56:28Z</time>
      </trkpt>
      <trkpt lat="45.59914" lon="6.75887">
        <ele>779.29</ele>
        <time>2016-08-06T07:56:29Z</time>
      </trkpt>
      <trkpt lat="45.59926" lon="6.75886">
        <ele>779.29</ele>
        <time>2016-08-06T07:56:31Z</time>
      </trkpt>
      <trkpt lat="45.59932" lon="6.75888">
        <ele>779.29</ele>
        <time>2016-08-06T07:56:32Z</time>
      </trkpt>
      <trkpt lat="45.59939" lon="6.75893">
        <ele>779.29</ele>
        <time>2016-08-06T07:56:33Z</time>
      </trkpt>
      <trkpt lat="45.59946" lon="6.759">
        <ele>777.84</ele>
        <time>2016-08-06T07:56:34Z</time>
      </trkpt>
      <trkpt lat="45.59952" lon="6.75907">
        <ele>777.84</ele>
        <time>2016-08-06T07:56:35Z</time>
      </trkpt>
      <trkpt lat="45.59957" lon="6.75915">
        <ele>777.84</ele>
        <time>2016-08-06T07:56:36Z</time>
      </trkpt>
      <trkpt lat="45.59959" lon="6.75922">
        <ele>779.77</ele>
        <time>2016-08-06T07:56:37Z</time>
      </trkpt>
      <trkpt lat="45.59961" lon="6.75929">
        <ele>780.73</ele>
        <time>2016-08-06T07:56:38Z</time>
      </trkpt>
      <trkpt lat="45.59963" lon="6.75935">
        <ele>781.21</ele>
        <time>2016-08-06T07:56:39Z</time>
      </trkpt>
      <trkpt lat="45.59966" lon="6.7594">
        <ele>781.21</ele>
        <time>2016-08-06T07:56:40Z</time>
      </trkpt>
      <trkpt lat="45.5997" lon="6.75943">
        <ele>781.69</ele>
        <time>2016-08-06T07:56:41Z</time>
      </trkpt>
      <trkpt lat="45.59989" lon="6.75957">
        <ele>781.69</ele>
        <time>2016-08-06T07:56:45Z</time>
      </trkpt>
      <trkpt lat="45.59993" lon="6.75962">
        <ele>781.69</ele>
        <time>2016-08-06T07:56:46Z</time>
      </trkpt>
      <trkpt lat="45.60027" lon="6.76003">
        <ele>781.69</ele>
        <time>2016-08-06T07:56:54Z</time>
      </trkpt>
      <trkpt lat="45.60031" lon="6.76008">
        <ele>781.69</ele>
        <time>2016-08-06T07:56:55Z</time>
      </trkpt>
      <trkpt lat="45.60041" lon="6.76019">
        <ele>781.69</ele>
        <time>2016-08-06T07:56:57Z</time>
      </trkpt>
      <trkpt lat="45.60045" lon="6.76025">
        <ele>781.69</ele>
        <time>2016-08-06T07:56:58Z</time>
      </trkpt>
      <trkpt lat="45.60072" lon="6.76082">
        <ele>782.17</ele>
        <time>2016-08-06T07:57:06Z</time>
      </trkpt>
      <trkpt lat="45.60074" lon="6.76091">
        <ele>782.17</ele>
        <time>2016-08-06T07:57:07Z</time>
      </trkpt>
      <trkpt lat="45.60074" lon="6.761">
        <ele>782.17</ele>
        <time>2016-08-06T07:57:08Z</time>
      </trkpt>
      <trkpt lat="45.60074" lon="6.7611">
        <ele>782.17</ele>
        <time>2016-08-06T07:57:09Z</time>
      </trkpt>
      <trkpt lat="45.60073" lon="6.76119">
        <ele>781.69</ele>
        <time>2016-08-06T07:57:10Z</time>
      </trkpt>
      <trkpt lat="45.60085" lon="6.76236">
        <ele>783.13</ele>
        <time>2016-08-06T07:57:24Z</time>
      </trkpt>
      <trkpt lat="45.60089" lon="6.76253">
        <ele>783.13</ele>
        <time>2016-08-06T07:57:26Z</time>
      </trkpt>
      <trkpt lat="45.6009" lon="6.76261">
        <ele>783.13</ele>
        <time>2016-08-06T07:57:27Z</time>
      </trkpt>
      <trkpt lat="45.60088" lon="6.76271">
        <ele>783.13</ele>
        <time>2016-08-06T07:57:28Z</time>
      </trkpt>
      <trkpt lat="45.60087" lon="6.76279">
        <ele>783.13</ele>
        <time>2016-08-06T07:57:29Z</time>
      </trkpt>
      <trkpt lat="45.60085" lon="6.76286">
        <ele>783.13</ele>
        <time>2016-08-06T07:57:30Z</time>
      </trkpt>
      <trkpt lat="45.60082" lon="6.76302">
        <ele>783.13</ele>
        <time>2016-08-06T07:57:32Z</time>
      </trkpt>
      <trkpt lat="45.60082" lon="6.7631">
        <ele>783.13</ele>
        <time>2016-08-06T07:57:33Z</time>
      </trkpt>
      <trkpt lat="45.60083" lon="6.76317">
        <ele>783.61</ele>
        <time>2016-08-06T07:57:34Z</time>
      </trkpt>
      <trkpt lat="45.60084" lon="6.76324">
        <ele>783.61</ele>
        <time>2016-08-06T07:57:35Z</time>
      </trkpt>
      <trkpt lat="45.60084" lon="6.76331">
        <ele>783.61</ele>
        <time>2016-08-06T07:57:36Z</time>
      </trkpt>
      <trkpt lat="45.60088" lon="6.76359">
        <ele>784.09</ele>
        <time>2016-08-06T07:57:41Z</time>
      </trkpt>
      <trkpt lat="45.60087" lon="6.76365">
        <ele>784.09</ele>
        <time>2016-08-06T07:57:42Z</time>
      </trkpt>
      <trkpt lat="45.60087" lon="6.76372">
        <ele>784.09</ele>
        <time>2016-08-06T07:57:43Z</time>
      </trkpt>
      <trkpt lat="45.60086" lon="6.76385">
        <ele>784.09</ele>
        <time>2016-08-06T07:57:45Z</time>
      </trkpt>
      <trkpt lat="45.60093" lon="6.76445">
        <ele>786.02</ele>
        <time>2016-08-06T07:57:54Z</time>
      </trkpt>
      <trkpt lat="45.60093" lon="6.76452">
        <ele>786.02</ele>
        <time>2016-08-06T07:57:55Z</time>
      </trkpt>
      <trkpt lat="45.60093" lon="6.76458">
        <ele>786.5</ele>
        <time>2016-08-06T07:57:56Z</time>
      </trkpt>
      <trkpt lat="45.60094" lon="6.76465">
        <ele>786.5</ele>
        <time>2016-08-06T07:57:57Z</time>
      </trkpt>
      <trkpt lat="45.60095" lon="6.76471">
        <ele>786.5</ele>
        <time>2016-08-06T07:57:58Z</time>
      </trkpt>
      <trkpt lat="45.60097" lon="6.76477">
        <ele>786.5</ele>
        <time>2016-08-06T07:57:59Z</time>
      </trkpt>
      <trkpt lat="45.601" lon="6.76483">
        <ele>786.98</ele>
        <time>2016-08-06T07:58:00Z</time>
      </trkpt>
      <trkpt lat="45.60103" lon="6.76488">
        <ele>786.98</ele>
        <time>2016-08-06T07:58:01Z</time>
      </trkpt>
      <trkpt lat="45.60106" lon="6.76494">
        <ele>787.46</ele>
        <time>2016-08-06T07:58:02Z</time>
      </trkpt>
      <trkpt lat="45.60157" lon="6.76575">
        <ele>790.34</ele>
        <time>2016-08-06T07:58:18Z</time>
      </trkpt>
      <trkpt lat="45.6016" lon="6.76582">
        <ele>790.34</ele>
        <time>2016-08-06T07:58:19Z</time>
      </trkpt>
      <trkpt lat="45.60162" lon="6.76588">
        <ele>790.82</ele>
        <time>2016-08-06T07:58:20Z</time>
      </trkpt>
      <trkpt lat="45.60167" lon="6.76607">
        <ele>790.34</ele>
        <time>2016-08-06T07:58:23Z</time>
      </trkpt>
      <trkpt lat="45.60171" lon="6.76613">
        <ele>790.34</ele>
        <time>2016-08-06T07:58:24Z</time>
      </trkpt>
      <trkpt lat="45.60175" lon="6.76619">
        <ele>790.34</ele>
        <time>2016-08-06T07:58:25Z</time>
      </trkpt>
      <trkpt lat="45.60179" lon="6.76625">
        <ele>789.38</ele>
        <time>2016-08-06T07:58:26Z</time>
      </trkpt>
      <trkpt lat="45.60185" lon="6.76631">
        <ele>788.9</ele>
        <time>2016-08-06T07:58:27Z</time>
      </trkpt>
      <trkpt lat="45.60191" lon="6.76635">
        <ele>788.9</ele>
        <time>2016-08-06T07:58:28Z</time>
      </trkpt>
      <trkpt lat="45.60197" lon="6.76638">
        <ele>788.9</ele>
        <time>2016-08-06T07:58:29Z</time>
      </trkpt>
      <trkpt lat="45.60243" lon="6.76663">
        <ele>788.9</ele>
        <time>2016-08-06T07:58:38Z</time>
      </trkpt>
      <trkpt lat="45.60277" lon="6.76692">
        <ele>788.42</ele>
        <time>2016-08-06T07:58:45Z</time>
      </trkpt>
      <trkpt lat="45.60282" lon="6.76694">
        <ele>788.42</ele>
        <time>2016-08-06T07:58:46Z</time>
      </trkpt>
      <trkpt lat="45.60287" lon="6.76695">
        <ele>788.42</ele>
        <time>2016-08-06T07:58:47Z</time>
      </trkpt>
      <trkpt lat="45.60291" lon="6.76696">
        <ele>788.42</ele>
        <time>2016-08-06T07:58:48Z</time>
      </trkpt>
      <trkpt lat="45.60295" lon="6.76698">
        <ele>789.86</ele>
        <time>2016-08-06T07:58:49Z</time>
      </trkpt>
      <trkpt lat="45.60302" lon="6.76701">
        <ele>791.3</ele>
        <time>2016-08-06T07:58:52Z</time>
      </trkpt>
      <trkpt lat="45.60304" lon="6.767">
        <ele>791.3</ele>
        <time>2016-08-06T07:58:53Z</time>
      </trkpt>
      <trkpt lat="45.60305" lon="6.76697">
        <ele>791.3</ele>
        <time>2016-08-06T07:58:54Z</time>
      </trkpt>
      <trkpt lat="45.60304" lon="6.76695">
        <ele>791.3</ele>
        <time>2016-08-06T07:58:55Z</time>
      </trkpt>
      <trkpt lat="45.60301" lon="6.76694">
        <ele>791.3</ele>
        <time>2016-08-06T07:58:56Z</time>
      </trkpt>
      <trkpt lat="45.60299" lon="6.76692">
        <ele>791.3</ele>
        <time>2016-08-06T07:58:57Z</time>
      </trkpt>
      <trkpt lat="45.60296" lon="6.7669">
        <ele>791.3</ele>
        <time>2016-08-06T07:58:58Z</time>
      </trkpt>
      <trkpt lat="45.60293" lon="6.76688">
        <ele>791.78</ele>
        <time>2016-08-06T07:58:59Z</time>
      </trkpt>
      <trkpt lat="45.60289" lon="6.76687">
        <ele>791.78</ele>
        <time>2016-08-06T07:59:00Z</time>
      </trkpt>
      <trkpt lat="45.60273" lon="6.76681">
        <ele>792.74</ele>
        <time>2016-08-06T07:59:05Z</time>
      </trkpt>
      <trkpt lat="45.60271" lon="6.76677">
        <ele>793.22</ele>
        <time>2016-08-06T07:59:06Z</time>
      </trkpt>
      <trkpt lat="45.60272" lon="6.76673">
        <ele>793.22</ele>
        <time>2016-08-06T07:59:07Z</time>
      </trkpt>
      <trkpt lat="45.60274" lon="6.76669">
        <ele>793.22</ele>
        <time>2016-08-06T07:59:08Z</time>
      </trkpt>
      <trkpt lat="45.60276" lon="6.76665">
        <ele>793.22</ele>
        <time>2016-08-06T07:59:09Z</time>
      </trkpt>
      <trkpt lat="45.60297" lon="6.76625">
        <ele>793.71</ele>
        <time>2016-08-06T07:59:17Z</time>
      </trkpt>
      <trkpt lat="45.6032" lon="6.76591">
        <ele>794.19</ele>
        <time>2016-08-06T07:59:25Z</time>
      </trkpt>
      <trkpt lat="45.60323" lon="6.76592">
        <ele>794.19</ele>
        <time>2016-08-06T07:59:26Z</time>
      </trkpt>
      <trkpt lat="45.60327" lon="6.76594">
        <ele>795.15</ele>
        <time>2016-08-06T07:59:27Z</time>
      </trkpt>
      <trkpt lat="45.60328" lon="6.76596">
        <ele>795.15</ele>
        <time>2016-08-06T07:59:28Z</time>
      </trkpt>
      <trkpt lat="45.6033" lon="6.76599">
        <ele>795.63</ele>
        <time>2016-08-06T07:59:29Z</time>
      </trkpt>
      <trkpt lat="45.60362" lon="6.76648">
        <ele>798.99</ele>
        <time>2016-08-06T07:59:43Z</time>
      </trkpt>
      <trkpt lat="45.604" lon="6.76706">
        <ele>801.88</ele>
        <time>2016-08-06T07:59:58Z</time>
      </trkpt>
      <trkpt lat="45.60422" lon="6.76747">
        <ele>803.32</ele>
        <time>2016-08-06T08:00:08Z</time>
      </trkpt>
      <trkpt lat="45.60491" lon="6.76769">
        <ele>805.72</ele>
        <time>2016-08-06T08:00:25Z</time>
      </trkpt>
      <trkpt lat="45.6055" lon="6.76812">
        <ele>808.13</ele>
        <time>2016-08-06T08:00:40Z</time>
      </trkpt>
      <trkpt lat="45.60586" lon="6.76864">
        <ele>808.13</ele>
        <time>2016-08-06T08:00:49Z</time>
      </trkpt>
      <trkpt lat="45.60589" lon="6.7687">
        <ele>808.13</ele>
        <time>2016-08-06T08:00:50Z</time>
      </trkpt>
      <trkpt lat="45.60601" lon="6.76892">
        <ele>808.13</ele>
        <time>2016-08-06T08:00:53Z</time>
      </trkpt>
      <trkpt lat="45.60604" lon="6.769">
        <ele>808.13</ele>
        <time>2016-08-06T08:00:54Z</time>
      </trkpt>
      <trkpt lat="45.60606" lon="6.76909">
        <ele>808.13</ele>
        <time>2016-08-06T08:00:55Z</time>
      </trkpt>
      <trkpt lat="45.60606" lon="6.76918">
        <ele>808.13</ele>
        <time>2016-08-06T08:00:56Z</time>
      </trkpt>
      <trkpt lat="45.60606" lon="6.76927">
        <ele>808.13</ele>
        <time>2016-08-06T08:00:57Z</time>
      </trkpt>
      <trkpt lat="45.60604" lon="6.76937">
        <ele>806.68</ele>
        <time>2016-08-06T08:00:58Z</time>
      </trkpt>
      <trkpt lat="45.60604" lon="6.76946">
        <ele>806.68</ele>
        <time>2016-08-06T08:00:59Z</time>
      </trkpt>
      <trkpt lat="45.60603" lon="6.76966">
        <ele>805.72</ele>
        <time>2016-08-06T08:01:01Z</time>
      </trkpt>
      <trkpt lat="45.60605" lon="6.76985">
        <ele>805.72</ele>
        <time>2016-08-06T08:01:03Z</time>
      </trkpt>
      <trkpt lat="45.60608" lon="6.76993">
        <ele>805.72</ele>
        <time>2016-08-06T08:01:04Z</time>
      </trkpt>
      <trkpt lat="45.60611" lon="6.77">
        <ele>805.72</ele>
        <time>2016-08-06T08:01:05Z</time>
      </trkpt>
      <trkpt lat="45.60614" lon="6.77006">
        <ele>806.2</ele>
        <time>2016-08-06T08:01:06Z</time>
      </trkpt>
      <trkpt lat="45.60617" lon="6.77012">
        <ele>806.2</ele>
        <time>2016-08-06T08:01:07Z</time>
      </trkpt>
      <trkpt lat="45.6062" lon="6.77018">
        <ele>807.16</ele>
        <time>2016-08-06T08:01:08Z</time>
      </trkpt>
      <trkpt lat="45.60624" lon="6.77023">
        <ele>807.16</ele>
        <time>2016-08-06T08:01:09Z</time>
      </trkpt>
      <trkpt lat="45.60628" lon="6.77029">
        <ele>807.16</ele>
        <time>2016-08-06T08:01:10Z</time>
      </trkpt>
      <trkpt lat="45.60631" lon="6.77032">
        <ele>807.16</ele>
        <time>2016-08-06T08:01:11Z</time>
      </trkpt>
      <trkpt lat="45.60635" lon="6.77035">
        <ele>807.64</ele>
        <time>2016-08-06T08:01:12Z</time>
      </trkpt>
      <trkpt lat="45.60639" lon="6.77038">
        <ele>807.64</ele>
        <time>2016-08-06T08:01:13Z</time>
      </trkpt>
      <trkpt lat="45.60644" lon="6.7704">
        <ele>807.64</ele>
        <time>2016-08-06T08:01:14Z</time>
      </trkpt>
      <trkpt lat="45.60648" lon="6.77042">
        <ele>807.64</ele>
        <time>2016-08-06T08:01:15Z</time>
      </trkpt>
      <trkpt lat="45.60732" lon="6.77076">
        <ele>810.05</ele>
        <time>2016-08-06T08:01:31Z</time>
      </trkpt>
      <trkpt lat="45.60813" lon="6.77121">
        <ele>810.53</ele>
        <time>2016-08-06T08:01:45Z</time>
      </trkpt>
      <trkpt lat="45.60918" lon="6.77149">
        <ele>812.93</ele>
        <time>2016-08-06T08:02:03Z</time>
      </trkpt>
      <trkpt lat="45.60943" lon="6.77157">
        <ele>814.37</ele>
        <time>2016-08-06T08:02:08Z</time>
      </trkpt>
      <trkpt lat="45.61009" lon="6.77186">
        <ele>816.3</ele>
        <time>2016-08-06T08:02:21Z</time>
      </trkpt>
      <trkpt lat="45.61114" lon="6.77252">
        <ele>815.82</ele>
        <time>2016-08-06T08:02:39Z</time>
      </trkpt>
      <trkpt lat="45.61166" lon="6.7731">
        <ele>815.82</ele>
        <time>2016-08-06T08:02:50Z</time>
      </trkpt>
      <trkpt lat="45.61168" lon="6.77318">
        <ele>815.82</ele>
        <time>2016-08-06T08:02:51Z</time>
      </trkpt>
      <trkpt lat="45.61168" lon="6.77326">
        <ele>814.85</ele>
        <time>2016-08-06T08:02:52Z</time>
      </trkpt>
      <trkpt lat="45.61163" lon="6.77337">
        <ele>814.85</ele>
        <time>2016-08-06T08:02:54Z</time>
      </trkpt>
      <trkpt lat="45.61145" lon="6.77368">
        <ele>814.85</ele>
        <time>2016-08-06T08:02:58Z</time>
      </trkpt>
      <trkpt lat="45.61134" lon="6.77386">
        <ele>814.85</ele>
        <time>2016-08-06T08:03:01Z</time>
      </trkpt>
      <trkpt lat="45.61128" lon="6.77401">
        <ele>814.85</ele>
        <time>2016-08-06T08:03:03Z</time>
      </trkpt>
      <trkpt lat="45.61128" lon="6.77408">
        <ele>814.85</ele>
        <time>2016-08-06T08:03:04Z</time>
      </trkpt>
      <trkpt lat="45.61129" lon="6.77417">
        <ele>814.85</ele>
        <time>2016-08-06T08:03:05Z</time>
      </trkpt>
      <trkpt lat="45.6113" lon="6.77423">
        <ele>815.82</ele>
        <time>2016-08-06T08:03:06Z</time>
      </trkpt>
      <trkpt lat="45.61132" lon="6.7743">
        <ele>815.82</ele>
        <time>2016-08-06T08:03:07Z</time>
      </trkpt>
      <trkpt lat="45.61135" lon="6.77436">
        <ele>816.3</ele>
        <time>2016-08-06T08:03:08Z</time>
      </trkpt>
      <trkpt lat="45.61138" lon="6.77442">
        <ele>816.3</ele>
        <time>2016-08-06T08:03:09Z</time>
      </trkpt>
      <trkpt lat="45.61144" lon="6.7745">
        <ele>816.78</ele>
        <time>2016-08-06T08:03:10Z</time>
      </trkpt>
      <trkpt lat="45.61166" lon="6.77482">
        <ele>815.82</ele>
        <time>2016-08-06T08:03:15Z</time>
      </trkpt>
      <trkpt lat="45.6117" lon="6.7749">
        <ele>814.85</ele>
        <time>2016-08-06T08:03:16Z</time>
      </trkpt>
      <trkpt lat="45.61174" lon="6.775">
        <ele>814.85</ele>
        <time>2016-08-06T08:03:17Z</time>
      </trkpt>
      <trkpt lat="45.61177" lon="6.77509">
        <ele>814.37</ele>
        <time>2016-08-06T08:03:18Z</time>
      </trkpt>
      <trkpt lat="45.6118" lon="6.77519">
        <ele>814.37</ele>
        <time>2016-08-06T08:03:19Z</time>
      </trkpt>
      <trkpt lat="45.61203" lon="6.77631">
        <ele>813.89</ele>
        <time>2016-08-06T08:03:30Z</time>
      </trkpt>
      <trkpt lat="45.61208" lon="6.7765">
        <ele>813.89</ele>
        <time>2016-08-06T08:03:32Z</time>
      </trkpt>
      <trkpt lat="45.61212" lon="6.77658">
        <ele>813.89</ele>
        <time>2016-08-06T08:03:33Z</time>
      </trkpt>
      <trkpt lat="45.61216" lon="6.77666">
        <ele>813.89</ele>
        <time>2016-08-06T08:03:34Z</time>
      </trkpt>
      <trkpt lat="45.61221" lon="6.77672">
        <ele>813.89</ele>
        <time>2016-08-06T08:03:35Z</time>
      </trkpt>
      <trkpt lat="45.61224" lon="6.77676">
        <ele>813.89</ele>
        <time>2016-08-06T08:03:36Z</time>
      </trkpt>
      <trkpt lat="45.61227" lon="6.77679">
        <ele>813.89</ele>
        <time>2016-08-06T08:03:37Z</time>
      </trkpt>
      <trkpt lat="45.61229" lon="6.7768">
        <ele>813.89</ele>
        <time>2016-08-06T08:03:38Z</time>
      </trkpt>
      <trkpt lat="45.61231" lon="6.77682">
        <ele>813.89</ele>
        <time>2016-08-06T08:03:39Z</time>
      </trkpt>
      <trkpt lat="45.61233" lon="6.77683">
        <ele>813.89</ele>
        <time>2016-08-06T08:03:40Z</time>
      </trkpt>
      <trkpt lat="45.61236" lon="6.77685">
        <ele>813.89</ele>
        <time>2016-08-06T08:03:41Z</time>
      </trkpt>
      <trkpt lat="45.6124" lon="6.77687">
        <ele>813.89</ele>
        <time>2016-08-06T08:03:42Z</time>
      </trkpt>
      <trkpt lat="45.61244" lon="6.7769">
        <ele>813.89</ele>
        <time>2016-08-06T08:03:43Z</time>
      </trkpt>
      <trkpt lat="45.61248" lon="6.77692">
        <ele>813.89</ele>
        <time>2016-08-06T08:03:44Z</time>
      </trkpt>
      <trkpt lat="45.61268" lon="6.77702">
        <ele>813.89</ele>
        <time>2016-08-06T08:03:48Z</time>
      </trkpt>
      <trkpt lat="45.61338" lon="6.77725">
        <ele>813.89</ele>
        <time>2016-08-06T08:04:00Z</time>
      </trkpt>
      <trkpt lat="45.61376" lon="6.77751">
        <ele>813.89</ele>
        <time>2016-08-06T08:04:06Z</time>
      </trkpt>
      <trkpt lat="45.61382" lon="6.77757">
        <ele>813.89</ele>
        <time>2016-08-06T08:04:07Z</time>
      </trkpt>
      <trkpt lat="45.6142" lon="6.77816">
        <ele>813.89</ele>
        <time>2016-08-06T08:04:15Z</time>
      </trkpt>
      <trkpt lat="45.61423" lon="6.77825">
        <ele>813.89</ele>
        <time>2016-08-06T08:04:16Z</time>
      </trkpt>
      <trkpt lat="45.61425" lon="6.77834">
        <ele>813.89</ele>
        <time>2016-08-06T08:04:17Z</time>
      </trkpt>
      <trkpt lat="45.61426" lon="6.77844">
        <ele>813.89</ele>
        <time>2016-08-06T08:04:18Z</time>
      </trkpt>
      <trkpt lat="45.61427" lon="6.77853">
        <ele>813.89</ele>
        <time>2016-08-06T08:04:19Z</time>
      </trkpt>
      <trkpt lat="45.61428" lon="6.77863">
        <ele>813.89</ele>
        <time>2016-08-06T08:04:20Z</time>
      </trkpt>
      <trkpt lat="45.61429" lon="6.77891">
        <ele>815.34</ele>
        <time>2016-08-06T08:04:23Z</time>
      </trkpt>
      <trkpt lat="45.61429" lon="6.7791">
        <ele>815.34</ele>
        <time>2016-08-06T08:04:25Z</time>
      </trkpt>
      <trkpt lat="45.61431" lon="6.77919">
        <ele>815.34</ele>
        <time>2016-08-06T08:04:26Z</time>
      </trkpt>
      <trkpt lat="45.61433" lon="6.77928">
        <ele>815.82</ele>
        <time>2016-08-06T08:04:27Z</time>
      </trkpt>
      <trkpt lat="45.61436" lon="6.77936">
        <ele>815.82</ele>
        <time>2016-08-06T08:04:28Z</time>
      </trkpt>
      <trkpt lat="45.6144" lon="6.77944">
        <ele>815.82</ele>
        <time>2016-08-06T08:04:29Z</time>
      </trkpt>
      <trkpt lat="45.61456" lon="6.77975">
        <ele>815.82</ele>
        <time>2016-08-06T08:04:33Z</time>
      </trkpt>
      <trkpt lat="45.61459" lon="6.77984">
        <ele>815.82</ele>
        <time>2016-08-06T08:04:34Z</time>
      </trkpt>
      <trkpt lat="45.61482" lon="6.78069">
        <ele>815.82</ele>
        <time>2016-08-06T08:04:43Z</time>
      </trkpt>
      <trkpt lat="45.61486" lon="6.78079">
        <ele>815.82</ele>
        <time>2016-08-06T08:04:44Z</time>
      </trkpt>
      <trkpt lat="45.6149" lon="6.78087">
        <ele>814.37</ele>
        <time>2016-08-06T08:04:45Z</time>
      </trkpt>
      <trkpt lat="45.61495" lon="6.78095">
        <ele>814.37</ele>
        <time>2016-08-06T08:04:46Z</time>
      </trkpt>
      <trkpt lat="45.6152" lon="6.78136">
        <ele>814.37</ele>
        <time>2016-08-06T08:04:51Z</time>
      </trkpt>
      <trkpt lat="45.61523" lon="6.78145">
        <ele>814.37</ele>
        <time>2016-08-06T08:04:52Z</time>
      </trkpt>
      <trkpt lat="45.61527" lon="6.78154">
        <ele>814.37</ele>
        <time>2016-08-06T08:04:53Z</time>
      </trkpt>
      <trkpt lat="45.6153" lon="6.78164">
        <ele>814.37</ele>
        <time>2016-08-06T08:04:54Z</time>
      </trkpt>
      <trkpt lat="45.61532" lon="6.78174">
        <ele>814.37</ele>
        <time>2016-08-06T08:04:55Z</time>
      </trkpt>
      <trkpt lat="45.61534" lon="6.78184">
        <ele>814.37</ele>
        <time>2016-08-06T08:04:56Z</time>
      </trkpt>
      <trkpt lat="45.61535" lon="6.78194">
        <ele>814.37</ele>
        <time>2016-08-06T08:04:57Z</time>
      </trkpt>
      <trkpt lat="45.61542" lon="6.78242">
        <ele>814.37</ele>
        <time>2016-08-06T08:05:02Z</time>
      </trkpt>
      <trkpt lat="45.61545" lon="6.78252">
        <ele>813.89</ele>
        <time>2016-08-06T08:05:03Z</time>
      </trkpt>
      <trkpt lat="45.61552" lon="6.78271">
        <ele>813.89</ele>
        <time>2016-08-06T08:05:05Z</time>
      </trkpt>
      <trkpt lat="45.61578" lon="6.7833">
        <ele>813.89</ele>
        <time>2016-08-06T08:05:12Z</time>
      </trkpt>
      <trkpt lat="45.61593" lon="6.78386">
        <ele>815.34</ele>
        <time>2016-08-06T08:05:19Z</time>
      </trkpt>
      <trkpt lat="45.61598" lon="6.78399">
        <ele>815.34</ele>
        <time>2016-08-06T08:05:21Z</time>
      </trkpt>
      <trkpt lat="45.61629" lon="6.78484">
        <ele>817.74</ele>
        <time>2016-08-06T08:05:35Z</time>
      </trkpt>
      <trkpt lat="45.61629" lon="6.78492">
        <ele>818.22</ele>
        <time>2016-08-06T08:05:43Z</time>
      </trkpt>
      <trkpt lat="45.61631" lon="6.7849">
        <ele>818.22</ele>
        <time>2016-08-06T08:06:14Z</time>
      </trkpt>
      <trkpt lat="45.61634" lon="6.78493">
        <ele>818.22</ele>
        <time>2016-08-06T08:06:47Z</time>
      </trkpt>
      <trkpt lat="45.61635" lon="6.78495">
        <ele>818.22</ele>
        <time>2016-08-06T08:06:55Z</time>
      </trkpt>
      <trkpt lat="45.61635" lon="6.78497">
        <ele>818.22</ele>
        <time>2016-08-06T08:06:56Z</time>
      </trkpt>
      <trkpt lat="45.61644" lon="6.78528">
        <ele>818.22</ele>
        <time>2016-08-06T08:07:03Z</time>
      </trkpt>
      <trkpt lat="45.61647" lon="6.78534">
        <ele>818.22</ele>
        <time>2016-08-06T08:07:04Z</time>
      </trkpt>
      <trkpt lat="45.6168" lon="6.78636">
        <ele>816.78</ele>
        <time>2016-08-06T08:07:18Z</time>
      </trkpt>
      <trkpt lat="45.61703" lon="6.78691">
        <ele>816.78</ele>
        <time>2016-08-06T08:07:26Z</time>
      </trkpt>
      <trkpt lat="45.61742" lon="6.7875">
        <ele>816.78</ele>
        <time>2016-08-06T08:07:36Z</time>
      </trkpt>
      <trkpt lat="45.61744" lon="6.78754">
        <ele>816.78</ele>
        <time>2016-08-06T08:07:37Z</time>
      </trkpt>
      <trkpt lat="45.61769" lon="6.78789">
        <ele>816.78</ele>
        <time>2016-08-06T08:07:46Z</time>
      </trkpt>
      <trkpt lat="45.61771" lon="6.78794">
        <ele>816.78</ele>
        <time>2016-08-06T08:07:47Z</time>
      </trkpt>
      <trkpt lat="45.61772" lon="6.788">
        <ele>816.78</ele>
        <time>2016-08-06T08:07:48Z</time>
      </trkpt>
      <trkpt lat="45.61772" lon="6.78804">
        <ele>816.78</ele>
        <time>2016-08-06T08:07:49Z</time>
      </trkpt>
      <trkpt lat="45.61771" lon="6.78807">
        <ele>817.74</ele>
        <time>2016-08-06T08:07:50Z</time>
      </trkpt>
      <trkpt lat="45.6177" lon="6.7881">
        <ele>817.74</ele>
        <time>2016-08-06T08:07:51Z</time>
      </trkpt>
      <trkpt lat="45.61769" lon="6.78813">
        <ele>817.74</ele>
        <time>2016-08-06T08:07:52Z</time>
      </trkpt>
      <trkpt lat="45.61767" lon="6.78815">
        <ele>817.74</ele>
        <time>2016-08-06T08:07:53Z</time>
      </trkpt>
      <trkpt lat="45.61763" lon="6.78817">
        <ele>817.74</ele>
        <time>2016-08-06T08:07:54Z</time>
      </trkpt>
      <trkpt lat="45.6176" lon="6.78816">
        <ele>817.74</ele>
        <time>2016-08-06T08:07:55Z</time>
      </trkpt>
      <trkpt lat="45.61756" lon="6.78813">
        <ele>817.74</ele>
        <time>2016-08-06T08:07:56Z</time>
      </trkpt>
      <trkpt lat="45.61753" lon="6.7881">
        <ele>817.74</ele>
        <time>2016-08-06T08:07:57Z</time>
      </trkpt>
      <trkpt lat="45.6175" lon="6.78805">
        <ele>817.74</ele>
        <time>2016-08-06T08:07:58Z</time>
      </trkpt>
      <trkpt lat="45.61748" lon="6.78798">
        <ele>817.74</ele>
        <time>2016-08-06T08:07:59Z</time>
      </trkpt>
      <trkpt lat="45.61746" lon="6.78792">
        <ele>817.74</ele>
        <time>2016-08-06T08:08:00Z</time>
      </trkpt>
      <trkpt lat="45.61744" lon="6.78785">
        <ele>817.74</ele>
        <time>2016-08-06T08:08:01Z</time>
      </trkpt>
      <trkpt lat="45.61741" lon="6.78778">
        <ele>817.74</ele>
        <time>2016-08-06T08:08:02Z</time>
      </trkpt>
      <trkpt lat="45.61738" lon="6.78772">
        <ele>817.74</ele>
        <time>2016-08-06T08:08:03Z</time>
      </trkpt>
      <trkpt lat="45.61735" lon="6.78766">
        <ele>817.74</ele>
        <time>2016-08-06T08:08:04Z</time>
      </trkpt>
      <trkpt lat="45.61691" lon="6.78697">
        <ele>820.14</ele>
        <time>2016-08-06T08:08:18Z</time>
      </trkpt>
      <trkpt lat="45.61671" lon="6.78646">
        <ele>823.03</ele>
        <time>2016-08-06T08:08:32Z</time>
      </trkpt>
      <trkpt lat="45.61648" lon="6.78587">
        <ele>826.39</ele>
        <time>2016-08-06T08:08:49Z</time>
      </trkpt>
      <trkpt lat="45.61626" lon="6.78538">
        <ele>829.76</ele>
        <time>2016-08-06T08:09:04Z</time>
      </trkpt>
      <trkpt lat="45.61601" lon="6.7849">
        <ele>833.12</ele>
        <time>2016-08-06T08:09:20Z</time>
      </trkpt>
      <trkpt lat="45.61579" lon="6.78445">
        <ele>836</ele>
        <time>2016-08-06T08:09:35Z</time>
      </trkpt>
      <trkpt lat="45.61553" lon="6.78395">
        <ele>839.37</ele>
        <time>2016-08-06T08:09:52Z</time>
      </trkpt>
      <trkpt lat="45.61525" lon="6.78348">
        <ele>842.25</ele>
        <time>2016-08-06T08:10:08Z</time>
      </trkpt>
      <trkpt lat="45.61504" lon="6.783">
        <ele>845.62</ele>
        <time>2016-08-06T08:10:23Z</time>
      </trkpt>
      <trkpt lat="45.6148" lon="6.78257">
        <ele>848.98</ele>
        <time>2016-08-06T08:10:38Z</time>
      </trkpt>
      <trkpt lat="45.6145" lon="6.7821">
        <ele>852.35</ele>
        <time>2016-08-06T08:10:55Z</time>
      </trkpt>
      <trkpt lat="45.61428" lon="6.78159">
        <ele>855.71</ele>
        <time>2016-08-06T08:11:11Z</time>
      </trkpt>
      <trkpt lat="45.61406" lon="6.78117">
        <ele>859.08</ele>
        <time>2016-08-06T08:11:26Z</time>
      </trkpt>
      <trkpt lat="45.61382" lon="6.78076">
        <ele>862.44</ele>
        <time>2016-08-06T08:11:41Z</time>
      </trkpt>
      <trkpt lat="45.61353" lon="6.78028">
        <ele>865.32</ele>
        <time>2016-08-06T08:11:58Z</time>
      </trkpt>
      <trkpt lat="45.61309" lon="6.7798">
        <ele>868.21</ele>
        <time>2016-08-06T08:12:18Z</time>
      </trkpt>
      <trkpt lat="45.61262" lon="6.77986">
        <ele>870.61</ele>
        <time>2016-08-06T08:12:34Z</time>
      </trkpt>
      <trkpt lat="45.61259" lon="6.77984">
        <ele>870.61</ele>
        <time>2016-08-06T08:12:35Z</time>
      </trkpt>
      <trkpt lat="45.61257" lon="6.77982">
        <ele>870.61</ele>
        <time>2016-08-06T08:12:36Z</time>
      </trkpt>
      <trkpt lat="45.61255" lon="6.77979">
        <ele>871.09</ele>
        <time>2016-08-06T08:12:37Z</time>
      </trkpt>
      <trkpt lat="45.61253" lon="6.77975">
        <ele>871.09</ele>
        <time>2016-08-06T08:12:38Z</time>
      </trkpt>
      <trkpt lat="45.61251" lon="6.77972">
        <ele>871.57</ele>
        <time>2016-08-06T08:12:39Z</time>
      </trkpt>
      <trkpt lat="45.61231" lon="6.77918">
        <ele>873.98</ele>
        <time>2016-08-06T08:12:54Z</time>
      </trkpt>
      <trkpt lat="45.61201" lon="6.77869">
        <ele>875.9</ele>
        <time>2016-08-06T08:13:09Z</time>
      </trkpt>
      <trkpt lat="45.61164" lon="6.77822">
        <ele>879.26</ele>
        <time>2016-08-06T08:13:26Z</time>
      </trkpt>
      <trkpt lat="45.61119" lon="6.77781">
        <ele>882.15</ele>
        <time>2016-08-06T08:13:44Z</time>
      </trkpt>
      <trkpt lat="45.61091" lon="6.77736">
        <ele>885.03</ele>
        <time>2016-08-06T08:13:59Z</time>
      </trkpt>
      <trkpt lat="45.61073" lon="6.77684">
        <ele>888.4</ele>
        <time>2016-08-06T08:14:14Z</time>
      </trkpt>
      <trkpt lat="45.61046" lon="6.77655">
        <ele>890.8</ele>
        <time>2016-08-06T08:14:28Z</time>
      </trkpt>
      <trkpt lat="45.6101" lon="6.77663">
        <ele>893.2</ele>
        <time>2016-08-06T08:14:40Z</time>
      </trkpt>
      <trkpt lat="45.60978" lon="6.77644">
        <ele>894.64</ele>
        <time>2016-08-06T08:14:52Z</time>
      </trkpt>
      <trkpt lat="45.60972" lon="6.77597">
        <ele>898.01</ele>
        <time>2016-08-06T08:15:05Z</time>
      </trkpt>
      <trkpt lat="45.60944" lon="6.77568">
        <ele>900.41</ele>
        <time>2016-08-06T08:15:19Z</time>
      </trkpt>
      <trkpt lat="45.60908" lon="6.77549">
        <ele>903.78</ele>
        <time>2016-08-06T08:15:34Z</time>
      </trkpt>
      <trkpt lat="45.60866" lon="6.77527">
        <ele>907.14</ele>
        <time>2016-08-06T08:15:51Z</time>
      </trkpt>
      <trkpt lat="45.60838" lon="6.77495">
        <ele>910.03</ele>
        <time>2016-08-06T08:16:05Z</time>
      </trkpt>
      <trkpt lat="45.60806" lon="6.77458">
        <ele>913.39</ele>
        <time>2016-08-06T08:16:21Z</time>
      </trkpt>
      <trkpt lat="45.60762" lon="6.77433">
        <ele>916.27</ele>
        <time>2016-08-06T08:16:37Z</time>
      </trkpt>
      <trkpt lat="45.60714" lon="6.77403">
        <ele>919.16</ele>
        <time>2016-08-06T08:16:55Z</time>
      </trkpt>
      <trkpt lat="45.60675" lon="6.7737">
        <ele>922.04</ele>
        <time>2016-08-06T08:17:11Z</time>
      </trkpt>
      <trkpt lat="45.60628" lon="6.77346">
        <ele>924.93</ele>
        <time>2016-08-06T08:17:28Z</time>
      </trkpt>
      <trkpt lat="45.6059" lon="6.77332">
        <ele>928.29</ele>
        <time>2016-08-06T08:17:42Z</time>
      </trkpt>
      <trkpt lat="45.60549" lon="6.77329">
        <ele>930.69</ele>
        <time>2016-08-06T08:17:57Z</time>
      </trkpt>
      <trkpt lat="45.60517" lon="6.77322">
        <ele>934.06</ele>
        <time>2016-08-06T08:18:11Z</time>
      </trkpt>
      <trkpt lat="45.60489" lon="6.77312">
        <ele>936.94</ele>
        <time>2016-08-06T08:18:23Z</time>
      </trkpt>
      <trkpt lat="45.60463" lon="6.77292">
        <ele>939.35</ele>
        <time>2016-08-06T08:18:35Z</time>
      </trkpt>
      <trkpt lat="45.60423" lon="6.77275">
        <ele>942.71</ele>
        <time>2016-08-06T08:18:50Z</time>
      </trkpt>
      <trkpt lat="45.60382" lon="6.7727">
        <ele>945.59</ele>
        <time>2016-08-06T08:19:05Z</time>
      </trkpt>
      <trkpt lat="45.60341" lon="6.77284">
        <ele>948.48</ele>
        <time>2016-08-06T08:19:21Z</time>
      </trkpt>
      <trkpt lat="45.60312" lon="6.77264">
        <ele>951.36</ele>
        <time>2016-08-06T08:19:33Z</time>
      </trkpt>
      <trkpt lat="45.60274" lon="6.77239">
        <ele>953.77</ele>
        <time>2016-08-06T08:19:48Z</time>
      </trkpt>
      <trkpt lat="45.60225" lon="6.77233">
        <ele>957.13</ele>
        <time>2016-08-06T08:20:05Z</time>
      </trkpt>
      <trkpt lat="45.60179" lon="6.77223">
        <ele>960.49</ele>
        <time>2016-08-06T08:20:22Z</time>
      </trkpt>
      <trkpt lat="45.60146" lon="6.7719">
        <ele>963.38</ele>
        <time>2016-08-06T08:20:37Z</time>
      </trkpt>
      <trkpt lat="45.60111" lon="6.77157">
        <ele>966.26</ele>
        <time>2016-08-06T08:20:52Z</time>
      </trkpt>
      <trkpt lat="45.60076" lon="6.77128">
        <ele>969.63</ele>
        <time>2016-08-06T08:21:07Z</time>
      </trkpt>
      <trkpt lat="45.60035" lon="6.77091">
        <ele>972.99</ele>
        <time>2016-08-06T08:21:24Z</time>
      </trkpt>
      <trkpt lat="45.5999" lon="6.77045">
        <ele>976.36</ele>
        <time>2016-08-06T08:21:43Z</time>
      </trkpt>
      <trkpt lat="45.59959" lon="6.77008">
        <ele>979.72</ele>
        <time>2016-08-06T08:21:58Z</time>
      </trkpt>
      <trkpt lat="45.59933" lon="6.76968">
        <ele>982.6</ele>
        <time>2016-08-06T08:22:13Z</time>
      </trkpt>
      <trkpt lat="45.59911" lon="6.76933">
        <ele>985.49</ele>
        <time>2016-08-06T08:22:26Z</time>
      </trkpt>
      <trkpt lat="45.59882" lon="6.76906">
        <ele>988.37</ele>
        <time>2016-08-06T08:22:41Z</time>
      </trkpt>
      <trkpt lat="45.59835" lon="6.76896">
        <ele>990.78</ele>
        <time>2016-08-06T08:22:57Z</time>
      </trkpt>
      <trkpt lat="45.59802" lon="6.76878">
        <ele>992.22</ele>
        <time>2016-08-06T08:23:11Z</time>
      </trkpt>
      <trkpt lat="45.59802" lon="6.76878">
        <ele>992.7</ele>
        <time>2016-08-06T08:23:28Z</time>
      </trkpt>
      <trkpt lat="45.59796" lon="6.76878">
        <ele>992.7</ele>
        <time>2016-08-06T08:23:59Z</time>
      </trkpt>
      <trkpt lat="45.59803" lon="6.76878">
        <ele>992.7</ele>
        <time>2016-08-06T08:24:16Z</time>
      </trkpt>
      <trkpt lat="45.59797" lon="6.76883">
        <ele>992.7</ele>
        <time>2016-08-06T08:24:42Z</time>
      </trkpt>
      <trkpt lat="45.59799" lon="6.76879">
        <ele>992.7</ele>
        <time>2016-08-06T08:25:00Z</time>
      </trkpt>
      <trkpt lat="45.59801" lon="6.76878">
        <ele>992.22</ele>
        <time>2016-08-06T08:25:35Z</time>
      </trkpt>
      <trkpt lat="45.598" lon="6.76877">
        <ele>992.7</ele>
        <time>2016-08-06T08:26:00Z</time>
      </trkpt>
      <trkpt lat="45.59801" lon="6.76877">
        <ele>992.7</ele>
        <time>2016-08-06T08:26:14Z</time>
      </trkpt>
      <trkpt lat="45.59799" lon="6.76879">
        <ele>992.7</ele>
        <time>2016-08-06T08:26:15Z</time>
      </trkpt>
      <trkpt lat="45.59798" lon="6.7688">
        <ele>992.7</ele>
        <time>2016-08-06T08:26:16Z</time>
      </trkpt>
      <trkpt lat="45.59791" lon="6.76888">
        <ele>993.18</ele>
        <time>2016-08-06T08:26:20Z</time>
      </trkpt>
      <trkpt lat="45.59796" lon="6.76916">
        <ele>994.14</ele>
        <time>2016-08-06T08:26:28Z</time>
      </trkpt>
      <trkpt lat="45.59799" lon="6.76919">
        <ele>994.14</ele>
        <time>2016-08-06T08:26:29Z</time>
      </trkpt>
      <trkpt lat="45.59803" lon="6.76921">
        <ele>994.14</ele>
        <time>2016-08-06T08:26:30Z</time>
      </trkpt>
      <trkpt lat="45.59807" lon="6.76922">
        <ele>994.14</ele>
        <time>2016-08-06T08:26:31Z</time>
      </trkpt>
      <trkpt lat="45.59812" lon="6.76924">
        <ele>994.14</ele>
        <time>2016-08-06T08:26:32Z</time>
      </trkpt>
      <trkpt lat="45.59816" lon="6.76925">
        <ele>994.62</ele>
        <time>2016-08-06T08:26:33Z</time>
      </trkpt>
      <trkpt lat="45.5982" lon="6.76926">
        <ele>994.62</ele>
        <time>2016-08-06T08:26:34Z</time>
      </trkpt>
      <trkpt lat="45.59824" lon="6.76926">
        <ele>994.62</ele>
        <time>2016-08-06T08:26:35Z</time>
      </trkpt>
      <trkpt lat="45.59875" lon="6.7694">
        <ele>996.54</ele>
        <time>2016-08-06T08:26:48Z</time>
      </trkpt>
      <trkpt lat="45.59911" lon="6.76991">
        <ele>999.43</ele>
        <time>2016-08-06T08:27:02Z</time>
      </trkpt>
      <trkpt lat="45.59938" lon="6.77043">
        <ele>1002.31</ele>
        <time>2016-08-06T08:27:15Z</time>
      </trkpt>
      <trkpt lat="45.59976" lon="6.7711">
        <ele>1006.16</ele>
        <time>2016-08-06T08:27:33Z</time>
      </trkpt>
      <trkpt lat="45.60009" lon="6.77164">
        <ele>1009.04</ele>
        <time>2016-08-06T08:27:48Z</time>
      </trkpt>
      <trkpt lat="45.60036" lon="6.77209">
        <ele>1011.93</ele>
        <time>2016-08-06T08:28:01Z</time>
      </trkpt>
      <trkpt lat="45.60062" lon="6.77251">
        <ele>1015.29</ele>
        <time>2016-08-06T08:28:14Z</time>
      </trkpt>
      <trkpt lat="45.60086" lon="6.77299">
        <ele>1018.65</ele>
        <time>2016-08-06T08:28:28Z</time>
      </trkpt>
      <trkpt lat="45.60104" lon="6.77349">
        <ele>1021.54</ele>
        <time>2016-08-06T08:28:41Z</time>
      </trkpt>
      <trkpt lat="45.60137" lon="6.77377">
        <ele>1024.42</ele>
        <time>2016-08-06T08:28:55Z</time>
      </trkpt>
      <trkpt lat="45.60173" lon="6.77385">
        <ele>1028.27</ele>
        <time>2016-08-06T08:29:07Z</time>
      </trkpt>
      <trkpt lat="45.60185" lon="6.77398">
        <ele>1029.23</ele>
        <time>2016-08-06T08:29:12Z</time>
      </trkpt>
      <trkpt lat="45.60187" lon="6.77402">
        <ele>1029.71</ele>
        <time>2016-08-06T08:29:13Z</time>
      </trkpt>
      <trkpt lat="45.60189" lon="6.77404">
        <ele>1029.71</ele>
        <time>2016-08-06T08:29:14Z</time>
      </trkpt>
      <trkpt lat="45.60191" lon="6.77408">
        <ele>1029.71</ele>
        <time>2016-08-06T08:29:15Z</time>
      </trkpt>
      <trkpt lat="45.60193" lon="6.77411">
        <ele>1030.19</ele>
        <time>2016-08-06T08:29:16Z</time>
      </trkpt>
      <trkpt lat="45.60194" lon="6.77413">
        <ele>1030.19</ele>
        <time>2016-08-06T08:29:17Z</time>
      </trkpt>
      <trkpt lat="45.60197" lon="6.77416">
        <ele>1030.19</ele>
        <time>2016-08-06T08:29:18Z</time>
      </trkpt>
      <trkpt lat="45.60198" lon="6.77419">
        <ele>1031.15</ele>
        <time>2016-08-06T08:29:19Z</time>
      </trkpt>
      <trkpt lat="45.602" lon="6.77422">
        <ele>1031.15</ele>
        <time>2016-08-06T08:29:20Z</time>
      </trkpt>
      <trkpt lat="45.60202" lon="6.77425">
        <ele>1031.15</ele>
        <time>2016-08-06T08:29:21Z</time>
      </trkpt>
      <trkpt lat="45.60225" lon="6.77453">
        <ele>1033.55</ele>
        <time>2016-08-06T08:29:31Z</time>
      </trkpt>
      <trkpt lat="45.60261" lon="6.77482">
        <ele>1036.92</ele>
        <time>2016-08-06T08:29:44Z</time>
      </trkpt>
      <trkpt lat="45.60293" lon="6.7751">
        <ele>1039.8</ele>
        <time>2016-08-06T08:29:54Z</time>
      </trkpt>
      <trkpt lat="45.60328" lon="6.77546">
        <ele>1043.17</ele>
        <time>2016-08-06T08:30:07Z</time>
      </trkpt>
      <trkpt lat="45.60364" lon="6.77586">
        <ele>1046.53</ele>
        <time>2016-08-06T08:30:21Z</time>
      </trkpt>
      <trkpt lat="45.60396" lon="6.77638">
        <ele>1049.9</ele>
        <time>2016-08-06T08:30:35Z</time>
      </trkpt>
      <trkpt lat="45.6043" lon="6.77696">
        <ele>1053.26</ele>
        <time>2016-08-06T08:30:51Z</time>
      </trkpt>
      <trkpt lat="45.60478" lon="6.77723">
        <ele>1056.63</ele>
        <time>2016-08-06T08:31:07Z</time>
      </trkpt>
      <trkpt lat="45.60508" lon="6.77768">
        <ele>1059.99</ele>
        <time>2016-08-06T08:31:20Z</time>
      </trkpt>
      <trkpt lat="45.60531" lon="6.77851">
        <ele>1063.84</ele>
        <time>2016-08-06T08:31:36Z</time>
      </trkpt>
      <trkpt lat="45.60559" lon="6.77925">
        <ele>1066.72</ele>
        <time>2016-08-06T08:31:52Z</time>
      </trkpt>
      <trkpt lat="45.60589" lon="6.77965">
        <ele>1070.08</ele>
        <time>2016-08-06T08:32:04Z</time>
      </trkpt>
      <trkpt lat="45.6062" lon="6.78007">
        <ele>1072.97</ele>
        <time>2016-08-06T08:32:18Z</time>
      </trkpt>
      <trkpt lat="45.6064" lon="6.78043">
        <ele>1076.33</ele>
        <time>2016-08-06T08:32:29Z</time>
      </trkpt>
      <trkpt lat="45.60668" lon="6.78086">
        <ele>1079.22</ele>
        <time>2016-08-06T08:32:42Z</time>
      </trkpt>
      <trkpt lat="45.60697" lon="6.78131">
        <ele>1082.58</ele>
        <time>2016-08-06T08:32:55Z</time>
      </trkpt>
      <trkpt lat="45.60723" lon="6.78154">
        <ele>1084.02</ele>
        <time>2016-08-06T08:33:04Z</time>
      </trkpt>
      <trkpt lat="45.60761" lon="6.78167">
        <ele>1086.43</ele>
        <time>2016-08-06T08:33:13Z</time>
      </trkpt>
      <trkpt lat="45.6077" lon="6.78173">
        <ele>1086.43</ele>
        <time>2016-08-06T08:33:15Z</time>
      </trkpt>
      <trkpt lat="45.60844" lon="6.7822">
        <ele>1088.35</ele>
        <time>2016-08-06T08:33:32Z</time>
      </trkpt>
      <trkpt lat="45.60856" lon="6.78231">
        <ele>1089.79</ele>
        <time>2016-08-06T08:33:35Z</time>
      </trkpt>
      <trkpt lat="45.60883" lon="6.78253">
        <ele>1090.75</ele>
        <time>2016-08-06T08:33:42Z</time>
      </trkpt>
      <trkpt lat="45.60887" lon="6.78256">
        <ele>1091.23</ele>
        <time>2016-08-06T08:33:43Z</time>
      </trkpt>
      <trkpt lat="45.60892" lon="6.78258">
        <ele>1091.23</ele>
        <time>2016-08-06T08:33:44Z</time>
      </trkpt>
      <trkpt lat="45.60896" lon="6.78261">
        <ele>1091.23</ele>
        <time>2016-08-06T08:33:45Z</time>
      </trkpt>
      <trkpt lat="45.609" lon="6.78263">
        <ele>1091.23</ele>
        <time>2016-08-06T08:33:46Z</time>
      </trkpt>
      <trkpt lat="45.60908" lon="6.78267">
        <ele>1092.2</ele>
        <time>2016-08-06T08:33:48Z</time>
      </trkpt>
      <trkpt lat="45.60955" lon="6.78281">
        <ele>1095.56</ele>
        <time>2016-08-06T08:34:01Z</time>
      </trkpt>
      <trkpt lat="45.60984" lon="6.78335">
        <ele>1098.44</ele>
        <time>2016-08-06T08:34:14Z</time>
      </trkpt>
      <trkpt lat="45.61004" lon="6.78417">
        <ele>1100.85</ele>
        <time>2016-08-06T08:34:28Z</time>
      </trkpt>
      <trkpt lat="45.61011" lon="6.78433">
        <ele>1101.33</ele>
        <time>2016-08-06T08:34:31Z</time>
      </trkpt>
      <trkpt lat="45.61014" lon="6.78438">
        <ele>1101.33</ele>
        <time>2016-08-06T08:34:32Z</time>
      </trkpt>
      <trkpt lat="45.6102" lon="6.78446">
        <ele>1101.33</ele>
        <time>2016-08-06T08:34:34Z</time>
      </trkpt>
      <trkpt lat="45.61041" lon="6.78468">
        <ele>1102.77</ele>
        <time>2016-08-06T08:34:40Z</time>
      </trkpt>
      <trkpt lat="45.61049" lon="6.78483">
        <ele>1103.25</ele>
        <time>2016-08-06T08:34:43Z</time>
      </trkpt>
      <trkpt lat="45.61055" lon="6.78499">
        <ele>1104.21</ele>
        <time>2016-08-06T08:34:46Z</time>
      </trkpt>
      <trkpt lat="45.61077" lon="6.78545">
        <ele>1106.61</ele>
        <time>2016-08-06T08:34:57Z</time>
      </trkpt>
      <trkpt lat="45.6108" lon="6.78547">
        <ele>1107.1</ele>
        <time>2016-08-06T08:34:58Z</time>
      </trkpt>
      <trkpt lat="45.61118" lon="6.78571">
        <ele>1110.46</ele>
        <time>2016-08-06T08:35:11Z</time>
      </trkpt>
      <trkpt lat="45.61145" lon="6.78604">
        <ele>1113.34</ele>
        <time>2016-08-06T08:35:21Z</time>
      </trkpt>
      <trkpt lat="45.61168" lon="6.78655">
        <ele>1116.23</ele>
        <time>2016-08-06T08:35:33Z</time>
      </trkpt>
      <trkpt lat="45.61191" lon="6.78704">
        <ele>1119.59</ele>
        <time>2016-08-06T08:35:46Z</time>
      </trkpt>
      <trkpt lat="45.61206" lon="6.78758">
        <ele>1122.96</ele>
        <time>2016-08-06T08:35:59Z</time>
      </trkpt>
      <trkpt lat="45.61215" lon="6.78817">
        <ele>1125.84</ele>
        <time>2016-08-06T08:36:12Z</time>
      </trkpt>
      <trkpt lat="45.6123" lon="6.78875">
        <ele>1129.69</ele>
        <time>2016-08-06T08:36:24Z</time>
      </trkpt>
      <trkpt lat="45.61255" lon="6.78943">
        <ele>1132.57</ele>
        <time>2016-08-06T08:36:37Z</time>
      </trkpt>
      <trkpt lat="45.61272" lon="6.78986">
        <ele>1133.53</ele>
        <time>2016-08-06T08:36:45Z</time>
      </trkpt>
      <trkpt lat="45.61273" lon="6.78992">
        <ele>1134.01</ele>
        <time>2016-08-06T08:36:46Z</time>
      </trkpt>
      <trkpt lat="45.61272" lon="6.78998">
        <ele>1134.01</ele>
        <time>2016-08-06T08:36:47Z</time>
      </trkpt>
      <trkpt lat="45.61271" lon="6.79003">
        <ele>1134.01</ele>
        <time>2016-08-06T08:36:48Z</time>
      </trkpt>
      <trkpt lat="45.61268" lon="6.79007">
        <ele>1134.49</ele>
        <time>2016-08-06T08:36:49Z</time>
      </trkpt>
      <trkpt lat="45.61264" lon="6.79008">
        <ele>1134.49</ele>
        <time>2016-08-06T08:36:50Z</time>
      </trkpt>
      <trkpt lat="45.61261" lon="6.79007">
        <ele>1134.97</ele>
        <time>2016-08-06T08:36:51Z</time>
      </trkpt>
      <trkpt lat="45.61258" lon="6.79004">
        <ele>1134.97</ele>
        <time>2016-08-06T08:36:52Z</time>
      </trkpt>
      <trkpt lat="45.61255" lon="6.78999">
        <ele>1134.97</ele>
        <time>2016-08-06T08:36:53Z</time>
      </trkpt>
      <trkpt lat="45.61254" lon="6.78994">
        <ele>1135.45</ele>
        <time>2016-08-06T08:36:54Z</time>
      </trkpt>
      <trkpt lat="45.61252" lon="6.78988">
        <ele>1135.45</ele>
        <time>2016-08-06T08:36:55Z</time>
      </trkpt>
      <trkpt lat="45.61251" lon="6.78982">
        <ele>1135.94</ele>
        <time>2016-08-06T08:36:56Z</time>
      </trkpt>
      <trkpt lat="45.61249" lon="6.78976">
        <ele>1135.94</ele>
        <time>2016-08-06T08:36:57Z</time>
      </trkpt>
      <trkpt lat="45.61239" lon="6.7894">
        <ele>1137.38</ele>
        <time>2016-08-06T08:37:04Z</time>
      </trkpt>
      <trkpt lat="45.61236" lon="6.78934">
        <ele>1137.86</ele>
        <time>2016-08-06T08:37:05Z</time>
      </trkpt>
      <trkpt lat="45.612" lon="6.78851">
        <ele>1140.74</ele>
        <time>2016-08-06T08:37:21Z</time>
      </trkpt>
      <trkpt lat="45.61185" lon="6.78821">
        <ele>1141.7</ele>
        <time>2016-08-06T08:37:27Z</time>
      </trkpt>
      <trkpt lat="45.6115" lon="6.78774">
        <ele>1145.07</ele>
        <time>2016-08-06T08:37:40Z</time>
      </trkpt>
      <trkpt lat="45.61118" lon="6.78743">
        <ele>1148.43</ele>
        <time>2016-08-06T08:37:52Z</time>
      </trkpt>
      <trkpt lat="45.61086" lon="6.78711">
        <ele>1151.32</ele>
        <time>2016-08-06T08:38:04Z</time>
      </trkpt>
      <trkpt lat="45.61061" lon="6.78676">
        <ele>1154.68</ele>
        <time>2016-08-06T08:38:15Z</time>
      </trkpt>
      <trkpt lat="45.61028" lon="6.78649">
        <ele>1157.56</ele>
        <time>2016-08-06T08:38:27Z</time>
      </trkpt>
      <trkpt lat="45.60992" lon="6.78628">
        <ele>1160.45</ele>
        <time>2016-08-06T08:38:39Z</time>
      </trkpt>
      <trkpt lat="45.60958" lon="6.78606">
        <ele>1163.81</ele>
        <time>2016-08-06T08:38:51Z</time>
      </trkpt>
      <trkpt lat="45.60921" lon="6.78571">
        <ele>1167.18</ele>
        <time>2016-08-06T08:39:04Z</time>
      </trkpt>
      <trkpt lat="45.60877" lon="6.78552">
        <ele>1170.54</ele>
        <time>2016-08-06T08:39:16Z</time>
      </trkpt>
      <trkpt lat="45.60839" lon="6.78539">
        <ele>1173.91</ele>
        <time>2016-08-06T08:39:27Z</time>
      </trkpt>
      <trkpt lat="45.60784" lon="6.78525">
        <ele>1177.27</ele>
        <time>2016-08-06T08:39:42Z</time>
      </trkpt>
      <trkpt lat="45.60739" lon="6.78515">
        <ele>1180.64</ele>
        <time>2016-08-06T08:39:55Z</time>
      </trkpt>
      <trkpt lat="45.60707" lon="6.78499">
        <ele>1183.52</ele>
        <time>2016-08-06T08:40:06Z</time>
      </trkpt>
      <trkpt lat="45.60674" lon="6.78479">
        <ele>1186.88</ele>
        <time>2016-08-06T08:40:18Z</time>
      </trkpt>
      <trkpt lat="45.60642" lon="6.78456">
        <ele>1189.29</ele>
        <time>2016-08-06T08:40:29Z</time>
      </trkpt>
      <trkpt lat="45.60606" lon="6.78422">
        <ele>1192.65</ele>
        <time>2016-08-06T08:40:41Z</time>
      </trkpt>
      <trkpt lat="45.60578" lon="6.78389">
        <ele>1196.02</ele>
        <time>2016-08-06T08:40:52Z</time>
      </trkpt>
      <trkpt lat="45.60542" lon="6.78364">
        <ele>1198.9</ele>
        <time>2016-08-06T08:41:04Z</time>
      </trkpt>
      <trkpt lat="45.60498" lon="6.78354">
        <ele>1201.79</ele>
        <time>2016-08-06T08:41:15Z</time>
      </trkpt>
      <trkpt lat="45.60448" lon="6.78333">
        <ele>1205.63</ele>
        <time>2016-08-06T08:41:29Z</time>
      </trkpt>
      <trkpt lat="45.60407" lon="6.78298">
        <ele>1208.51</ele>
        <time>2016-08-06T08:41:42Z</time>
      </trkpt>
      <trkpt lat="45.6036" lon="6.7826">
        <ele>1211.88</ele>
        <time>2016-08-06T08:41:56Z</time>
      </trkpt>
      <trkpt lat="45.603" lon="6.78231">
        <ele>1215.72</ele>
        <time>2016-08-06T08:42:12Z</time>
      </trkpt>
      <trkpt lat="45.60274" lon="6.78235">
        <ele>1216.69</ele>
        <time>2016-08-06T08:42:19Z</time>
      </trkpt>
      <trkpt lat="45.60244" lon="6.78282">
        <ele>1219.09</ele>
        <time>2016-08-06T08:42:31Z</time>
      </trkpt>
      <trkpt lat="45.60215" lon="6.78358">
        <ele>1222.45</ele>
        <time>2016-08-06T08:42:44Z</time>
      </trkpt>
      <trkpt lat="45.60209" lon="6.78368">
        <ele>1222.45</ele>
        <time>2016-08-06T08:42:46Z</time>
      </trkpt>
      <trkpt lat="45.60206" lon="6.78373">
        <ele>1222.93</ele>
        <time>2016-08-06T08:42:47Z</time>
      </trkpt>
      <trkpt lat="45.60202" lon="6.78377">
        <ele>1222.93</ele>
        <time>2016-08-06T08:42:48Z</time>
      </trkpt>
      <trkpt lat="45.60197" lon="6.78381">
        <ele>1223.42</ele>
        <time>2016-08-06T08:42:49Z</time>
      </trkpt>
      <trkpt lat="45.60193" lon="6.78384">
        <ele>1223.42</ele>
        <time>2016-08-06T08:42:50Z</time>
      </trkpt>
      <trkpt lat="45.60189" lon="6.78385">
        <ele>1223.9</ele>
        <time>2016-08-06T08:42:51Z</time>
      </trkpt>
      <trkpt lat="45.60184" lon="6.78386">
        <ele>1223.42</ele>
        <time>2016-08-06T08:42:52Z</time>
      </trkpt>
      <trkpt lat="45.60179" lon="6.78386">
        <ele>1223.9</ele>
        <time>2016-08-06T08:42:53Z</time>
      </trkpt>
      <trkpt lat="45.60175" lon="6.78386">
        <ele>1224.38</ele>
        <time>2016-08-06T08:42:54Z</time>
      </trkpt>
      <trkpt lat="45.6017" lon="6.78384">
        <ele>1224.86</ele>
        <time>2016-08-06T08:42:55Z</time>
      </trkpt>
      <trkpt lat="45.60166" lon="6.78382">
        <ele>1224.86</ele>
        <time>2016-08-06T08:42:56Z</time>
      </trkpt>
      <trkpt lat="45.60158" lon="6.78377">
        <ele>1225.34</ele>
        <time>2016-08-06T08:42:58Z</time>
      </trkpt>
      <trkpt lat="45.60143" lon="6.78365">
        <ele>1226.3</ele>
        <time>2016-08-06T08:43:02Z</time>
      </trkpt>
      <trkpt lat="45.60085" lon="6.78342">
        <ele>1229.66</ele>
        <time>2016-08-06T08:43:16Z</time>
      </trkpt>
      <trkpt lat="45.60054" lon="6.78306">
        <ele>1232.55</ele>
        <time>2016-08-06T08:43:27Z</time>
      </trkpt>
      <trkpt lat="45.60053" lon="6.78249">
        <ele>1236.39</ele>
        <time>2016-08-06T08:43:38Z</time>
      </trkpt>
      <trkpt lat="45.60053" lon="6.78245">
        <ele>1236.39</ele>
        <time>2016-08-06T08:43:39Z</time>
      </trkpt>
      <trkpt lat="45.6006" lon="6.7819">
        <ele>1238.8</ele>
        <time>2016-08-06T08:43:50Z</time>
      </trkpt>
      <trkpt lat="45.60041" lon="6.78149">
        <ele>1241.68</ele>
        <time>2016-08-06T08:44:00Z</time>
      </trkpt>
      <trkpt lat="45.60004" lon="6.78118">
        <ele>1244.56</ele>
        <time>2016-08-06T08:44:11Z</time>
      </trkpt>
      <trkpt lat="45.59962" lon="6.78085">
        <ele>1247.93</ele>
        <time>2016-08-06T08:44:24Z</time>
      </trkpt>
      <trkpt lat="45.59918" lon="6.7806">
        <ele>1251.29</ele>
        <time>2016-08-06T08:44:37Z</time>
      </trkpt>
      <trkpt lat="45.59875" lon="6.78059">
        <ele>1254.66</ele>
        <time>2016-08-06T08:44:49Z</time>
      </trkpt>
      <trkpt lat="45.59832" lon="6.78069">
        <ele>1258.02</ele>
        <time>2016-08-06T08:45:01Z</time>
      </trkpt>
      <trkpt lat="45.59797" lon="6.78079">
        <ele>1260.91</ele>
        <time>2016-08-06T08:45:12Z</time>
      </trkpt>
      <trkpt lat="45.59765" lon="6.78085">
        <ele>1263.31</ele>
        <time>2016-08-06T08:45:23Z</time>
      </trkpt>
      <trkpt lat="45.59726" lon="6.78091">
        <ele>1266.67</ele>
        <time>2016-08-06T08:45:35Z</time>
      </trkpt>
      <trkpt lat="45.59683" lon="6.78101">
        <ele>1269.56</ele>
        <time>2016-08-06T08:45:47Z</time>
      </trkpt>
      <trkpt lat="45.59641" lon="6.78119">
        <ele>1272.92</ele>
        <time>2016-08-06T08:46:00Z</time>
      </trkpt>
      <trkpt lat="45.59604" lon="6.78144">
        <ele>1275.81</ele>
        <time>2016-08-06T08:46:12Z</time>
      </trkpt>
      <trkpt lat="45.59564" lon="6.78172">
        <ele>1279.17</ele>
        <time>2016-08-06T08:46:25Z</time>
      </trkpt>
      <trkpt lat="45.59529" lon="6.78182">
        <ele>1281.57</ele>
        <time>2016-08-06T08:46:36Z</time>
      </trkpt>
      <trkpt lat="45.59487" lon="6.78198">
        <ele>1283.98</ele>
        <time>2016-08-06T08:46:49Z</time>
      </trkpt>
      <trkpt lat="45.59442" lon="6.78205">
        <ele>1287.34</ele>
        <time>2016-08-06T08:47:01Z</time>
      </trkpt>
      <trkpt lat="45.59438" lon="6.78206">
        <ele>1287.34</ele>
        <time>2016-08-06T08:47:02Z</time>
      </trkpt>
      <trkpt lat="45.59433" lon="6.78208">
        <ele>1287.82</ele>
        <time>2016-08-06T08:47:03Z</time>
      </trkpt>
      <trkpt lat="45.59429" lon="6.7821">
        <ele>1287.82</ele>
        <time>2016-08-06T08:47:04Z</time>
      </trkpt>
      <trkpt lat="45.59421" lon="6.78215">
        <ele>1288.78</ele>
        <time>2016-08-06T08:47:06Z</time>
      </trkpt>
      <trkpt lat="45.59395" lon="6.78237">
        <ele>1290.23</ele>
        <time>2016-08-06T08:47:13Z</time>
      </trkpt>
      <trkpt lat="45.5939" lon="6.78238">
        <ele>1290.23</ele>
        <time>2016-08-06T08:47:14Z</time>
      </trkpt>
      <trkpt lat="45.59386" lon="6.78237">
        <ele>1290.23</ele>
        <time>2016-08-06T08:47:15Z</time>
      </trkpt>
      <trkpt lat="45.59381" lon="6.78235">
        <ele>1290.71</ele>
        <time>2016-08-06T08:47:16Z</time>
      </trkpt>
      <trkpt lat="45.59376" lon="6.78232">
        <ele>1290.71</ele>
        <time>2016-08-06T08:47:17Z</time>
      </trkpt>
      <trkpt lat="45.59369" lon="6.78228">
        <ele>1291.67</ele>
        <time>2016-08-06T08:47:19Z</time>
      </trkpt>
      <trkpt lat="45.5931" lon="6.78184">
        <ele>1295.03</ele>
        <time>2016-08-06T08:47:35Z</time>
      </trkpt>
      <trkpt lat="45.59273" lon="6.78145">
        <ele>1297.92</ele>
        <time>2016-08-06T08:47:47Z</time>
      </trkpt>
      <trkpt lat="45.59254" lon="6.78107">
        <ele>1301.28</ele>
        <time>2016-08-06T08:47:56Z</time>
      </trkpt>
      <trkpt lat="45.59232" lon="6.78034">
        <ele>1304.17</ele>
        <time>2016-08-06T08:48:11Z</time>
      </trkpt>
      <trkpt lat="45.59231" lon="6.78022">
        <ele>1304.65</ele>
        <time>2016-08-06T08:48:13Z</time>
      </trkpt>
      <trkpt lat="45.59231" lon="6.78016">
        <ele>1305.13</ele>
        <time>2016-08-06T08:48:14Z</time>
      </trkpt>
      <trkpt lat="45.59233" lon="6.77985">
        <ele>1306.09</ele>
        <time>2016-08-06T08:48:19Z</time>
      </trkpt>
      <trkpt lat="45.59233" lon="6.7792">
        <ele>1309.45</ele>
        <time>2016-08-06T08:48:31Z</time>
      </trkpt>
      <trkpt lat="45.59198" lon="6.77893">
        <ele>1312.34</ele>
        <time>2016-08-06T08:48:42Z</time>
      </trkpt>
      <trkpt lat="45.59158" lon="6.77875">
        <ele>1315.22</ele>
        <time>2016-08-06T08:48:55Z</time>
      </trkpt>
      <trkpt lat="45.59122" lon="6.77858">
        <ele>1318.59</ele>
        <time>2016-08-06T08:49:08Z</time>
      </trkpt>
      <trkpt lat="45.59091" lon="6.77833">
        <ele>1321.47</ele>
        <time>2016-08-06T08:49:19Z</time>
      </trkpt>
      <trkpt lat="45.59053" lon="6.77804">
        <ele>1324.35</ele>
        <time>2016-08-06T08:49:32Z</time>
      </trkpt>
      <trkpt lat="45.59015" lon="6.77795">
        <ele>1327.72</ele>
        <time>2016-08-06T08:49:44Z</time>
      </trkpt>
      <trkpt lat="45.58979" lon="6.77827">
        <ele>1330.6</ele>
        <time>2016-08-06T08:49:56Z</time>
      </trkpt>
      <trkpt lat="45.58951" lon="6.77859">
        <ele>1333.01</ele>
        <time>2016-08-06T08:50:08Z</time>
      </trkpt>
      <trkpt lat="45.58923" lon="6.77884">
        <ele>1336.37</ele>
        <time>2016-08-06T08:50:19Z</time>
      </trkpt>
      <trkpt lat="45.58891" lon="6.77912">
        <ele>1339.25</ele>
        <time>2016-08-06T08:50:31Z</time>
      </trkpt>
      <trkpt lat="45.58862" lon="6.77936">
        <ele>1342.62</ele>
        <time>2016-08-06T08:50:42Z</time>
      </trkpt>
      <trkpt lat="45.58836" lon="6.77958">
        <ele>1345.02</ele>
        <time>2016-08-06T08:50:52Z</time>
      </trkpt>
      <trkpt lat="45.58811" lon="6.77997">
        <ele>1348.39</ele>
        <time>2016-08-06T08:51:04Z</time>
      </trkpt>
      <trkpt lat="45.58779" lon="6.78029">
        <ele>1350.79</ele>
        <time>2016-08-06T08:51:16Z</time>
      </trkpt>
      <trkpt lat="45.58746" lon="6.78036">
        <ele>1354.15</ele>
        <time>2016-08-06T08:51:27Z</time>
      </trkpt>
      <trkpt lat="45.58707" lon="6.78035">
        <ele>1357.52</ele>
        <time>2016-08-06T08:51:39Z</time>
      </trkpt>
      <trkpt lat="45.58663" lon="6.78035">
        <ele>1360.88</ele>
        <time>2016-08-06T08:51:51Z</time>
      </trkpt>
      <trkpt lat="45.58614" lon="6.78042">
        <ele>1364.25</ele>
        <time>2016-08-06T08:52:05Z</time>
      </trkpt>
      <trkpt lat="45.58566" lon="6.78042">
        <ele>1367.13</ele>
        <time>2016-08-06T08:52:18Z</time>
      </trkpt>
      <trkpt lat="45.58524" lon="6.78043">
        <ele>1370.02</ele>
        <time>2016-08-06T08:52:30Z</time>
      </trkpt>
      <trkpt lat="45.58485" lon="6.78047">
        <ele>1373.38</ele>
        <time>2016-08-06T08:52:41Z</time>
      </trkpt>
      <trkpt lat="45.58463" lon="6.7802">
        <ele>1375.78</ele>
        <time>2016-08-06T08:52:51Z</time>
      </trkpt>
      <trkpt lat="45.58466" lon="6.77973">
        <ele>1379.15</ele>
        <time>2016-08-06T08:53:02Z</time>
      </trkpt>
      <trkpt lat="45.58456" lon="6.77921">
        <ele>1382.51</ele>
        <time>2016-08-06T08:53:14Z</time>
      </trkpt>
      <trkpt lat="45.5844" lon="6.77871">
        <ele>1385.4</ele>
        <time>2016-08-06T08:53:25Z</time>
      </trkpt>
      <trkpt lat="45.58429" lon="6.77827">
        <ele>1388.28</ele>
        <time>2016-08-06T08:53:34Z</time>
      </trkpt>
      <trkpt lat="45.58419" lon="6.77779">
        <ele>1391.17</ele>
        <time>2016-08-06T08:53:44Z</time>
      </trkpt>
      <trkpt lat="45.58418" lon="6.77712">
        <ele>1394.53</ele>
        <time>2016-08-06T08:53:58Z</time>
      </trkpt>
      <trkpt lat="45.58405" lon="6.77659">
        <ele>1397.89</ele>
        <time>2016-08-06T08:54:10Z</time>
      </trkpt>
      <trkpt lat="45.5838" lon="6.77609">
        <ele>1401.26</ele>
        <time>2016-08-06T08:54:23Z</time>
      </trkpt>
      <trkpt lat="45.5834" lon="6.77581">
        <ele>1404.62</ele>
        <time>2016-08-06T08:54:36Z</time>
      </trkpt>
      <trkpt lat="45.58293" lon="6.77558">
        <ele>1407.99</ele>
        <time>2016-08-06T08:54:50Z</time>
      </trkpt>
      <trkpt lat="45.5829" lon="6.77556">
        <ele>1407.99</ele>
        <time>2016-08-06T08:54:51Z</time>
      </trkpt>
      <trkpt lat="45.58259" lon="6.7753">
        <ele>1411.35</ele>
        <time>2016-08-06T08:55:01Z</time>
      </trkpt>
      <trkpt lat="45.58211" lon="6.77512">
        <ele>1414.72</ele>
        <time>2016-08-06T08:55:14Z</time>
      </trkpt>
      <trkpt lat="45.58162" lon="6.77505">
        <ele>1417.6</ele>
        <time>2016-08-06T08:55:28Z</time>
      </trkpt>
      <trkpt lat="45.58131" lon="6.77483">
        <ele>1420</ele>
        <time>2016-08-06T08:55:38Z</time>
      </trkpt>
      <trkpt lat="45.58106" lon="6.77428">
        <ele>1423.37</ele>
        <time>2016-08-06T08:55:51Z</time>
      </trkpt>
      <trkpt lat="45.58094" lon="6.77405">
        <ele>1424.33</ele>
        <time>2016-08-06T08:55:56Z</time>
      </trkpt>
      <trkpt lat="45.58091" lon="6.774">
        <ele>1425.29</ele>
        <time>2016-08-06T08:55:57Z</time>
      </trkpt>
      <trkpt lat="45.58055" lon="6.77344">
        <ele>1428.18</ele>
        <time>2016-08-06T08:56:10Z</time>
      </trkpt>
      <trkpt lat="45.58047" lon="6.77332">
        <ele>1428.66</ele>
        <time>2016-08-06T08:56:13Z</time>
      </trkpt>
      <trkpt lat="45.58039" lon="6.77328">
        <ele>1429.14</ele>
        <time>2016-08-06T08:56:15Z</time>
      </trkpt>
      <trkpt lat="45.58035" lon="6.77327">
        <ele>1429.14</ele>
        <time>2016-08-06T08:56:16Z</time>
      </trkpt>
      <trkpt lat="45.58031" lon="6.77328">
        <ele>1429.14</ele>
        <time>2016-08-06T08:56:17Z</time>
      </trkpt>
      <trkpt lat="45.58027" lon="6.77331">
        <ele>1429.14</ele>
        <time>2016-08-06T08:56:18Z</time>
      </trkpt>
      <trkpt lat="45.58025" lon="6.77336">
        <ele>1429.14</ele>
        <time>2016-08-06T08:56:19Z</time>
      </trkpt>
      <trkpt lat="45.58024" lon="6.77342">
        <ele>1429.62</ele>
        <time>2016-08-06T08:56:20Z</time>
      </trkpt>
      <trkpt lat="45.58023" lon="6.77348">
        <ele>1429.62</ele>
        <time>2016-08-06T08:56:21Z</time>
      </trkpt>
      <trkpt lat="45.58024" lon="6.77354">
        <ele>1429.62</ele>
        <time>2016-08-06T08:56:22Z</time>
      </trkpt>
      <trkpt lat="45.58026" lon="6.77359">
        <ele>1429.62</ele>
        <time>2016-08-06T08:56:23Z</time>
      </trkpt>
      <trkpt lat="45.58029" lon="6.77363">
        <ele>1430.58</ele>
        <time>2016-08-06T08:56:24Z</time>
      </trkpt>
      <trkpt lat="45.58033" lon="6.77366">
        <ele>1430.58</ele>
        <time>2016-08-06T08:56:25Z</time>
      </trkpt>
      <trkpt lat="45.58036" lon="6.77369">
        <ele>1430.58</ele>
        <time>2016-08-06T08:56:26Z</time>
      </trkpt>
      <trkpt lat="45.5804" lon="6.77372">
        <ele>1431.06</ele>
        <time>2016-08-06T08:56:27Z</time>
      </trkpt>
      <trkpt lat="45.5809" lon="6.77442">
        <ele>1432.5</ele>
        <time>2016-08-06T08:56:41Z</time>
      </trkpt>
      <trkpt lat="45.58092" lon="6.77449">
        <ele>1432.5</ele>
        <time>2016-08-06T08:56:42Z</time>
      </trkpt>
      <trkpt lat="45.58098" lon="6.77472">
        <ele>1432.98</ele>
        <time>2016-08-06T08:56:45Z</time>
      </trkpt>
      <trkpt lat="45.581" lon="6.77479">
        <ele>1432.98</ele>
        <time>2016-08-06T08:56:46Z</time>
      </trkpt>
      <trkpt lat="45.58114" lon="6.77522">
        <ele>1433.46</ele>
        <time>2016-08-06T08:56:52Z</time>
      </trkpt>
      <trkpt lat="45.58117" lon="6.77529">
        <ele>1433.94</ele>
        <time>2016-08-06T08:56:53Z</time>
      </trkpt>
      <trkpt lat="45.58121" lon="6.77535">
        <ele>1433.94</ele>
        <time>2016-08-06T08:56:54Z</time>
      </trkpt>
      <trkpt lat="45.58125" lon="6.77541">
        <ele>1433.94</ele>
        <time>2016-08-06T08:56:55Z</time>
      </trkpt>
      <trkpt lat="45.58129" lon="6.77545">
        <ele>1433.94</ele>
        <time>2016-08-06T08:56:56Z</time>
      </trkpt>
      <trkpt lat="45.58134" lon="6.77549">
        <ele>1434.42</ele>
        <time>2016-08-06T08:56:57Z</time>
      </trkpt>
      <trkpt lat="45.58138" lon="6.77552">
        <ele>1434.42</ele>
        <time>2016-08-06T08:56:58Z</time>
      </trkpt>
      <trkpt lat="45.58143" lon="6.77554">
        <ele>1434.91</ele>
        <time>2016-08-06T08:56:59Z</time>
      </trkpt>
      <trkpt lat="45.58178" lon="6.77569">
        <ele>1436.35</ele>
        <time>2016-08-06T08:57:06Z</time>
      </trkpt>
      <trkpt lat="45.58191" lon="6.77578">
        <ele>1436.83</ele>
        <time>2016-08-06T08:57:09Z</time>
      </trkpt>
      <trkpt lat="45.58196" lon="6.77581">
        <ele>1437.31</ele>
        <time>2016-08-06T08:57:10Z</time>
      </trkpt>
      <trkpt lat="45.58261" lon="6.77635">
        <ele>1439.71</ele>
        <time>2016-08-06T08:57:24Z</time>
      </trkpt>
      <trkpt lat="45.58266" lon="6.77639">
        <ele>1439.71</ele>
        <time>2016-08-06T08:57:25Z</time>
      </trkpt>
      <trkpt lat="45.58271" lon="6.77643">
        <ele>1440.19</ele>
        <time>2016-08-06T08:57:26Z</time>
      </trkpt>
      <trkpt lat="45.58276" lon="6.77646">
        <ele>1440.19</ele>
        <time>2016-08-06T08:57:27Z</time>
      </trkpt>
      <trkpt lat="45.58281" lon="6.77649">
        <ele>1440.19</ele>
        <time>2016-08-06T08:57:28Z</time>
      </trkpt>
      <trkpt lat="45.58287" lon="6.77651">
        <ele>1440.19</ele>
        <time>2016-08-06T08:57:29Z</time>
      </trkpt>
      <trkpt lat="45.58292" lon="6.77652">
        <ele>1440.67</ele>
        <time>2016-08-06T08:57:30Z</time>
      </trkpt>
      <trkpt lat="45.58334" lon="6.77663">
        <ele>1442.6</ele>
        <time>2016-08-06T08:57:38Z</time>
      </trkpt>
      <trkpt lat="45.58338" lon="6.77666">
        <ele>1442.6</ele>
        <time>2016-08-06T08:57:39Z</time>
      </trkpt>
      <trkpt lat="45.58341" lon="6.7767">
        <ele>1443.08</ele>
        <time>2016-08-06T08:57:40Z</time>
      </trkpt>
      <trkpt lat="45.58344" lon="6.77674">
        <ele>1443.08</ele>
        <time>2016-08-06T08:57:41Z</time>
      </trkpt>
      <trkpt lat="45.58347" lon="6.77679">
        <ele>1443.08</ele>
        <time>2016-08-06T08:57:42Z</time>
      </trkpt>
      <trkpt lat="45.58349" lon="6.77683">
        <ele>1443.56</ele>
        <time>2016-08-06T08:57:43Z</time>
      </trkpt>
      <trkpt lat="45.5835" lon="6.77689">
        <ele>1444.04</ele>
        <time>2016-08-06T08:57:44Z</time>
      </trkpt>
      <trkpt lat="45.58351" lon="6.77694">
        <ele>1444.04</ele>
        <time>2016-08-06T08:57:45Z</time>
      </trkpt>
      <trkpt lat="45.58351" lon="6.77699">
        <ele>1444.52</ele>
        <time>2016-08-06T08:57:46Z</time>
      </trkpt>
      <trkpt lat="45.5835" lon="6.77705">
        <ele>1445</ele>
        <time>2016-08-06T08:57:47Z</time>
      </trkpt>
      <trkpt lat="45.5835" lon="6.77711">
        <ele>1445.48</ele>
        <time>2016-08-06T08:57:48Z</time>
      </trkpt>
      <trkpt lat="45.58336" lon="6.77763">
        <ele>1448.84</ele>
        <time>2016-08-06T08:57:59Z</time>
      </trkpt>
      <trkpt lat="45.58328" lon="6.77827">
        <ele>1452.21</ele>
        <time>2016-08-06T08:58:12Z</time>
      </trkpt>
      <trkpt lat="45.58325" lon="6.77885">
        <ele>1455.57</ele>
        <time>2016-08-06T08:58:24Z</time>
      </trkpt>
      <trkpt lat="45.58322" lon="6.77951">
        <ele>1458.46</ele>
        <time>2016-08-06T08:58:37Z</time>
      </trkpt>
      <trkpt lat="45.58318" lon="6.78013">
        <ele>1461.34</ele>
        <time>2016-08-06T08:58:50Z</time>
      </trkpt>
      <trkpt lat="45.58311" lon="6.78075">
        <ele>1464.71</ele>
        <time>2016-08-06T08:59:03Z</time>
      </trkpt>
      <trkpt lat="45.58316" lon="6.78144">
        <ele>1468.07</ele>
        <time>2016-08-06T08:59:17Z</time>
      </trkpt>
      <trkpt lat="45.58325" lon="6.78202">
        <ele>1471.44</ele>
        <time>2016-08-06T08:59:29Z</time>
      </trkpt>
      <trkpt lat="45.58314" lon="6.78259">
        <ele>1474.8</ele>
        <time>2016-08-06T08:59:42Z</time>
      </trkpt>
      <trkpt lat="45.58296" lon="6.78306">
        <ele>1477.68</ele>
        <time>2016-08-06T08:59:54Z</time>
      </trkpt>
      <trkpt lat="45.58301" lon="6.78348">
        <ele>1480.57</ele>
        <time>2016-08-06T09:00:04Z</time>
      </trkpt>
      <trkpt lat="45.58331" lon="6.78383">
        <ele>1483.45</ele>
        <time>2016-08-06T09:00:16Z</time>
      </trkpt>
      <trkpt lat="45.58364" lon="6.78399">
        <ele>1486.34</ele>
        <time>2016-08-06T09:00:27Z</time>
      </trkpt>
      <trkpt lat="45.58407" lon="6.78393">
        <ele>1489.7</ele>
        <time>2016-08-06T09:00:39Z</time>
      </trkpt>
      <trkpt lat="45.58444" lon="6.78369">
        <ele>1493.55</ele>
        <time>2016-08-06T09:00:51Z</time>
      </trkpt>
      <trkpt lat="45.58487" lon="6.78364">
        <ele>1496.43</ele>
        <time>2016-08-06T09:01:04Z</time>
      </trkpt>
      <trkpt lat="45.5853" lon="6.78355">
        <ele>1499.79</ele>
        <time>2016-08-06T09:01:18Z</time>
      </trkpt>
      <trkpt lat="45.58563" lon="6.78353">
        <ele>1502.68</ele>
        <time>2016-08-06T09:01:29Z</time>
      </trkpt>
      <trkpt lat="45.58601" lon="6.78361">
        <ele>1505.56</ele>
        <time>2016-08-06T09:01:41Z</time>
      </trkpt>
      <trkpt lat="45.58642" lon="6.78364">
        <ele>1508.45</ele>
        <time>2016-08-06T09:01:54Z</time>
      </trkpt>
      <trkpt lat="45.58675" lon="6.78387">
        <ele>1511.81</ele>
        <time>2016-08-06T09:02:06Z</time>
      </trkpt>
      <trkpt lat="45.58706" lon="6.78415">
        <ele>1514.69</ele>
        <time>2016-08-06T09:02:18Z</time>
      </trkpt>
      <trkpt lat="45.58741" lon="6.78445">
        <ele>1518.06</ele>
        <time>2016-08-06T09:02:31Z</time>
      </trkpt>
      <trkpt lat="45.58775" lon="6.78475">
        <ele>1521.42</ele>
        <time>2016-08-06T09:02:42Z</time>
      </trkpt>
      <trkpt lat="45.58814" lon="6.78494">
        <ele>1524.31</ele>
        <time>2016-08-06T09:02:54Z</time>
      </trkpt>
      <trkpt lat="45.5886" lon="6.78492">
        <ele>1528.15</ele>
        <time>2016-08-06T09:03:07Z</time>
      </trkpt>
      <trkpt lat="45.5891" lon="6.78505">
        <ele>1531.52</ele>
        <time>2016-08-06T09:03:22Z</time>
      </trkpt>
      <trkpt lat="45.58941" lon="6.78532">
        <ele>1534.88</ele>
        <time>2016-08-06T09:03:33Z</time>
      </trkpt>
      <trkpt lat="45.58972" lon="6.78571">
        <ele>1537.77</ele>
        <time>2016-08-06T09:03:45Z</time>
      </trkpt>
      <trkpt lat="45.58988" lon="6.78586">
        <ele>1537.77</ele>
        <time>2016-08-06T09:03:50Z</time>
      </trkpt>
      <trkpt lat="45.58992" lon="6.78589">
        <ele>1538.25</ele>
        <time>2016-08-06T09:03:51Z</time>
      </trkpt>
      <trkpt lat="45.58996" lon="6.78592">
        <ele>1538.25</ele>
        <time>2016-08-06T09:03:52Z</time>
      </trkpt>
      <trkpt lat="45.59026" lon="6.78623">
        <ele>1541.61</ele>
        <time>2016-08-06T09:04:03Z</time>
      </trkpt>
      <trkpt lat="45.59046" lon="6.78649">
        <ele>1544.98</ele>
        <time>2016-08-06T09:04:12Z</time>
      </trkpt>
      <trkpt lat="45.59071" lon="6.78683">
        <ele>1548.34</ele>
        <time>2016-08-06T09:04:23Z</time>
      </trkpt>
      <trkpt lat="45.59096" lon="6.78723">
        <ele>1551.22</ele>
        <time>2016-08-06T09:04:34Z</time>
      </trkpt>
      <trkpt lat="45.59118" lon="6.78762">
        <ele>1554.59</ele>
        <time>2016-08-06T09:04:46Z</time>
      </trkpt>
      <trkpt lat="45.59134" lon="6.78814">
        <ele>1557.95</ele>
        <time>2016-08-06T09:04:59Z</time>
      </trkpt>
      <trkpt lat="45.59151" lon="6.78871">
        <ele>1560.84</ele>
        <time>2016-08-06T09:05:12Z</time>
      </trkpt>
      <trkpt lat="45.59179" lon="6.78935">
        <ele>1564.2</ele>
        <time>2016-08-06T09:05:27Z</time>
      </trkpt>
      <trkpt lat="45.5923" lon="6.79002">
        <ele>1566.61</ele>
        <time>2016-08-06T09:05:45Z</time>
      </trkpt>
      <trkpt lat="45.59261" lon="6.79023">
        <ele>1567.57</ele>
        <time>2016-08-06T09:05:54Z</time>
      </trkpt>
      <trkpt lat="45.59261" lon="6.79028">
        <ele>1568.05</ele>
        <time>2016-08-06T09:05:55Z</time>
      </trkpt>
      <trkpt lat="45.5926" lon="6.79032">
        <ele>1568.05</ele>
        <time>2016-08-06T09:05:56Z</time>
      </trkpt>
      <trkpt lat="45.59258" lon="6.79035">
        <ele>1568.05</ele>
        <time>2016-08-06T09:05:57Z</time>
      </trkpt>
      <trkpt lat="45.59254" lon="6.79035">
        <ele>1568.05</ele>
        <time>2016-08-06T09:05:58Z</time>
      </trkpt>
      <trkpt lat="45.59251" lon="6.79033">
        <ele>1568.53</ele>
        <time>2016-08-06T09:05:59Z</time>
      </trkpt>
      <trkpt lat="45.59247" lon="6.79031">
        <ele>1568.53</ele>
        <time>2016-08-06T09:06:00Z</time>
      </trkpt>
      <trkpt lat="45.5921" lon="6.79004">
        <ele>1571.89</ele>
        <time>2016-08-06T09:06:12Z</time>
      </trkpt>
      <trkpt lat="45.59175" lon="6.78967">
        <ele>1575.26</ele>
        <time>2016-08-06T09:06:25Z</time>
      </trkpt>
      <trkpt lat="45.59139" lon="6.7891">
        <ele>1578.62</ele>
        <time>2016-08-06T09:06:40Z</time>
      </trkpt>
      <trkpt lat="45.59109" lon="6.78847">
        <ele>1581.99</ele>
        <time>2016-08-06T09:06:55Z</time>
      </trkpt>
      <trkpt lat="45.59083" lon="6.78788">
        <ele>1585.35</ele>
        <time>2016-08-06T09:07:09Z</time>
      </trkpt>
      <trkpt lat="45.59047" lon="6.78751">
        <ele>1588.24</ele>
        <time>2016-08-06T09:07:22Z</time>
      </trkpt>
      <trkpt lat="45.59006" lon="6.78734">
        <ele>1592.08</ele>
        <time>2016-08-06T09:07:35Z</time>
      </trkpt>
      <trkpt lat="45.58961" lon="6.78725">
        <ele>1595.45</ele>
        <time>2016-08-06T09:07:48Z</time>
      </trkpt>
      <trkpt lat="45.58934" lon="6.78701">
        <ele>1598.81</ele>
        <time>2016-08-06T09:07:58Z</time>
      </trkpt>
      <trkpt lat="45.58903" lon="6.78695">
        <ele>1601.69</ele>
        <time>2016-08-06T09:08:09Z</time>
      </trkpt>
      <trkpt lat="45.58863" lon="6.78704">
        <ele>1605.06</ele>
        <time>2016-08-06T09:08:22Z</time>
      </trkpt>
      <trkpt lat="45.58819" lon="6.78715">
        <ele>1608.42</ele>
        <time>2016-08-06T09:08:36Z</time>
      </trkpt>
      <trkpt lat="45.58779" lon="6.78721">
        <ele>1611.31</ele>
        <time>2016-08-06T09:08:47Z</time>
      </trkpt>
      <trkpt lat="45.58734" lon="6.78727">
        <ele>1614.67</ele>
        <time>2016-08-06T09:09:00Z</time>
      </trkpt>
      <trkpt lat="45.58697" lon="6.78725">
        <ele>1618.04</ele>
        <time>2016-08-06T09:09:11Z</time>
      </trkpt>
      <trkpt lat="45.58663" lon="6.78707">
        <ele>1621.4</ele>
        <time>2016-08-06T09:09:22Z</time>
      </trkpt>
      <trkpt lat="45.58624" lon="6.78693">
        <ele>1624.77</ele>
        <time>2016-08-06T09:09:34Z</time>
      </trkpt>
      <trkpt lat="45.58583" lon="6.78683">
        <ele>1628.13</ele>
        <time>2016-08-06T09:09:46Z</time>
      </trkpt>
      <trkpt lat="45.58543" lon="6.78692">
        <ele>1631.01</ele>
        <time>2016-08-06T09:09:58Z</time>
      </trkpt>
      <trkpt lat="45.58514" lon="6.78729">
        <ele>1633.9</ele>
        <time>2016-08-06T09:10:09Z</time>
      </trkpt>
      <trkpt lat="45.58492" lon="6.7878">
        <ele>1636.78</ele>
        <time>2016-08-06T09:10:19Z</time>
      </trkpt>
      <trkpt lat="45.5846" lon="6.78831">
        <ele>1640.63</ele>
        <time>2016-08-06T09:10:31Z</time>
      </trkpt>
      <trkpt lat="45.58421" lon="6.78861">
        <ele>1643.99</ele>
        <time>2016-08-06T09:10:44Z</time>
      </trkpt>
      <trkpt lat="45.58387" lon="6.78875">
        <ele>1647.36</ele>
        <time>2016-08-06T09:10:55Z</time>
      </trkpt>
      <trkpt lat="45.58346" lon="6.78858">
        <ele>1651.2</ele>
        <time>2016-08-06T09:11:07Z</time>
      </trkpt>
      <trkpt lat="45.58306" lon="6.78839">
        <ele>1654.57</ele>
        <time>2016-08-06T09:11:18Z</time>
      </trkpt>
      <trkpt lat="45.5826" lon="6.78832">
        <ele>1657.93</ele>
        <time>2016-08-06T09:11:30Z</time>
      </trkpt>
      <trkpt lat="45.58222" lon="6.7883">
        <ele>1661.3</ele>
        <time>2016-08-06T09:11:40Z</time>
      </trkpt>
      <trkpt lat="45.5817" lon="6.78842">
        <ele>1664.66</ele>
        <time>2016-08-06T09:11:53Z</time>
      </trkpt>
      <trkpt lat="45.5814" lon="6.78846">
        <ele>1666.58</ele>
        <time>2016-08-06T09:12:00Z</time>
      </trkpt>
      <trkpt lat="45.58069" lon="6.78844">
        <ele>1668.99</ele>
        <time>2016-08-06T09:12:14Z</time>
      </trkpt>
      <trkpt lat="45.57992" lon="6.78826">
        <ele>1672.83</ele>
        <time>2016-08-06T09:12:29Z</time>
      </trkpt>
      <trkpt lat="45.57979" lon="6.78817">
        <ele>1672.83</ele>
        <time>2016-08-06T09:12:32Z</time>
      </trkpt>
      <trkpt lat="45.57974" lon="6.78813">
        <ele>1672.83</ele>
        <time>2016-08-06T09:12:33Z</time>
      </trkpt>
      <trkpt lat="45.57966" lon="6.78805">
        <ele>1673.79</ele>
        <time>2016-08-06T09:12:35Z</time>
      </trkpt>
      <trkpt lat="45.57963" lon="6.788">
        <ele>1673.79</ele>
        <time>2016-08-06T09:12:36Z</time>
      </trkpt>
      <trkpt lat="45.57956" lon="6.78788">
        <ele>1674.27</ele>
        <time>2016-08-06T09:12:38Z</time>
      </trkpt>
      <trkpt lat="45.57951" lon="6.78777">
        <ele>1674.75</ele>
        <time>2016-08-06T09:12:40Z</time>
      </trkpt>
      <trkpt lat="45.57948" lon="6.78766">
        <ele>1675.72</ele>
        <time>2016-08-06T09:12:42Z</time>
      </trkpt>
      <trkpt lat="45.57945" lon="6.7876">
        <ele>1675.72</ele>
        <time>2016-08-06T09:12:43Z</time>
      </trkpt>
      <trkpt lat="45.57938" lon="6.78744">
        <ele>1676.2</ele>
        <time>2016-08-06T09:12:46Z</time>
      </trkpt>
      <trkpt lat="45.57935" lon="6.78739">
        <ele>1676.2</ele>
        <time>2016-08-06T09:12:47Z</time>
      </trkpt>
      <trkpt lat="45.57928" lon="6.7873">
        <ele>1676.68</ele>
        <time>2016-08-06T09:12:49Z</time>
      </trkpt>
      <trkpt lat="45.57924" lon="6.78726">
        <ele>1676.68</ele>
        <time>2016-08-06T09:12:50Z</time>
      </trkpt>
      <trkpt lat="45.57892" lon="6.78707">
        <ele>1678.6</ele>
        <time>2016-08-06T09:12:57Z</time>
      </trkpt>
      <trkpt lat="45.57888" lon="6.78705">
        <ele>1679.08</ele>
        <time>2016-08-06T09:12:58Z</time>
      </trkpt>
      <trkpt lat="45.57851" lon="6.78681">
        <ele>1682.44</ele>
        <time>2016-08-06T09:13:09Z</time>
      </trkpt>
      <trkpt lat="45.57828" lon="6.78636">
        <ele>1685.81</ele>
        <time>2016-08-06T09:13:20Z</time>
      </trkpt>
      <trkpt lat="45.57836" lon="6.7858">
        <ele>1688.69</ele>
        <time>2016-08-06T09:13:33Z</time>
      </trkpt>
      <trkpt lat="45.57839" lon="6.78563">
        <ele>1689.17</ele>
        <time>2016-08-06T09:13:36Z</time>
      </trkpt>
      <trkpt lat="45.57839" lon="6.78558">
        <ele>1689.65</ele>
        <time>2016-08-06T09:13:37Z</time>
      </trkpt>
      <trkpt lat="45.57838" lon="6.78551">
        <ele>1689.65</ele>
        <time>2016-08-06T09:13:38Z</time>
      </trkpt>
      <trkpt lat="45.57837" lon="6.78545">
        <ele>1689.65</ele>
        <time>2016-08-06T09:13:39Z</time>
      </trkpt>
      <trkpt lat="45.57836" lon="6.78539">
        <ele>1690.14</ele>
        <time>2016-08-06T09:13:40Z</time>
      </trkpt>
      <trkpt lat="45.5782" lon="6.78477">
        <ele>1690.14</ele>
        <time>2016-08-06T09:13:49Z</time>
      </trkpt>
      <trkpt lat="45.57819" lon="6.78469">
        <ele>1690.14</ele>
        <time>2016-08-06T09:13:50Z</time>
      </trkpt>
      <trkpt lat="45.5782" lon="6.7846">
        <ele>1690.14</ele>
        <time>2016-08-06T09:13:51Z</time>
      </trkpt>
      <trkpt lat="45.57821" lon="6.78452">
        <ele>1690.14</ele>
        <time>2016-08-06T09:13:52Z</time>
      </trkpt>
      <trkpt lat="45.57822" lon="6.78443">
        <ele>1690.14</ele>
        <time>2016-08-06T09:13:53Z</time>
      </trkpt>
      <trkpt lat="45.57829" lon="6.78413">
        <ele>1687.73</ele>
        <time>2016-08-06T09:13:56Z</time>
      </trkpt>
      <trkpt lat="45.57836" lon="6.78354">
        <ele>1684.37</ele>
        <time>2016-08-06T09:14:01Z</time>
      </trkpt>
      <trkpt lat="45.57846" lon="6.78286">
        <ele>1680.52</ele>
        <time>2016-08-06T09:14:06Z</time>
      </trkpt>
      <trkpt lat="45.5786" lon="6.78202">
        <ele>1676.68</ele>
        <time>2016-08-06T09:14:12Z</time>
      </trkpt>
      <trkpt lat="45.57859" lon="6.78188">
        <ele>1676.68</ele>
        <time>2016-08-06T09:14:13Z</time>
      </trkpt>
      <trkpt lat="45.57857" lon="6.78174">
        <ele>1676.2</ele>
        <time>2016-08-06T09:14:14Z</time>
      </trkpt>
      <trkpt lat="45.57855" lon="6.78161">
        <ele>1676.2</ele>
        <time>2016-08-06T09:14:15Z</time>
      </trkpt>
      <trkpt lat="45.57851" lon="6.78148">
        <ele>1675.72</ele>
        <time>2016-08-06T09:14:16Z</time>
      </trkpt>
      <trkpt lat="45.57846" lon="6.78136">
        <ele>1675.72</ele>
        <time>2016-08-06T09:14:17Z</time>
      </trkpt>
      <trkpt lat="45.57832" lon="6.78102">
        <ele>1675.72</ele>
        <time>2016-08-06T09:14:20Z</time>
      </trkpt>
      <trkpt lat="45.57824" lon="6.78081">
        <ele>1674.75</ele>
        <time>2016-08-06T09:14:22Z</time>
      </trkpt>
      <trkpt lat="45.57818" lon="6.78072">
        <ele>1674.75</ele>
        <time>2016-08-06T09:14:23Z</time>
      </trkpt>
      <trkpt lat="45.57812" lon="6.78064">
        <ele>1674.75</ele>
        <time>2016-08-06T09:14:24Z</time>
      </trkpt>
      <trkpt lat="45.57808" lon="6.78055">
        <ele>1674.75</ele>
        <time>2016-08-06T09:14:25Z</time>
      </trkpt>
      <trkpt lat="45.57804" lon="6.78045">
        <ele>1674.75</ele>
        <time>2016-08-06T09:14:26Z</time>
      </trkpt>
      <trkpt lat="45.57784" lon="6.78011">
        <ele>1674.27</ele>
        <time>2016-08-06T09:14:30Z</time>
      </trkpt>
      <trkpt lat="45.57778" lon="6.78005">
        <ele>1674.27</ele>
        <time>2016-08-06T09:14:31Z</time>
      </trkpt>
      <trkpt lat="45.57734" lon="6.77957">
        <ele>1675.72</ele>
        <time>2016-08-06T09:14:40Z</time>
      </trkpt>
      <trkpt lat="45.57718" lon="6.77922">
        <ele>1678.12</ele>
        <time>2016-08-06T09:14:47Z</time>
      </trkpt>
      <trkpt lat="45.57712" lon="6.77913">
        <ele>1678.12</ele>
        <time>2016-08-06T09:14:49Z</time>
      </trkpt>
      <trkpt lat="45.57709" lon="6.77908">
        <ele>1678.12</ele>
        <time>2016-08-06T09:14:50Z</time>
      </trkpt>
      <trkpt lat="45.57694" lon="6.77889">
        <ele>1678.12</ele>
        <time>2016-08-06T09:14:54Z</time>
      </trkpt>
      <trkpt lat="45.57672" lon="6.7785">
        <ele>1674.75</ele>
        <time>2016-08-06T09:15:00Z</time>
      </trkpt>
      <trkpt lat="45.57668" lon="6.77844">
        <ele>1674.75</ele>
        <time>2016-08-06T09:15:01Z</time>
      </trkpt>
      <trkpt lat="45.57653" lon="6.77821">
        <ele>1672.83</ele>
        <time>2016-08-06T09:15:06Z</time>
      </trkpt>
      <trkpt lat="45.57647" lon="6.7781">
        <ele>1671.87</ele>
        <time>2016-08-06T09:15:08Z</time>
      </trkpt>
      <trkpt lat="45.57642" lon="6.77804">
        <ele>1671.87</ele>
        <time>2016-08-06T09:15:09Z</time>
      </trkpt>
      <trkpt lat="45.57609" lon="6.77764">
        <ele>1668.51</ele>
        <time>2016-08-06T09:15:15Z</time>
      </trkpt>
      <trkpt lat="45.57575" lon="6.77723">
        <ele>1665.14</ele>
        <time>2016-08-06T09:15:20Z</time>
      </trkpt>
      <trkpt lat="45.57568" lon="6.77717">
        <ele>1665.14</ele>
        <time>2016-08-06T09:15:21Z</time>
      </trkpt>
      <trkpt lat="45.57561" lon="6.77712">
        <ele>1664.18</ele>
        <time>2016-08-06T09:15:22Z</time>
      </trkpt>
      <trkpt lat="45.57553" lon="6.77708">
        <ele>1663.7</ele>
        <time>2016-08-06T09:15:23Z</time>
      </trkpt>
      <trkpt lat="45.57544" lon="6.77707">
        <ele>1662.74</ele>
        <time>2016-08-06T09:15:24Z</time>
      </trkpt>
      <trkpt lat="45.57535" lon="6.77706">
        <ele>1662.26</ele>
        <time>2016-08-06T09:15:25Z</time>
      </trkpt>
      <trkpt lat="45.57526" lon="6.77706">
        <ele>1661.78</ele>
        <time>2016-08-06T09:15:26Z</time>
      </trkpt>
      <trkpt lat="45.57517" lon="6.77705">
        <ele>1661.78</ele>
        <time>2016-08-06T09:15:27Z</time>
      </trkpt>
      <trkpt lat="45.5747" lon="6.77691">
        <ele>1658.89</ele>
        <time>2016-08-06T09:15:32Z</time>
      </trkpt>
      <trkpt lat="45.57431" lon="6.77678">
        <ele>1656.01</ele>
        <time>2016-08-06T09:15:36Z</time>
      </trkpt>
      <trkpt lat="45.57413" lon="6.77669">
        <ele>1656.01</ele>
        <time>2016-08-06T09:15:38Z</time>
      </trkpt>
      <trkpt lat="45.57405" lon="6.77664">
        <ele>1656.01</ele>
        <time>2016-08-06T09:15:39Z</time>
      </trkpt>
      <trkpt lat="45.57356" lon="6.7762">
        <ele>1655.53</ele>
        <time>2016-08-06T09:15:46Z</time>
      </trkpt>
      <trkpt lat="45.57315" lon="6.77596">
        <ele>1655.05</ele>
        <time>2016-08-06T09:15:52Z</time>
      </trkpt>
      <trkpt lat="45.57301" lon="6.77595">
        <ele>1655.05</ele>
        <time>2016-08-06T09:15:54Z</time>
      </trkpt>
      <trkpt lat="45.57294" lon="6.77596">
        <ele>1655.05</ele>
        <time>2016-08-06T09:15:55Z</time>
      </trkpt>
      <trkpt lat="45.57287" lon="6.77599">
        <ele>1655.05</ele>
        <time>2016-08-06T09:15:56Z</time>
      </trkpt>
      <trkpt lat="45.57281" lon="6.77603">
        <ele>1655.05</ele>
        <time>2016-08-06T09:15:57Z</time>
      </trkpt>
      <trkpt lat="45.57276" lon="6.77607">
        <ele>1655.05</ele>
        <time>2016-08-06T09:15:58Z</time>
      </trkpt>
      <trkpt lat="45.57271" lon="6.77613">
        <ele>1655.05</ele>
        <time>2016-08-06T09:15:59Z</time>
      </trkpt>
      <trkpt lat="45.57266" lon="6.77619">
        <ele>1655.05</ele>
        <time>2016-08-06T09:16:00Z</time>
      </trkpt>
      <trkpt lat="45.57244" lon="6.77642">
        <ele>1654.57</ele>
        <time>2016-08-06T09:16:04Z</time>
      </trkpt>
      <trkpt lat="45.57238" lon="6.77645">
        <ele>1654.57</ele>
        <time>2016-08-06T09:16:05Z</time>
      </trkpt>
      <trkpt lat="45.57227" lon="6.77651">
        <ele>1654.57</ele>
        <time>2016-08-06T09:16:07Z</time>
      </trkpt>
      <trkpt lat="45.5722" lon="6.77653">
        <ele>1654.09</ele>
        <time>2016-08-06T09:16:08Z</time>
      </trkpt>
      <trkpt lat="45.57214" lon="6.77653">
        <ele>1654.09</ele>
        <time>2016-08-06T09:16:09Z</time>
      </trkpt>
      <trkpt lat="45.57208" lon="6.77651">
        <ele>1654.09</ele>
        <time>2016-08-06T09:16:10Z</time>
      </trkpt>
      <trkpt lat="45.57202" lon="6.77647">
        <ele>1654.09</ele>
        <time>2016-08-06T09:16:11Z</time>
      </trkpt>
      <trkpt lat="45.57196" lon="6.77642">
        <ele>1654.09</ele>
        <time>2016-08-06T09:16:12Z</time>
      </trkpt>
      <trkpt lat="45.57191" lon="6.77634">
        <ele>1654.09</ele>
        <time>2016-08-06T09:16:13Z</time>
      </trkpt>
      <trkpt lat="45.57187" lon="6.77626">
        <ele>1654.09</ele>
        <time>2016-08-06T09:16:14Z</time>
      </trkpt>
      <trkpt lat="45.57183" lon="6.77618">
        <ele>1654.09</ele>
        <time>2016-08-06T09:16:15Z</time>
      </trkpt>
      <trkpt lat="45.57168" lon="6.77587">
        <ele>1654.09</ele>
        <time>2016-08-06T09:16:19Z</time>
      </trkpt>
      <trkpt lat="45.57163" lon="6.77581">
        <ele>1654.09</ele>
        <time>2016-08-06T09:16:20Z</time>
      </trkpt>
      <trkpt lat="45.57158" lon="6.77576">
        <ele>1654.09</ele>
        <time>2016-08-06T09:16:21Z</time>
      </trkpt>
      <trkpt lat="45.57152" lon="6.77573">
        <ele>1654.09</ele>
        <time>2016-08-06T09:16:22Z</time>
      </trkpt>
      <trkpt lat="45.57145" lon="6.7757">
        <ele>1654.09</ele>
        <time>2016-08-06T09:16:23Z</time>
      </trkpt>
      <trkpt lat="45.5711" lon="6.7756">
        <ele>1654.09</ele>
        <time>2016-08-06T09:16:29Z</time>
      </trkpt>
      <trkpt lat="45.57105" lon="6.77558">
        <ele>1655.05</ele>
        <time>2016-08-06T09:16:30Z</time>
      </trkpt>
      <trkpt lat="45.57101" lon="6.77557">
        <ele>1655.53</ele>
        <time>2016-08-06T09:16:31Z</time>
      </trkpt>
      <trkpt lat="45.57061" lon="6.77548">
        <ele>1658.89</ele>
        <time>2016-08-06T09:16:43Z</time>
      </trkpt>
      <trkpt lat="45.5702" lon="6.77547">
        <ele>1661.78</ele>
        <time>2016-08-06T09:16:59Z</time>
      </trkpt>
      <trkpt lat="45.5699" lon="6.77537">
        <ele>1665.14</ele>
        <time>2016-08-06T09:17:11Z</time>
      </trkpt>
      <trkpt lat="45.5696" lon="6.77516">
        <ele>1668.51</ele>
        <time>2016-08-06T09:17:24Z</time>
      </trkpt>
      <trkpt lat="45.56929" lon="6.77475">
        <ele>1670.43</ele>
        <time>2016-08-06T09:17:38Z</time>
      </trkpt>
      <trkpt lat="45.56909" lon="6.77455">
        <ele>1672.35</ele>
        <time>2016-08-06T09:17:47Z</time>
      </trkpt>
      <trkpt lat="45.56906" lon="6.77458">
        <ele>1672.35</ele>
        <time>2016-08-06T09:17:48Z</time>
      </trkpt>
      <trkpt lat="45.56904" lon="6.77461">
        <ele>1672.35</ele>
        <time>2016-08-06T09:17:49Z</time>
      </trkpt>
      <trkpt lat="45.56902" lon="6.77466">
        <ele>1672.35</ele>
        <time>2016-08-06T09:17:50Z</time>
      </trkpt>
      <trkpt lat="45.56902" lon="6.77471">
        <ele>1672.35</ele>
        <time>2016-08-06T09:17:51Z</time>
      </trkpt>
      <trkpt lat="45.56902" lon="6.77477">
        <ele>1672.35</ele>
        <time>2016-08-06T09:17:52Z</time>
      </trkpt>
      <trkpt lat="45.56903" lon="6.77481">
        <ele>1672.35</ele>
        <time>2016-08-06T09:17:53Z</time>
      </trkpt>
      <trkpt lat="45.56904" lon="6.77486">
        <ele>1672.35</ele>
        <time>2016-08-06T09:17:54Z</time>
      </trkpt>
      <trkpt lat="45.56905" lon="6.7749">
        <ele>1672.35</ele>
        <time>2016-08-06T09:17:55Z</time>
      </trkpt>
      <trkpt lat="45.56907" lon="6.77494">
        <ele>1672.35</ele>
        <time>2016-08-06T09:17:56Z</time>
      </trkpt>
      <trkpt lat="45.56909" lon="6.77498">
        <ele>1672.83</ele>
        <time>2016-08-06T09:17:57Z</time>
      </trkpt>
      <trkpt lat="45.56912" lon="6.77502">
        <ele>1672.83</ele>
        <time>2016-08-06T09:17:58Z</time>
      </trkpt>
      <trkpt lat="45.56941" lon="6.77547">
        <ele>1676.2</ele>
        <time>2016-08-06T09:18:12Z</time>
      </trkpt>
      <trkpt lat="45.56977" lon="6.77585">
        <ele>1679.08</ele>
        <time>2016-08-06T09:18:27Z</time>
      </trkpt>
      <trkpt lat="45.57" lon="6.77617">
        <ele>1682.44</ele>
        <time>2016-08-06T09:18:39Z</time>
      </trkpt>
      <trkpt lat="45.57027" lon="6.77659">
        <ele>1686.29</ele>
        <time>2016-08-06T09:18:54Z</time>
      </trkpt>
      <trkpt lat="45.57058" lon="6.77693">
        <ele>1689.17</ele>
        <time>2016-08-06T09:19:08Z</time>
      </trkpt>
      <trkpt lat="45.57099" lon="6.77726">
        <ele>1693.02</ele>
        <time>2016-08-06T09:19:25Z</time>
      </trkpt>
      <trkpt lat="45.57126" lon="6.7776">
        <ele>1694.94</ele>
        <time>2016-08-06T09:19:38Z</time>
      </trkpt>
      <trkpt lat="45.57125" lon="6.77764">
        <ele>1695.42</ele>
        <time>2016-08-06T09:19:39Z</time>
      </trkpt>
      <trkpt lat="45.57124" lon="6.77766">
        <ele>1695.42</ele>
        <time>2016-08-06T09:19:40Z</time>
      </trkpt>
      <trkpt lat="45.57121" lon="6.77769">
        <ele>1695.9</ele>
        <time>2016-08-06T09:19:41Z</time>
      </trkpt>
      <trkpt lat="45.5712" lon="6.7777">
        <ele>1696.38</ele>
        <time>2016-08-06T09:19:42Z</time>
      </trkpt>
      <trkpt lat="45.57118" lon="6.7777">
        <ele>1696.38</ele>
        <time>2016-08-06T09:19:43Z</time>
      </trkpt>
      <trkpt lat="45.57115" lon="6.7777">
        <ele>1696.38</ele>
        <time>2016-08-06T09:19:44Z</time>
      </trkpt>
      <trkpt lat="45.57088" lon="6.77753">
        <ele>1699.27</ele>
        <time>2016-08-06T09:19:56Z</time>
      </trkpt>
      <trkpt lat="45.57066" lon="6.77734">
        <ele>1701.67</ele>
        <time>2016-08-06T09:20:07Z</time>
      </trkpt>
      <trkpt lat="45.57032" lon="6.77726">
        <ele>1705.04</ele>
        <time>2016-08-06T09:20:21Z</time>
      </trkpt>
      <trkpt lat="45.56992" lon="6.7773">
        <ele>1707.92</ele>
        <time>2016-08-06T09:20:37Z</time>
      </trkpt>
      <trkpt lat="45.5696" lon="6.77728">
        <ele>1711.28</ele>
        <time>2016-08-06T09:20:50Z</time>
      </trkpt>
      <trkpt lat="45.56934" lon="6.77722">
        <ele>1714.17</ele>
        <time>2016-08-06T09:21:02Z</time>
      </trkpt>
      <trkpt lat="45.56909" lon="6.77712">
        <ele>1717.05</ele>
        <time>2016-08-06T09:21:14Z</time>
      </trkpt>
      <trkpt lat="45.56907" lon="6.77712">
        <ele>1717.53</ele>
        <time>2016-08-06T09:21:15Z</time>
      </trkpt>
      <trkpt lat="45.56905" lon="6.77713">
        <ele>1717.53</ele>
        <time>2016-08-06T09:21:16Z</time>
      </trkpt>
      <trkpt lat="45.56902" lon="6.77714">
        <ele>1718.01</ele>
        <time>2016-08-06T09:21:17Z</time>
      </trkpt>
      <trkpt lat="45.56899" lon="6.77715">
        <ele>1718.01</ele>
        <time>2016-08-06T09:21:18Z</time>
      </trkpt>
      <trkpt lat="45.56897" lon="6.77716">
        <ele>1718.49</ele>
        <time>2016-08-06T09:21:19Z</time>
      </trkpt>
      <trkpt lat="45.56872" lon="6.77714">
        <ele>1721.38</ele>
        <time>2016-08-06T09:21:31Z</time>
      </trkpt>
      <trkpt lat="45.56851" lon="6.77699">
        <ele>1723.3</ele>
        <time>2016-08-06T09:21:43Z</time>
      </trkpt>
      <trkpt lat="45.56843" lon="6.77685">
        <ele>1724.26</ele>
        <time>2016-08-06T09:21:48Z</time>
      </trkpt>
      <trkpt lat="45.56842" lon="6.77681">
        <ele>1724.26</ele>
        <time>2016-08-06T09:21:49Z</time>
      </trkpt>
      <trkpt lat="45.56822" lon="6.7765">
        <ele>1726.67</ele>
        <time>2016-08-06T09:21:59Z</time>
      </trkpt>
      <trkpt lat="45.5682" lon="6.77648">
        <ele>1726.67</ele>
        <time>2016-08-06T09:22:00Z</time>
      </trkpt>
      <trkpt lat="45.56818" lon="6.77646">
        <ele>1726.67</ele>
        <time>2016-08-06T09:22:01Z</time>
      </trkpt>
      <trkpt lat="45.56782" lon="6.77635">
        <ele>1729.55</ele>
        <time>2016-08-06T09:22:15Z</time>
      </trkpt>
      <trkpt lat="45.56774" lon="6.77631">
        <ele>1730.51</ele>
        <time>2016-08-06T09:22:27Z</time>
      </trkpt>
      <trkpt lat="45.56773" lon="6.7763">
        <ele>1730.99</ele>
        <time>2016-08-06T09:22:48Z</time>
      </trkpt>
      <trkpt lat="45.56773" lon="6.77634">
        <ele>1730.99</ele>
        <time>2016-08-06T09:23:09Z</time>
      </trkpt>
      <trkpt lat="45.56773" lon="6.77629">
        <ele>1730.99</ele>
        <time>2016-08-06T09:23:30Z</time>
      </trkpt>
      <trkpt lat="45.56772" lon="6.77627">
        <ele>1730.99</ele>
        <time>2016-08-06T09:23:46Z</time>
      </trkpt>
      <trkpt lat="45.56771" lon="6.77626">
        <ele>1731.47</ele>
        <time>2016-08-06T09:24:08Z</time>
      </trkpt>
      <trkpt lat="45.5677" lon="6.77627">
        <ele>1731.47</ele>
        <time>2016-08-06T09:24:09Z</time>
      </trkpt>
      <trkpt lat="45.56745" lon="6.77634">
        <ele>1733.88</ele>
        <time>2016-08-06T09:24:21Z</time>
      </trkpt>
      <trkpt lat="45.56731" lon="6.77637">
        <ele>1734.36</ele>
        <time>2016-08-06T09:24:28Z</time>
      </trkpt>
      <trkpt lat="45.56729" lon="6.77636">
        <ele>1734.36</ele>
        <time>2016-08-06T09:24:29Z</time>
      </trkpt>
      <trkpt lat="45.56726" lon="6.77635">
        <ele>1734.36</ele>
        <time>2016-08-06T09:24:30Z</time>
      </trkpt>
      <trkpt lat="45.56724" lon="6.77632">
        <ele>1733.88</ele>
        <time>2016-08-06T09:24:31Z</time>
      </trkpt>
      <trkpt lat="45.56722" lon="6.77629">
        <ele>1733.88</ele>
        <time>2016-08-06T09:24:32Z</time>
      </trkpt>
      <trkpt lat="45.56721" lon="6.77627">
        <ele>1733.88</ele>
        <time>2016-08-06T09:24:33Z</time>
      </trkpt>
      <trkpt lat="45.56718" lon="6.77624">
        <ele>1733.88</ele>
        <time>2016-08-06T09:24:37Z</time>
      </trkpt>
      <trkpt lat="45.56716" lon="6.77624">
        <ele>1732.91</ele>
        <time>2016-08-06T09:24:38Z</time>
      </trkpt>
      <trkpt lat="45.56714" lon="6.77622">
        <ele>1732.91</ele>
        <time>2016-08-06T09:24:39Z</time>
      </trkpt>
      <trkpt lat="45.56711" lon="6.77621">
        <ele>1732.43</ele>
        <time>2016-08-06T09:24:40Z</time>
      </trkpt>
      <trkpt lat="45.56709" lon="6.7762">
        <ele>1732.43</ele>
        <time>2016-08-06T09:24:41Z</time>
      </trkpt>
      <trkpt lat="45.567" lon="6.77616">
        <ele>1731.95</ele>
        <time>2016-08-06T09:24:51Z</time>
      </trkpt>
      <trkpt lat="45.56696" lon="6.77617">
        <ele>1732.43</ele>
        <time>2016-08-06T09:25:21Z</time>
      </trkpt>
      <trkpt lat="45.56699" lon="6.77616">
        <ele>1732.43</ele>
        <time>2016-08-06T09:25:59Z</time>
      </trkpt>
      <trkpt lat="45.56687" lon="6.77607">
        <ele>1731.47</ele>
        <time>2016-08-06T09:26:12Z</time>
      </trkpt>
      <trkpt lat="45.56685" lon="6.77601">
        <ele>1731.47</ele>
        <time>2016-08-06T09:26:13Z</time>
      </trkpt>
      <trkpt lat="45.56683" lon="6.77594">
        <ele>1730.99</ele>
        <time>2016-08-06T09:26:14Z</time>
      </trkpt>
      <trkpt lat="45.56665" lon="6.77533">
        <ele>1727.63</ele>
        <time>2016-08-06T09:26:21Z</time>
      </trkpt>
      <trkpt lat="45.5665" lon="6.77491">
        <ele>1725.7</ele>
        <time>2016-08-06T09:26:25Z</time>
      </trkpt>
      <trkpt lat="45.56645" lon="6.77482">
        <ele>1724.74</ele>
        <time>2016-08-06T09:26:26Z</time>
      </trkpt>
      <trkpt lat="45.56638" lon="6.77473">
        <ele>1724.74</ele>
        <time>2016-08-06T09:26:27Z</time>
      </trkpt>
      <trkpt lat="45.56631" lon="6.77464">
        <ele>1724.26</ele>
        <time>2016-08-06T09:26:28Z</time>
      </trkpt>
      <trkpt lat="45.56623" lon="6.77457">
        <ele>1722.82</ele>
        <time>2016-08-06T09:26:29Z</time>
      </trkpt>
      <trkpt lat="45.56614" lon="6.77452">
        <ele>1722.82</ele>
        <time>2016-08-06T09:26:30Z</time>
      </trkpt>
      <trkpt lat="45.56605" lon="6.77449">
        <ele>1721.86</ele>
        <time>2016-08-06T09:26:31Z</time>
      </trkpt>
      <trkpt lat="45.56577" lon="6.77437">
        <ele>1719.94</ele>
        <time>2016-08-06T09:26:34Z</time>
      </trkpt>
      <trkpt lat="45.56568" lon="6.7743">
        <ele>1718.97</ele>
        <time>2016-08-06T09:26:35Z</time>
      </trkpt>
      <trkpt lat="45.56561" lon="6.77422">
        <ele>1718.49</ele>
        <time>2016-08-06T09:26:36Z</time>
      </trkpt>
      <trkpt lat="45.5654" lon="6.77396">
        <ele>1717.05</ele>
        <time>2016-08-06T09:26:39Z</time>
      </trkpt>
      <trkpt lat="45.56519" lon="6.77371">
        <ele>1715.13</ele>
        <time>2016-08-06T09:26:42Z</time>
      </trkpt>
      <trkpt lat="45.56513" lon="6.7736">
        <ele>1714.17</ele>
        <time>2016-08-06T09:26:43Z</time>
      </trkpt>
      <trkpt lat="45.56509" lon="6.77347">
        <ele>1713.69</ele>
        <time>2016-08-06T09:26:44Z</time>
      </trkpt>
      <trkpt lat="45.56502" lon="6.77324">
        <ele>1712.73</ele>
        <time>2016-08-06T09:26:46Z</time>
      </trkpt>
      <trkpt lat="45.56498" lon="6.77315">
        <ele>1712.25</ele>
        <time>2016-08-06T09:26:47Z</time>
      </trkpt>
      <trkpt lat="45.56493" lon="6.77308">
        <ele>1711.28</ele>
        <time>2016-08-06T09:26:48Z</time>
      </trkpt>
      <trkpt lat="45.56487" lon="6.77302">
        <ele>1710.8</ele>
        <time>2016-08-06T09:26:49Z</time>
      </trkpt>
      <trkpt lat="45.5648" lon="6.77296">
        <ele>1709.84</ele>
        <time>2016-08-06T09:26:50Z</time>
      </trkpt>
      <trkpt lat="45.56474" lon="6.77288">
        <ele>1709.84</ele>
        <time>2016-08-06T09:26:51Z</time>
      </trkpt>
      <trkpt lat="45.56468" lon="6.77277">
        <ele>1708.88</ele>
        <time>2016-08-06T09:26:52Z</time>
      </trkpt>
      <trkpt lat="45.56461" lon="6.77266">
        <ele>1707.92</ele>
        <time>2016-08-06T09:26:53Z</time>
      </trkpt>
      <trkpt lat="45.56453" lon="6.77257">
        <ele>1707.44</ele>
        <time>2016-08-06T09:26:54Z</time>
      </trkpt>
      <trkpt lat="45.56443" lon="6.77249">
        <ele>1706.48</ele>
        <time>2016-08-06T09:26:55Z</time>
      </trkpt>
      <trkpt lat="45.56433" lon="6.77243">
        <ele>1706</ele>
        <time>2016-08-06T09:26:56Z</time>
      </trkpt>
      <trkpt lat="45.56423" lon="6.77238">
        <ele>1705.04</ele>
        <time>2016-08-06T09:26:57Z</time>
      </trkpt>
      <trkpt lat="45.56412" lon="6.77234">
        <ele>1704.55</ele>
        <time>2016-08-06T09:26:58Z</time>
      </trkpt>
      <trkpt lat="45.56401" lon="6.77231">
        <ele>1704.07</ele>
        <time>2016-08-06T09:26:59Z</time>
      </trkpt>
      <trkpt lat="45.56351" lon="6.77223">
        <ele>1701.67</ele>
        <time>2016-08-06T09:27:03Z</time>
      </trkpt>
      <trkpt lat="45.56341" lon="6.77223">
        <ele>1700.71</ele>
        <time>2016-08-06T09:27:04Z</time>
      </trkpt>
      <trkpt lat="45.5633" lon="6.77224">
        <ele>1700.23</ele>
        <time>2016-08-06T09:27:05Z</time>
      </trkpt>
      <trkpt lat="45.5632" lon="6.77226">
        <ele>1699.27</ele>
        <time>2016-08-06T09:27:06Z</time>
      </trkpt>
      <trkpt lat="45.5631" lon="6.77233">
        <ele>1698.31</ele>
        <time>2016-08-06T09:27:07Z</time>
      </trkpt>
      <trkpt lat="45.56301" lon="6.77243">
        <ele>1697.83</ele>
        <time>2016-08-06T09:27:08Z</time>
      </trkpt>
      <trkpt lat="45.56292" lon="6.77253">
        <ele>1697.83</ele>
        <time>2016-08-06T09:27:09Z</time>
      </trkpt>
      <trkpt lat="45.56275" lon="6.77268">
        <ele>1695.9</ele>
        <time>2016-08-06T09:27:11Z</time>
      </trkpt>
      <trkpt lat="45.56265" lon="6.7727">
        <ele>1694.94</ele>
        <time>2016-08-06T09:27:12Z</time>
      </trkpt>
      <trkpt lat="45.56255" lon="6.7727">
        <ele>1694.46</ele>
        <time>2016-08-06T09:27:13Z</time>
      </trkpt>
      <trkpt lat="45.56234" lon="6.77272">
        <ele>1693.5</ele>
        <time>2016-08-06T09:27:15Z</time>
      </trkpt>
      <trkpt lat="45.56224" lon="6.77275">
        <ele>1692.54</ele>
        <time>2016-08-06T09:27:16Z</time>
      </trkpt>
      <trkpt lat="45.56214" lon="6.77279">
        <ele>1692.54</ele>
        <time>2016-08-06T09:27:17Z</time>
      </trkpt>
      <trkpt lat="45.56204" lon="6.77279">
        <ele>1691.58</ele>
        <time>2016-08-06T09:27:18Z</time>
      </trkpt>
      <trkpt lat="45.56195" lon="6.77273">
        <ele>1691.1</ele>
        <time>2016-08-06T09:27:19Z</time>
      </trkpt>
      <trkpt lat="45.56188" lon="6.77261">
        <ele>1690.14</ele>
        <time>2016-08-06T09:27:20Z</time>
      </trkpt>
      <trkpt lat="45.56184" lon="6.77247">
        <ele>1689.17</ele>
        <time>2016-08-06T09:27:21Z</time>
      </trkpt>
      <trkpt lat="45.56183" lon="6.77232">
        <ele>1688.69</ele>
        <time>2016-08-06T09:27:22Z</time>
      </trkpt>
      <trkpt lat="45.56181" lon="6.77217">
        <ele>1688.21</ele>
        <time>2016-08-06T09:27:23Z</time>
      </trkpt>
      <trkpt lat="45.56177" lon="6.77202">
        <ele>1688.21</ele>
        <time>2016-08-06T09:27:24Z</time>
      </trkpt>
      <trkpt lat="45.56172" lon="6.77189">
        <ele>1686.77</ele>
        <time>2016-08-06T09:27:25Z</time>
      </trkpt>
      <trkpt lat="45.56166" lon="6.77176">
        <ele>1686.29</ele>
        <time>2016-08-06T09:27:26Z</time>
      </trkpt>
      <trkpt lat="45.56161" lon="6.77162">
        <ele>1685.33</ele>
        <time>2016-08-06T09:27:27Z</time>
      </trkpt>
      <trkpt lat="45.56157" lon="6.77147">
        <ele>1684.85</ele>
        <time>2016-08-06T09:27:28Z</time>
      </trkpt>
      <trkpt lat="45.56145" lon="6.77083">
        <ele>1681</ele>
        <time>2016-08-06T09:27:32Z</time>
      </trkpt>
      <trkpt lat="45.56135" lon="6.77038">
        <ele>1679.08</ele>
        <time>2016-08-06T09:27:35Z</time>
      </trkpt>
      <trkpt lat="45.56129" lon="6.77023">
        <ele>1678.12</ele>
        <time>2016-08-06T09:27:36Z</time>
      </trkpt>
      <trkpt lat="45.56122" lon="6.77012">
        <ele>1677.64</ele>
        <time>2016-08-06T09:27:37Z</time>
      </trkpt>
      <trkpt lat="45.56108" lon="6.76985">
        <ele>1676.2</ele>
        <time>2016-08-06T09:27:39Z</time>
      </trkpt>
      <trkpt lat="45.56103" lon="6.7697">
        <ele>1675.72</ele>
        <time>2016-08-06T09:27:40Z</time>
      </trkpt>
      <trkpt lat="45.561" lon="6.76955">
        <ele>1674.75</ele>
        <time>2016-08-06T09:27:41Z</time>
      </trkpt>
      <trkpt lat="45.56089" lon="6.76909">
        <ele>1672.35</ele>
        <time>2016-08-06T09:27:44Z</time>
      </trkpt>
      <trkpt lat="45.56082" lon="6.76896">
        <ele>1671.87</ele>
        <time>2016-08-06T09:27:45Z</time>
      </trkpt>
      <trkpt lat="45.56074" lon="6.76886">
        <ele>1670.91</ele>
        <time>2016-08-06T09:27:46Z</time>
      </trkpt>
      <trkpt lat="45.56064" lon="6.7688">
        <ele>1669.95</ele>
        <time>2016-08-06T09:27:47Z</time>
      </trkpt>
      <trkpt lat="45.56052" lon="6.76876">
        <ele>1669.47</ele>
        <time>2016-08-06T09:27:48Z</time>
      </trkpt>
      <trkpt lat="45.5604" lon="6.76873">
        <ele>1668.99</ele>
        <time>2016-08-06T09:27:49Z</time>
      </trkpt>
      <trkpt lat="45.56031" lon="6.7687">
        <ele>1668.02</ele>
        <time>2016-08-06T09:27:50Z</time>
      </trkpt>
      <trkpt lat="45.56025" lon="6.76863">
        <ele>1667.06</ele>
        <time>2016-08-06T09:27:51Z</time>
      </trkpt>
      <trkpt lat="45.56021" lon="6.76853">
        <ele>1666.1</ele>
        <time>2016-08-06T09:27:52Z</time>
      </trkpt>
      <trkpt lat="45.56019" lon="6.76841">
        <ele>1666.1</ele>
        <time>2016-08-06T09:27:53Z</time>
      </trkpt>
      <trkpt lat="45.56017" lon="6.76829">
        <ele>1664.66</ele>
        <time>2016-08-06T09:27:54Z</time>
      </trkpt>
      <trkpt lat="45.56015" lon="6.76817">
        <ele>1664.18</ele>
        <time>2016-08-06T09:27:55Z</time>
      </trkpt>
      <trkpt lat="45.56011" lon="6.76806">
        <ele>1662.74</ele>
        <time>2016-08-06T09:27:56Z</time>
      </trkpt>
      <trkpt lat="45.56006" lon="6.76798">
        <ele>1662.26</ele>
        <time>2016-08-06T09:27:57Z</time>
      </trkpt>
      <trkpt lat="45.55993" lon="6.76779">
        <ele>1659.85</ele>
        <time>2016-08-06T09:27:59Z</time>
      </trkpt>
      <trkpt lat="45.55988" lon="6.76765">
        <ele>1658.89</ele>
        <time>2016-08-06T09:28:00Z</time>
      </trkpt>
      <trkpt lat="45.55986" lon="6.7675">
        <ele>1657.93</ele>
        <time>2016-08-06T09:28:01Z</time>
      </trkpt>
      <trkpt lat="45.55984" lon="6.76735">
        <ele>1656.97</ele>
        <time>2016-08-06T09:28:02Z</time>
      </trkpt>
      <trkpt lat="45.55981" lon="6.7672">
        <ele>1656.49</ele>
        <time>2016-08-06T09:28:03Z</time>
      </trkpt>
      <trkpt lat="45.55975" lon="6.76705">
        <ele>1655.53</ele>
        <time>2016-08-06T09:28:04Z</time>
      </trkpt>
      <trkpt lat="45.55967" lon="6.76691">
        <ele>1654.09</ele>
        <time>2016-08-06T09:28:05Z</time>
      </trkpt>
      <trkpt lat="45.55959" lon="6.76678">
        <ele>1653.6</ele>
        <time>2016-08-06T09:28:06Z</time>
      </trkpt>
      <trkpt lat="45.55937" lon="6.76648">
        <ele>1651.2</ele>
        <time>2016-08-06T09:28:09Z</time>
      </trkpt>
      <trkpt lat="45.55929" lon="6.76643">
        <ele>1650.24</ele>
        <time>2016-08-06T09:28:10Z</time>
      </trkpt>
      <trkpt lat="45.5592" lon="6.76642">
        <ele>1650.24</ele>
        <time>2016-08-06T09:28:11Z</time>
      </trkpt>
      <trkpt lat="45.5591" lon="6.76645">
        <ele>1648.8</ele>
        <time>2016-08-06T09:28:12Z</time>
      </trkpt>
      <trkpt lat="45.55901" lon="6.7665">
        <ele>1648.32</ele>
        <time>2016-08-06T09:28:13Z</time>
      </trkpt>
      <trkpt lat="45.55891" lon="6.76656">
        <ele>1647.84</ele>
        <time>2016-08-06T09:28:14Z</time>
      </trkpt>
      <trkpt lat="45.55882" lon="6.76663">
        <ele>1646.4</ele>
        <time>2016-08-06T09:28:15Z</time>
      </trkpt>
      <trkpt lat="45.55862" lon="6.76675">
        <ele>1643.99</ele>
        <time>2016-08-06T09:28:17Z</time>
      </trkpt>
      <trkpt lat="45.55853" lon="6.76678">
        <ele>1643.03</ele>
        <time>2016-08-06T09:28:18Z</time>
      </trkpt>
      <trkpt lat="45.55842" lon="6.76678">
        <ele>1642.07</ele>
        <time>2016-08-06T09:28:19Z</time>
      </trkpt>
      <trkpt lat="45.55834" lon="6.76674">
        <ele>1640.63</ele>
        <time>2016-08-06T09:28:20Z</time>
      </trkpt>
      <trkpt lat="45.55825" lon="6.76665">
        <ele>1639.67</ele>
        <time>2016-08-06T09:28:21Z</time>
      </trkpt>
      <trkpt lat="45.55817" lon="6.76654">
        <ele>1638.22</ele>
        <time>2016-08-06T09:28:22Z</time>
      </trkpt>
      <trkpt lat="45.5581" lon="6.7664">
        <ele>1637.26</ele>
        <time>2016-08-06T09:28:23Z</time>
      </trkpt>
      <trkpt lat="45.55805" lon="6.76627">
        <ele>1636.3</ele>
        <time>2016-08-06T09:28:24Z</time>
      </trkpt>
      <trkpt lat="45.558" lon="6.76615">
        <ele>1636.3</ele>
        <time>2016-08-06T09:28:25Z</time>
      </trkpt>
      <trkpt lat="45.55795" lon="6.76606">
        <ele>1635.34</ele>
        <time>2016-08-06T09:28:26Z</time>
      </trkpt>
      <trkpt lat="45.55788" lon="6.76599">
        <ele>1633.9</ele>
        <time>2016-08-06T09:28:27Z</time>
      </trkpt>
      <trkpt lat="45.55781" lon="6.76598">
        <ele>1633.42</ele>
        <time>2016-08-06T09:28:28Z</time>
      </trkpt>
      <trkpt lat="45.55772" lon="6.76601">
        <ele>1632.46</ele>
        <time>2016-08-06T09:28:29Z</time>
      </trkpt>
      <trkpt lat="45.55763" lon="6.76605">
        <ele>1631.01</ele>
        <time>2016-08-06T09:28:30Z</time>
      </trkpt>
      <trkpt lat="45.55754" lon="6.76605">
        <ele>1630.53</ele>
        <time>2016-08-06T09:28:31Z</time>
      </trkpt>
      <trkpt lat="45.55745" lon="6.76601">
        <ele>1629.57</ele>
        <time>2016-08-06T09:28:32Z</time>
      </trkpt>
      <trkpt lat="45.55736" lon="6.76595">
        <ele>1628.61</ele>
        <time>2016-08-06T09:28:33Z</time>
      </trkpt>
      <trkpt lat="45.55726" lon="6.7659">
        <ele>1627.65</ele>
        <time>2016-08-06T09:28:34Z</time>
      </trkpt>
      <trkpt lat="45.55716" lon="6.76588">
        <ele>1626.69</ele>
        <time>2016-08-06T09:28:35Z</time>
      </trkpt>
      <trkpt lat="45.55705" lon="6.76588">
        <ele>1625.25</ele>
        <time>2016-08-06T09:28:36Z</time>
      </trkpt>
      <trkpt lat="45.55694" lon="6.76587">
        <ele>1624.28</ele>
        <time>2016-08-06T09:28:37Z</time>
      </trkpt>
      <trkpt lat="45.55683" lon="6.76584">
        <ele>1623.8</ele>
        <time>2016-08-06T09:28:38Z</time>
      </trkpt>
      <trkpt lat="45.55671" lon="6.76579">
        <ele>1622.36</ele>
        <time>2016-08-06T09:28:39Z</time>
      </trkpt>
      <trkpt lat="45.55623" lon="6.76568">
        <ele>1619</ele>
        <time>2016-08-06T09:28:43Z</time>
      </trkpt>
      <trkpt lat="45.55601" lon="6.7656">
        <ele>1617.07</ele>
        <time>2016-08-06T09:28:45Z</time>
      </trkpt>
      <trkpt lat="45.55591" lon="6.76551">
        <ele>1616.11</ele>
        <time>2016-08-06T09:28:46Z</time>
      </trkpt>
      <trkpt lat="45.55583" lon="6.7654">
        <ele>1615.15</ele>
        <time>2016-08-06T09:28:47Z</time>
      </trkpt>
      <trkpt lat="45.55578" lon="6.76527">
        <ele>1614.19</ele>
        <time>2016-08-06T09:28:48Z</time>
      </trkpt>
      <trkpt lat="45.55576" lon="6.76513">
        <ele>1613.23</ele>
        <time>2016-08-06T09:28:49Z</time>
      </trkpt>
      <trkpt lat="45.55574" lon="6.765">
        <ele>1612.75</ele>
        <time>2016-08-06T09:28:50Z</time>
      </trkpt>
      <trkpt lat="45.55571" lon="6.76488">
        <ele>1611.79</ele>
        <time>2016-08-06T09:28:51Z</time>
      </trkpt>
      <trkpt lat="45.55568" lon="6.76477">
        <ele>1611.31</ele>
        <time>2016-08-06T09:28:52Z</time>
      </trkpt>
      <trkpt lat="45.55563" lon="6.76466">
        <ele>1610.35</ele>
        <time>2016-08-06T09:28:53Z</time>
      </trkpt>
      <trkpt lat="45.55558" lon="6.76459">
        <ele>1609.86</ele>
        <time>2016-08-06T09:28:54Z</time>
      </trkpt>
      <trkpt lat="45.55551" lon="6.76451">
        <ele>1608.9</ele>
        <time>2016-08-06T09:28:55Z</time>
      </trkpt>
      <trkpt lat="45.55544" lon="6.76443">
        <ele>1607.94</ele>
        <time>2016-08-06T09:28:56Z</time>
      </trkpt>
      <trkpt lat="45.55537" lon="6.76434">
        <ele>1606.98</ele>
        <time>2016-08-06T09:28:57Z</time>
      </trkpt>
      <trkpt lat="45.5553" lon="6.76424">
        <ele>1606.02</ele>
        <time>2016-08-06T09:28:58Z</time>
      </trkpt>
      <trkpt lat="45.55512" lon="6.76391">
        <ele>1604.1</ele>
        <time>2016-08-06T09:29:01Z</time>
      </trkpt>
      <trkpt lat="45.55505" lon="6.76384">
        <ele>1604.1</ele>
        <time>2016-08-06T09:29:02Z</time>
      </trkpt>
      <trkpt lat="45.55496" lon="6.7638">
        <ele>1603.14</ele>
        <time>2016-08-06T09:29:03Z</time>
      </trkpt>
      <trkpt lat="45.55487" lon="6.76378">
        <ele>1601.69</ele>
        <time>2016-08-06T09:29:04Z</time>
      </trkpt>
      <trkpt lat="45.55477" lon="6.76378">
        <ele>1600.73</ele>
        <time>2016-08-06T09:29:05Z</time>
      </trkpt>
      <trkpt lat="45.55469" lon="6.76376">
        <ele>1599.77</ele>
        <time>2016-08-06T09:29:06Z</time>
      </trkpt>
      <trkpt lat="45.5546" lon="6.76373">
        <ele>1599.29</ele>
        <time>2016-08-06T09:29:07Z</time>
      </trkpt>
      <trkpt lat="45.55451" lon="6.76366">
        <ele>1598.33</ele>
        <time>2016-08-06T09:29:08Z</time>
      </trkpt>
      <trkpt lat="45.55446" lon="6.76358">
        <ele>1597.37</ele>
        <time>2016-08-06T09:29:09Z</time>
      </trkpt>
      <trkpt lat="45.5544" lon="6.76348">
        <ele>1597.37</ele>
        <time>2016-08-06T09:29:10Z</time>
      </trkpt>
      <trkpt lat="45.55435" lon="6.76339">
        <ele>1596.41</ele>
        <time>2016-08-06T09:29:11Z</time>
      </trkpt>
      <trkpt lat="45.55429" lon="6.76331">
        <ele>1595.93</ele>
        <time>2016-08-06T09:29:12Z</time>
      </trkpt>
      <trkpt lat="45.55422" lon="6.76325">
        <ele>1594.96</ele>
        <time>2016-08-06T09:29:13Z</time>
      </trkpt>
      <trkpt lat="45.55414" lon="6.7632">
        <ele>1594</ele>
        <time>2016-08-06T09:29:14Z</time>
      </trkpt>
      <trkpt lat="45.55398" lon="6.76313">
        <ele>1592.56</ele>
        <time>2016-08-06T09:29:16Z</time>
      </trkpt>
      <trkpt lat="45.55389" lon="6.76312">
        <ele>1591.6</ele>
        <time>2016-08-06T09:29:17Z</time>
      </trkpt>
      <trkpt lat="45.5538" lon="6.76311">
        <ele>1590.64</ele>
        <time>2016-08-06T09:29:18Z</time>
      </trkpt>
      <trkpt lat="45.55371" lon="6.76308">
        <ele>1590.64</ele>
        <time>2016-08-06T09:29:19Z</time>
      </trkpt>
      <trkpt lat="45.55363" lon="6.76303">
        <ele>1590.64</ele>
        <time>2016-08-06T09:29:20Z</time>
      </trkpt>
      <trkpt lat="45.55356" lon="6.76295">
        <ele>1590.16</ele>
        <time>2016-08-06T09:29:21Z</time>
      </trkpt>
      <trkpt lat="45.55351" lon="6.76286">
        <ele>1590.16</ele>
        <time>2016-08-06T09:29:22Z</time>
      </trkpt>
      <trkpt lat="45.55346" lon="6.76277">
        <ele>1590.16</ele>
        <time>2016-08-06T09:29:23Z</time>
      </trkpt>
      <trkpt lat="45.55336" lon="6.7626">
        <ele>1590.16</ele>
        <time>2016-08-06T09:29:25Z</time>
      </trkpt>
      <trkpt lat="45.55332" lon="6.76255">
        <ele>1590.16</ele>
        <time>2016-08-06T09:29:26Z</time>
      </trkpt>
      <trkpt lat="45.55327" lon="6.76252">
        <ele>1589.2</ele>
        <time>2016-08-06T09:29:27Z</time>
      </trkpt>
      <trkpt lat="45.55323" lon="6.76252">
        <ele>1588.72</ele>
        <time>2016-08-06T09:29:28Z</time>
      </trkpt>
      <trkpt lat="45.55319" lon="6.76251">
        <ele>1588.72</ele>
        <time>2016-08-06T09:29:29Z</time>
      </trkpt>
      <trkpt lat="45.55316" lon="6.76251">
        <ele>1588.24</ele>
        <time>2016-08-06T09:29:30Z</time>
      </trkpt>
      <trkpt lat="45.55299" lon="6.76236">
        <ele>1585.83</ele>
        <time>2016-08-06T09:29:40Z</time>
      </trkpt>
      <trkpt lat="45.55299" lon="6.76233">
        <ele>1585.35</ele>
        <time>2016-08-06T09:29:41Z</time>
      </trkpt>
      <trkpt lat="45.55301" lon="6.76229">
        <ele>1585.35</ele>
        <time>2016-08-06T09:29:42Z</time>
      </trkpt>
      <trkpt lat="45.55303" lon="6.76227">
        <ele>1585.35</ele>
        <time>2016-08-06T09:29:43Z</time>
      </trkpt>
      <trkpt lat="45.55307" lon="6.76226">
        <ele>1584.39</ele>
        <time>2016-08-06T09:29:44Z</time>
      </trkpt>
      <trkpt lat="45.55312" lon="6.76226">
        <ele>1584.39</ele>
        <time>2016-08-06T09:29:45Z</time>
      </trkpt>
      <trkpt lat="45.55335" lon="6.76227">
        <ele>1582.47</ele>
        <time>2016-08-06T09:29:49Z</time>
      </trkpt>
      <trkpt lat="45.55341" lon="6.76231">
        <ele>1581.99</ele>
        <time>2016-08-06T09:29:50Z</time>
      </trkpt>
      <trkpt lat="45.55348" lon="6.76236">
        <ele>1581.03</ele>
        <time>2016-08-06T09:29:51Z</time>
      </trkpt>
      <trkpt lat="45.55372" lon="6.76252">
        <ele>1578.62</ele>
        <time>2016-08-06T09:29:54Z</time>
      </trkpt>
      <trkpt lat="45.5538" lon="6.76254">
        <ele>1578.14</ele>
        <time>2016-08-06T09:29:55Z</time>
      </trkpt>
      <trkpt lat="45.55389" lon="6.76254">
        <ele>1577.18</ele>
        <time>2016-08-06T09:29:56Z</time>
      </trkpt>
      <trkpt lat="45.55398" lon="6.76253">
        <ele>1577.18</ele>
        <time>2016-08-06T09:29:57Z</time>
      </trkpt>
      <trkpt lat="45.55406" lon="6.76251">
        <ele>1576.22</ele>
        <time>2016-08-06T09:29:58Z</time>
      </trkpt>
      <trkpt lat="45.55413" lon="6.76246">
        <ele>1575.26</ele>
        <time>2016-08-06T09:29:59Z</time>
      </trkpt>
      <trkpt lat="45.5542" lon="6.76241">
        <ele>1574.78</ele>
        <time>2016-08-06T09:30:00Z</time>
      </trkpt>
      <trkpt lat="45.55424" lon="6.76233">
        <ele>1574.78</ele>
        <time>2016-08-06T09:30:01Z</time>
      </trkpt>
      <trkpt lat="45.55426" lon="6.7622">
        <ele>1573.82</ele>
        <time>2016-08-06T09:30:02Z</time>
      </trkpt>
      <trkpt lat="45.55425" lon="6.76212">
        <ele>1573.82</ele>
        <time>2016-08-06T09:30:03Z</time>
      </trkpt>
      <trkpt lat="45.55422" lon="6.76207">
        <ele>1573.33</ele>
        <time>2016-08-06T09:30:04Z</time>
      </trkpt>
      <trkpt lat="45.55418" lon="6.76203">
        <ele>1573.33</ele>
        <time>2016-08-06T09:30:05Z</time>
      </trkpt>
      <trkpt lat="45.55414" lon="6.762">
        <ele>1573.33</ele>
        <time>2016-08-06T09:30:06Z</time>
      </trkpt>
      <trkpt lat="45.5541" lon="6.76198">
        <ele>1572.85</ele>
        <time>2016-08-06T09:30:07Z</time>
      </trkpt>
      <trkpt lat="45.55406" lon="6.76197">
        <ele>1572.85</ele>
        <time>2016-08-06T09:30:08Z</time>
      </trkpt>
      <trkpt lat="45.55344" lon="6.76177">
        <ele>1570.93</ele>
        <time>2016-08-06T09:30:21Z</time>
      </trkpt>
      <trkpt lat="45.55289" lon="6.7616">
        <ele>1567.57</ele>
        <time>2016-08-06T09:30:30Z</time>
      </trkpt>
      <trkpt lat="45.55256" lon="6.76148">
        <ele>1564.68</ele>
        <time>2016-08-06T09:30:34Z</time>
      </trkpt>
      <trkpt lat="45.55227" lon="6.76145">
        <ele>1562.28</ele>
        <time>2016-08-06T09:30:37Z</time>
      </trkpt>
      <trkpt lat="45.55216" lon="6.76147">
        <ele>1562.28</ele>
        <time>2016-08-06T09:30:38Z</time>
      </trkpt>
      <trkpt lat="45.55185" lon="6.76161">
        <ele>1558.92</ele>
        <time>2016-08-06T09:30:41Z</time>
      </trkpt>
      <trkpt lat="45.55164" lon="6.76173">
        <ele>1556.99</ele>
        <time>2016-08-06T09:30:43Z</time>
      </trkpt>
      <trkpt lat="45.55154" lon="6.76176">
        <ele>1556.03</ele>
        <time>2016-08-06T09:30:44Z</time>
      </trkpt>
      <trkpt lat="45.55143" lon="6.76176">
        <ele>1554.59</ele>
        <time>2016-08-06T09:30:45Z</time>
      </trkpt>
      <trkpt lat="45.55132" lon="6.76171">
        <ele>1553.63</ele>
        <time>2016-08-06T09:30:46Z</time>
      </trkpt>
      <trkpt lat="45.55122" lon="6.76162">
        <ele>1552.19</ele>
        <time>2016-08-06T09:30:47Z</time>
      </trkpt>
      <trkpt lat="45.55113" lon="6.76151">
        <ele>1551.22</ele>
        <time>2016-08-06T09:30:48Z</time>
      </trkpt>
      <trkpt lat="45.55105" lon="6.76137">
        <ele>1550.26</ele>
        <time>2016-08-06T09:30:49Z</time>
      </trkpt>
      <trkpt lat="45.55098" lon="6.76123">
        <ele>1549.3</ele>
        <time>2016-08-06T09:30:50Z</time>
      </trkpt>
      <trkpt lat="45.55082" lon="6.76096">
        <ele>1547.38</ele>
        <time>2016-08-06T09:30:52Z</time>
      </trkpt>
      <trkpt lat="45.55073" lon="6.76084">
        <ele>1546.42</ele>
        <time>2016-08-06T09:30:53Z</time>
      </trkpt>
      <trkpt lat="45.55063" lon="6.76074">
        <ele>1544.98</ele>
        <time>2016-08-06T09:30:54Z</time>
      </trkpt>
      <trkpt lat="45.55052" lon="6.76066">
        <ele>1544.01</ele>
        <time>2016-08-06T09:30:55Z</time>
      </trkpt>
      <trkpt lat="45.55039" lon="6.76061">
        <ele>1543.53</ele>
        <time>2016-08-06T09:30:56Z</time>
      </trkpt>
      <trkpt lat="45.55027" lon="6.76059">
        <ele>1542.09</ele>
        <time>2016-08-06T09:30:57Z</time>
      </trkpt>
      <trkpt lat="45.55014" lon="6.76059">
        <ele>1540.65</ele>
        <time>2016-08-06T09:30:58Z</time>
      </trkpt>
      <trkpt lat="45.55001" lon="6.76061">
        <ele>1539.69</ele>
        <time>2016-08-06T09:30:59Z</time>
      </trkpt>
      <trkpt lat="45.54988" lon="6.76064">
        <ele>1538.25</ele>
        <time>2016-08-06T09:31:00Z</time>
      </trkpt>
      <trkpt lat="45.54948" lon="6.7607">
        <ele>1534.88</ele>
        <time>2016-08-06T09:31:03Z</time>
      </trkpt>
      <trkpt lat="45.54907" lon="6.76077">
        <ele>1531.52</ele>
        <time>2016-08-06T09:31:06Z</time>
      </trkpt>
      <trkpt lat="45.54866" lon="6.76085">
        <ele>1527.67</ele>
        <time>2016-08-06T09:31:09Z</time>
      </trkpt>
      <trkpt lat="45.54825" lon="6.76096">
        <ele>1523.83</ele>
        <time>2016-08-06T09:31:12Z</time>
      </trkpt>
      <trkpt lat="45.54783" lon="6.76112">
        <ele>1520.46</ele>
        <time>2016-08-06T09:31:15Z</time>
      </trkpt>
      <trkpt lat="45.54743" lon="6.76134">
        <ele>1516.14</ele>
        <time>2016-08-06T09:31:18Z</time>
      </trkpt>
      <trkpt lat="45.54715" lon="6.76149">
        <ele>1513.25</ele>
        <time>2016-08-06T09:31:20Z</time>
      </trkpt>
      <trkpt lat="45.54674" lon="6.76171">
        <ele>1509.89</ele>
        <time>2016-08-06T09:31:23Z</time>
      </trkpt>
      <trkpt lat="45.54646" lon="6.76186">
        <ele>1506.52</ele>
        <time>2016-08-06T09:31:25Z</time>
      </trkpt>
      <trkpt lat="45.54605" lon="6.7621">
        <ele>1502.68</ele>
        <time>2016-08-06T09:31:28Z</time>
      </trkpt>
      <trkpt lat="45.54568" lon="6.76232">
        <ele>1499.31</ele>
        <time>2016-08-06T09:31:31Z</time>
      </trkpt>
      <trkpt lat="45.54532" lon="6.7625">
        <ele>1495.95</ele>
        <time>2016-08-06T09:31:34Z</time>
      </trkpt>
      <trkpt lat="45.54519" lon="6.76252">
        <ele>1495.47</ele>
        <time>2016-08-06T09:31:35Z</time>
      </trkpt>
      <trkpt lat="45.54506" lon="6.76251">
        <ele>1494.51</ele>
        <time>2016-08-06T09:31:36Z</time>
      </trkpt>
      <trkpt lat="45.54493" lon="6.76248">
        <ele>1493.55</ele>
        <time>2016-08-06T09:31:37Z</time>
      </trkpt>
      <trkpt lat="45.5448" lon="6.76243">
        <ele>1492.1</ele>
        <time>2016-08-06T09:31:38Z</time>
      </trkpt>
      <trkpt lat="45.54468" lon="6.76237">
        <ele>1491.14</ele>
        <time>2016-08-06T09:31:39Z</time>
      </trkpt>
      <trkpt lat="45.54442" lon="6.76226">
        <ele>1489.22</ele>
        <time>2016-08-06T09:31:41Z</time>
      </trkpt>
      <trkpt lat="45.54429" lon="6.76223">
        <ele>1488.26</ele>
        <time>2016-08-06T09:31:42Z</time>
      </trkpt>
      <trkpt lat="45.54416" lon="6.76222">
        <ele>1486.82</ele>
        <time>2016-08-06T09:31:43Z</time>
      </trkpt>
      <trkpt lat="45.54402" lon="6.76222">
        <ele>1485.85</ele>
        <time>2016-08-06T09:31:44Z</time>
      </trkpt>
      <trkpt lat="45.54388" lon="6.76224">
        <ele>1484.41</ele>
        <time>2016-08-06T09:31:45Z</time>
      </trkpt>
      <trkpt lat="45.54375" lon="6.76228">
        <ele>1482.97</ele>
        <time>2016-08-06T09:31:46Z</time>
      </trkpt>
      <trkpt lat="45.54363" lon="6.76234">
        <ele>1482.49</ele>
        <time>2016-08-06T09:31:47Z</time>
      </trkpt>
      <trkpt lat="45.54351" lon="6.76242">
        <ele>1481.05</ele>
        <time>2016-08-06T09:31:48Z</time>
      </trkpt>
      <trkpt lat="45.5434" lon="6.76252">
        <ele>1480.09</ele>
        <time>2016-08-06T09:31:49Z</time>
      </trkpt>
      <trkpt lat="45.54328" lon="6.76262">
        <ele>1478.65</ele>
        <time>2016-08-06T09:31:50Z</time>
      </trkpt>
      <trkpt lat="45.54294" lon="6.76297">
        <ele>1474.8</ele>
        <time>2016-08-06T09:31:53Z</time>
      </trkpt>
      <trkpt lat="45.5426" lon="6.76333">
        <ele>1470.47</ele>
        <time>2016-08-06T09:31:56Z</time>
      </trkpt>
      <trkpt lat="45.54223" lon="6.76379">
        <ele>1467.11</ele>
        <time>2016-08-06T09:32:00Z</time>
      </trkpt>
      <trkpt lat="45.5421" lon="6.76397">
        <ele>1466.15</ele>
        <time>2016-08-06T09:32:02Z</time>
      </trkpt>
      <trkpt lat="45.54205" lon="6.76402">
        <ele>1465.67</ele>
        <time>2016-08-06T09:32:03Z</time>
      </trkpt>
      <trkpt lat="45.54199" lon="6.76401">
        <ele>1465.67</ele>
        <time>2016-08-06T09:32:04Z</time>
      </trkpt>
      <trkpt lat="45.54196" lon="6.76396">
        <ele>1464.71</ele>
        <time>2016-08-06T09:32:05Z</time>
      </trkpt>
      <trkpt lat="45.54195" lon="6.76387">
        <ele>1464.23</ele>
        <time>2016-08-06T09:32:06Z</time>
      </trkpt>
      <trkpt lat="45.54197" lon="6.76378">
        <ele>1463.74</ele>
        <time>2016-08-06T09:32:07Z</time>
      </trkpt>
      <trkpt lat="45.54203" lon="6.7637">
        <ele>1463.74</ele>
        <time>2016-08-06T09:32:08Z</time>
      </trkpt>
      <trkpt lat="45.54209" lon="6.76362">
        <ele>1462.78</ele>
        <time>2016-08-06T09:32:09Z</time>
      </trkpt>
      <trkpt lat="45.5424" lon="6.76322">
        <ele>1459.9</ele>
        <time>2016-08-06T09:32:14Z</time>
      </trkpt>
      <trkpt lat="45.54269" lon="6.76266">
        <ele>1456.05</ele>
        <time>2016-08-06T09:32:19Z</time>
      </trkpt>
      <trkpt lat="45.54286" lon="6.76227">
        <ele>1452.69</ele>
        <time>2016-08-06T09:32:22Z</time>
      </trkpt>
      <trkpt lat="45.54313" lon="6.76176">
        <ele>1448.84</ele>
        <time>2016-08-06T09:32:26Z</time>
      </trkpt>
      <trkpt lat="45.54339" lon="6.76142">
        <ele>1445</ele>
        <time>2016-08-06T09:32:29Z</time>
      </trkpt>
      <trkpt lat="45.54367" lon="6.76111">
        <ele>1441.63</ele>
        <time>2016-08-06T09:32:32Z</time>
      </trkpt>
      <trkpt lat="45.54379" lon="6.76103">
        <ele>1440.67</ele>
        <time>2016-08-06T09:32:33Z</time>
      </trkpt>
      <trkpt lat="45.5439" lon="6.76098">
        <ele>1439.71</ele>
        <time>2016-08-06T09:32:34Z</time>
      </trkpt>
      <trkpt lat="45.54402" lon="6.76095">
        <ele>1438.27</ele>
        <time>2016-08-06T09:32:35Z</time>
      </trkpt>
      <trkpt lat="45.54414" lon="6.76094">
        <ele>1437.79</ele>
        <time>2016-08-06T09:32:36Z</time>
      </trkpt>
      <trkpt lat="45.54427" lon="6.76093">
        <ele>1436.35</ele>
        <time>2016-08-06T09:32:37Z</time>
      </trkpt>
      <trkpt lat="45.54466" lon="6.76084">
        <ele>1432.98</ele>
        <time>2016-08-06T09:32:40Z</time>
      </trkpt>
      <trkpt lat="45.54478" lon="6.76076">
        <ele>1431.54</ele>
        <time>2016-08-06T09:32:41Z</time>
      </trkpt>
      <trkpt lat="45.54489" lon="6.76065">
        <ele>1430.58</ele>
        <time>2016-08-06T09:32:42Z</time>
      </trkpt>
      <trkpt lat="45.54525" lon="6.76022">
        <ele>1427.21</ele>
        <time>2016-08-06T09:32:46Z</time>
      </trkpt>
      <trkpt lat="45.54537" lon="6.76006">
        <ele>1426.25</ele>
        <time>2016-08-06T09:32:48Z</time>
      </trkpt>
      <trkpt lat="45.54542" lon="6.75999">
        <ele>1426.25</ele>
        <time>2016-08-06T09:32:49Z</time>
      </trkpt>
      <trkpt lat="45.54547" lon="6.75994">
        <ele>1425.29</ele>
        <time>2016-08-06T09:32:51Z</time>
      </trkpt>
      <trkpt lat="45.54548" lon="6.75998">
        <ele>1424.81</ele>
        <time>2016-08-06T09:32:52Z</time>
      </trkpt>
      <trkpt lat="45.54546" lon="6.76005">
        <ele>1424.33</ele>
        <time>2016-08-06T09:32:53Z</time>
      </trkpt>
      <trkpt lat="45.54533" lon="6.76037">
        <ele>1421.45</ele>
        <time>2016-08-06T09:32:57Z</time>
      </trkpt>
      <trkpt lat="45.54527" lon="6.76046">
        <ele>1420.49</ele>
        <time>2016-08-06T09:32:58Z</time>
      </trkpt>
      <trkpt lat="45.54521" lon="6.76049">
        <ele>1420</ele>
        <time>2016-08-06T09:32:59Z</time>
      </trkpt>
      <trkpt lat="45.54483" lon="6.76046">
        <ele>1418.08</ele>
        <time>2016-08-06T09:33:01Z</time>
      </trkpt>
      <trkpt lat="45.54465" lon="6.76043">
        <ele>1416.64</ele>
        <time>2016-08-06T09:33:02Z</time>
      </trkpt>
      <trkpt lat="45.5442" lon="6.76033">
        <ele>1414.24</ele>
        <time>2016-08-06T09:33:05Z</time>
      </trkpt>
      <trkpt lat="45.54406" lon="6.76034">
        <ele>1413.28</ele>
        <time>2016-08-06T09:33:06Z</time>
      </trkpt>
      <trkpt lat="45.54392" lon="6.76037">
        <ele>1411.83</ele>
        <time>2016-08-06T09:33:07Z</time>
      </trkpt>
      <trkpt lat="45.54367" lon="6.76039">
        <ele>1411.35</ele>
        <time>2016-08-06T09:33:08Z</time>
      </trkpt>
      <trkpt lat="45.54352" lon="6.76044">
        <ele>1410.39</ele>
        <time>2016-08-06T09:33:09Z</time>
      </trkpt>
      <trkpt lat="45.54312" lon="6.76061">
        <ele>1406.55</ele>
        <time>2016-08-06T09:33:12Z</time>
      </trkpt>
      <trkpt lat="45.54299" lon="6.76064">
        <ele>1405.58</ele>
        <time>2016-08-06T09:33:13Z</time>
      </trkpt>
      <trkpt lat="45.5426" lon="6.76071">
        <ele>1402.7</ele>
        <time>2016-08-06T09:33:16Z</time>
      </trkpt>
      <trkpt lat="45.54222" lon="6.76084">
        <ele>1398.86</ele>
        <time>2016-08-06T09:33:19Z</time>
      </trkpt>
      <trkpt lat="45.54174" lon="6.76117">
        <ele>1394.53</ele>
        <time>2016-08-06T09:33:23Z</time>
      </trkpt>
      <trkpt lat="45.54142" lon="6.76152">
        <ele>1391.65</ele>
        <time>2016-08-06T09:33:26Z</time>
      </trkpt>
      <trkpt lat="45.5411" lon="6.76187">
        <ele>1387.32</ele>
        <time>2016-08-06T09:33:29Z</time>
      </trkpt>
      <trkpt lat="45.54077" lon="6.76223">
        <ele>1383.47</ele>
        <time>2016-08-06T09:33:32Z</time>
      </trkpt>
      <trkpt lat="45.54042" lon="6.76257">
        <ele>1379.63</ele>
        <time>2016-08-06T09:33:35Z</time>
      </trkpt>
      <trkpt lat="45.54005" lon="6.76288">
        <ele>1376.75</ele>
        <time>2016-08-06T09:33:38Z</time>
      </trkpt>
      <trkpt lat="45.53967" lon="6.76316">
        <ele>1372.9</ele>
        <time>2016-08-06T09:33:41Z</time>
      </trkpt>
      <trkpt lat="45.5393" lon="6.76341">
        <ele>1369.05</ele>
        <time>2016-08-06T09:33:44Z</time>
      </trkpt>
      <trkpt lat="45.53896" lon="6.76366">
        <ele>1365.69</ele>
        <time>2016-08-06T09:33:47Z</time>
      </trkpt>
      <trkpt lat="45.53866" lon="6.76387">
        <ele>1362.81</ele>
        <time>2016-08-06T09:33:50Z</time>
      </trkpt>
      <trkpt lat="45.53834" lon="6.76409">
        <ele>1359.44</ele>
        <time>2016-08-06T09:33:54Z</time>
      </trkpt>
      <trkpt lat="45.53828" lon="6.76413">
        <ele>1358.96</ele>
        <time>2016-08-06T09:33:55Z</time>
      </trkpt>
      <trkpt lat="45.5382" lon="6.76414">
        <ele>1358</ele>
        <time>2016-08-06T09:33:56Z</time>
      </trkpt>
      <trkpt lat="45.53813" lon="6.76411">
        <ele>1357.04</ele>
        <time>2016-08-06T09:33:57Z</time>
      </trkpt>
      <trkpt lat="45.53805" lon="6.76405">
        <ele>1356.08</ele>
        <time>2016-08-06T09:33:58Z</time>
      </trkpt>
      <trkpt lat="45.53799" lon="6.76398">
        <ele>1355.12</ele>
        <time>2016-08-06T09:33:59Z</time>
      </trkpt>
      <trkpt lat="45.53792" lon="6.76389">
        <ele>1353.67</ele>
        <time>2016-08-06T09:34:00Z</time>
      </trkpt>
      <trkpt lat="45.53784" lon="6.76379">
        <ele>1352.71</ele>
        <time>2016-08-06T09:34:01Z</time>
      </trkpt>
      <trkpt lat="45.53777" lon="6.76369">
        <ele>1351.75</ele>
        <time>2016-08-06T09:34:02Z</time>
      </trkpt>
      <trkpt lat="45.53771" lon="6.76359">
        <ele>1351.27</ele>
        <time>2016-08-06T09:34:03Z</time>
      </trkpt>
      <trkpt lat="45.53746" lon="6.76321">
        <ele>1348.39</ele>
        <time>2016-08-06T09:34:06Z</time>
      </trkpt>
      <trkpt lat="45.53729" lon="6.76295">
        <ele>1345.98</ele>
        <time>2016-08-06T09:34:08Z</time>
      </trkpt>
      <trkpt lat="45.53723" lon="6.76283">
        <ele>1346.46</ele>
        <time>2016-08-06T09:34:09Z</time>
      </trkpt>
      <trkpt lat="45.53719" lon="6.76271">
        <ele>1345.5</ele>
        <time>2016-08-06T09:34:10Z</time>
      </trkpt>
      <trkpt lat="45.53717" lon="6.76258">
        <ele>1344.06</ele>
        <time>2016-08-06T09:34:11Z</time>
      </trkpt>
      <trkpt lat="45.53717" lon="6.76247">
        <ele>1343.58</ele>
        <time>2016-08-06T09:34:12Z</time>
      </trkpt>
      <trkpt lat="45.53719" lon="6.7624">
        <ele>1343.58</ele>
        <time>2016-08-06T09:34:13Z</time>
      </trkpt>
      <trkpt lat="45.53723" lon="6.76235">
        <ele>1342.14</ele>
        <time>2016-08-06T09:34:14Z</time>
      </trkpt>
      <trkpt lat="45.53725" lon="6.76234">
        <ele>1341.66</ele>
        <time>2016-08-06T09:34:15Z</time>
      </trkpt>
      <trkpt lat="45.53736" lon="6.7623">
        <ele>1339.25</ele>
        <time>2016-08-06T09:34:17Z</time>
      </trkpt>
      <trkpt lat="45.53743" lon="6.76226">
        <ele>1338.77</ele>
        <time>2016-08-06T09:34:18Z</time>
      </trkpt>
      <trkpt lat="45.53758" lon="6.76213">
        <ele>1335.89</ele>
        <time>2016-08-06T09:34:20Z</time>
      </trkpt>
      <trkpt lat="45.53765" lon="6.76207">
        <ele>1334.93</ele>
        <time>2016-08-06T09:34:21Z</time>
      </trkpt>
      <trkpt lat="45.53771" lon="6.76201">
        <ele>1333.49</ele>
        <time>2016-08-06T09:34:22Z</time>
      </trkpt>
      <trkpt lat="45.53793" lon="6.76184">
        <ele>1330.6</ele>
        <time>2016-08-06T09:34:25Z</time>
      </trkpt>
      <trkpt lat="45.53808" lon="6.76177">
        <ele>1328.2</ele>
        <time>2016-08-06T09:34:27Z</time>
      </trkpt>
      <trkpt lat="45.53817" lon="6.76173">
        <ele>1327.72</ele>
        <time>2016-08-06T09:34:28Z</time>
      </trkpt>
      <trkpt lat="45.53824" lon="6.76169">
        <ele>1326.76</ele>
        <time>2016-08-06T09:34:29Z</time>
      </trkpt>
      <trkpt lat="45.53875" lon="6.76138">
        <ele>1322.91</ele>
        <time>2016-08-06T09:34:32Z</time>
      </trkpt>
      <trkpt lat="45.53911" lon="6.76085">
        <ele>1319.07</ele>
        <time>2016-08-06T09:34:36Z</time>
      </trkpt>
      <trkpt lat="45.53924" lon="6.76058">
        <ele>1317.62</ele>
        <time>2016-08-06T09:34:38Z</time>
      </trkpt>
      <trkpt lat="45.53947" lon="6.76015">
        <ele>1313.78</ele>
        <time>2016-08-06T09:34:43Z</time>
      </trkpt>
      <trkpt lat="45.53957" lon="6.76">
        <ele>1312.82</ele>
        <time>2016-08-06T09:34:44Z</time>
      </trkpt>
      <trkpt lat="45.53984" lon="6.75957">
        <ele>1311.86</ele>
        <time>2016-08-06T09:34:48Z</time>
      </trkpt>
      <trkpt lat="45.53995" lon="6.75942">
        <ele>1310.9</ele>
        <time>2016-08-06T09:34:50Z</time>
      </trkpt>
      <trkpt lat="45.54011" lon="6.75927">
        <ele>1310.41</ele>
        <time>2016-08-06T09:34:52Z</time>
      </trkpt>
      <trkpt lat="45.54115" lon="6.75858">
        <ele>1309.45</ele>
        <time>2016-08-06T09:35:03Z</time>
      </trkpt>
      <trkpt lat="45.54154" lon="6.75812">
        <ele>1309.45</ele>
        <time>2016-08-06T09:35:09Z</time>
      </trkpt>
      <trkpt lat="45.5416" lon="6.75806">
        <ele>1309.45</ele>
        <time>2016-08-06T09:35:10Z</time>
      </trkpt>
      <trkpt lat="45.54168" lon="6.75801">
        <ele>1309.45</ele>
        <time>2016-08-06T09:35:11Z</time>
      </trkpt>
      <trkpt lat="45.54176" lon="6.75798">
        <ele>1309.45</ele>
        <time>2016-08-06T09:35:12Z</time>
      </trkpt>
      <trkpt lat="45.54184" lon="6.75796">
        <ele>1309.45</ele>
        <time>2016-08-06T09:35:13Z</time>
      </trkpt>
      <trkpt lat="45.54192" lon="6.75795">
        <ele>1309.45</ele>
        <time>2016-08-06T09:35:14Z</time>
      </trkpt>
      <trkpt lat="45.542" lon="6.75795">
        <ele>1309.45</ele>
        <time>2016-08-06T09:35:15Z</time>
      </trkpt>
      <trkpt lat="45.54262" lon="6.75792">
        <ele>1309.93</ele>
        <time>2016-08-06T09:35:23Z</time>
      </trkpt>
      <trkpt lat="45.5427" lon="6.75788">
        <ele>1309.93</ele>
        <time>2016-08-06T09:35:24Z</time>
      </trkpt>
      <trkpt lat="45.54277" lon="6.75783">
        <ele>1309.93</ele>
        <time>2016-08-06T09:35:25Z</time>
      </trkpt>
      <trkpt lat="45.54284" lon="6.75777">
        <ele>1309.45</ele>
        <time>2016-08-06T09:35:26Z</time>
      </trkpt>
      <trkpt lat="45.54291" lon="6.75771">
        <ele>1308.97</ele>
        <time>2016-08-06T09:35:27Z</time>
      </trkpt>
      <trkpt lat="45.54304" lon="6.75757">
        <ele>1308.97</ele>
        <time>2016-08-06T09:35:29Z</time>
      </trkpt>
      <trkpt lat="45.5431" lon="6.7575">
        <ele>1308.97</ele>
        <time>2016-08-06T09:35:30Z</time>
      </trkpt>
      <trkpt lat="45.54317" lon="6.75744">
        <ele>1308.97</ele>
        <time>2016-08-06T09:35:31Z</time>
      </trkpt>
      <trkpt lat="45.54364" lon="6.75694">
        <ele>1308.97</ele>
        <time>2016-08-06T09:35:39Z</time>
      </trkpt>
      <trkpt lat="45.54369" lon="6.75687">
        <ele>1308.49</ele>
        <time>2016-08-06T09:35:40Z</time>
      </trkpt>
      <trkpt lat="45.54375" lon="6.7568">
        <ele>1308.49</ele>
        <time>2016-08-06T09:35:41Z</time>
      </trkpt>
      <trkpt lat="45.54379" lon="6.75672">
        <ele>1308.49</ele>
        <time>2016-08-06T09:35:42Z</time>
      </trkpt>
      <trkpt lat="45.54383" lon="6.75663">
        <ele>1308.49</ele>
        <time>2016-08-06T09:35:43Z</time>
      </trkpt>
      <trkpt lat="45.54387" lon="6.75654">
        <ele>1308.49</ele>
        <time>2016-08-06T09:35:44Z</time>
      </trkpt>
      <trkpt lat="45.54399" lon="6.75625">
        <ele>1307.53</ele>
        <time>2016-08-06T09:35:47Z</time>
      </trkpt>
      <trkpt lat="45.54414" lon="6.75582">
        <ele>1304.17</ele>
        <time>2016-08-06T09:35:51Z</time>
      </trkpt>
      <trkpt lat="45.5442" lon="6.75571">
        <ele>1303.69</ele>
        <time>2016-08-06T09:35:52Z</time>
      </trkpt>
      <trkpt lat="45.54427" lon="6.75563">
        <ele>1302.72</ele>
        <time>2016-08-06T09:35:53Z</time>
      </trkpt>
      <trkpt lat="45.54436" lon="6.75556">
        <ele>1301.76</ele>
        <time>2016-08-06T09:35:54Z</time>
      </trkpt>
      <trkpt lat="45.54446" lon="6.7555">
        <ele>1301.28</ele>
        <time>2016-08-06T09:35:55Z</time>
      </trkpt>
      <trkpt lat="45.54456" lon="6.75546">
        <ele>1300.32</ele>
        <time>2016-08-06T09:35:56Z</time>
      </trkpt>
      <trkpt lat="45.54466" lon="6.75542">
        <ele>1299.36</ele>
        <time>2016-08-06T09:35:57Z</time>
      </trkpt>
      <trkpt lat="45.54507" lon="6.75522">
        <ele>1295.99</ele>
        <time>2016-08-06T09:36:01Z</time>
      </trkpt>
      <trkpt lat="45.54517" lon="6.75514">
        <ele>1295.03</ele>
        <time>2016-08-06T09:36:02Z</time>
      </trkpt>
      <trkpt lat="45.54526" lon="6.75504">
        <ele>1294.07</ele>
        <time>2016-08-06T09:36:03Z</time>
      </trkpt>
      <trkpt lat="45.54536" lon="6.75492">
        <ele>1292.63</ele>
        <time>2016-08-06T09:36:04Z</time>
      </trkpt>
      <trkpt lat="45.54544" lon="6.7548">
        <ele>1291.67</ele>
        <time>2016-08-06T09:36:05Z</time>
      </trkpt>
      <trkpt lat="45.54552" lon="6.75467">
        <ele>1290.71</ele>
        <time>2016-08-06T09:36:06Z</time>
      </trkpt>
      <trkpt lat="45.54576" lon="6.75426">
        <ele>1286.86</ele>
        <time>2016-08-06T09:36:09Z</time>
      </trkpt>
      <trkpt lat="45.54605" lon="6.75389">
        <ele>1283.5</ele>
        <time>2016-08-06T09:36:12Z</time>
      </trkpt>
      <trkpt lat="45.54637" lon="6.75358">
        <ele>1280.13</ele>
        <time>2016-08-06T09:36:15Z</time>
      </trkpt>
      <trkpt lat="45.54649" lon="6.75352">
        <ele>1278.69</ele>
        <time>2016-08-06T09:36:16Z</time>
      </trkpt>
      <trkpt lat="45.54661" lon="6.75348">
        <ele>1277.25</ele>
        <time>2016-08-06T09:36:17Z</time>
      </trkpt>
      <trkpt lat="45.54699" lon="6.75343">
        <ele>1273.88</ele>
        <time>2016-08-06T09:36:20Z</time>
      </trkpt>
      <trkpt lat="45.54738" lon="6.75335">
        <ele>1270.52</ele>
        <time>2016-08-06T09:36:23Z</time>
      </trkpt>
      <trkpt lat="45.54777" lon="6.75323">
        <ele>1266.67</ele>
        <time>2016-08-06T09:36:26Z</time>
      </trkpt>
      <trkpt lat="45.54802" lon="6.75313">
        <ele>1264.75</ele>
        <time>2016-08-06T09:36:28Z</time>
      </trkpt>
      <trkpt lat="45.54813" lon="6.75304">
        <ele>1263.79</ele>
        <time>2016-08-06T09:36:29Z</time>
      </trkpt>
      <trkpt lat="45.54823" lon="6.75291">
        <ele>1262.83</ele>
        <time>2016-08-06T09:36:30Z</time>
      </trkpt>
      <trkpt lat="45.54831" lon="6.75277">
        <ele>1261.39</ele>
        <time>2016-08-06T09:36:31Z</time>
      </trkpt>
      <trkpt lat="45.54837" lon="6.75264">
        <ele>1260.91</ele>
        <time>2016-08-06T09:36:32Z</time>
      </trkpt>
      <trkpt lat="45.54846" lon="6.7525">
        <ele>1258.98</ele>
        <time>2016-08-06T09:36:33Z</time>
      </trkpt>
      <trkpt lat="45.54856" lon="6.7524">
        <ele>1258.02</ele>
        <time>2016-08-06T09:36:34Z</time>
      </trkpt>
      <trkpt lat="45.54867" lon="6.75231">
        <ele>1257.06</ele>
        <time>2016-08-06T09:36:35Z</time>
      </trkpt>
      <trkpt lat="45.54889" lon="6.75214">
        <ele>1254.66</ele>
        <time>2016-08-06T09:36:37Z</time>
      </trkpt>
      <trkpt lat="45.54899" lon="6.75203">
        <ele>1254.18</ele>
        <time>2016-08-06T09:36:38Z</time>
      </trkpt>
      <trkpt lat="45.54927" lon="6.75169">
        <ele>1250.81</ele>
        <time>2016-08-06T09:36:41Z</time>
      </trkpt>
      <trkpt lat="45.54937" lon="6.75161">
        <ele>1249.37</ele>
        <time>2016-08-06T09:36:42Z</time>
      </trkpt>
      <trkpt lat="45.54947" lon="6.75154">
        <ele>1248.89</ele>
        <time>2016-08-06T09:36:43Z</time>
      </trkpt>
      <trkpt lat="45.54958" lon="6.75149">
        <ele>1247.45</ele>
        <time>2016-08-06T09:36:44Z</time>
      </trkpt>
      <trkpt lat="45.54968" lon="6.75145">
        <ele>1246.49</ele>
        <time>2016-08-06T09:36:45Z</time>
      </trkpt>
      <trkpt lat="45.54977" lon="6.75145">
        <ele>1245.53</ele>
        <time>2016-08-06T09:36:46Z</time>
      </trkpt>
      <trkpt lat="45.54987" lon="6.75147">
        <ele>1244.56</ele>
        <time>2016-08-06T09:36:47Z</time>
      </trkpt>
      <trkpt lat="45.54997" lon="6.75152">
        <ele>1243.12</ele>
        <time>2016-08-06T09:36:48Z</time>
      </trkpt>
      <trkpt lat="45.55004" lon="6.75152">
        <ele>1242.64</ele>
        <time>2016-08-06T09:36:49Z</time>
      </trkpt>
      <trkpt lat="45.55013" lon="6.75148">
        <ele>1241.68</ele>
        <time>2016-08-06T09:36:50Z</time>
      </trkpt>
      <trkpt lat="45.5502" lon="6.75139">
        <ele>1240.72</ele>
        <time>2016-08-06T09:36:51Z</time>
      </trkpt>
      <trkpt lat="45.55026" lon="6.75128">
        <ele>1239.76</ele>
        <time>2016-08-06T09:36:52Z</time>
      </trkpt>
      <trkpt lat="45.55031" lon="6.75116">
        <ele>1239.28</ele>
        <time>2016-08-06T09:36:53Z</time>
      </trkpt>
      <trkpt lat="45.55036" lon="6.75105">
        <ele>1238.32</ele>
        <time>2016-08-06T09:36:54Z</time>
      </trkpt>
      <trkpt lat="45.5504" lon="6.75094">
        <ele>1237.83</ele>
        <time>2016-08-06T09:36:55Z</time>
      </trkpt>
      <trkpt lat="45.55046" lon="6.75086">
        <ele>1236.87</ele>
        <time>2016-08-06T09:36:56Z</time>
      </trkpt>
      <trkpt lat="45.55055" lon="6.75082">
        <ele>1235.91</ele>
        <time>2016-08-06T09:36:57Z</time>
      </trkpt>
      <trkpt lat="45.55064" lon="6.75081">
        <ele>1234.47</ele>
        <time>2016-08-06T09:36:58Z</time>
      </trkpt>
      <trkpt lat="45.55085" lon="6.75088">
        <ele>1232.55</ele>
        <time>2016-08-06T09:37:00Z</time>
      </trkpt>
      <trkpt lat="45.55095" lon="6.75093">
        <ele>1231.59</ele>
        <time>2016-08-06T09:37:01Z</time>
      </trkpt>
      <trkpt lat="45.55128" lon="6.75112">
        <ele>1228.22</ele>
        <time>2016-08-06T09:37:05Z</time>
      </trkpt>
      <trkpt lat="45.55141" lon="6.75111">
        <ele>1226.78</ele>
        <time>2016-08-06T09:37:06Z</time>
      </trkpt>
      <trkpt lat="45.55173" lon="6.75105">
        <ele>1223.42</ele>
        <time>2016-08-06T09:37:09Z</time>
      </trkpt>
      <trkpt lat="45.55215" lon="6.75098">
        <ele>1219.57</ele>
        <time>2016-08-06T09:37:12Z</time>
      </trkpt>
      <trkpt lat="45.55257" lon="6.75095">
        <ele>1216.21</ele>
        <time>2016-08-06T09:37:15Z</time>
      </trkpt>
      <trkpt lat="45.5527" lon="6.75093">
        <ele>1214.76</ele>
        <time>2016-08-06T09:37:16Z</time>
      </trkpt>
      <trkpt lat="45.55283" lon="6.75089">
        <ele>1213.8</ele>
        <time>2016-08-06T09:37:17Z</time>
      </trkpt>
      <trkpt lat="45.55327" lon="6.75067">
        <ele>1209.96</ele>
        <time>2016-08-06T09:37:20Z</time>
      </trkpt>
      <trkpt lat="45.55349" lon="6.75056">
        <ele>1208.03</ele>
        <time>2016-08-06T09:37:22Z</time>
      </trkpt>
      <trkpt lat="45.55358" lon="6.75053">
        <ele>1208.03</ele>
        <time>2016-08-06T09:37:23Z</time>
      </trkpt>
      <trkpt lat="45.55366" lon="6.75051">
        <ele>1207.55</ele>
        <time>2016-08-06T09:37:24Z</time>
      </trkpt>
      <trkpt lat="45.55374" lon="6.75049">
        <ele>1207.55</ele>
        <time>2016-08-06T09:37:25Z</time>
      </trkpt>
      <trkpt lat="45.5538" lon="6.75044">
        <ele>1206.59</ele>
        <time>2016-08-06T09:37:26Z</time>
      </trkpt>
      <trkpt lat="45.55381" lon="6.75033">
        <ele>1205.63</ele>
        <time>2016-08-06T09:37:28Z</time>
      </trkpt>
      <trkpt lat="45.55379" lon="6.75031">
        <ele>1205.15</ele>
        <time>2016-08-06T09:37:29Z</time>
      </trkpt>
      <trkpt lat="45.55364" lon="6.75035">
        <ele>1204.19</ele>
        <time>2016-08-06T09:37:30Z</time>
      </trkpt>
      <trkpt lat="45.55324" lon="6.75051">
        <ele>1201.79</ele>
        <time>2016-08-06T09:37:34Z</time>
      </trkpt>
      <trkpt lat="45.55313" lon="6.75053">
        <ele>1200.82</ele>
        <time>2016-08-06T09:37:35Z</time>
      </trkpt>
      <trkpt lat="45.55302" lon="6.75052">
        <ele>1199.86</ele>
        <time>2016-08-06T09:37:36Z</time>
      </trkpt>
      <trkpt lat="45.55291" lon="6.7505">
        <ele>1198.9</ele>
        <time>2016-08-06T09:37:37Z</time>
      </trkpt>
      <trkpt lat="45.55256" lon="6.75037">
        <ele>1196.5</ele>
        <time>2016-08-06T09:37:40Z</time>
      </trkpt>
      <trkpt lat="45.55229" lon="6.75031">
        <ele>1193.61</ele>
        <time>2016-08-06T09:37:42Z</time>
      </trkpt>
      <trkpt lat="45.55191" lon="6.75024">
        <ele>1189.29</ele>
        <time>2016-08-06T09:37:45Z</time>
      </trkpt>
      <trkpt lat="45.55141" lon="6.75011">
        <ele>1184.96</ele>
        <time>2016-08-06T09:37:49Z</time>
      </trkpt>
      <trkpt lat="45.55114" lon="6.74999">
        <ele>1182.56</ele>
        <time>2016-08-06T09:37:52Z</time>
      </trkpt>
      <trkpt lat="45.55105" lon="6.74998">
        <ele>1181.12</ele>
        <time>2016-08-06T09:37:53Z</time>
      </trkpt>
      <trkpt lat="45.55096" lon="6.74996">
        <ele>1180.64</ele>
        <time>2016-08-06T09:37:54Z</time>
      </trkpt>
      <trkpt lat="45.55089" lon="6.74992">
        <ele>1180.64</ele>
        <time>2016-08-06T09:37:55Z</time>
      </trkpt>
      <trkpt lat="45.55084" lon="6.74972">
        <ele>1178.23</ele>
        <time>2016-08-06T09:37:59Z</time>
      </trkpt>
      <trkpt lat="45.55086" lon="6.74964">
        <ele>1175.83</ele>
        <time>2016-08-06T09:38:02Z</time>
      </trkpt>
      <trkpt lat="45.55101" lon="6.74961">
        <ele>1174.39</ele>
        <time>2016-08-06T09:38:04Z</time>
      </trkpt>
      <trkpt lat="45.55139" lon="6.74954">
        <ele>1171.02</ele>
        <time>2016-08-06T09:38:07Z</time>
      </trkpt>
      <trkpt lat="45.55188" lon="6.74942">
        <ele>1167.66</ele>
        <time>2016-08-06T09:38:11Z</time>
      </trkpt>
      <trkpt lat="45.55239" lon="6.74922">
        <ele>1163.81</ele>
        <time>2016-08-06T09:38:15Z</time>
      </trkpt>
      <trkpt lat="45.55296" lon="6.74901">
        <ele>1159.97</ele>
        <time>2016-08-06T09:38:19Z</time>
      </trkpt>
      <trkpt lat="45.55313" lon="6.74899">
        <ele>1159.01</ele>
        <time>2016-08-06T09:38:20Z</time>
      </trkpt>
      <trkpt lat="45.55326" lon="6.74899">
        <ele>1158.05</ele>
        <time>2016-08-06T09:38:21Z</time>
      </trkpt>
      <trkpt lat="45.55337" lon="6.74903">
        <ele>1157.08</ele>
        <time>2016-08-06T09:38:22Z</time>
      </trkpt>
      <trkpt lat="45.55381" lon="6.74922">
        <ele>1153.72</ele>
        <time>2016-08-06T09:38:26Z</time>
      </trkpt>
      <trkpt lat="45.55411" lon="6.74933">
        <ele>1151.8</ele>
        <time>2016-08-06T09:38:29Z</time>
      </trkpt>
      <trkpt lat="45.55448" lon="6.74946">
        <ele>1147.95</ele>
        <time>2016-08-06T09:38:33Z</time>
      </trkpt>
      <trkpt lat="45.55458" lon="6.74949">
        <ele>1146.03</ele>
        <time>2016-08-06T09:38:34Z</time>
      </trkpt>
      <trkpt lat="45.55468" lon="6.7495">
        <ele>1145.07</ele>
        <time>2016-08-06T09:38:35Z</time>
      </trkpt>
      <trkpt lat="45.55478" lon="6.74949">
        <ele>1143.63</ele>
        <time>2016-08-06T09:38:36Z</time>
      </trkpt>
      <trkpt lat="45.55502" lon="6.74945">
        <ele>1141.7</ele>
        <time>2016-08-06T09:38:38Z</time>
      </trkpt>
      <trkpt lat="45.55545" lon="6.74936">
        <ele>1138.82</ele>
        <time>2016-08-06T09:38:41Z</time>
      </trkpt>
      <trkpt lat="45.5556" lon="6.74933">
        <ele>1137.86</ele>
        <time>2016-08-06T09:38:42Z</time>
      </trkpt>
      <trkpt lat="45.55588" lon="6.74929">
        <ele>1136.42</ele>
        <time>2016-08-06T09:38:44Z</time>
      </trkpt>
      <trkpt lat="45.55601" lon="6.74932">
        <ele>1135.45</ele>
        <time>2016-08-06T09:38:45Z</time>
      </trkpt>
      <trkpt lat="45.55644" lon="6.74952">
        <ele>1133.53</ele>
        <time>2016-08-06T09:38:48Z</time>
      </trkpt>
      <trkpt lat="45.55686" lon="6.74968">
        <ele>1131.13</ele>
        <time>2016-08-06T09:38:51Z</time>
      </trkpt>
      <trkpt lat="45.557" lon="6.74968">
        <ele>1130.65</ele>
        <time>2016-08-06T09:38:52Z</time>
      </trkpt>
      <trkpt lat="45.55711" lon="6.74963">
        <ele>1130.17</ele>
        <time>2016-08-06T09:38:53Z</time>
      </trkpt>
      <trkpt lat="45.55722" lon="6.74956">
        <ele>1128.73</ele>
        <time>2016-08-06T09:38:54Z</time>
      </trkpt>
      <trkpt lat="45.55742" lon="6.74942">
        <ele>1127.76</ele>
        <time>2016-08-06T09:38:56Z</time>
      </trkpt>
      <trkpt lat="45.55751" lon="6.74939">
        <ele>1126.8</ele>
        <time>2016-08-06T09:38:57Z</time>
      </trkpt>
      <trkpt lat="45.5576" lon="6.74941">
        <ele>1125.84</ele>
        <time>2016-08-06T09:38:58Z</time>
      </trkpt>
      <trkpt lat="45.55808" lon="6.75023">
        <ele>1122.96</ele>
        <time>2016-08-06T09:39:05Z</time>
      </trkpt>
      <trkpt lat="45.55816" lon="6.75031">
        <ele>1122</ele>
        <time>2016-08-06T09:39:06Z</time>
      </trkpt>
      <trkpt lat="45.55823" lon="6.75031">
        <ele>1122</ele>
        <time>2016-08-06T09:39:07Z</time>
      </trkpt>
      <trkpt lat="45.55827" lon="6.75027">
        <ele>1122</ele>
        <time>2016-08-06T09:39:08Z</time>
      </trkpt>
      <trkpt lat="45.55858" lon="6.75014">
        <ele>1119.59</ele>
        <time>2016-08-06T09:39:11Z</time>
      </trkpt>
      <trkpt lat="45.55878" lon="6.75006">
        <ele>1117.67</ele>
        <time>2016-08-06T09:39:13Z</time>
      </trkpt>
      <trkpt lat="45.55888" lon="6.75005">
        <ele>1116.71</ele>
        <time>2016-08-06T09:39:14Z</time>
      </trkpt>
      <trkpt lat="45.55897" lon="6.75009">
        <ele>1115.75</ele>
        <time>2016-08-06T09:39:15Z</time>
      </trkpt>
      <trkpt lat="45.55907" lon="6.75016">
        <ele>1114.31</ele>
        <time>2016-08-06T09:39:16Z</time>
      </trkpt>
      <trkpt lat="45.55936" lon="6.75039">
        <ele>1110.46</ele>
        <time>2016-08-06T09:39:19Z</time>
      </trkpt>
      <trkpt lat="45.55947" lon="6.75047">
        <ele>1109.02</ele>
        <time>2016-08-06T09:39:20Z</time>
      </trkpt>
      <trkpt lat="45.55967" lon="6.75059">
        <ele>1107.58</ele>
        <time>2016-08-06T09:39:22Z</time>
      </trkpt>
      <trkpt lat="45.55978" lon="6.7506">
        <ele>1106.13</ele>
        <time>2016-08-06T09:39:23Z</time>
      </trkpt>
      <trkpt lat="45.55989" lon="6.75059">
        <ele>1105.17</ele>
        <time>2016-08-06T09:39:24Z</time>
      </trkpt>
      <trkpt lat="45.56024" lon="6.75052">
        <ele>1102.77</ele>
        <time>2016-08-06T09:39:27Z</time>
      </trkpt>
      <trkpt lat="45.56036" lon="6.75047">
        <ele>1101.81</ele>
        <time>2016-08-06T09:39:28Z</time>
      </trkpt>
      <trkpt lat="45.56047" lon="6.7504">
        <ele>1101.33</ele>
        <time>2016-08-06T09:39:29Z</time>
      </trkpt>
      <trkpt lat="45.56056" lon="6.7503">
        <ele>1100.37</ele>
        <time>2016-08-06T09:39:30Z</time>
      </trkpt>
      <trkpt lat="45.56094" lon="6.75003">
        <ele>1096.52</ele>
        <time>2016-08-06T09:39:34Z</time>
      </trkpt>
      <trkpt lat="45.56109" lon="6.75016">
        <ele>1095.08</ele>
        <time>2016-08-06T09:39:36Z</time>
      </trkpt>
      <trkpt lat="45.56131" lon="6.75037">
        <ele>1092.2</ele>
        <time>2016-08-06T09:39:39Z</time>
      </trkpt>
      <trkpt lat="45.56139" lon="6.7504">
        <ele>1091.23</ele>
        <time>2016-08-06T09:39:40Z</time>
      </trkpt>
      <trkpt lat="45.56148" lon="6.75041">
        <ele>1090.75</ele>
        <time>2016-08-06T09:39:41Z</time>
      </trkpt>
      <trkpt lat="45.56158" lon="6.75041">
        <ele>1089.79</ele>
        <time>2016-08-06T09:39:42Z</time>
      </trkpt>
      <trkpt lat="45.56172" lon="6.75041">
        <ele>1088.35</ele>
        <time>2016-08-06T09:39:43Z</time>
      </trkpt>
      <trkpt lat="45.56218" lon="6.75043">
        <ele>1084.99</ele>
        <time>2016-08-06T09:39:47Z</time>
      </trkpt>
      <trkpt lat="45.5623" lon="6.75042">
        <ele>1084.5</ele>
        <time>2016-08-06T09:39:48Z</time>
      </trkpt>
      <trkpt lat="45.56242" lon="6.75039">
        <ele>1083.54</ele>
        <time>2016-08-06T09:39:49Z</time>
      </trkpt>
      <trkpt lat="45.56255" lon="6.75035">
        <ele>1082.1</ele>
        <time>2016-08-06T09:39:50Z</time>
      </trkpt>
      <trkpt lat="45.56291" lon="6.7502">
        <ele>1078.74</ele>
        <time>2016-08-06T09:39:53Z</time>
      </trkpt>
      <trkpt lat="45.56315" lon="6.7501">
        <ele>1076.81</ele>
        <time>2016-08-06T09:39:55Z</time>
      </trkpt>
      <trkpt lat="45.56326" lon="6.75009">
        <ele>1075.85</ele>
        <time>2016-08-06T09:39:56Z</time>
      </trkpt>
      <trkpt lat="45.56336" lon="6.7501">
        <ele>1074.89</ele>
        <time>2016-08-06T09:39:57Z</time>
      </trkpt>
      <trkpt lat="45.56345" lon="6.75013">
        <ele>1073.45</ele>
        <time>2016-08-06T09:39:58Z</time>
      </trkpt>
      <trkpt lat="45.56354" lon="6.75021">
        <ele>1072.49</ele>
        <time>2016-08-06T09:39:59Z</time>
      </trkpt>
      <trkpt lat="45.56389" lon="6.75062">
        <ele>1069.12</ele>
        <time>2016-08-06T09:40:03Z</time>
      </trkpt>
      <trkpt lat="45.56397" lon="6.75074">
        <ele>1067.68</ele>
        <time>2016-08-06T09:40:04Z</time>
      </trkpt>
      <trkpt lat="45.56403" lon="6.75088">
        <ele>1066.72</ele>
        <time>2016-08-06T09:40:05Z</time>
      </trkpt>
      <trkpt lat="45.56427" lon="6.75143">
        <ele>1063.36</ele>
        <time>2016-08-06T09:40:09Z</time>
      </trkpt>
      <trkpt lat="45.56436" lon="6.75162">
        <ele>1062.87</ele>
        <time>2016-08-06T09:40:11Z</time>
      </trkpt>
      <trkpt lat="45.56445" lon="6.75167">
        <ele>1062.87</ele>
        <time>2016-08-06T09:40:13Z</time>
      </trkpt>
      <trkpt lat="45.56454" lon="6.75151">
        <ele>1061.91</ele>
        <time>2016-08-06T09:40:15Z</time>
      </trkpt>
      <trkpt lat="45.56453" lon="6.75144">
        <ele>1061.43</ele>
        <time>2016-08-06T09:40:16Z</time>
      </trkpt>
      <trkpt lat="45.56452" lon="6.75137">
        <ele>1060.47</ele>
        <time>2016-08-06T09:40:17Z</time>
      </trkpt>
      <trkpt lat="45.56445" lon="6.75117">
        <ele>1058.55</ele>
        <time>2016-08-06T09:40:19Z</time>
      </trkpt>
      <trkpt lat="45.56422" lon="6.7508">
        <ele>1056.15</ele>
        <time>2016-08-06T09:40:22Z</time>
      </trkpt>
      <trkpt lat="45.56399" lon="6.75036">
        <ele>1054.22</ele>
        <time>2016-08-06T09:40:25Z</time>
      </trkpt>
      <trkpt lat="45.56369" lon="6.74977">
        <ele>1050.38</ele>
        <time>2016-08-06T09:40:29Z</time>
      </trkpt>
      <trkpt lat="45.5636" lon="6.74962">
        <ele>1049.42</ele>
        <time>2016-08-06T09:40:30Z</time>
      </trkpt>
      <trkpt lat="45.56335" lon="6.74926">
        <ele>1046.05</ele>
        <time>2016-08-06T09:40:33Z</time>
      </trkpt>
      <trkpt lat="45.56299" lon="6.74901">
        <ele>1042.21</ele>
        <time>2016-08-06T09:40:37Z</time>
      </trkpt>
      <trkpt lat="45.56279" lon="6.74907">
        <ele>1040.76</ele>
        <time>2016-08-06T09:40:39Z</time>
      </trkpt>
      <trkpt lat="45.56266" lon="6.74911">
        <ele>1039.32</ele>
        <time>2016-08-06T09:40:40Z</time>
      </trkpt>
      <trkpt lat="45.56255" lon="6.74911">
        <ele>1038.36</ele>
        <time>2016-08-06T09:40:41Z</time>
      </trkpt>
      <trkpt lat="45.56246" lon="6.74909">
        <ele>1037.4</ele>
        <time>2016-08-06T09:40:42Z</time>
      </trkpt>
      <trkpt lat="45.56222" lon="6.749">
        <ele>1035</ele>
        <time>2016-08-06T09:40:44Z</time>
      </trkpt>
      <trkpt lat="45.56187" lon="6.74884">
        <ele>1032.11</ele>
        <time>2016-08-06T09:40:47Z</time>
      </trkpt>
      <trkpt lat="45.56147" lon="6.7486">
        <ele>1028.75</ele>
        <time>2016-08-06T09:40:50Z</time>
      </trkpt>
      <trkpt lat="45.56107" lon="6.74833">
        <ele>1025.38</ele>
        <time>2016-08-06T09:40:53Z</time>
      </trkpt>
      <trkpt lat="45.56096" lon="6.74821">
        <ele>1023.94</ele>
        <time>2016-08-06T09:40:54Z</time>
      </trkpt>
      <trkpt lat="45.56087" lon="6.74809">
        <ele>1023.46</ele>
        <time>2016-08-06T09:40:55Z</time>
      </trkpt>
      <trkpt lat="45.56078" lon="6.74792">
        <ele>1022.02</ele>
        <time>2016-08-06T09:40:56Z</time>
      </trkpt>
      <trkpt lat="45.56074" lon="6.74774">
        <ele>1020.1</ele>
        <time>2016-08-06T09:40:58Z</time>
      </trkpt>
      <trkpt lat="45.56069" lon="6.74768">
        <ele>1019.62</ele>
        <time>2016-08-06T09:40:59Z</time>
      </trkpt>
      <trkpt lat="45.56068" lon="6.74768">
        <ele>1019.62</ele>
        <time>2016-08-06T09:41:00Z</time>
      </trkpt>
      <trkpt lat="45.56066" lon="6.74772">
        <ele>1018.65</ele>
        <time>2016-08-06T09:41:01Z</time>
      </trkpt>
      <trkpt lat="45.56058" lon="6.74776">
        <ele>1017.69</ele>
        <time>2016-08-06T09:41:02Z</time>
      </trkpt>
      <trkpt lat="45.56047" lon="6.74775">
        <ele>1015.77</ele>
        <time>2016-08-06T09:41:03Z</time>
      </trkpt>
      <trkpt lat="45.56037" lon="6.7477">
        <ele>1014.81</ele>
        <time>2016-08-06T09:41:04Z</time>
      </trkpt>
      <trkpt lat="45.56026" lon="6.74761">
        <ele>1013.85</ele>
        <time>2016-08-06T09:41:05Z</time>
      </trkpt>
      <trkpt lat="45.55996" lon="6.74728">
        <ele>1010.96</ele>
        <time>2016-08-06T09:41:08Z</time>
      </trkpt>
      <trkpt lat="45.55984" lon="6.74717">
        <ele>1009.52</ele>
        <time>2016-08-06T09:41:09Z</time>
      </trkpt>
      <trkpt lat="45.55956" lon="6.74687">
        <ele>1006.16</ele>
        <time>2016-08-06T09:41:12Z</time>
      </trkpt>
      <trkpt lat="45.55946" lon="6.74679">
        <ele>1005.68</ele>
        <time>2016-08-06T09:41:13Z</time>
      </trkpt>
      <trkpt lat="45.55926" lon="6.74669">
        <ele>1003.27</ele>
        <time>2016-08-06T09:41:15Z</time>
      </trkpt>
      <trkpt lat="45.55917" lon="6.74671">
        <ele>1002.31</ele>
        <time>2016-08-06T09:41:16Z</time>
      </trkpt>
      <trkpt lat="45.5591" lon="6.74675">
        <ele>1001.35</ele>
        <time>2016-08-06T09:41:17Z</time>
      </trkpt>
      <trkpt lat="45.559" lon="6.74679">
        <ele>1000.87</ele>
        <time>2016-08-06T09:41:18Z</time>
      </trkpt>
      <trkpt lat="45.55896" lon="6.74678">
        <ele>999.91</ele>
        <time>2016-08-06T09:41:19Z</time>
      </trkpt>
      <trkpt lat="45.55893" lon="6.74673">
        <ele>998.95</ele>
        <time>2016-08-06T09:41:20Z</time>
      </trkpt>
      <trkpt lat="45.55891" lon="6.74666">
        <ele>998.47</ele>
        <time>2016-08-06T09:41:21Z</time>
      </trkpt>
      <trkpt lat="45.55889" lon="6.74659">
        <ele>997.99</ele>
        <time>2016-08-06T09:41:22Z</time>
      </trkpt>
      <trkpt lat="45.55903" lon="6.74653">
        <ele>995.58</ele>
        <time>2016-08-06T09:41:25Z</time>
      </trkpt>
      <trkpt lat="45.55935" lon="6.74661">
        <ele>992.22</ele>
        <time>2016-08-06T09:41:29Z</time>
      </trkpt>
      <trkpt lat="45.55946" lon="6.74666">
        <ele>990.78</ele>
        <time>2016-08-06T09:41:30Z</time>
      </trkpt>
      <trkpt lat="45.55983" lon="6.74684">
        <ele>987.89</ele>
        <time>2016-08-06T09:41:34Z</time>
      </trkpt>
      <trkpt lat="45.55995" lon="6.74689">
        <ele>986.45</ele>
        <time>2016-08-06T09:41:35Z</time>
      </trkpt>
      <trkpt lat="45.56006" lon="6.74691">
        <ele>985.01</ele>
        <time>2016-08-06T09:41:36Z</time>
      </trkpt>
      <trkpt lat="45.56018" lon="6.74692">
        <ele>984.05</ele>
        <time>2016-08-06T09:41:37Z</time>
      </trkpt>
      <trkpt lat="45.5605" lon="6.74692">
        <ele>980.2</ele>
        <time>2016-08-06T09:41:40Z</time>
      </trkpt>
      <trkpt lat="45.56068" lon="6.74693">
        <ele>978.76</ele>
        <time>2016-08-06T09:41:41Z</time>
      </trkpt>
      <trkpt lat="45.56092" lon="6.74701">
        <ele>975.88</ele>
        <time>2016-08-06T09:41:43Z</time>
      </trkpt>
      <trkpt lat="45.56119" lon="6.74709">
        <ele>973.47</ele>
        <time>2016-08-06T09:41:45Z</time>
      </trkpt>
      <trkpt lat="45.56132" lon="6.7471">
        <ele>971.55</ele>
        <time>2016-08-06T09:41:46Z</time>
      </trkpt>
      <trkpt lat="45.56146" lon="6.74711">
        <ele>970.59</ele>
        <time>2016-08-06T09:41:47Z</time>
      </trkpt>
      <trkpt lat="45.56162" lon="6.74714">
        <ele>969.15</ele>
        <time>2016-08-06T09:41:48Z</time>
      </trkpt>
      <trkpt lat="45.56189" lon="6.74718">
        <ele>967.22</ele>
        <time>2016-08-06T09:41:50Z</time>
      </trkpt>
      <trkpt lat="45.56201" lon="6.74715">
        <ele>965.3</ele>
        <time>2016-08-06T09:41:51Z</time>
      </trkpt>
      <trkpt lat="45.56242" lon="6.747">
        <ele>961.94</ele>
        <time>2016-08-06T09:41:54Z</time>
      </trkpt>
      <trkpt lat="45.56256" lon="6.74697">
        <ele>960.49</ele>
        <time>2016-08-06T09:41:55Z</time>
      </trkpt>
      <trkpt lat="45.56286" lon="6.74688">
        <ele>958.57</ele>
        <time>2016-08-06T09:41:57Z</time>
      </trkpt>
      <trkpt lat="45.56301" lon="6.7468">
        <ele>957.13</ele>
        <time>2016-08-06T09:41:58Z</time>
      </trkpt>
      <trkpt lat="45.56316" lon="6.7467">
        <ele>956.17</ele>
        <time>2016-08-06T09:41:59Z</time>
      </trkpt>
      <trkpt lat="45.56328" lon="6.74659">
        <ele>954.73</ele>
        <time>2016-08-06T09:42:00Z</time>
      </trkpt>
      <trkpt lat="45.56351" lon="6.74636">
        <ele>952.32</ele>
        <time>2016-08-06T09:42:02Z</time>
      </trkpt>
      <trkpt lat="45.56363" lon="6.74629">
        <ele>951.36</ele>
        <time>2016-08-06T09:42:03Z</time>
      </trkpt>
      <trkpt lat="45.56375" lon="6.74624">
        <ele>950.4</ele>
        <time>2016-08-06T09:42:04Z</time>
      </trkpt>
      <trkpt lat="45.56387" lon="6.74623">
        <ele>948.96</ele>
        <time>2016-08-06T09:42:05Z</time>
      </trkpt>
      <trkpt lat="45.56433" lon="6.74682">
        <ele>944.63</ele>
        <time>2016-08-06T09:42:10Z</time>
      </trkpt>
      <trkpt lat="45.56455" lon="6.74728">
        <ele>942.23</ele>
        <time>2016-08-06T09:42:13Z</time>
      </trkpt>
      <trkpt lat="45.56466" lon="6.74749">
        <ele>940.79</ele>
        <time>2016-08-06T09:42:15Z</time>
      </trkpt>
      <trkpt lat="45.56472" lon="6.74757">
        <ele>940.31</ele>
        <time>2016-08-06T09:42:16Z</time>
      </trkpt>
      <trkpt lat="45.56478" lon="6.74763">
        <ele>939.35</ele>
        <time>2016-08-06T09:42:17Z</time>
      </trkpt>
      <trkpt lat="45.56484" lon="6.74766">
        <ele>939.35</ele>
        <time>2016-08-06T09:42:18Z</time>
      </trkpt>
      <trkpt lat="45.56489" lon="6.74766">
        <ele>938.86</ele>
        <time>2016-08-06T09:42:19Z</time>
      </trkpt>
      <trkpt lat="45.56492" lon="6.74765">
        <ele>938.38</ele>
        <time>2016-08-06T09:42:20Z</time>
      </trkpt>
      <trkpt lat="45.56496" lon="6.74762">
        <ele>937.9</ele>
        <time>2016-08-06T09:42:21Z</time>
      </trkpt>
      <trkpt lat="45.56496" lon="6.74749">
        <ele>936.46</ele>
        <time>2016-08-06T09:42:22Z</time>
      </trkpt>
      <trkpt lat="45.56496" lon="6.74737">
        <ele>935.02</ele>
        <time>2016-08-06T09:42:23Z</time>
      </trkpt>
      <trkpt lat="45.56495" lon="6.74724">
        <ele>934.06</ele>
        <time>2016-08-06T09:42:24Z</time>
      </trkpt>
      <trkpt lat="45.56494" lon="6.74707">
        <ele>932.62</ele>
        <time>2016-08-06T09:42:25Z</time>
      </trkpt>
      <trkpt lat="45.56489" lon="6.74689">
        <ele>931.17</ele>
        <time>2016-08-06T09:42:26Z</time>
      </trkpt>
      <trkpt lat="45.56488" lon="6.74679">
        <ele>930.21</ele>
        <time>2016-08-06T09:42:27Z</time>
      </trkpt>
      <trkpt lat="45.56499" lon="6.74652">
        <ele>927.81</ele>
        <time>2016-08-06T09:42:29Z</time>
      </trkpt>
      <trkpt lat="45.5653" lon="6.74637">
        <ele>925.41</ele>
        <time>2016-08-06T09:42:30Z</time>
      </trkpt>
      <trkpt lat="45.56537" lon="6.74627">
        <ele>924.93</ele>
        <time>2016-08-06T09:42:31Z</time>
      </trkpt>
      <trkpt lat="45.56557" lon="6.74604">
        <ele>922.52</ele>
        <time>2016-08-06T09:42:34Z</time>
      </trkpt>
      <trkpt lat="45.5656" lon="6.74594">
        <ele>922.52</ele>
        <time>2016-08-06T09:42:35Z</time>
      </trkpt>
      <trkpt lat="45.56559" lon="6.74587">
        <ele>921.56</ele>
        <time>2016-08-06T09:42:36Z</time>
      </trkpt>
      <trkpt lat="45.56553" lon="6.74583">
        <ele>921.08</ele>
        <time>2016-08-06T09:42:37Z</time>
      </trkpt>
      <trkpt lat="45.56547" lon="6.74584">
        <ele>920.12</ele>
        <time>2016-08-06T09:42:38Z</time>
      </trkpt>
      <trkpt lat="45.56514" lon="6.74609">
        <ele>917.72</ele>
        <time>2016-08-06T09:42:43Z</time>
      </trkpt>
      <trkpt lat="45.56507" lon="6.74606">
        <ele>916.75</ele>
        <time>2016-08-06T09:42:44Z</time>
      </trkpt>
      <trkpt lat="45.56503" lon="6.7458">
        <ele>914.35</ele>
        <time>2016-08-06T09:42:47Z</time>
      </trkpt>
      <trkpt lat="45.56511" lon="6.74569">
        <ele>911.95</ele>
        <time>2016-08-06T09:42:49Z</time>
      </trkpt>
      <trkpt lat="45.56519" lon="6.74565">
        <ele>911.95</ele>
        <time>2016-08-06T09:42:50Z</time>
      </trkpt>
      <trkpt lat="45.56527" lon="6.74559">
        <ele>910.99</ele>
        <time>2016-08-06T09:42:51Z</time>
      </trkpt>
      <trkpt lat="45.56532" lon="6.74555">
        <ele>910.99</ele>
        <time>2016-08-06T09:42:52Z</time>
      </trkpt>
      <trkpt lat="45.56553" lon="6.74537">
        <ele>909.54</ele>
        <time>2016-08-06T09:42:54Z</time>
      </trkpt>
      <trkpt lat="45.56556" lon="6.74529">
        <ele>909.06</ele>
        <time>2016-08-06T09:42:55Z</time>
      </trkpt>
      <trkpt lat="45.56555" lon="6.74522">
        <ele>909.06</ele>
        <time>2016-08-06T09:42:56Z</time>
      </trkpt>
      <trkpt lat="45.56551" lon="6.74514">
        <ele>907.62</ele>
        <time>2016-08-06T09:42:57Z</time>
      </trkpt>
      <trkpt lat="45.5655" lon="6.74514">
        <ele>907.14</ele>
        <time>2016-08-06T09:42:58Z</time>
      </trkpt>
      <trkpt lat="45.56532" lon="6.74523">
        <ele>904.74</ele>
        <time>2016-08-06T09:43:01Z</time>
      </trkpt>
      <trkpt lat="45.56523" lon="6.74526">
        <ele>903.78</ele>
        <time>2016-08-06T09:43:02Z</time>
      </trkpt>
      <trkpt lat="45.56513" lon="6.74529">
        <ele>902.33</ele>
        <time>2016-08-06T09:43:03Z</time>
      </trkpt>
      <trkpt lat="45.56503" lon="6.7453">
        <ele>902.33</ele>
        <time>2016-08-06T09:43:04Z</time>
      </trkpt>
      <trkpt lat="45.56481" lon="6.74527">
        <ele>900.41</ele>
        <time>2016-08-06T09:43:06Z</time>
      </trkpt>
      <trkpt lat="45.5647" lon="6.74523">
        <ele>898.97</ele>
        <time>2016-08-06T09:43:07Z</time>
      </trkpt>
      <trkpt lat="45.56448" lon="6.74511">
        <ele>897.05</ele>
        <time>2016-08-06T09:43:09Z</time>
      </trkpt>
      <trkpt lat="45.56424" lon="6.74499">
        <ele>894.16</ele>
        <time>2016-08-06T09:43:11Z</time>
      </trkpt>
      <trkpt lat="45.56391" lon="6.74475">
        <ele>890.8</ele>
        <time>2016-08-06T09:43:15Z</time>
      </trkpt>
      <trkpt lat="45.56386" lon="6.74467">
        <ele>890.32</ele>
        <time>2016-08-06T09:43:16Z</time>
      </trkpt>
      <trkpt lat="45.56384" lon="6.74459">
        <ele>889.36</ele>
        <time>2016-08-06T09:43:17Z</time>
      </trkpt>
      <trkpt lat="45.56382" lon="6.7445">
        <ele>887.91</ele>
        <time>2016-08-06T09:43:19Z</time>
      </trkpt>
      <trkpt lat="45.5638" lon="6.74448">
        <ele>886.95</ele>
        <time>2016-08-06T09:43:20Z</time>
      </trkpt>
      <trkpt lat="45.56377" lon="6.74449">
        <ele>885.99</ele>
        <time>2016-08-06T09:43:22Z</time>
      </trkpt>
      <trkpt lat="45.56378" lon="6.74452">
        <ele>885.03</ele>
        <time>2016-08-06T09:43:23Z</time>
      </trkpt>
      <trkpt lat="45.5638" lon="6.74443">
        <ele>883.11</ele>
        <time>2016-08-06T09:43:25Z</time>
      </trkpt>
      <trkpt lat="45.56383" lon="6.74434">
        <ele>882.63</ele>
        <time>2016-08-06T09:43:26Z</time>
      </trkpt>
      <trkpt lat="45.5641" lon="6.74428">
        <ele>880.22</ele>
        <time>2016-08-06T09:43:28Z</time>
      </trkpt>
      <trkpt lat="45.56422" lon="6.74428">
        <ele>877.82</ele>
        <time>2016-08-06T09:43:29Z</time>
      </trkpt>
      <trkpt lat="45.56463" lon="6.7443">
        <ele>874.46</ele>
        <time>2016-08-06T09:43:32Z</time>
      </trkpt>
      <trkpt lat="45.56478" lon="6.74427">
        <ele>873.01</ele>
        <time>2016-08-06T09:43:33Z</time>
      </trkpt>
      <trkpt lat="45.56492" lon="6.74423">
        <ele>871.57</ele>
        <time>2016-08-06T09:43:34Z</time>
      </trkpt>
      <trkpt lat="45.56508" lon="6.74419">
        <ele>870.61</ele>
        <time>2016-08-06T09:43:35Z</time>
      </trkpt>
      <trkpt lat="45.56523" lon="6.74414">
        <ele>868.69</ele>
        <time>2016-08-06T09:43:36Z</time>
      </trkpt>
      <trkpt lat="45.56535" lon="6.74408">
        <ele>867.73</ele>
        <time>2016-08-06T09:43:37Z</time>
      </trkpt>
      <trkpt lat="45.56547" lon="6.74401">
        <ele>865.8</ele>
        <time>2016-08-06T09:43:38Z</time>
      </trkpt>
      <trkpt lat="45.56567" lon="6.74381">
        <ele>862.44</ele>
        <time>2016-08-06T09:43:40Z</time>
      </trkpt>
      <trkpt lat="45.56584" lon="6.7436">
        <ele>859.56</ele>
        <time>2016-08-06T09:43:42Z</time>
      </trkpt>
      <trkpt lat="45.566" lon="6.74331">
        <ele>855.71</ele>
        <time>2016-08-06T09:43:43Z</time>
      </trkpt>
      <trkpt lat="45.56616" lon="6.74317">
        <ele>853.79</ele>
        <time>2016-08-06T09:43:44Z</time>
      </trkpt>
      <trkpt lat="45.56684" lon="6.74288">
        <ele>848.5</ele>
        <time>2016-08-06T09:43:48Z</time>
      </trkpt>
      <trkpt lat="45.5673" lon="6.74272">
        <ele>844.66</ele>
        <time>2016-08-06T09:43:51Z</time>
      </trkpt>
      <trkpt lat="45.56741" lon="6.74266">
        <ele>843.21</ele>
        <time>2016-08-06T09:43:52Z</time>
      </trkpt>
      <trkpt lat="45.56765" lon="6.74256">
        <ele>841.77</ele>
        <time>2016-08-06T09:43:54Z</time>
      </trkpt>
      <trkpt lat="45.56788" lon="6.74212">
        <ele>837.93</ele>
        <time>2016-08-06T09:43:58Z</time>
      </trkpt>
      <trkpt lat="45.56788" lon="6.74198">
        <ele>836.96</ele>
        <time>2016-08-06T09:43:59Z</time>
      </trkpt>
      <trkpt lat="45.56816" lon="6.74158">
        <ele>833.12</ele>
        <time>2016-08-06T09:44:02Z</time>
      </trkpt>
      <trkpt lat="45.5683" lon="6.74153">
        <ele>832.16</ele>
        <time>2016-08-06T09:44:03Z</time>
      </trkpt>
      <trkpt lat="45.56853" lon="6.74146">
        <ele>830.24</ele>
        <time>2016-08-06T09:44:05Z</time>
      </trkpt>
      <trkpt lat="45.56862" lon="6.74136">
        <ele>829.27</ele>
        <time>2016-08-06T09:44:06Z</time>
      </trkpt>
      <trkpt lat="45.56872" lon="6.74128">
        <ele>828.31</ele>
        <time>2016-08-06T09:44:07Z</time>
      </trkpt>
      <trkpt lat="45.56884" lon="6.74108">
        <ele>826.87</ele>
        <time>2016-08-06T09:44:09Z</time>
      </trkpt>
      <trkpt lat="45.56894" lon="6.74046">
        <ele>823.99</ele>
        <time>2016-08-06T09:44:14Z</time>
      </trkpt>
      <trkpt lat="45.56913" lon="6.74011">
        <ele>822.55</ele>
        <time>2016-08-06T09:44:17Z</time>
      </trkpt>
      <trkpt lat="45.56936" lon="6.73967">
        <ele>820.14</ele>
        <time>2016-08-06T09:44:21Z</time>
      </trkpt>
      <trkpt lat="45.56944" lon="6.73955">
        <ele>818.7</ele>
        <time>2016-08-06T09:44:22Z</time>
      </trkpt>
      <trkpt lat="45.56949" lon="6.7395">
        <ele>818.22</ele>
        <time>2016-08-06T09:44:23Z</time>
      </trkpt>
      <trkpt lat="45.56957" lon="6.73944">
        <ele>817.26</ele>
        <time>2016-08-06T09:44:24Z</time>
      </trkpt>
      <trkpt lat="45.56988" lon="6.73918">
        <ele>813.89</ele>
        <time>2016-08-06T09:44:28Z</time>
      </trkpt>
      <trkpt lat="45.56997" lon="6.7391">
        <ele>812.93</ele>
        <time>2016-08-06T09:44:29Z</time>
      </trkpt>
      <trkpt lat="45.57004" lon="6.73903">
        <ele>812.45</ele>
        <time>2016-08-06T09:44:30Z</time>
      </trkpt>
      <trkpt lat="45.57045" lon="6.73845">
        <ele>810.05</ele>
        <time>2016-08-06T09:44:37Z</time>
      </trkpt>
      <trkpt lat="45.57045" lon="6.73788">
        <ele>810.05</ele>
        <time>2016-08-06T09:44:45Z</time>
      </trkpt>
      <trkpt lat="45.57022" lon="6.73683">
        <ele>809.09</ele>
        <time>2016-08-06T09:44:59Z</time>
      </trkpt>
      <trkpt lat="45.57019" lon="6.73677">
        <ele>809.09</ele>
        <time>2016-08-06T09:45:00Z</time>
      </trkpt>
      <trkpt lat="45.57017" lon="6.73672">
        <ele>809.09</ele>
        <time>2016-08-06T09:45:01Z</time>
      </trkpt>
      <trkpt lat="45.57014" lon="6.73665">
        <ele>808.13</ele>
        <time>2016-08-06T09:45:02Z</time>
      </trkpt>
      <trkpt lat="45.57012" lon="6.73657">
        <ele>808.13</ele>
        <time>2016-08-06T09:45:03Z</time>
      </trkpt>
      <trkpt lat="45.57011" lon="6.73649">
        <ele>807.64</ele>
        <time>2016-08-06T09:45:04Z</time>
      </trkpt>
      <trkpt lat="45.56988" lon="6.73545">
        <ele>803.8</ele>
        <time>2016-08-06T09:45:15Z</time>
      </trkpt>
      <trkpt lat="45.5696" lon="6.73454">
        <ele>800.92</ele>
        <time>2016-08-06T09:45:24Z</time>
      </trkpt>
      <trkpt lat="45.56941" lon="6.73394">
        <ele>797.55</ele>
        <time>2016-08-06T09:45:29Z</time>
      </trkpt>
      <trkpt lat="45.56938" lon="6.73382">
        <ele>797.55</ele>
        <time>2016-08-06T09:45:30Z</time>
      </trkpt>
      <trkpt lat="45.56931" lon="6.73342">
        <ele>796.11</ele>
        <time>2016-08-06T09:45:33Z</time>
      </trkpt>
      <trkpt lat="45.56921" lon="6.73256">
        <ele>792.74</ele>
        <time>2016-08-06T09:45:39Z</time>
      </trkpt>
      <trkpt lat="45.56909" lon="6.73171">
        <ele>789.38</ele>
        <time>2016-08-06T09:45:45Z</time>
      </trkpt>
      <trkpt lat="45.56898" lon="6.7308">
        <ele>786.02</ele>
        <time>2016-08-06T09:45:51Z</time>
      </trkpt>
      <trkpt lat="45.56892" lon="6.73034">
        <ele>784.57</ele>
        <time>2016-08-06T09:45:54Z</time>
      </trkpt>
      <trkpt lat="45.56884" lon="6.72992">
        <ele>783.61</ele>
        <time>2016-08-06T09:45:57Z</time>
      </trkpt>
      <trkpt lat="45.56881" lon="6.72978">
        <ele>783.61</ele>
        <time>2016-08-06T09:45:58Z</time>
      </trkpt>
      <trkpt lat="45.56876" lon="6.72966">
        <ele>783.61</ele>
        <time>2016-08-06T09:45:59Z</time>
      </trkpt>
      <trkpt lat="45.56827" lon="6.72871">
        <ele>779.77</ele>
        <time>2016-08-06T09:46:07Z</time>
      </trkpt>
      <trkpt lat="45.56821" lon="6.72858">
        <ele>778.81</ele>
        <time>2016-08-06T09:46:08Z</time>
      </trkpt>
      <trkpt lat="45.56816" lon="6.72845">
        <ele>778.81</ele>
        <time>2016-08-06T09:46:09Z</time>
      </trkpt>
      <trkpt lat="45.56814" lon="6.7283">
        <ele>778.32</ele>
        <time>2016-08-06T09:46:10Z</time>
      </trkpt>
      <trkpt lat="45.56812" lon="6.72815">
        <ele>777.36</ele>
        <time>2016-08-06T09:46:11Z</time>
      </trkpt>
      <trkpt lat="45.56812" lon="6.728">
        <ele>777.36</ele>
        <time>2016-08-06T09:46:12Z</time>
      </trkpt>
      <trkpt lat="45.56813" lon="6.72785">
        <ele>776.88</ele>
        <time>2016-08-06T09:46:13Z</time>
      </trkpt>
      <trkpt lat="45.56815" lon="6.72771">
        <ele>776.88</ele>
        <time>2016-08-06T09:46:14Z</time>
      </trkpt>
      <trkpt lat="45.56818" lon="6.72756">
        <ele>776.4</ele>
        <time>2016-08-06T09:46:15Z</time>
      </trkpt>
      <trkpt lat="45.56839" lon="6.72567">
        <ele>773.52</ele>
        <time>2016-08-06T09:46:29Z</time>
      </trkpt>
      <trkpt lat="45.56817" lon="6.72415">
        <ele>771.6</ele>
        <time>2016-08-06T09:46:42Z</time>
      </trkpt>
      <trkpt lat="45.56786" lon="6.72316">
        <ele>770.15</ele>
        <time>2016-08-06T09:46:52Z</time>
      </trkpt>
      <trkpt lat="45.56786" lon="6.72306">
        <ele>769.67</ele>
        <time>2016-08-06T09:46:53Z</time>
      </trkpt>
      <trkpt lat="45.56787" lon="6.72244">
        <ele>768.23</ele>
        <time>2016-08-06T09:46:59Z</time>
      </trkpt>
      <trkpt lat="45.56784" lon="6.72225">
        <ele>768.23</ele>
        <time>2016-08-06T09:47:01Z</time>
      </trkpt>
      <trkpt lat="45.56765" lon="6.72142">
        <ele>767.27</ele>
        <time>2016-08-06T09:47:10Z</time>
      </trkpt>
      <trkpt lat="45.56762" lon="6.72121">
        <ele>766.79</ele>
        <time>2016-08-06T09:47:12Z</time>
      </trkpt>
      <trkpt lat="45.56762" lon="6.7211">
        <ele>766.79</ele>
        <time>2016-08-06T09:47:13Z</time>
      </trkpt>
      <trkpt lat="45.56762" lon="6.721">
        <ele>766.79</ele>
        <time>2016-08-06T09:47:14Z</time>
      </trkpt>
      <trkpt lat="45.56764" lon="6.72079">
        <ele>766.31</ele>
        <time>2016-08-06T09:47:16Z</time>
      </trkpt>
      <trkpt lat="45.56763" lon="6.7207">
        <ele>766.31</ele>
        <time>2016-08-06T09:47:17Z</time>
      </trkpt>
      <trkpt lat="45.56762" lon="6.72061">
        <ele>766.31</ele>
        <time>2016-08-06T09:47:18Z</time>
      </trkpt>
      <trkpt lat="45.56759" lon="6.72052">
        <ele>765.83</ele>
        <time>2016-08-06T09:47:19Z</time>
      </trkpt>
      <trkpt lat="45.56755" lon="6.72043">
        <ele>765.35</ele>
        <time>2016-08-06T09:47:20Z</time>
      </trkpt>
      <trkpt lat="45.56752" lon="6.72035">
        <ele>765.35</ele>
        <time>2016-08-06T09:47:21Z</time>
      </trkpt>
      <trkpt lat="45.56741" lon="6.7201">
        <ele>764.87</ele>
        <time>2016-08-06T09:47:24Z</time>
      </trkpt>
      <trkpt lat="45.56738" lon="6.72001">
        <ele>764.87</ele>
        <time>2016-08-06T09:47:25Z</time>
      </trkpt>
      <trkpt lat="45.56737" lon="6.71992">
        <ele>764.87</ele>
        <time>2016-08-06T09:47:26Z</time>
      </trkpt>
      <trkpt lat="45.56736" lon="6.71982">
        <ele>764.87</ele>
        <time>2016-08-06T09:47:27Z</time>
      </trkpt>
      <trkpt lat="45.56737" lon="6.71973">
        <ele>764.87</ele>
        <time>2016-08-06T09:47:28Z</time>
      </trkpt>
      <trkpt lat="45.56738" lon="6.71963">
        <ele>764.39</ele>
        <time>2016-08-06T09:47:29Z</time>
      </trkpt>
      <trkpt lat="45.56741" lon="6.71953">
        <ele>764.39</ele>
        <time>2016-08-06T09:47:30Z</time>
      </trkpt>
      <trkpt lat="45.56743" lon="6.71944">
        <ele>764.39</ele>
        <time>2016-08-06T09:47:31Z</time>
      </trkpt>
      <trkpt lat="45.56762" lon="6.71888">
        <ele>762.46</ele>
        <time>2016-08-06T09:47:37Z</time>
      </trkpt>
      <trkpt lat="45.56763" lon="6.71878">
        <ele>762.46</ele>
        <time>2016-08-06T09:47:38Z</time>
      </trkpt>
      <trkpt lat="45.56762" lon="6.71868">
        <ele>761.98</ele>
        <time>2016-08-06T09:47:39Z</time>
      </trkpt>
      <trkpt lat="45.5676" lon="6.71857">
        <ele>761.98</ele>
        <time>2016-08-06T09:47:40Z</time>
      </trkpt>
      <trkpt lat="45.56757" lon="6.71847">
        <ele>761.98</ele>
        <time>2016-08-06T09:47:41Z</time>
      </trkpt>
      <trkpt lat="45.56752" lon="6.71837">
        <ele>761.02</ele>
        <time>2016-08-06T09:47:42Z</time>
      </trkpt>
      <trkpt lat="45.56747" lon="6.71828">
        <ele>761.02</ele>
        <time>2016-08-06T09:47:43Z</time>
      </trkpt>
      <trkpt lat="45.56699" lon="6.7173">
        <ele>758.14</ele>
        <time>2016-08-06T09:47:53Z</time>
      </trkpt>
      <trkpt lat="45.56676" lon="6.71665">
        <ele>756.69</ele>
        <time>2016-08-06T09:47:59Z</time>
      </trkpt>
      <trkpt lat="45.56661" lon="6.71528">
        <ele>755.25</ele>
        <time>2016-08-06T09:48:11Z</time>
      </trkpt>
      <trkpt lat="45.56634" lon="6.71434">
        <ele>755.25</ele>
        <time>2016-08-06T09:48:23Z</time>
      </trkpt>
      <trkpt lat="45.56628" lon="6.71414">
        <ele>756.69</ele>
        <time>2016-08-06T09:48:26Z</time>
      </trkpt>
      <trkpt lat="45.56626" lon="6.71407">
        <ele>757.18</ele>
        <time>2016-08-06T09:48:27Z</time>
      </trkpt>
      <trkpt lat="45.56624" lon="6.71401">
        <ele>757.18</ele>
        <time>2016-08-06T09:48:28Z</time>
      </trkpt>
      <trkpt lat="45.5662" lon="6.71383">
        <ele>758.14</ele>
        <time>2016-08-06T09:48:31Z</time>
      </trkpt>
      <trkpt lat="45.56608" lon="6.71339">
        <ele>759.1</ele>
        <time>2016-08-06T09:48:40Z</time>
      </trkpt>
      <trkpt lat="45.56586" lon="6.71318">
        <ele>759.1</ele>
        <time>2016-08-06T09:48:47Z</time>
      </trkpt>
      <trkpt lat="45.56583" lon="6.71313">
        <ele>759.1</ele>
        <time>2016-08-06T09:48:48Z</time>
      </trkpt>
      <trkpt lat="45.5658" lon="6.71308">
        <ele>759.1</ele>
        <time>2016-08-06T09:48:49Z</time>
      </trkpt>
      <trkpt lat="45.56578" lon="6.71302">
        <ele>759.1</ele>
        <time>2016-08-06T09:48:50Z</time>
      </trkpt>
      <trkpt lat="45.56576" lon="6.71295">
        <ele>759.1</ele>
        <time>2016-08-06T09:48:51Z</time>
      </trkpt>
      <trkpt lat="45.5654" lon="6.71218">
        <ele>761.02</ele>
        <time>2016-08-06T09:49:06Z</time>
      </trkpt>
      <trkpt lat="45.56521" lon="6.7116">
        <ele>762.46</ele>
        <time>2016-08-06T09:49:17Z</time>
      </trkpt>
      <trkpt lat="45.56524" lon="6.71065">
        <ele>764.39</ele>
        <time>2016-08-06T09:49:33Z</time>
      </trkpt>
      <trkpt lat="45.56525" lon="6.71041">
        <ele>764.39</ele>
        <time>2016-08-06T09:49:37Z</time>
      </trkpt>
      <trkpt lat="45.56521" lon="6.70998">
        <ele>765.35</ele>
        <time>2016-08-06T09:49:44Z</time>
      </trkpt>
      <trkpt lat="45.56517" lon="6.70947">
        <ele>765.35</ele>
        <time>2016-08-06T09:49:52Z</time>
      </trkpt>
      <trkpt lat="45.56516" lon="6.70941">
        <ele>765.83</ele>
        <time>2016-08-06T09:49:53Z</time>
      </trkpt>
      <trkpt lat="45.56505" lon="6.70842">
        <ele>766.79</ele>
        <time>2016-08-06T09:50:09Z</time>
      </trkpt>
      <trkpt lat="45.56503" lon="6.70825">
        <ele>767.27</ele>
        <time>2016-08-06T09:50:12Z</time>
      </trkpt>
      <trkpt lat="45.56503" lon="6.70788">
        <ele>767.75</ele>
        <time>2016-08-06T09:50:18Z</time>
      </trkpt>
      <trkpt lat="45.56508" lon="6.70764">
        <ele>768.71</ele>
        <time>2016-08-06T09:50:22Z</time>
      </trkpt>
      <trkpt lat="45.56509" lon="6.70758">
        <ele>769.19</ele>
        <time>2016-08-06T09:50:23Z</time>
      </trkpt>
      <trkpt lat="45.5651" lon="6.70752">
        <ele>769.19</ele>
        <time>2016-08-06T09:50:24Z</time>
      </trkpt>
      <trkpt lat="45.56512" lon="6.70746">
        <ele>769.19</ele>
        <time>2016-08-06T09:50:25Z</time>
      </trkpt>
      <trkpt lat="45.56513" lon="6.7074">
        <ele>769.19</ele>
        <time>2016-08-06T09:50:26Z</time>
      </trkpt>
      <trkpt lat="45.56513" lon="6.70734">
        <ele>769.19</ele>
        <time>2016-08-06T09:50:27Z</time>
      </trkpt>
      <trkpt lat="45.56514" lon="6.70728">
        <ele>769.19</ele>
        <time>2016-08-06T09:50:28Z</time>
      </trkpt>
      <trkpt lat="45.56514" lon="6.70722">
        <ele>769.67</ele>
        <time>2016-08-06T09:50:29Z</time>
      </trkpt>
      <trkpt lat="45.56513" lon="6.70716">
        <ele>769.67</ele>
        <time>2016-08-06T09:50:30Z</time>
      </trkpt>
      <trkpt lat="45.56499" lon="6.70655">
        <ele>770.63</ele>
        <time>2016-08-06T09:50:41Z</time>
      </trkpt>
      <trkpt lat="45.56494" lon="6.70646">
        <ele>770.63</ele>
        <time>2016-08-06T09:50:43Z</time>
      </trkpt>
      <trkpt lat="45.5649" lon="6.70641">
        <ele>770.63</ele>
        <time>2016-08-06T09:50:44Z</time>
      </trkpt>
      <trkpt lat="45.56488" lon="6.70637">
        <ele>770.63</ele>
        <time>2016-08-06T09:50:45Z</time>
      </trkpt>
      <trkpt lat="45.56484" lon="6.70634">
        <ele>771.11</ele>
        <time>2016-08-06T09:50:46Z</time>
      </trkpt>
      <trkpt lat="45.56481" lon="6.70631">
        <ele>771.11</ele>
        <time>2016-08-06T09:50:47Z</time>
      </trkpt>
      <trkpt lat="45.56477" lon="6.70628">
        <ele>771.11</ele>
        <time>2016-08-06T09:50:48Z</time>
      </trkpt>
      <trkpt lat="45.56469" lon="6.70623">
        <ele>771.6</ele>
        <time>2016-08-06T09:50:50Z</time>
      </trkpt>
      <trkpt lat="45.56465" lon="6.70621">
        <ele>772.08</ele>
        <time>2016-08-06T09:50:51Z</time>
      </trkpt>
      <trkpt lat="45.56461" lon="6.70618">
        <ele>772.08</ele>
        <time>2016-08-06T09:50:52Z</time>
      </trkpt>
      <trkpt lat="45.56429" lon="6.70598">
        <ele>772.08</ele>
        <time>2016-08-06T09:51:00Z</time>
      </trkpt>
      <trkpt lat="45.56425" lon="6.70595">
        <ele>772.56</ele>
        <time>2016-08-06T09:51:01Z</time>
      </trkpt>
      <trkpt lat="45.56419" lon="6.70587">
        <ele>772.56</ele>
        <time>2016-08-06T09:51:03Z</time>
      </trkpt>
      <trkpt lat="45.56412" lon="6.70577">
        <ele>773.04</ele>
        <time>2016-08-06T09:51:05Z</time>
      </trkpt>
      <trkpt lat="45.56381" lon="6.70525">
        <ele>774</ele>
        <time>2016-08-06T09:51:16Z</time>
      </trkpt>
      <trkpt lat="45.56372" lon="6.70504">
        <ele>774.48</ele>
        <time>2016-08-06T09:51:20Z</time>
      </trkpt>
      <trkpt lat="45.56353" lon="6.70413">
        <ele>776.4</ele>
        <time>2016-08-06T09:51:35Z</time>
      </trkpt>
      <trkpt lat="45.56317" lon="6.70335">
        <ele>778.32</ele>
        <time>2016-08-06T09:51:51Z</time>
      </trkpt>
      <trkpt lat="45.56283" lon="6.7026">
        <ele>780.25</ele>
        <time>2016-08-06T09:52:06Z</time>
      </trkpt>
      <trkpt lat="45.56281" lon="6.70255">
        <ele>780.25</ele>
        <time>2016-08-06T09:52:07Z</time>
      </trkpt>
      <trkpt lat="45.56278" lon="6.70239">
        <ele>780.73</ele>
        <time>2016-08-06T09:52:10Z</time>
      </trkpt>
      <trkpt lat="45.56268" lon="6.70193">
        <ele>781.69</ele>
        <time>2016-08-06T09:52:18Z</time>
      </trkpt>
      <trkpt lat="45.56267" lon="6.70187">
        <ele>781.69</ele>
        <time>2016-08-06T09:52:19Z</time>
      </trkpt>
      <trkpt lat="45.56266" lon="6.70181">
        <ele>781.69</ele>
        <time>2016-08-06T09:52:20Z</time>
      </trkpt>
      <trkpt lat="45.56263" lon="6.70164">
        <ele>782.17</ele>
        <time>2016-08-06T09:52:23Z</time>
      </trkpt>
      <trkpt lat="45.56258" lon="6.7014">
        <ele>782.65</ele>
        <time>2016-08-06T09:52:27Z</time>
      </trkpt>
      <trkpt lat="45.5625" lon="6.70048">
        <ele>785.05</ele>
        <time>2016-08-06T09:52:43Z</time>
      </trkpt>
      <trkpt lat="45.56242" lon="6.69963">
        <ele>786.98</ele>
        <time>2016-08-06T09:52:58Z</time>
      </trkpt>
      <trkpt lat="45.56242" lon="6.69957">
        <ele>787.46</ele>
        <time>2016-08-06T09:52:59Z</time>
      </trkpt>
      <trkpt lat="45.56241" lon="6.69951">
        <ele>787.46</ele>
        <time>2016-08-06T09:53:00Z</time>
      </trkpt>
      <trkpt lat="45.56241" lon="6.69946">
        <ele>787.46</ele>
        <time>2016-08-06T09:53:01Z</time>
      </trkpt>
      <trkpt lat="45.56239" lon="6.69928">
        <ele>787.94</ele>
        <time>2016-08-06T09:53:04Z</time>
      </trkpt>
      <trkpt lat="45.56237" lon="6.69916">
        <ele>787.94</ele>
        <time>2016-08-06T09:53:06Z</time>
      </trkpt>
      <trkpt lat="45.56236" lon="6.6991">
        <ele>787.94</ele>
        <time>2016-08-06T09:53:07Z</time>
      </trkpt>
      <trkpt lat="45.56226" lon="6.69856">
        <ele>789.38</ele>
        <time>2016-08-06T09:53:17Z</time>
      </trkpt>
      <trkpt lat="45.56196" lon="6.69775">
        <ele>790.82</ele>
        <time>2016-08-06T09:53:31Z</time>
      </trkpt>
      <trkpt lat="45.56177" lon="6.6968">
        <ele>792.74</ele>
        <time>2016-08-06T09:53:47Z</time>
      </trkpt>
      <trkpt lat="45.5616" lon="6.69614">
        <ele>794.67</ele>
        <time>2016-08-06T09:53:59Z</time>
      </trkpt>
      <trkpt lat="45.56158" lon="6.69608">
        <ele>794.67</ele>
        <time>2016-08-06T09:54:00Z</time>
      </trkpt>
      <trkpt lat="45.56156" lon="6.69596">
        <ele>794.67</ele>
        <time>2016-08-06T09:54:02Z</time>
      </trkpt>
      <trkpt lat="45.56153" lon="6.69585">
        <ele>795.15</ele>
        <time>2016-08-06T09:54:04Z</time>
      </trkpt>
      <trkpt lat="45.56139" lon="6.69517">
        <ele>797.55</ele>
        <time>2016-08-06T09:54:16Z</time>
      </trkpt>
      <trkpt lat="45.56128" lon="6.69452">
        <ele>799.47</ele>
        <time>2016-08-06T09:54:28Z</time>
      </trkpt>
      <trkpt lat="45.56129" lon="6.69396">
        <ele>801.4</ele>
        <time>2016-08-06T09:54:37Z</time>
      </trkpt>
      <trkpt lat="45.56122" lon="6.69344">
        <ele>802.84</ele>
        <time>2016-08-06T09:54:45Z</time>
      </trkpt>
      <trkpt lat="45.56121" lon="6.69331">
        <ele>803.32</ele>
        <time>2016-08-06T09:54:47Z</time>
      </trkpt>
      <trkpt lat="45.5612" lon="6.69326">
        <ele>803.32</ele>
        <time>2016-08-06T09:54:48Z</time>
      </trkpt>
      <trkpt lat="45.5611" lon="6.69255">
        <ele>805.72</ele>
        <time>2016-08-06T09:55:01Z</time>
      </trkpt>
      <trkpt lat="45.56097" lon="6.69183">
        <ele>807.16</ele>
        <time>2016-08-06T09:55:15Z</time>
      </trkpt>
      <trkpt lat="45.56071" lon="6.69112">
        <ele>809.57</ele>
        <time>2016-08-06T09:55:30Z</time>
      </trkpt>
      <trkpt lat="45.56063" lon="6.69093">
        <ele>810.05</ele>
        <time>2016-08-06T09:55:34Z</time>
      </trkpt>
      <trkpt lat="45.56056" lon="6.6908">
        <ele>810.05</ele>
        <time>2016-08-06T09:55:37Z</time>
      </trkpt>
      <trkpt lat="45.56052" lon="6.69076">
        <ele>810.53</ele>
        <time>2016-08-06T09:55:38Z</time>
      </trkpt>
      <trkpt lat="45.56045" lon="6.69062">
        <ele>810.53</ele>
        <time>2016-08-06T09:55:41Z</time>
      </trkpt>
      <trkpt lat="45.56027" lon="6.69002">
        <ele>812.45</ele>
        <time>2016-08-06T09:55:53Z</time>
      </trkpt>
      <trkpt lat="45.56021" lon="6.68988">
        <ele>812.93</ele>
        <time>2016-08-06T09:55:56Z</time>
      </trkpt>
      <trkpt lat="45.56019" lon="6.68984">
        <ele>812.93</ele>
        <time>2016-08-06T09:55:57Z</time>
      </trkpt>
      <trkpt lat="45.56016" lon="6.68979">
        <ele>812.93</ele>
        <time>2016-08-06T09:55:58Z</time>
      </trkpt>
      <trkpt lat="45.56007" lon="6.68901">
        <ele>814.85</ele>
        <time>2016-08-06T09:56:13Z</time>
      </trkpt>
      <trkpt lat="45.55966" lon="6.68852">
        <ele>816.3</ele>
        <time>2016-08-06T09:56:27Z</time>
      </trkpt>
      <trkpt lat="45.55963" lon="6.68848">
        <ele>816.3</ele>
        <time>2016-08-06T09:56:28Z</time>
      </trkpt>
      <trkpt lat="45.5596" lon="6.68844">
        <ele>817.26</ele>
        <time>2016-08-06T09:56:29Z</time>
      </trkpt>
      <trkpt lat="45.55925" lon="6.68792">
        <ele>818.7</ele>
        <time>2016-08-06T09:56:42Z</time>
      </trkpt>
      <trkpt lat="45.55923" lon="6.68788">
        <ele>818.7</ele>
        <time>2016-08-06T09:56:43Z</time>
      </trkpt>
      <trkpt lat="45.55878" lon="6.68715">
        <ele>820.62</ele>
        <time>2016-08-06T09:57:00Z</time>
      </trkpt>
      <trkpt lat="45.55824" lon="6.68641">
        <ele>823.03</ele>
        <time>2016-08-06T09:57:19Z</time>
      </trkpt>
      <trkpt lat="45.55804" lon="6.68604">
        <ele>823.99</ele>
        <time>2016-08-06T09:57:27Z</time>
      </trkpt>
      <trkpt lat="45.55801" lon="6.686">
        <ele>824.47</ele>
        <time>2016-08-06T09:57:28Z</time>
      </trkpt>
      <trkpt lat="45.55798" lon="6.68595">
        <ele>824.47</ele>
        <time>2016-08-06T09:57:29Z</time>
      </trkpt>
      <trkpt lat="45.5576" lon="6.68516">
        <ele>826.39</ele>
        <time>2016-08-06T09:57:46Z</time>
      </trkpt>
      <trkpt lat="45.55755" lon="6.68499">
        <ele>826.87</ele>
        <time>2016-08-06T09:57:49Z</time>
      </trkpt>
      <trkpt lat="45.55732" lon="6.68435">
        <ele>827.83</ele>
        <time>2016-08-06T09:58:00Z</time>
      </trkpt>
      <trkpt lat="45.55728" lon="6.68428">
        <ele>827.83</ele>
        <time>2016-08-06T09:58:01Z</time>
      </trkpt>
      <trkpt lat="45.55725" lon="6.68424">
        <ele>828.31</ele>
        <time>2016-08-06T09:58:02Z</time>
      </trkpt>
      <trkpt lat="45.5572" lon="6.68419">
        <ele>828.31</ele>
        <time>2016-08-06T09:58:03Z</time>
      </trkpt>
      <trkpt lat="45.55716" lon="6.68416">
        <ele>828.31</ele>
        <time>2016-08-06T09:58:04Z</time>
      </trkpt>
      <trkpt lat="45.55712" lon="6.68413">
        <ele>828.31</ele>
        <time>2016-08-06T09:58:05Z</time>
      </trkpt>
      <trkpt lat="45.55707" lon="6.68411">
        <ele>828.31</ele>
        <time>2016-08-06T09:58:06Z</time>
      </trkpt>
      <trkpt lat="45.55703" lon="6.68408">
        <ele>828.79</ele>
        <time>2016-08-06T09:58:07Z</time>
      </trkpt>
      <trkpt lat="45.55691" lon="6.68397">
        <ele>829.27</ele>
        <time>2016-08-06T09:58:10Z</time>
      </trkpt>
      <trkpt lat="45.55689" lon="6.68392">
        <ele>829.27</ele>
        <time>2016-08-06T09:58:11Z</time>
      </trkpt>
      <trkpt lat="45.55687" lon="6.68387">
        <ele>829.76</ele>
        <time>2016-08-06T09:58:12Z</time>
      </trkpt>
      <trkpt lat="45.55685" lon="6.6838">
        <ele>829.76</ele>
        <time>2016-08-06T09:58:13Z</time>
      </trkpt>
      <trkpt lat="45.55684" lon="6.68375">
        <ele>830.24</ele>
        <time>2016-08-06T09:58:14Z</time>
      </trkpt>
      <trkpt lat="45.55684" lon="6.68369">
        <ele>830.24</ele>
        <time>2016-08-06T09:58:15Z</time>
      </trkpt>
      <trkpt lat="45.55684" lon="6.68363">
        <ele>830.24</ele>
        <time>2016-08-06T09:58:16Z</time>
      </trkpt>
      <trkpt lat="45.55682" lon="6.68329">
        <ele>830.72</ele>
        <time>2016-08-06T09:58:21Z</time>
      </trkpt>
      <trkpt lat="45.55679" lon="6.68322">
        <ele>831.2</ele>
        <time>2016-08-06T09:58:22Z</time>
      </trkpt>
      <trkpt lat="45.5567" lon="6.68298">
        <ele>831.2</ele>
        <time>2016-08-06T09:58:26Z</time>
      </trkpt>
      <trkpt lat="45.55667" lon="6.68292">
        <ele>831.2</ele>
        <time>2016-08-06T09:58:27Z</time>
      </trkpt>
      <trkpt lat="45.55664" lon="6.68288">
        <ele>831.2</ele>
        <time>2016-08-06T09:58:28Z</time>
      </trkpt>
      <trkpt lat="45.55656" lon="6.68278">
        <ele>831.2</ele>
        <time>2016-08-06T09:58:30Z</time>
      </trkpt>
      <trkpt lat="45.55621" lon="6.68238">
        <ele>829.76</ele>
        <time>2016-08-06T09:58:38Z</time>
      </trkpt>
      <trkpt lat="45.55617" lon="6.68231">
        <ele>829.27</ele>
        <time>2016-08-06T09:58:39Z</time>
      </trkpt>
      <trkpt lat="45.55597" lon="6.68198">
        <ele>827.83</ele>
        <time>2016-08-06T09:58:44Z</time>
      </trkpt>
      <trkpt lat="45.55594" lon="6.6819">
        <ele>827.35</ele>
        <time>2016-08-06T09:58:45Z</time>
      </trkpt>
      <trkpt lat="45.55591" lon="6.68183">
        <ele>826.87</ele>
        <time>2016-08-06T09:58:46Z</time>
      </trkpt>
      <trkpt lat="45.55556" lon="6.68123">
        <ele>823.51</ele>
        <time>2016-08-06T09:58:54Z</time>
      </trkpt>
      <trkpt lat="45.55512" lon="6.68041">
        <ele>820.62</ele>
        <time>2016-08-06T09:59:03Z</time>
      </trkpt>
      <trkpt lat="45.55508" lon="6.68032">
        <ele>820.62</ele>
        <time>2016-08-06T09:59:04Z</time>
      </trkpt>
      <trkpt lat="45.55496" lon="6.68001">
        <ele>819.18</ele>
        <time>2016-08-06T09:59:07Z</time>
      </trkpt>
      <trkpt lat="45.55489" lon="6.67978">
        <ele>818.7</ele>
        <time>2016-08-06T09:59:09Z</time>
      </trkpt>
      <trkpt lat="45.55476" lon="6.67943">
        <ele>816.78</ele>
        <time>2016-08-06T09:59:12Z</time>
      </trkpt>
      <trkpt lat="45.55452" lon="6.67887">
        <ele>813.89</ele>
        <time>2016-08-06T09:59:17Z</time>
      </trkpt>
      <trkpt lat="45.55425" lon="6.67828">
        <ele>811.97</ele>
        <time>2016-08-06T09:59:22Z</time>
      </trkpt>
      <trkpt lat="45.55422" lon="6.67815">
        <ele>811.97</ele>
        <time>2016-08-06T09:59:23Z</time>
      </trkpt>
      <trkpt lat="45.55419" lon="6.67801">
        <ele>811.49</ele>
        <time>2016-08-06T09:59:24Z</time>
      </trkpt>
      <trkpt lat="45.55419" lon="6.67787">
        <ele>811.49</ele>
        <time>2016-08-06T09:59:25Z</time>
      </trkpt>
      <trkpt lat="45.55417" lon="6.67762">
        <ele>811.49</ele>
        <time>2016-08-06T09:59:27Z</time>
      </trkpt>
      <trkpt lat="45.55415" lon="6.67736">
        <ele>810.53</ele>
        <time>2016-08-06T09:59:29Z</time>
      </trkpt>
      <trkpt lat="45.55416" lon="6.67724">
        <ele>810.05</ele>
        <time>2016-08-06T09:59:30Z</time>
      </trkpt>
      <trkpt lat="45.55418" lon="6.67711">
        <ele>809.09</ele>
        <time>2016-08-06T09:59:31Z</time>
      </trkpt>
      <trkpt lat="45.55423" lon="6.67697">
        <ele>808.13</ele>
        <time>2016-08-06T09:59:32Z</time>
      </trkpt>
      <trkpt lat="45.55428" lon="6.67685">
        <ele>807.16</ele>
        <time>2016-08-06T09:59:33Z</time>
      </trkpt>
      <trkpt lat="45.55433" lon="6.67672">
        <ele>807.16</ele>
        <time>2016-08-06T09:59:34Z</time>
      </trkpt>
      <trkpt lat="45.55436" lon="6.67659">
        <ele>806.68</ele>
        <time>2016-08-06T09:59:35Z</time>
      </trkpt>
      <trkpt lat="45.55438" lon="6.67644">
        <ele>806.68</ele>
        <time>2016-08-06T09:59:36Z</time>
      </trkpt>
      <trkpt lat="45.55438" lon="6.67618">
        <ele>806.2</ele>
        <time>2016-08-06T09:59:38Z</time>
      </trkpt>
      <trkpt lat="45.55436" lon="6.67605">
        <ele>806.2</ele>
        <time>2016-08-06T09:59:39Z</time>
      </trkpt>
      <trkpt lat="45.55416" lon="6.6748">
        <ele>802.36</ele>
        <time>2016-08-06T09:59:49Z</time>
      </trkpt>
      <trkpt lat="45.55412" lon="6.67468">
        <ele>801.88</ele>
        <time>2016-08-06T09:59:50Z</time>
      </trkpt>
      <trkpt lat="45.55409" lon="6.67456">
        <ele>800.92</ele>
        <time>2016-08-06T09:59:51Z</time>
      </trkpt>
      <trkpt lat="45.55405" lon="6.67442">
        <ele>800.44</ele>
        <time>2016-08-06T09:59:52Z</time>
      </trkpt>
      <trkpt lat="45.55404" lon="6.67431">
        <ele>800.44</ele>
        <time>2016-08-06T09:59:53Z</time>
      </trkpt>
      <trkpt lat="45.55403" lon="6.67415">
        <ele>799.47</ele>
        <time>2016-08-06T09:59:54Z</time>
      </trkpt>
      <trkpt lat="45.55403" lon="6.67403">
        <ele>798.99</ele>
        <time>2016-08-06T09:59:55Z</time>
      </trkpt>
      <trkpt lat="45.55402" lon="6.67365">
        <ele>797.55</ele>
        <time>2016-08-06T09:59:58Z</time>
      </trkpt>
      <trkpt lat="45.5539" lon="6.67294">
        <ele>794.67</ele>
        <time>2016-08-06T10:00:04Z</time>
      </trkpt>
      <trkpt lat="45.55372" lon="6.67248">
        <ele>793.22</ele>
        <time>2016-08-06T10:00:08Z</time>
      </trkpt>
      <trkpt lat="45.55368" lon="6.67239">
        <ele>793.22</ele>
        <time>2016-08-06T10:00:09Z</time>
      </trkpt>
      <trkpt lat="45.55355" lon="6.67213">
        <ele>791.78</ele>
        <time>2016-08-06T10:00:14Z</time>
      </trkpt>
      <trkpt lat="45.55358" lon="6.67209">
        <ele>791.3</ele>
        <time>2016-08-06T10:00:15Z</time>
      </trkpt>
      <trkpt lat="45.55362" lon="6.67205">
        <ele>790.82</ele>
        <time>2016-08-06T10:00:16Z</time>
      </trkpt>
      <trkpt lat="45.55367" lon="6.672">
        <ele>790.34</ele>
        <time>2016-08-06T10:00:17Z</time>
      </trkpt>
      <trkpt lat="45.55371" lon="6.67192">
        <ele>788.9</ele>
        <time>2016-08-06T10:00:18Z</time>
      </trkpt>
      <trkpt lat="45.55391" lon="6.67152">
        <ele>784.57</ele>
        <time>2016-08-06T10:00:22Z</time>
      </trkpt>
      <trkpt lat="45.55409" lon="6.67123">
        <ele>779.77</ele>
        <time>2016-08-06T10:00:25Z</time>
      </trkpt>
      <trkpt lat="45.55429" lon="6.67097">
        <ele>775.92</ele>
        <time>2016-08-06T10:00:28Z</time>
      </trkpt>
      <trkpt lat="45.55444" lon="6.67078">
        <ele>772.56</ele>
        <time>2016-08-06T10:00:31Z</time>
      </trkpt>
      <trkpt lat="45.55453" lon="6.67067">
        <ele>770.15</ele>
        <time>2016-08-06T10:00:33Z</time>
      </trkpt>
      <trkpt lat="45.55458" lon="6.67061">
        <ele>769.67</ele>
        <time>2016-08-06T10:00:34Z</time>
      </trkpt>
      <trkpt lat="45.55476" lon="6.67043">
        <ele>766.31</ele>
        <time>2016-08-06T10:00:37Z</time>
      </trkpt>
      <trkpt lat="45.5548" lon="6.67039">
        <ele>765.83</ele>
        <time>2016-08-06T10:00:38Z</time>
      </trkpt>
      <trkpt lat="45.55483" lon="6.67035">
        <ele>764.87</ele>
        <time>2016-08-06T10:00:39Z</time>
      </trkpt>
      <trkpt lat="45.55485" lon="6.67032">
        <ele>764.87</ele>
        <time>2016-08-06T10:00:40Z</time>
      </trkpt>
      <trkpt lat="45.55489" lon="6.67024">
        <ele>763.9</ele>
        <time>2016-08-06T10:00:42Z</time>
      </trkpt>
      <trkpt lat="45.5549" lon="6.67015">
        <ele>762.94</ele>
        <time>2016-08-06T10:00:43Z</time>
      </trkpt>
      <trkpt lat="45.5549" lon="6.67008">
        <ele>762.46</ele>
        <time>2016-08-06T10:00:44Z</time>
      </trkpt>
      <trkpt lat="45.5549" lon="6.66999">
        <ele>761.98</ele>
        <time>2016-08-06T10:00:45Z</time>
      </trkpt>
      <trkpt lat="45.55489" lon="6.66987">
        <ele>760.54</ele>
        <time>2016-08-06T10:00:46Z</time>
      </trkpt>
      <trkpt lat="45.55486" lon="6.66948">
        <ele>756.69</ele>
        <time>2016-08-06T10:00:49Z</time>
      </trkpt>
      <trkpt lat="45.5548" lon="6.66903">
        <ele>752.85</ele>
        <time>2016-08-06T10:00:52Z</time>
      </trkpt>
      <trkpt lat="45.55478" lon="6.66872">
        <ele>750.45</ele>
        <time>2016-08-06T10:00:54Z</time>
      </trkpt>
      <trkpt lat="45.55478" lon="6.66839">
        <ele>748.04</ele>
        <time>2016-08-06T10:00:56Z</time>
      </trkpt>
      <trkpt lat="45.55476" lon="6.66822">
        <ele>747.08</ele>
        <time>2016-08-06T10:00:57Z</time>
      </trkpt>
      <trkpt lat="45.55472" lon="6.66806">
        <ele>745.16</ele>
        <time>2016-08-06T10:00:58Z</time>
      </trkpt>
      <trkpt lat="45.55465" lon="6.6679">
        <ele>744.2</ele>
        <time>2016-08-06T10:00:59Z</time>
      </trkpt>
      <trkpt lat="45.55458" lon="6.66775">
        <ele>743.72</ele>
        <time>2016-08-06T10:01:00Z</time>
      </trkpt>
      <trkpt lat="45.55436" lon="6.66726">
        <ele>740.35</ele>
        <time>2016-08-06T10:01:03Z</time>
      </trkpt>
      <trkpt lat="45.55413" lon="6.66665">
        <ele>736.99</ele>
        <time>2016-08-06T10:01:07Z</time>
      </trkpt>
      <trkpt lat="45.55398" lon="6.6662">
        <ele>734.1</ele>
        <time>2016-08-06T10:01:10Z</time>
      </trkpt>
      <trkpt lat="45.55395" lon="6.66605">
        <ele>733.14</ele>
        <time>2016-08-06T10:01:11Z</time>
      </trkpt>
      <trkpt lat="45.55395" lon="6.66589">
        <ele>732.18</ele>
        <time>2016-08-06T10:01:12Z</time>
      </trkpt>
      <trkpt lat="45.55398" lon="6.66572">
        <ele>730.74</ele>
        <time>2016-08-06T10:01:13Z</time>
      </trkpt>
      <trkpt lat="45.55402" lon="6.66556">
        <ele>729.3</ele>
        <time>2016-08-06T10:01:14Z</time>
      </trkpt>
      <trkpt lat="45.55407" lon="6.66539">
        <ele>727.86</ele>
        <time>2016-08-06T10:01:15Z</time>
      </trkpt>
      <trkpt lat="45.55414" lon="6.66521">
        <ele>726.41</ele>
        <time>2016-08-06T10:01:16Z</time>
      </trkpt>
      <trkpt lat="45.55427" lon="6.66478">
        <ele>723.05</ele>
        <time>2016-08-06T10:01:19Z</time>
      </trkpt>
      <trkpt lat="45.55429" lon="6.66462">
        <ele>722.09</ele>
        <time>2016-08-06T10:01:20Z</time>
      </trkpt>
      <trkpt lat="45.55429" lon="6.66445">
        <ele>720.65</ele>
        <time>2016-08-06T10:01:21Z</time>
      </trkpt>
      <trkpt lat="45.55425" lon="6.66429">
        <ele>719.2</ele>
        <time>2016-08-06T10:01:22Z</time>
      </trkpt>
      <trkpt lat="45.55421" lon="6.66412">
        <ele>717.76</ele>
        <time>2016-08-06T10:01:23Z</time>
      </trkpt>
      <trkpt lat="45.55418" lon="6.66395">
        <ele>716.8</ele>
        <time>2016-08-06T10:01:24Z</time>
      </trkpt>
      <trkpt lat="45.55418" lon="6.66378">
        <ele>715.84</ele>
        <time>2016-08-06T10:01:25Z</time>
      </trkpt>
      <trkpt lat="45.55417" lon="6.6636">
        <ele>714.88</ele>
        <time>2016-08-06T10:01:26Z</time>
      </trkpt>
      <trkpt lat="45.55419" lon="6.66343">
        <ele>713.92</ele>
        <time>2016-08-06T10:01:27Z</time>
      </trkpt>
      <trkpt lat="45.55423" lon="6.66325">
        <ele>712.47</ele>
        <time>2016-08-06T10:01:28Z</time>
      </trkpt>
      <trkpt lat="45.55426" lon="6.66308">
        <ele>711.51</ele>
        <time>2016-08-06T10:01:29Z</time>
      </trkpt>
      <trkpt lat="45.55431" lon="6.66274">
        <ele>708.63</ele>
        <time>2016-08-06T10:01:31Z</time>
      </trkpt>
      <trkpt lat="45.5543" lon="6.66257">
        <ele>707.67</ele>
        <time>2016-08-06T10:01:32Z</time>
      </trkpt>
      <trkpt lat="45.55427" lon="6.66239">
        <ele>706.23</ele>
        <time>2016-08-06T10:01:33Z</time>
      </trkpt>
      <trkpt lat="45.55423" lon="6.66223">
        <ele>705.26</ele>
        <time>2016-08-06T10:01:34Z</time>
      </trkpt>
      <trkpt lat="45.55419" lon="6.66206">
        <ele>704.78</ele>
        <time>2016-08-06T10:01:35Z</time>
      </trkpt>
      <trkpt lat="45.55416" lon="6.6619">
        <ele>704.78</ele>
        <time>2016-08-06T10:01:36Z</time>
      </trkpt>
      <trkpt lat="45.55415" lon="6.66175">
        <ele>704.78</ele>
        <time>2016-08-06T10:01:37Z</time>
      </trkpt>
      <trkpt lat="45.55415" lon="6.6616">
        <ele>704.78</ele>
        <time>2016-08-06T10:01:38Z</time>
      </trkpt>
      <trkpt lat="45.55416" lon="6.66145">
        <ele>704.3</ele>
        <time>2016-08-06T10:01:39Z</time>
      </trkpt>
      <trkpt lat="45.55417" lon="6.6613">
        <ele>705.26</ele>
        <time>2016-08-06T10:01:40Z</time>
      </trkpt>
      <trkpt lat="45.55426" lon="6.66078">
        <ele>701.9</ele>
        <time>2016-08-06T10:01:44Z</time>
      </trkpt>
      <trkpt lat="45.55425" lon="6.66067">
        <ele>700.94</ele>
        <time>2016-08-06T10:01:45Z</time>
      </trkpt>
      <trkpt lat="45.55423" lon="6.66059">
        <ele>700.46</ele>
        <time>2016-08-06T10:01:46Z</time>
      </trkpt>
      <trkpt lat="45.55421" lon="6.66051">
        <ele>699.98</ele>
        <time>2016-08-06T10:01:47Z</time>
      </trkpt>
      <trkpt lat="45.55422" lon="6.66045">
        <ele>699.5</ele>
        <time>2016-08-06T10:01:48Z</time>
      </trkpt>
      <trkpt lat="45.55424" lon="6.66041">
        <ele>699.02</ele>
        <time>2016-08-06T10:01:49Z</time>
      </trkpt>
      <trkpt lat="45.55426" lon="6.6604">
        <ele>698.53</ele>
        <time>2016-08-06T10:01:50Z</time>
      </trkpt>
      <trkpt lat="45.55429" lon="6.66041">
        <ele>699.02</ele>
        <time>2016-08-06T10:01:51Z</time>
      </trkpt>
      <trkpt lat="45.55432" lon="6.66043">
        <ele>698.05</ele>
        <time>2016-08-06T10:01:52Z</time>
      </trkpt>
      <trkpt lat="45.55436" lon="6.66047">
        <ele>698.05</ele>
        <time>2016-08-06T10:01:53Z</time>
      </trkpt>
      <trkpt lat="45.55459" lon="6.6607">
        <ele>695.65</ele>
        <time>2016-08-06T10:01:57Z</time>
      </trkpt>
      <trkpt lat="45.55465" lon="6.66079">
        <ele>694.69</ele>
        <time>2016-08-06T10:01:58Z</time>
      </trkpt>
      <trkpt lat="45.55478" lon="6.661">
        <ele>692.77</ele>
        <time>2016-08-06T10:02:00Z</time>
      </trkpt>
      <trkpt lat="45.55483" lon="6.66113">
        <ele>691.33</ele>
        <time>2016-08-06T10:02:01Z</time>
      </trkpt>
      <trkpt lat="45.55498" lon="6.66149">
        <ele>690.36</ele>
        <time>2016-08-06T10:02:04Z</time>
      </trkpt>
      <trkpt lat="45.55507" lon="6.66159">
        <ele>689.88</ele>
        <time>2016-08-06T10:02:05Z</time>
      </trkpt>
      <trkpt lat="45.55516" lon="6.66165">
        <ele>688.92</ele>
        <time>2016-08-06T10:02:06Z</time>
      </trkpt>
      <trkpt lat="45.55527" lon="6.66167">
        <ele>688.44</ele>
        <time>2016-08-06T10:02:07Z</time>
      </trkpt>
      <trkpt lat="45.55537" lon="6.66164">
        <ele>688.44</ele>
        <time>2016-08-06T10:02:08Z</time>
      </trkpt>
      <trkpt lat="45.55546" lon="6.66159">
        <ele>688.44</ele>
        <time>2016-08-06T10:02:09Z</time>
      </trkpt>
      <trkpt lat="45.55554" lon="6.66154">
        <ele>688.44</ele>
        <time>2016-08-06T10:02:10Z</time>
      </trkpt>
      <trkpt lat="45.5556" lon="6.66151">
        <ele>687.96</ele>
        <time>2016-08-06T10:02:11Z</time>
      </trkpt>
      <trkpt lat="45.55566" lon="6.6615">
        <ele>687.96</ele>
        <time>2016-08-06T10:02:12Z</time>
      </trkpt>
      <trkpt lat="45.55571" lon="6.66151">
        <ele>687.96</ele>
        <time>2016-08-06T10:02:13Z</time>
      </trkpt>
      <trkpt lat="45.55587" lon="6.66137">
        <ele>687.48</ele>
        <time>2016-08-06T10:02:19Z</time>
      </trkpt>
      <trkpt lat="45.55586" lon="6.66138">
        <ele>687.48</ele>
        <time>2016-08-06T10:02:35Z</time>
      </trkpt>
      <trkpt lat="45.55586" lon="6.66141">
        <ele>687</ele>
        <time>2016-08-06T10:03:07Z</time>
      </trkpt>
      <trkpt lat="45.55585" lon="6.66139">
        <ele>686.52</ele>
        <time>2016-08-06T10:03:28Z</time>
      </trkpt>
      <trkpt lat="45.55584" lon="6.6614">
        <ele>686.52</ele>
        <time>2016-08-06T10:03:54Z</time>
      </trkpt>
      <trkpt lat="45.55584" lon="6.66139">
        <ele>686.04</ele>
        <time>2016-08-06T10:04:19Z</time>
      </trkpt>
      <trkpt lat="45.55585" lon="6.66137">
        <ele>686.04</ele>
        <time>2016-08-06T10:04:27Z</time>
      </trkpt>
    </trkseg>
  </trk>
</gpx>